<?xml version='1.0' encoding='UTF-8'?><gpx version="1.1" creator="JPX - https://github.com/jenetics/jpx" xmlns="http://www.topografix.com/GPX/1/1"><trk><trkseg><trkpt lat="43.17793526799093" lon="2.991592107861039"><ele>14.000000000000002</ele><time>2026-04-10T09:38:15.993Z</time></trkpt><trkpt lat="43.177956747279374" lon="2.991492857585012"><ele>14.0</ele><time>2026-04-10T09:38:18.995Z</time></trkpt><trkpt lat="43.177983439262384" lon="2.991372431456069"><ele>14.0</ele><time>2026-04-10T09:38:21.996Z</time></trkpt><trkpt lat="43.178001673730115" lon="2.991289660704294"><ele>14.0</ele><time>2026-04-10T09:38:23.996Z</time></trkpt><trkpt lat="43.17803288318163" lon="2.9911730448513847"><ele>14.000000000000002</ele><time>2026-04-10T09:38:26.997Z</time></trkpt><trkpt lat="43.17805823325127" lon="2.991079553196939"><ele>14.0</ele><time>2026-04-10T09:38:28.997Z</time></trkpt><trkpt lat="43.17809304905626" lon="2.99097052414935"><ele>14.000000000000002</ele><time>2026-04-10T09:38:31.998Z</time></trkpt><trkpt lat="43.178119786423274" lon="2.9908592663174263"><ele>14.0</ele><time>2026-04-10T09:38:34.998Z</time></trkpt><trkpt lat="43.17814777059279" lon="2.990739445374624"><ele>14.0</ele><time>2026-04-10T09:38:37.998Z</time></trkpt><trkpt lat="43.17816318497253" lon="2.9906236660774557"><ele>14.0</ele><time>2026-04-10T09:38:40.999Z</time></trkpt><trkpt lat="43.17818508603569" lon="2.990539157506573"><ele>14.000000000000002</ele><time>2026-04-10T09:38:42.999Z</time></trkpt><trkpt lat="43.17820608074371" lon="2.990449558338125"><ele>14.0</ele><time>2026-04-10T09:38:44.999Z</time></trkpt><trkpt lat="43.178230502480154" lon="2.990354273031197"><ele>14.333333333333334</ele><time>2026-04-10T09:38:46.999Z</time></trkpt><trkpt lat="43.178248859852275" lon="2.990265567341184"><ele>14.666666666666668</ele><time>2026-04-10T09:38:48.999Z</time></trkpt><trkpt lat="43.178274546434835" lon="2.9901725558872694"><ele>15.0</ele><time>2026-04-10T09:38:50.999Z</time></trkpt><trkpt lat="43.1782982952351" lon="2.9900605014040345"><ele>15.333333333333332</ele><time>2026-04-10T09:38:53.999Z</time></trkpt><trkpt lat="43.1782797356014" lon="2.9899247374050395"><ele>15.666666666666666</ele><time>2026-04-10T09:38:57.999Z</time></trkpt><trkpt lat="43.178232790566675" lon="2.9898291980105225"><ele>16.0</ele><time>2026-04-10T09:39:00.999Z</time></trkpt><trkpt lat="43.17818848454078" lon="2.9897622927692282"><ele>15.333333333333332</ele><time>2026-04-10T09:39:02.999Z</time></trkpt><trkpt lat="43.17815405431712" lon="2.989686725864889"><ele>14.666666666666666</ele><time>2026-04-10T09:39:09Z</time></trkpt><trkpt lat="43.178067334351326" lon="2.989683276587347"><ele>14.0</ele><time>2026-04-10T09:39:12Z</time></trkpt><trkpt lat="43.17799218212852" lon="2.9897050099853684"><ele>13.333333333333332</ele><time>2026-04-10T09:39:14Z</time></trkpt><trkpt lat="43.177923590157604" lon="2.9896987496608975"><ele>12.666666666666666</ele><time>2026-04-10T09:39:15.999Z</time></trkpt><trkpt lat="43.177852390229596" lon="2.9896977113105705"><ele>12.0</ele><time>2026-04-10T09:39:17.999Z</time></trkpt><trkpt lat="43.17775382120581" lon="2.989701265048143"><ele>12.0</ele><time>2026-04-10T09:39:20.999Z</time></trkpt><trkpt lat="43.17767075572115" lon="2.989710563053451"><ele>12.0</ele><time>2026-04-10T09:39:22.999Z</time></trkpt><trkpt lat="43.177580931459545" lon="2.989721897126273"><ele>12.0</ele><time>2026-04-10T09:39:24.999Z</time></trkpt><trkpt lat="43.17749094609588" lon="2.989736466314228"><ele>12.0</ele><time>2026-04-10T09:39:26.999Z</time></trkpt><trkpt lat="43.17738155254458" lon="2.989760527452672"><ele>12.0</ele><time>2026-04-10T09:39:28.999Z</time></trkpt><trkpt lat="43.1772681284528" lon="2.989777219527069"><ele>11.2</ele><time>2026-04-10T09:39:30.999Z</time></trkpt><trkpt lat="43.17715360051725" lon="2.9897994024811636"><ele>10.399999999999999</ele><time>2026-04-10T09:39:32.999Z</time></trkpt><trkpt lat="43.177043080119745" lon="2.989813663419308"><ele>9.600000000000001</ele><time>2026-04-10T09:39:34.999Z</time></trkpt><trkpt lat="43.17692106304862" lon="2.9898327328892584"><ele>8.8</ele><time>2026-04-10T09:39:36.999Z</time></trkpt><trkpt lat="43.176826181700314" lon="2.9898648973172186"><ele>8.0</ele><time>2026-04-10T09:39:38.999Z</time></trkpt><trkpt lat="43.17673581795656" lon="2.9899010922409874"><ele>7.999999999999999</ele><time>2026-04-10T09:39:40.999Z</time></trkpt><trkpt lat="43.17664001718779" lon="2.989882127090108"><ele>8.0</ele><time>2026-04-10T09:39:42.999Z</time></trkpt><trkpt lat="43.17660567698913" lon="2.9897419330444346"><ele>8.0</ele><time>2026-04-10T09:39:44.999Z</time></trkpt><trkpt lat="43.17663338589457" lon="2.989627005581616"><ele>8.0</ele><time>2026-04-10T09:39:46.999Z</time></trkpt><trkpt lat="43.17664632868262" lon="2.9895052387637637"><ele>7.999999999999999</ele><time>2026-04-10T09:39:48.999Z</time></trkpt><trkpt lat="43.17665462467732" lon="2.989418414189197"><ele>8.0</ele><time>2026-04-10T09:39:50.999Z</time></trkpt><trkpt lat="43.176663846231975" lon="2.9893162114995957"><ele>8.0</ele><time>2026-04-10T09:39:52.999Z</time></trkpt><trkpt lat="43.17667431546172" lon="2.9892023220026838"><ele>8.0</ele><time>2026-04-10T09:39:55.999Z</time></trkpt><trkpt lat="43.17653527131993" lon="2.9892322465270715"><ele>8.0</ele><time>2026-04-10T09:40:01.999Z</time></trkpt><trkpt lat="43.17652163495033" lon="2.9893181750862703"><ele>8.0</ele><time>2026-04-10T09:40:03.999Z</time></trkpt><trkpt lat="43.17648418297091" lon="2.989415702087645"><ele>8.0</ele><time>2026-04-10T09:40:06.999Z</time></trkpt><trkpt lat="43.17666225112384" lon="2.9893338901118875"><ele>8.0</ele><time>2026-04-10T09:40:10.999Z</time></trkpt><trkpt lat="43.176470629737196" lon="2.9892189414745163"><ele>8.0</ele><time>2026-04-10T09:40:12.999Z</time></trkpt><trkpt lat="43.17647832857363" lon="2.9891054211370145"><ele>8.0</ele><time>2026-04-10T09:40:15.999Z</time></trkpt><trkpt lat="43.17644270155074" lon="2.988998279991779"><ele>8.0</ele><time>2026-04-10T09:40:19Z</time></trkpt><trkpt lat="43.176410908505034" lon="2.988896979653708"><ele>8.333333333333332</ele><time>2026-04-10T09:40:22Z</time></trkpt><trkpt lat="43.176335625184436" lon="2.988821461718404"><ele>8.666666666666666</ele><time>2026-04-10T09:40:25Z</time></trkpt><trkpt lat="43.176280561824406" lon="2.9887728834387732"><ele>9.0</ele><time>2026-04-10T09:40:27Z</time></trkpt><trkpt lat="43.17619649575222" lon="2.9887041198188715"><ele>9.333333333333334</ele><time>2026-04-10T09:40:30Z</time></trkpt><trkpt lat="43.176137544603144" lon="2.988654117533445"><ele>9.666666666666668</ele><time>2026-04-10T09:40:32Z</time></trkpt><trkpt lat="43.1760778578671" lon="2.988615120448059"><ele>10.0</ele><time>2026-04-10T09:40:34Z</time></trkpt><trkpt lat="43.17600474590786" lon="2.988554205806631"><ele>10.0</ele><time>2026-04-10T09:40:37Z</time></trkpt><trkpt lat="43.17594284907578" lon="2.988509652537166"><ele>10.0</ele><time>2026-04-10T09:40:39Z</time></trkpt><trkpt lat="43.17587375437103" lon="2.988458490539071"><ele>10.0</ele><time>2026-04-10T09:40:41Z</time></trkpt><trkpt lat="43.17578943665387" lon="2.9884045211026056"><ele>10.0</ele><time>2026-04-10T09:40:44Z</time></trkpt><trkpt lat="43.175728995261295" lon="2.988367315549388"><ele>10.0</ele><time>2026-04-10T09:40:46Z</time></trkpt><trkpt lat="43.17567075649227" lon="2.9883126923283108"><ele>10.0</ele><time>2026-04-10T09:40:48Z</time></trkpt><trkpt lat="43.175602855030455" lon="2.9882624370698636"><ele>10.5</ele><time>2026-04-10T09:40:50Z</time></trkpt><trkpt lat="43.17553567069983" lon="2.988203700400144"><ele>11.0</ele><time>2026-04-10T09:40:52Z</time></trkpt><trkpt lat="43.17546854360755" lon="2.9881572982318088"><ele>11.5</ele><time>2026-04-10T09:40:54Z</time></trkpt><trkpt lat="43.17540203951384" lon="2.9881116618294064"><ele>12.0</ele><time>2026-04-10T09:40:56Z</time></trkpt><trkpt lat="43.17532303548068" lon="2.9881253673511936"><ele>12.499999999999998</ele><time>2026-04-10T09:40:58Z</time></trkpt><trkpt lat="43.17524111641044" lon="2.988138795109557"><ele>13.0</ele><time>2026-04-10T09:41:00Z</time></trkpt><trkpt lat="43.17516844602014" lon="2.988141250033238"><ele>12.999999999999998</ele><time>2026-04-10T09:41:02Z</time></trkpt><trkpt lat="43.17509058548917" lon="2.9881500444699465"><ele>13.0</ele><time>2026-04-10T09:41:04Z</time></trkpt><trkpt lat="43.17501052683947" lon="2.9881597517400307"><ele>13.0</ele><time>2026-04-10T09:41:06Z</time></trkpt><trkpt lat="43.17493365002348" lon="2.9881768501490806"><ele>13.0</ele><time>2026-04-10T09:41:08Z</time></trkpt><trkpt lat="43.174855960068385" lon="2.98819005296823"><ele>12.999999999999998</ele><time>2026-04-10T09:41:09.999Z</time></trkpt><trkpt lat="43.17477219099224" lon="2.988202438569619"><ele>13.0</ele><time>2026-04-10T09:41:11.999Z</time></trkpt><trkpt lat="43.174695111507695" lon="2.988226663732278"><ele>13.166666666666666</ele><time>2026-04-10T09:41:13.999Z</time></trkpt><trkpt lat="43.17460985154673" lon="2.98824199337951"><ele>13.333333333333332</ele><time>2026-04-10T09:41:15.999Z</time></trkpt><trkpt lat="43.17453161892844" lon="2.9882587740524325"><ele>13.5</ele><time>2026-04-10T09:41:17.999Z</time></trkpt><trkpt lat="43.174444580572946" lon="2.9882772740883246"><ele>13.666666666666668</ele><time>2026-04-10T09:41:19.999Z</time></trkpt><trkpt lat="43.174366460081416" lon="2.9882930068597977"><ele>13.833333333333334</ele><time>2026-04-10T09:41:21.999Z</time></trkpt><trkpt lat="43.17429147411533" lon="2.988306992887971"><ele>14.0</ele><time>2026-04-10T09:41:23.999Z</time></trkpt><trkpt lat="43.17421414886628" lon="2.9883178364201686"><ele>14.000000000000002</ele><time>2026-04-10T09:41:25.999Z</time></trkpt><trkpt lat="43.17413365509339" lon="2.98833637891743"><ele>14.0</ele><time>2026-04-10T09:41:27.999Z</time></trkpt><trkpt lat="43.17404935295276" lon="2.9883443629638755"><ele>14.0</ele><time>2026-04-10T09:41:29.999Z</time></trkpt><trkpt lat="43.173972083622765" lon="2.988355427522139"><ele>14.0</ele><time>2026-04-10T09:41:31.999Z</time></trkpt><trkpt lat="43.1738918531116" lon="2.9883722193418896"><ele>14.000000000000002</ele><time>2026-04-10T09:41:33.999Z</time></trkpt><trkpt lat="43.17381091606464" lon="2.988383553718815"><ele>14.0</ele><time>2026-04-10T09:41:35.999Z</time></trkpt><trkpt lat="43.173734537448105" lon="2.988387843367695"><ele>14.000000000000002</ele><time>2026-04-10T09:41:37.999Z</time></trkpt><trkpt lat="43.173646926352276" lon="2.9883978999895446"><ele>14.0</ele><time>2026-04-10T09:41:39.999Z</time></trkpt><trkpt lat="43.173566814622085" lon="2.9884034736361653"><ele>14.0</ele><time>2026-04-10T09:41:41.999Z</time></trkpt><trkpt lat="43.17347929087573" lon="2.988417932657276"><ele>14.0</ele><time>2026-04-10T09:41:43.999Z</time></trkpt><trkpt lat="43.173395937212725" lon="2.9884402498169806"><ele>14.000000000000002</ele><time>2026-04-10T09:41:45.999Z</time></trkpt><trkpt lat="43.173314732987166" lon="2.9884452101908483"><ele>14.0</ele><time>2026-04-10T09:41:47.999Z</time></trkpt><trkpt lat="43.173232324495764" lon="2.98845316673564"><ele>14.000000000000002</ele><time>2026-04-10T09:41:49.999Z</time></trkpt><trkpt lat="43.17314990586547" lon="2.988476637538074"><ele>14.0</ele><time>2026-04-10T09:41:51.999Z</time></trkpt><trkpt lat="43.17306408098115" lon="2.9884888117952277"><ele>14.0</ele><time>2026-04-10T09:41:53.999Z</time></trkpt><trkpt lat="43.1729862571627" lon="2.988505702371194"><ele>14.0</ele><time>2026-04-10T09:41:55.999Z</time></trkpt><trkpt lat="43.172910174081004" lon="2.988512846209032"><ele>14.000000000000002</ele><time>2026-04-10T09:41:57.999Z</time></trkpt><trkpt lat="43.172830235499056" lon="2.9885164078347777"><ele>14.0</ele><time>2026-04-10T09:41:59.999Z</time></trkpt><trkpt lat="43.172740538515015" lon="2.98853115464767"><ele>14.000000000000002</ele><time>2026-04-10T09:42:01.999Z</time></trkpt><trkpt lat="43.172641861212355" lon="2.988536139771034"><ele>14.0</ele><time>2026-04-10T09:42:03.999Z</time></trkpt><trkpt lat="43.17255359964294" lon="2.9885223490430204"><ele>14.0</ele><time>2026-04-10T09:42:05.999Z</time></trkpt><trkpt lat="43.172467884947736" lon="2.9885099601513425"><ele>14.0</ele><time>2026-04-10T09:42:07.999Z</time></trkpt><trkpt lat="43.17238612537633" lon="2.9884831266126"><ele>14.000000000000002</ele><time>2026-04-10T09:42:09.999Z</time></trkpt><trkpt lat="43.17230421591879" lon="2.9884567666860877"><ele>14.0</ele><time>2026-04-10T09:42:11.999Z</time></trkpt><trkpt lat="43.17221820371923" lon="2.988419018268617"><ele>13.833333333333334</ele><time>2026-04-10T09:42:13.999Z</time></trkpt><trkpt lat="43.172133109525596" lon="2.9883849617268052"><ele>13.666666666666668</ele><time>2026-04-10T09:42:15.999Z</time></trkpt><trkpt lat="43.17204029427263" lon="2.9883518645024245"><ele>13.5</ele><time>2026-04-10T09:42:17.999Z</time></trkpt><trkpt lat="43.17195697156678" lon="2.9883155616653174"><ele>13.333333333333332</ele><time>2026-04-10T09:42:19.999Z</time></trkpt><trkpt lat="43.171874272273755" lon="2.988271529009125"><ele>13.166666666666666</ele><time>2026-04-10T09:42:21.999Z</time></trkpt><trkpt lat="43.17179488234015" lon="2.9882394833855352"><ele>13.0</ele><time>2026-04-10T09:42:23.999Z</time></trkpt><trkpt lat="43.17171765077074" lon="2.9882003972600217"><ele>12.999999999999998</ele><time>2026-04-10T09:42:26Z</time></trkpt><trkpt lat="43.17163566604393" lon="2.9881688237136284"><ele>13.0</ele><time>2026-04-10T09:42:28Z</time></trkpt><trkpt lat="43.171553229693934" lon="2.988134366071161"><ele>13.0</ele><time>2026-04-10T09:42:30Z</time></trkpt><trkpt lat="43.171464188749184" lon="2.9880973264268014"><ele>13.0</ele><time>2026-04-10T09:42:32Z</time></trkpt><trkpt lat="43.171375994581965" lon="2.9880468854759767"><ele>12.999999999999998</ele><time>2026-04-10T09:42:34Z</time></trkpt><trkpt lat="43.171294951395545" lon="2.9880108566569854"><ele>13.0</ele><time>2026-04-10T09:42:36Z</time></trkpt><trkpt lat="43.17121100366511" lon="2.987982497377608"><ele>13.166666666666666</ele><time>2026-04-10T09:42:38Z</time></trkpt><trkpt lat="43.17112807218919" lon="2.987937783592042"><ele>13.333333333333332</ele><time>2026-04-10T09:42:40Z</time></trkpt><trkpt lat="43.17105084579848" lon="2.9879050785706065"><ele>13.5</ele><time>2026-04-10T09:42:42Z</time></trkpt><trkpt lat="43.17096423964243" lon="2.9878719461401664"><ele>13.666666666666668</ele><time>2026-04-10T09:42:44Z</time></trkpt><trkpt lat="43.170887126393836" lon="2.987832322285187"><ele>13.833333333333334</ele><time>2026-04-10T09:42:46Z</time></trkpt><trkpt lat="43.17080703511143" lon="2.9878071496207594"><ele>14.0</ele><time>2026-04-10T09:42:48Z</time></trkpt><trkpt lat="43.17072440275566" lon="2.98776803836532"><ele>13.833333333333334</ele><time>2026-04-10T09:42:50Z</time></trkpt><trkpt lat="43.17064862076525" lon="2.9877333456884103"><ele>13.666666666666668</ele><time>2026-04-10T09:42:52Z</time></trkpt><trkpt lat="43.170574513278304" lon="2.987706436333444"><ele>13.5</ele><time>2026-04-10T09:42:54Z</time></trkpt><trkpt lat="43.170496893907256" lon="2.9876656278977975"><ele>13.333333333333332</ele><time>2026-04-10T09:42:56Z</time></trkpt><trkpt lat="43.17041674360632" lon="2.9876298485318515"><ele>13.166666666666666</ele><time>2026-04-10T09:42:58Z</time></trkpt><trkpt lat="43.17034744522922" lon="2.98759459317291"><ele>13.0</ele><time>2026-04-10T09:43:00Z</time></trkpt><trkpt lat="43.17027440451755" lon="2.987567939235494"><ele>12.999999999999998</ele><time>2026-04-10T09:43:02Z</time></trkpt><trkpt lat="43.170204110680075" lon="2.987536269252806"><ele>13.0</ele><time>2026-04-10T09:43:04Z</time></trkpt><trkpt lat="43.1701357811749" lon="2.9874945583408"><ele>13.0</ele><time>2026-04-10T09:43:06Z</time></trkpt><trkpt lat="43.17011134230476" lon="2.9874131127798744"><ele>13.0</ele><time>2026-04-10T09:43:09Z</time></trkpt><trkpt lat="43.17007512752989" lon="2.9873407306421584"><ele>12.999999999999998</ele><time>2026-04-10T09:43:11Z</time></trkpt><trkpt lat="43.17001501840715" lon="2.9872632327031807"><ele>13.0</ele><time>2026-04-10T09:43:12.999Z</time></trkpt><trkpt lat="43.169937898446285" lon="2.98719103559514"><ele>12.8</ele><time>2026-04-10T09:43:14.999Z</time></trkpt><trkpt lat="43.16984061841257" lon="2.9871842330543665"><ele>12.600000000000001</ele><time>2026-04-10T09:43:16.999Z</time></trkpt><trkpt lat="43.16974212601304" lon="2.987196925739305"><ele>12.399999999999999</ele><time>2026-04-10T09:43:18.999Z</time></trkpt><trkpt lat="43.16965472529771" lon="2.9871638424599234"><ele>12.2</ele><time>2026-04-10T09:43:20.999Z</time></trkpt><trkpt lat="43.169570324098586" lon="2.9871225273180393"><ele>12.0</ele><time>2026-04-10T09:43:22.999Z</time></trkpt><trkpt lat="43.169481559469446" lon="2.9870947706460114"><ele>12.0</ele><time>2026-04-10T09:43:24.999Z</time></trkpt><trkpt lat="43.16943649663621" lon="2.9869912668616463"><ele>12.0</ele><time>2026-04-10T09:43:26.999Z</time></trkpt><trkpt lat="43.16945655344024" lon="2.9868763666614275"><ele>12.0</ele><time>2026-04-10T09:43:28.999Z</time></trkpt><trkpt lat="43.16949329622703" lon="2.986777551293141"><ele>12.0</ele><time>2026-04-10T09:43:30.999Z</time></trkpt><trkpt lat="43.16951503626506" lon="2.9866737520395903"><ele>12.0</ele><time>2026-04-10T09:43:32.999Z</time></trkpt><trkpt lat="43.16953894501233" lon="2.9865690002893106"><ele>12.0</ele><time>2026-04-10T09:43:34.999Z</time></trkpt><trkpt lat="43.169561110170534" lon="2.986466095482967"><ele>12.166666666666666</ele><time>2026-04-10T09:43:36.999Z</time></trkpt><trkpt lat="43.1695792505629" lon="2.9863627569753315"><ele>12.333333333333332</ele><time>2026-04-10T09:43:38.999Z</time></trkpt><trkpt lat="43.169588896305164" lon="2.9862537553425064"><ele>12.5</ele><time>2026-04-10T09:43:40.999Z</time></trkpt><trkpt lat="43.16955681017935" lon="2.9861550057221797"><ele>12.666666666666666</ele><time>2026-04-10T09:43:42.999Z</time></trkpt><trkpt lat="43.16950379090684" lon="2.9860851428497037"><ele>12.833333333333332</ele><time>2026-04-10T09:43:44.999Z</time></trkpt><trkpt lat="43.169451494854194" lon="2.986001174126842"><ele>13.0</ele><time>2026-04-10T09:43:46.999Z</time></trkpt><trkpt lat="43.16939913015343" lon="2.9859163101223456"><ele>13.499999999999998</ele><time>2026-04-10T09:43:48.999Z</time></trkpt><trkpt lat="43.16934121446009" lon="2.985824867544318"><ele>14.0</ele><time>2026-04-10T09:43:50.999Z</time></trkpt><trkpt lat="43.16927776888248" lon="2.9857436919778366"><ele>14.5</ele><time>2026-04-10T09:43:52.999Z</time></trkpt><trkpt lat="43.16922974795898" lon="2.985658634559686"><ele>15.0</ele><time>2026-04-10T09:43:54.999Z</time></trkpt><trkpt lat="43.169177754307796" lon="2.9855670410594306"><ele>15.499999999999998</ele><time>2026-04-10T09:43:56.999Z</time></trkpt><trkpt lat="43.169122523844706" lon="2.9854754405642523"><ele>16.0</ele><time>2026-04-10T09:43:58.999Z</time></trkpt><trkpt lat="43.16906467113164" lon="2.985369665500814"><ele>15.8</ele><time>2026-04-10T09:44:00.999Z</time></trkpt><trkpt lat="43.16900219333591" lon="2.9852690978702188"><ele>15.600000000000001</ele><time>2026-04-10T09:44:02.999Z</time></trkpt><trkpt lat="43.168944201579436" lon="2.9851651886341632"><ele>15.4</ele><time>2026-04-10T09:44:04.999Z</time></trkpt><trkpt lat="43.16888303642897" lon="2.9850648195623366"><ele>15.2</ele><time>2026-04-10T09:44:06.999Z</time></trkpt><trkpt lat="43.16882929298119" lon="2.9849627467315267"><ele>15.0</ele><time>2026-04-10T09:44:08.999Z</time></trkpt><trkpt lat="43.16881481795092" lon="2.984845832712488"><ele>15.0</ele><time>2026-04-10T09:44:10.999Z</time></trkpt><trkpt lat="43.1688673466697" lon="2.984744758674424"><ele>15.0</ele><time>2026-04-10T09:44:12.999Z</time></trkpt><trkpt lat="43.16891835867263" lon="2.984649580463194"><ele>15.0</ele><time>2026-04-10T09:44:14.999Z</time></trkpt><trkpt lat="43.16896260516701" lon="2.9845654097943473"><ele>15.0</ele><time>2026-04-10T09:44:16.999Z</time></trkpt><trkpt lat="43.16899758320187" lon="2.9844836094573846"><ele>15.0</ele><time>2026-04-10T09:44:18.999Z</time></trkpt><trkpt lat="43.16903041394349" lon="2.984409829771831"><ele>15.0</ele><time>2026-04-10T09:44:20.999Z</time></trkpt><trkpt lat="43.169071621147936" lon="2.9843059787925776"><ele>15.0</ele><time>2026-04-10T09:44:23.999Z</time></trkpt><trkpt lat="43.16911831817041" lon="2.98419790894727"><ele>15.0</ele><time>2026-04-10T09:44:26.999Z</time></trkpt><trkpt lat="43.169150404746894" lon="2.9841204379753408"><ele>15.0</ele><time>2026-04-10T09:44:28.999Z</time></trkpt><trkpt lat="43.16918369791702" lon="2.9840451930948"><ele>15.0</ele><time>2026-04-10T09:44:30.999Z</time></trkpt><trkpt lat="43.169226280259636" lon="2.983942839306239"><ele>15.0</ele><time>2026-04-10T09:44:33.999Z</time></trkpt><trkpt lat="43.169267070527475" lon="2.9838235735664305"><ele>15.0</ele><time>2026-04-10T09:44:37Z</time></trkpt><trkpt lat="43.169288293839536" lon="2.983731716533984"><ele>15.0</ele><time>2026-04-10T09:44:39Z</time></trkpt><trkpt lat="43.16932029624711" lon="2.9836507438341293"><ele>15.0</ele><time>2026-04-10T09:44:41Z</time></trkpt><trkpt lat="43.16934159107645" lon="2.983566065376721"><ele>15.0</ele><time>2026-04-10T09:44:43Z</time></trkpt><trkpt lat="43.16935776250022" lon="2.9834816392428114"><ele>15.0</ele><time>2026-04-10T09:44:45Z</time></trkpt><trkpt lat="43.169363563427865" lon="2.9833952945127775"><ele>15.0</ele><time>2026-04-10T09:44:47Z</time></trkpt><trkpt lat="43.16937121802018" lon="2.9833065072614287"><ele>15.0</ele><time>2026-04-10T09:44:49Z</time></trkpt><trkpt lat="43.16937581782869" lon="2.983219822866265"><ele>15.0</ele><time>2026-04-10T09:44:51Z</time></trkpt><trkpt lat="43.16938054362293" lon="2.9831241787729463"><ele>14.5</ele><time>2026-04-10T09:44:53Z</time></trkpt><trkpt lat="43.169411257847436" lon="2.983026134852642"><ele>14.0</ele><time>2026-04-10T09:44:55Z</time></trkpt><trkpt lat="43.169437696853585" lon="2.9829159712463147"><ele>13.5</ele><time>2026-04-10T09:44:57Z</time></trkpt><trkpt lat="43.16942265895782" lon="2.982799308100815"><ele>13.0</ele><time>2026-04-10T09:44:59Z</time></trkpt><trkpt lat="43.16935514312364" lon="2.982720323218814"><ele>12.5</ele><time>2026-04-10T09:45:01Z</time></trkpt><trkpt lat="43.16926524106349" lon="2.9827067151097553"><ele>12.0</ele><time>2026-04-10T09:45:03Z</time></trkpt><trkpt lat="43.169187514615686" lon="2.9827584992383502"><ele>12.0</ele><time>2026-04-10T09:45:05Z</time></trkpt><trkpt lat="43.169125942378294" lon="2.9828537277125515"><ele>12.0</ele><time>2026-04-10T09:45:07Z</time></trkpt><trkpt lat="43.16905383934115" lon="2.9829235211413154"><ele>12.0</ele><time>2026-04-10T09:45:09Z</time></trkpt><trkpt lat="43.16896321826887" lon="2.9829376276094046"><ele>12.0</ele><time>2026-04-10T09:45:11Z</time></trkpt><trkpt lat="43.16887869154659" lon="2.982899487537185"><ele>12.0</ele><time>2026-04-10T09:45:13Z</time></trkpt><trkpt lat="43.16880444632256" lon="2.982848292493392"><ele>12.0</ele><time>2026-04-10T09:45:14.999Z</time></trkpt><trkpt lat="43.16873557330737" lon="2.9827824994525796"><ele>12.285714285714285</ele><time>2026-04-10T09:45:16.999Z</time></trkpt><trkpt lat="43.16867768967593" lon="2.9827165631145025"><ele>12.571428571428571</ele><time>2026-04-10T09:45:18.999Z</time></trkpt><trkpt lat="43.1686164454759" lon="2.9826444987167804"><ele>12.857142857142858</ele><time>2026-04-10T09:45:20.999Z</time></trkpt><trkpt lat="43.16855348322356" lon="2.982580581234165"><ele>13.142857142857142</ele><time>2026-04-10T09:45:22.999Z</time></trkpt><trkpt lat="43.16849425254338" lon="2.98251810520527"><ele>13.428571428571429</ele><time>2026-04-10T09:45:24.999Z</time></trkpt><trkpt lat="43.16843821776011" lon="2.9824580668857905"><ele>13.714285714285714</ele><time>2026-04-10T09:45:26.999Z</time></trkpt><trkpt lat="43.16838648297083" lon="2.982397484606196"><ele>14.0</ele><time>2026-04-10T09:45:28.999Z</time></trkpt><trkpt lat="43.16833050995999" lon="2.982337713977528"><ele>14.0</ele><time>2026-04-10T09:45:30.999Z</time></trkpt><trkpt lat="43.16826915779422" lon="2.982281943378122"><ele>14.0</ele><time>2026-04-10T09:45:32.999Z</time></trkpt><trkpt lat="43.16820546985729" lon="2.982222391036751"><ele>14.0</ele><time>2026-04-10T09:45:34.999Z</time></trkpt><trkpt lat="43.16814275844018" lon="2.9821816851463083"><ele>14.0</ele><time>2026-04-10T09:45:36.999Z</time></trkpt><trkpt lat="43.16807729211471" lon="2.982146030880471"><ele>14.0</ele><time>2026-04-10T09:45:38.999Z</time></trkpt><trkpt lat="43.16800843598469" lon="2.982114277796045"><ele>14.0</ele><time>2026-04-10T09:45:40.999Z</time></trkpt><trkpt lat="43.167934085834126" lon="2.9820767078508617"><ele>14.0</ele><time>2026-04-10T09:45:42.999Z</time></trkpt><trkpt lat="43.16784616770556" lon="2.9820385215792795"><ele>14.399999999999999</ele><time>2026-04-10T09:45:44.999Z</time></trkpt><trkpt lat="43.16776348140375" lon="2.9819691801893966"><ele>14.799999999999999</ele><time>2026-04-10T09:45:46.999Z</time></trkpt><trkpt lat="43.167725153513004" lon="2.9818361955040835"><ele>15.200000000000001</ele><time>2026-04-10T09:45:48.999Z</time></trkpt><trkpt lat="43.16768796976102" lon="2.9817127035378417"><ele>15.600000000000001</ele><time>2026-04-10T09:45:50.999Z</time></trkpt><trkpt lat="43.16758943450251" lon="2.9816488115092588"><ele>16.0</ele><time>2026-04-10T09:45:52.999Z</time></trkpt><trkpt lat="43.16747234888645" lon="2.9816730853288016"><ele>16.0</ele><time>2026-04-10T09:45:54.999Z</time></trkpt><trkpt lat="43.16740634270665" lon="2.981811168105783"><ele>16.0</ele><time>2026-04-10T09:45:56.999Z</time></trkpt><trkpt lat="43.16741853795414" lon="2.9819010285588763"><ele>16.0</ele><time>2026-04-10T09:45:57.999Z</time></trkpt><trkpt lat="43.167424510163535" lon="2.982040624272853"><ele>16.0</ele><time>2026-04-10T09:45:59.999Z</time></trkpt><trkpt lat="43.16729592834401" lon="2.9821403660620693"><ele>16.0</ele><time>2026-04-10T09:46:01.999Z</time></trkpt><trkpt lat="43.16720075121898" lon="2.9822337753679884"><ele>16.5</ele><time>2026-04-10T09:46:03.999Z</time></trkpt><trkpt lat="43.16709256244133" lon="2.9823343534255016"><ele>17.0</ele><time>2026-04-10T09:46:05.999Z</time></trkpt><trkpt lat="43.16703427171719" lon="2.9823853873299218"><ele>17.5</ele><time>2026-04-10T09:46:06.999Z</time></trkpt><trkpt lat="43.1669651312494" lon="2.9824194088941325"><ele>18.0</ele><time>2026-04-10T09:46:07.999Z</time></trkpt><trkpt lat="43.166887729121036" lon="2.982419055100795"><ele>18.5</ele><time>2026-04-10T09:46:08.999Z</time></trkpt><trkpt lat="43.16681321627957" lon="2.98239809444205"><ele>19.0</ele><time>2026-04-10T09:46:09.999Z</time></trkpt><trkpt lat="43.16674229963761" lon="2.982360773972554"><ele>19.0</ele><time>2026-04-10T09:46:10.999Z</time></trkpt><trkpt lat="43.16667934011705" lon="2.982314538922753"><ele>19.0</ele><time>2026-04-10T09:46:11.999Z</time></trkpt><trkpt lat="43.16662370162839" lon="2.9822667680225563"><ele>19.0</ele><time>2026-04-10T09:46:12.999Z</time></trkpt><trkpt lat="43.16657345403262" lon="2.9822110192204114"><ele>19.0</ele><time>2026-04-10T09:46:13.999Z</time></trkpt><trkpt lat="43.16649681503494" lon="2.982120260265801"><ele>19.0</ele><time>2026-04-10T09:46:15.999Z</time></trkpt><trkpt lat="43.1664488284885" lon="2.9820212748450334"><ele>19.0</ele><time>2026-04-10T09:46:17.999Z</time></trkpt><trkpt lat="43.166381601276285" lon="2.981969704381448"><ele>19.833333333333332</ele><time>2026-04-10T09:46:19.999Z</time></trkpt><trkpt lat="43.16631407237994" lon="2.981901750161621"><ele>20.666666666666664</ele><time>2026-04-10T09:46:21.999Z</time></trkpt><trkpt lat="43.16623581964102" lon="2.9818325124701572"><ele>21.5</ele><time>2026-04-10T09:46:23.999Z</time></trkpt><trkpt lat="43.16615708819353" lon="2.9817838100616485"><ele>22.333333333333332</ele><time>2026-04-10T09:46:25.999Z</time></trkpt><trkpt lat="43.1660693523532" lon="2.9817517377594576"><ele>23.166666666666668</ele><time>2026-04-10T09:46:27.999Z</time></trkpt><trkpt lat="43.16599005224385" lon="2.9816892901280707"><ele>24.0</ele><time>2026-04-10T09:46:29.999Z</time></trkpt><trkpt lat="43.16590893538987" lon="2.981632025994854"><ele>24.0</ele><time>2026-04-10T09:46:31.999Z</time></trkpt><trkpt lat="43.16583246381619" lon="2.9815756115100354"><ele>24.0</ele><time>2026-04-10T09:46:33.999Z</time></trkpt><trkpt lat="43.16575441051334" lon="2.981527324269451"><ele>24.0</ele><time>2026-04-10T09:46:35.999Z</time></trkpt><trkpt lat="43.16567531225124" lon="2.981491319098178"><ele>24.0</ele><time>2026-04-10T09:46:38Z</time></trkpt><trkpt lat="43.165597086300984" lon="2.9814300541727246"><ele>24.0</ele><time>2026-04-10T09:46:40Z</time></trkpt><trkpt lat="43.16551302447871" lon="2.981390036523914"><ele>24.0</ele><time>2026-04-10T09:46:42Z</time></trkpt><trkpt lat="43.16543255557183" lon="2.9813424914713176"><ele>24.333333333333332</ele><time>2026-04-10T09:46:44Z</time></trkpt><trkpt lat="43.165358028988635" lon="2.981287146449402"><ele>24.666666666666664</ele><time>2026-04-10T09:46:46Z</time></trkpt><trkpt lat="43.165274821022614" lon="2.9812416458769984"><ele>25.0</ele><time>2026-04-10T09:46:48Z</time></trkpt><trkpt lat="43.16519011864908" lon="2.9811862470360864"><ele>25.333333333333332</ele><time>2026-04-10T09:46:50Z</time></trkpt><trkpt lat="43.16510814714575" lon="2.9811367471385455"><ele>25.666666666666664</ele><time>2026-04-10T09:46:52Z</time></trkpt><trkpt lat="43.16502787477563" lon="2.981078370810213"><ele>26.0</ele><time>2026-04-10T09:46:54Z</time></trkpt><trkpt lat="43.164949896951235" lon="2.981030393434636"><ele>25.999999999999996</ele><time>2026-04-10T09:46:56Z</time></trkpt><trkpt lat="43.16487855583718" lon="2.980973124308457"><ele>26.0</ele><time>2026-04-10T09:46:58Z</time></trkpt><trkpt lat="43.16480297839672" lon="2.980909279765387"><ele>26.0</ele><time>2026-04-10T09:47:00Z</time></trkpt><trkpt lat="43.16473298100008" lon="2.9808402631328517"><ele>26.0</ele><time>2026-04-10T09:47:02Z</time></trkpt><trkpt lat="43.1646608143188" lon="2.9807723745337196"><ele>25.999999999999996</ele><time>2026-04-10T09:47:04Z</time></trkpt><trkpt lat="43.16459212727589" lon="2.980701207000197"><ele>26.0</ele><time>2026-04-10T09:47:06Z</time></trkpt><trkpt lat="43.16452864924357" lon="2.9806329218040086"><ele>25.833333333333332</ele><time>2026-04-10T09:47:08Z</time></trkpt><trkpt lat="43.164465816232486" lon="2.9805594647196947"><ele>25.666666666666664</ele><time>2026-04-10T09:47:10Z</time></trkpt><trkpt lat="43.164405074093864" lon="2.980485672158072"><ele>25.5</ele><time>2026-04-10T09:47:12Z</time></trkpt><trkpt lat="43.16434314512607" lon="2.9804125887882162"><ele>25.333333333333336</ele><time>2026-04-10T09:47:14Z</time></trkpt><trkpt lat="43.16428009400418" lon="2.9803391045655494"><ele>25.166666666666668</ele><time>2026-04-10T09:47:16Z</time></trkpt><trkpt lat="43.16421639559302" lon="2.980270265033898"><ele>25.0</ele><time>2026-04-10T09:47:18Z</time></trkpt><trkpt lat="43.16415566315638" lon="2.9801859315545456"><ele>25.000000000000004</ele><time>2026-04-10T09:47:20Z</time></trkpt><trkpt lat="43.16409298368868" lon="2.980111584181765"><ele>25.0</ele><time>2026-04-10T09:47:22Z</time></trkpt><trkpt lat="43.16403170305606" lon="2.9800299273735353"><ele>25.0</ele><time>2026-04-10T09:47:24Z</time></trkpt><trkpt lat="43.16397333495599" lon="2.9799455703588724"><ele>25.0</ele><time>2026-04-10T09:47:26Z</time></trkpt><trkpt lat="43.16390795504284" lon="2.9798558040741843"><ele>25.000000000000004</ele><time>2026-04-10T09:47:28Z</time></trkpt><trkpt lat="43.1638456464328" lon="2.979773295182589"><ele>25.0</ele><time>2026-04-10T09:47:30Z</time></trkpt><trkpt lat="43.16379055945588" lon="2.9796969285294264"><ele>25.000000000000004</ele><time>2026-04-10T09:47:32Z</time></trkpt><trkpt lat="43.16372748641386" lon="2.979611555450342"><ele>25.0</ele><time>2026-04-10T09:47:34Z</time></trkpt><trkpt lat="43.1636753881238" lon="2.9795243776676616"><ele>25.0</ele><time>2026-04-10T09:47:35.999Z</time></trkpt><trkpt lat="43.163615495572486" lon="2.979430312982901"><ele>25.0</ele><time>2026-04-10T09:47:37.999Z</time></trkpt><trkpt lat="43.163556820462176" lon="2.9793406054192917"><ele>25.000000000000004</ele><time>2026-04-10T09:47:39.999Z</time></trkpt><trkpt lat="43.163499231149224" lon="2.9792471549790793"><ele>25.0</ele><time>2026-04-10T09:47:41.999Z</time></trkpt><trkpt lat="43.16344407312692" lon="2.9791565242985993"><ele>24.666666666666668</ele><time>2026-04-10T09:47:43.999Z</time></trkpt><trkpt lat="43.163390207598844" lon="2.979076575717745"><ele>24.333333333333336</ele><time>2026-04-10T09:47:45.999Z</time></trkpt><trkpt lat="43.163340710277815" lon="2.9790157049509935"><ele>24.0</ele><time>2026-04-10T09:47:47.999Z</time></trkpt><trkpt lat="43.16327744824739" lon="2.9789552215817787"><ele>23.666666666666668</ele><time>2026-04-10T09:47:49.999Z</time></trkpt><trkpt lat="43.163238202991266" lon="2.9788495123417245"><ele>23.333333333333336</ele><time>2026-04-10T09:47:51.999Z</time></trkpt><trkpt lat="43.16318799214945" lon="2.978746655630381"><ele>23.0</ele><time>2026-04-10T09:47:53.999Z</time></trkpt><trkpt lat="43.163124983387185" lon="2.978656799832014"><ele>23.0</ele><time>2026-04-10T09:47:55.999Z</time></trkpt><trkpt lat="43.16310235574622" lon="2.978556062268614"><ele>23.0</ele><time>2026-04-10T09:47:57.999Z</time></trkpt><trkpt lat="43.16306006920433" lon="2.9784544468945855"><ele>23.0</ele><time>2026-04-10T09:48:00.999Z</time></trkpt><trkpt lat="43.16299862719518" lon="2.978365005172474"><ele>23.0</ele><time>2026-04-10T09:48:04.999Z</time></trkpt><trkpt lat="43.16293415854362" lon="2.9782814965073"><ele>23.0</ele><time>2026-04-10T09:48:07.999Z</time></trkpt><trkpt lat="43.1629015024645" lon="2.9781697288954603"><ele>23.0</ele><time>2026-04-10T09:48:10.999Z</time></trkpt><trkpt lat="43.16286730766904" lon="2.9780919059156346"><ele>23.333333333333336</ele><time>2026-04-10T09:48:12.999Z</time></trkpt><trkpt lat="43.16281883934578" lon="2.9780032504603104"><ele>23.666666666666668</ele><time>2026-04-10T09:48:14.999Z</time></trkpt><trkpt lat="43.16278381193538" lon="2.9779220152057695"><ele>24.0</ele><time>2026-04-10T09:48:16.999Z</time></trkpt><trkpt lat="43.16274155234951" lon="2.9778354171372676"><ele>24.333333333333336</ele><time>2026-04-10T09:48:18.999Z</time></trkpt><trkpt lat="43.16270564519442" lon="2.977752967879012"><ele>24.666666666666668</ele><time>2026-04-10T09:48:20.999Z</time></trkpt><trkpt lat="43.16266193356444" lon="2.9776697871265387"><ele>25.0</ele><time>2026-04-10T09:48:22.999Z</time></trkpt><trkpt lat="43.16261964124836" lon="2.97757617029789"><ele>25.166666666666668</ele><time>2026-04-10T09:48:24.999Z</time></trkpt><trkpt lat="43.16259098071001" lon="2.9774836019790722"><ele>25.333333333333336</ele><time>2026-04-10T09:48:26.999Z</time></trkpt><trkpt lat="43.162576697620466" lon="2.977391694446304"><ele>25.5</ele><time>2026-04-10T09:48:28.999Z</time></trkpt><trkpt lat="43.16255551785716" lon="2.977302385694775"><ele>25.666666666666664</ele><time>2026-04-10T09:48:30.999Z</time></trkpt><trkpt lat="43.16247892318198" lon="2.9772143100780686"><ele>25.833333333333332</ele><time>2026-04-10T09:48:33.999Z</time></trkpt><trkpt lat="43.16241825137613" lon="2.9771301180038607"><ele>26.0</ele><time>2026-04-10T09:48:35.999Z</time></trkpt><trkpt lat="43.162382358334014" lon="2.977029744035243"><ele>25.166666666666664</ele><time>2026-04-10T09:48:37.999Z</time></trkpt><trkpt lat="43.16235151119362" lon="2.9769316692847636"><ele>24.333333333333332</ele><time>2026-04-10T09:48:39.999Z</time></trkpt><trkpt lat="43.16232505898521" lon="2.976837314055"><ele>23.5</ele><time>2026-04-10T09:48:41.999Z</time></trkpt><trkpt lat="43.162289419879286" lon="2.9767328156524915"><ele>22.666666666666664</ele><time>2026-04-10T09:48:44Z</time></trkpt><trkpt lat="43.16224919405903" lon="2.9766277776382464"><ele>21.833333333333332</ele><time>2026-04-10T09:48:46Z</time></trkpt><trkpt lat="43.16221309603513" lon="2.9765217712804506"><ele>21.0</ele><time>2026-04-10T09:48:48Z</time></trkpt><trkpt lat="43.162175453434884" lon="2.976409733736147"><ele>21.0</ele><time>2026-04-10T09:48:50Z</time></trkpt><trkpt lat="43.162139037332636" lon="2.9762935017222487"><ele>21.0</ele><time>2026-04-10T09:48:52Z</time></trkpt><trkpt lat="43.1621077142714" lon="2.9761753596268687"><ele>21.0</ele><time>2026-04-10T09:48:54Z</time></trkpt><trkpt lat="43.162076512200436" lon="2.9760553724673375"><ele>21.0</ele><time>2026-04-10T09:48:56Z</time></trkpt><trkpt lat="43.162051934250826" lon="2.9759747340209466"><ele>21.0</ele><time>2026-04-10T09:48:57Z</time></trkpt><trkpt lat="43.1620247930103" lon="2.9758248021272418"><ele>21.4</ele><time>2026-04-10T09:48:59Z</time></trkpt><trkpt lat="43.16199266251253" lon="2.975680386607801"><ele>21.8</ele><time>2026-04-10T09:49:01Z</time></trkpt><trkpt lat="43.16195649226229" lon="2.9755550749534705"><ele>22.2</ele><time>2026-04-10T09:49:03Z</time></trkpt><trkpt lat="43.16192303006698" lon="2.9754388775901264"><ele>22.599999999999998</ele><time>2026-04-10T09:49:05Z</time></trkpt><trkpt lat="43.16189140917626" lon="2.975331213456733"><ele>23.0</ele><time>2026-04-10T09:49:07Z</time></trkpt><trkpt lat="43.161863135686865" lon="2.9752176199998828"><ele>23.0</ele><time>2026-04-10T09:49:09Z</time></trkpt><trkpt lat="43.16183161086914" lon="2.9751195763270957"><ele>23.0</ele><time>2026-04-10T09:49:11Z</time></trkpt><trkpt lat="43.16180519205039" lon="2.975012002721793"><ele>23.0</ele><time>2026-04-10T09:49:13Z</time></trkpt><trkpt lat="43.16177271156916" lon="2.9749037969339773"><ele>23.0</ele><time>2026-04-10T09:49:15Z</time></trkpt><trkpt lat="43.16173888016268" lon="2.974798204835442"><ele>23.0</ele><time>2026-04-10T09:49:17Z</time></trkpt><trkpt lat="43.161714749529146" lon="2.9746999441526367"><ele>23.0</ele><time>2026-04-10T09:49:19Z</time></trkpt><trkpt lat="43.161676511552706" lon="2.9746077125854633"><ele>23.333333333333336</ele><time>2026-04-10T09:49:21Z</time></trkpt><trkpt lat="43.16165225568228" lon="2.9745028854548394"><ele>23.666666666666668</ele><time>2026-04-10T09:49:23Z</time></trkpt><trkpt lat="43.161621459689684" lon="2.974400957107545"><ele>24.0</ele><time>2026-04-10T09:49:25Z</time></trkpt><trkpt lat="43.16158498048247" lon="2.974281779864313"><ele>24.333333333333336</ele><time>2026-04-10T09:49:27Z</time></trkpt><trkpt lat="43.161547667820436" lon="2.974173152016041"><ele>24.666666666666668</ele><time>2026-04-10T09:49:29Z</time></trkpt><trkpt lat="43.1615112167962" lon="2.9740529342236193"><ele>25.0</ele><time>2026-04-10T09:49:31Z</time></trkpt><trkpt lat="43.161477434660625" lon="2.9739389888263816"><ele>24.2</ele><time>2026-04-10T09:49:33Z</time></trkpt><trkpt lat="43.16143603368386" lon="2.9738209761228713"><ele>23.4</ele><time>2026-04-10T09:49:35Z</time></trkpt><trkpt lat="43.1614005700626" lon="2.97370580874429"><ele>22.6</ele><time>2026-04-10T09:49:37Z</time></trkpt><trkpt lat="43.16136661919509" lon="2.9735864049575365"><ele>21.8</ele><time>2026-04-10T09:49:39Z</time></trkpt><trkpt lat="43.16132132325238" lon="2.9734685032358374"><ele>21.0</ele><time>2026-04-10T09:49:41Z</time></trkpt><trkpt lat="43.16127802989433" lon="2.973348671555786"><ele>20.833333333333332</ele><time>2026-04-10T09:49:43Z</time></trkpt><trkpt lat="43.16125499058379" lon="2.973232785573937"><ele>20.666666666666668</ele><time>2026-04-10T09:49:45Z</time></trkpt><trkpt lat="43.16121368609088" lon="2.9731301689083267"><ele>20.5</ele><time>2026-04-10T09:49:47Z</time></trkpt><trkpt lat="43.16118119828673" lon="2.9730206757997606"><ele>20.333333333333336</ele><time>2026-04-10T09:49:48.999Z</time></trkpt><trkpt lat="43.161141102334234" lon="2.9729220969192682"><ele>20.166666666666668</ele><time>2026-04-10T09:49:50.999Z</time></trkpt><trkpt lat="43.16111863332095" lon="2.9728287499407045"><ele>20.0</ele><time>2026-04-10T09:49:52.999Z</time></trkpt><trkpt lat="43.16108052335199" lon="2.97274470629786"><ele>20.0</ele><time>2026-04-10T09:49:54.999Z</time></trkpt><trkpt lat="43.16102120491017" lon="2.9726704959628676"><ele>20.0</ele><time>2026-04-10T09:49:56.999Z</time></trkpt><trkpt lat="43.16096993670548" lon="2.972584490679676"><ele>20.0</ele><time>2026-04-10T09:49:58.999Z</time></trkpt><trkpt lat="43.160921242162274" lon="2.972493036469536"><ele>20.0</ele><time>2026-04-10T09:50:00.999Z</time></trkpt><trkpt lat="43.160892726250296" lon="2.9723911102207476"><ele>20.0</ele><time>2026-04-10T09:50:02.999Z</time></trkpt><trkpt lat="43.16085784509509" lon="2.9722967309919954"><ele>20.0</ele><time>2026-04-10T09:50:04.999Z</time></trkpt><trkpt lat="43.16082336009133" lon="2.972209152989481"><ele>19.833333333333336</ele><time>2026-04-10T09:50:06.999Z</time></trkpt><trkpt lat="43.1607803287762" lon="2.972138712672413"><ele>19.666666666666668</ele><time>2026-04-10T09:50:08.999Z</time></trkpt><trkpt lat="43.1607316918436" lon="2.972049102073622"><ele>19.5</ele><time>2026-04-10T09:50:10.999Z</time></trkpt><trkpt lat="43.16068565010278" lon="2.971952403980665"><ele>19.333333333333332</ele><time>2026-04-10T09:50:12.999Z</time></trkpt><trkpt lat="43.160634002909404" lon="2.9718634148736407"><ele>19.166666666666664</ele><time>2026-04-10T09:50:14.999Z</time></trkpt><trkpt lat="43.16060721616747" lon="2.971753050987632"><ele>19.0</ele><time>2026-04-10T09:50:16.999Z</time></trkpt><trkpt lat="43.1606063023057" lon="2.971639775907817"><ele>19.5</ele><time>2026-04-10T09:50:18.999Z</time></trkpt><trkpt lat="43.160582225312815" lon="2.9715508938385033"><ele>20.0</ele><time>2026-04-10T09:50:20.999Z</time></trkpt><trkpt lat="43.16052024370043" lon="2.971483821752945"><ele>20.5</ele><time>2026-04-10T09:50:22.999Z</time></trkpt><trkpt lat="43.16044492691569" lon="2.9714476458431553"><ele>21.0</ele><time>2026-04-10T09:50:24.999Z</time></trkpt><trkpt lat="43.16037278010148" lon="2.971392730077623"><ele>21.5</ele><time>2026-04-10T09:50:26.999Z</time></trkpt><trkpt lat="43.16030740552161" lon="2.9713036106685875"><ele>22.0</ele><time>2026-04-10T09:50:28.999Z</time></trkpt><trkpt lat="43.16025484438706" lon="2.9712175625980723"><ele>22.0</ele><time>2026-04-10T09:50:30.999Z</time></trkpt><trkpt lat="43.16020727703368" lon="2.9711374400209523"><ele>22.0</ele><time>2026-04-10T09:50:32.999Z</time></trkpt><trkpt lat="43.16015335759423" lon="2.9710414444388897"><ele>22.0</ele><time>2026-04-10T09:50:34.999Z</time></trkpt><trkpt lat="43.16010101301787" lon="2.9709577901289195"><ele>22.0</ele><time>2026-04-10T09:50:36.999Z</time></trkpt><trkpt lat="43.160046896690844" lon="2.970871980262463"><ele>22.0</ele><time>2026-04-10T09:50:38.999Z</time></trkpt><trkpt lat="43.15998773438415" lon="2.9707858786875962"><ele>22.0</ele><time>2026-04-10T09:50:40.999Z</time></trkpt><trkpt lat="43.15993141499818" lon="2.970700595204813"><ele>22.0</ele><time>2026-04-10T09:50:42.999Z</time></trkpt><trkpt lat="43.15987413165858" lon="2.9706116717278204"><ele>22.0</ele><time>2026-04-10T09:50:44.999Z</time></trkpt><trkpt lat="43.159818011548495" lon="2.9705165962992597"><ele>22.0</ele><time>2026-04-10T09:50:46.999Z</time></trkpt><trkpt lat="43.15976364230261" lon="2.97042061509061"><ele>22.0</ele><time>2026-04-10T09:50:49Z</time></trkpt><trkpt lat="43.159729231132424" lon="2.970313483619648"><ele>22.0</ele><time>2026-04-10T09:50:51Z</time></trkpt><trkpt lat="43.15967119533663" lon="2.9702233933073647"><ele>22.0</ele><time>2026-04-10T09:50:53Z</time></trkpt><trkpt lat="43.159596692872604" lon="2.970151663380661"><ele>22.0</ele><time>2026-04-10T09:50:55Z</time></trkpt><trkpt lat="43.15951432771366" lon="2.9700867371775663"><ele>22.0</ele><time>2026-04-10T09:50:57Z</time></trkpt><trkpt lat="43.159445330555315" lon="2.9699944038164316"><ele>22.0</ele><time>2026-04-10T09:50:59Z</time></trkpt><trkpt lat="43.159392920777954" lon="2.969890913981445"><ele>22.0</ele><time>2026-04-10T09:51:01Z</time></trkpt><trkpt lat="43.15933043082294" lon="2.969791721073951"><ele>22.0</ele><time>2026-04-10T09:51:03Z</time></trkpt><trkpt lat="43.15927702401041" lon="2.96968888705188"><ele>22.5</ele><time>2026-04-10T09:51:05Z</time></trkpt><trkpt lat="43.15922665101898" lon="2.969587848353978"><ele>23.0</ele><time>2026-04-10T09:51:07Z</time></trkpt><trkpt lat="43.15917601515194" lon="2.969488059302904"><ele>23.5</ele><time>2026-04-10T09:51:09Z</time></trkpt><trkpt lat="43.159128498441426" lon="2.969396549226954"><ele>24.0</ele><time>2026-04-10T09:51:11Z</time></trkpt><trkpt lat="43.15908682472682" lon="2.969296198777116"><ele>24.500000000000004</ele><time>2026-04-10T09:51:13Z</time></trkpt><trkpt lat="43.159047787714954" lon="2.969195346948874"><ele>25.0</ele><time>2026-04-10T09:51:15Z</time></trkpt><trkpt lat="43.15903115543702" lon="2.969104574698721"><ele>25.333333333333336</ele><time>2026-04-10T09:51:17Z</time></trkpt><trkpt lat="43.15897604985305" lon="2.96900143914899"><ele>25.666666666666668</ele><time>2026-04-10T09:51:20Z</time></trkpt><trkpt lat="43.15893397736261" lon="2.968930944520073"><ele>26.0</ele><time>2026-04-10T09:51:22Z</time></trkpt><trkpt lat="43.15891068266152" lon="2.9688481245597322"><ele>26.333333333333336</ele><time>2026-04-10T09:51:24Z</time></trkpt><trkpt lat="43.158883215829896" lon="2.9687641917670424"><ele>26.666666666666668</ele><time>2026-04-10T09:51:26Z</time></trkpt><trkpt lat="43.158845079260686" lon="2.968642187606807"><ele>27.0</ele><time>2026-04-10T09:51:29Z</time></trkpt><trkpt lat="43.15881584488365" lon="2.968546479378319"><ele>27.0</ele><time>2026-04-10T09:51:31Z</time></trkpt><trkpt lat="43.15878913901244" lon="2.9684503998581904"><ele>27.0</ele><time>2026-04-10T09:51:33Z</time></trkpt><trkpt lat="43.15876368100452" lon="2.9683566949237536"><ele>27.0</ele><time>2026-04-10T09:51:35Z</time></trkpt><trkpt lat="43.15874338516208" lon="2.9682586836077878"><ele>27.0</ele><time>2026-04-10T09:51:37Z</time></trkpt><trkpt lat="43.15871572100725" lon="2.9681660050353584"><ele>27.0</ele><time>2026-04-10T09:51:39Z</time></trkpt><trkpt lat="43.15869545037645" lon="2.9680734807222753"><ele>27.0</ele><time>2026-04-10T09:51:41Z</time></trkpt><trkpt lat="43.15867908681825" lon="2.967980710244145"><ele>27.0</ele><time>2026-04-10T09:51:43Z</time></trkpt><trkpt lat="43.158666862747225" lon="2.9678875302404606"><ele>27.166666666666668</ele><time>2026-04-10T09:51:45Z</time></trkpt><trkpt lat="43.15864314751133" lon="2.967798915799365"><ele>27.333333333333336</ele><time>2026-04-10T09:51:47Z</time></trkpt><trkpt lat="43.158623101834124" lon="2.967711977875298"><ele>27.5</ele><time>2026-04-10T09:51:49Z</time></trkpt><trkpt lat="43.15860606445966" lon="2.9676197673022595"><ele>27.666666666666668</ele><time>2026-04-10T09:51:51Z</time></trkpt><trkpt lat="43.15858629376766" lon="2.967532260881375"><ele>27.833333333333336</ele><time>2026-04-10T09:51:53Z</time></trkpt><trkpt lat="43.15856879190486" lon="2.967414511087634"><ele>28.0</ele><time>2026-04-10T09:51:56Z</time></trkpt><trkpt lat="43.15853454271296" lon="2.9672991583654986"><ele>28.333333333333336</ele><time>2026-04-10T09:51:59Z</time></trkpt><trkpt lat="43.1585043275501" lon="2.9671774265846556"><ele>28.666666666666668</ele><time>2026-04-10T09:52:01.999Z</time></trkpt><trkpt lat="43.158476467664016" lon="2.9671000111085544"><ele>29.0</ele><time>2026-04-10T09:52:03.999Z</time></trkpt><trkpt lat="43.158449045087785" lon="2.967013718990621"><ele>29.333333333333336</ele><time>2026-04-10T09:52:05.999Z</time></trkpt><trkpt lat="43.15840535854879" lon="2.966902758697346"><ele>29.666666666666668</ele><time>2026-04-10T09:52:08.999Z</time></trkpt><trkpt lat="43.158377125837" lon="2.966815429229579"><ele>30.0</ele><time>2026-04-10T09:52:11.999Z</time></trkpt><trkpt lat="43.15833695168972" lon="2.9667198825824057"><ele>30.5</ele><time>2026-04-10T09:52:14.999Z</time></trkpt><trkpt lat="43.158292314486296" lon="2.966619052775052"><ele>31.0</ele><time>2026-04-10T09:52:17.999Z</time></trkpt><trkpt lat="43.15824561178534" lon="2.9665210712798675"><ele>31.5</ele><time>2026-04-10T09:52:20.999Z</time></trkpt><trkpt lat="43.158196457620136" lon="2.966425239390432"><ele>32.0</ele><time>2026-04-10T09:52:23.999Z</time></trkpt><trkpt lat="43.158154829048726" lon="2.966319797538393"><ele>32.5</ele><time>2026-04-10T09:52:26.999Z</time></trkpt><trkpt lat="43.15809573291121" lon="2.9662352102768303"><ele>33.0</ele><time>2026-04-10T09:52:29.999Z</time></trkpt><trkpt lat="43.15803563959128" lon="2.9661449034210867"><ele>33.0</ele><time>2026-04-10T09:52:32.999Z</time></trkpt><trkpt lat="43.15797657669267" lon="2.966051156294343"><ele>33.0</ele><time>2026-04-10T09:52:35.999Z</time></trkpt><trkpt lat="43.157931034369064" lon="2.96599056251773"><ele>33.0</ele><time>2026-04-10T09:52:37.999Z</time></trkpt><trkpt lat="43.15786685218145" lon="2.965903633705396"><ele>33.0</ele><time>2026-04-10T09:52:40.999Z</time></trkpt><trkpt lat="43.157797021229236" lon="2.965826424805914"><ele>33.0</ele><time>2026-04-10T09:52:43.999Z</time></trkpt><trkpt lat="43.157715963506874" lon="2.9657726158730844"><ele>33.0</ele><time>2026-04-10T09:52:46.999Z</time></trkpt><trkpt lat="43.15763344528709" lon="2.9657247175983694"><ele>33.714285714285715</ele><time>2026-04-10T09:52:49.999Z</time></trkpt><trkpt lat="43.157544611510914" lon="2.9656891934069667"><ele>34.42857142857143</ele><time>2026-04-10T09:52:52.999Z</time></trkpt><trkpt lat="43.1574785406376" lon="2.9656667137717956"><ele>35.14285714285714</ele><time>2026-04-10T09:52:55Z</time></trkpt><trkpt lat="43.15741458030836" lon="2.965663921890904"><ele>35.85714285714286</ele><time>2026-04-10T09:52:57Z</time></trkpt><trkpt lat="43.15734640458694" lon="2.9656735550203903"><ele>36.57142857142858</ele><time>2026-04-10T09:52:59Z</time></trkpt><trkpt lat="43.15727946724964" lon="2.9656873413472735"><ele>37.285714285714285</ele><time>2026-04-10T09:53:01Z</time></trkpt><trkpt lat="43.15721642252596" lon="2.965704478021675"><ele>38.0</ele><time>2026-04-10T09:53:03Z</time></trkpt><trkpt lat="43.15712981101126" lon="2.965743721812348"><ele>38.0</ele><time>2026-04-10T09:53:06Z</time></trkpt><trkpt lat="43.15705149777623" lon="2.965793725108054"><ele>38.0</ele><time>2026-04-10T09:53:09Z</time></trkpt><trkpt lat="43.156997584971975" lon="2.9658407559132693"><ele>38.0</ele><time>2026-04-10T09:53:11Z</time></trkpt><trkpt lat="43.15694232265799" lon="2.9658922114616537"><ele>38.0</ele><time>2026-04-10T09:53:13Z</time></trkpt><trkpt lat="43.156881473491595" lon="2.965952469134701"><ele>38.0</ele><time>2026-04-10T09:53:15Z</time></trkpt><trkpt lat="43.15682213601077" lon="2.966004741731273"><ele>38.0</ele><time>2026-04-10T09:53:17Z</time></trkpt><trkpt lat="43.15676213237918" lon="2.9660566031346325"><ele>38.0</ele><time>2026-04-10T09:53:19Z</time></trkpt><trkpt lat="43.1567048772276" lon="2.9661128413371802"><ele>37.857142857142854</ele><time>2026-04-10T09:53:21Z</time></trkpt><trkpt lat="43.156647888230594" lon="2.966162618749333"><ele>37.714285714285715</ele><time>2026-04-10T09:53:23Z</time></trkpt><trkpt lat="43.15659161488719" lon="2.966214354559079"><ele>37.57142857142857</ele><time>2026-04-10T09:53:25Z</time></trkpt><trkpt lat="43.156530738887646" lon="2.9662574793919005"><ele>37.42857142857143</ele><time>2026-04-10T09:53:27Z</time></trkpt><trkpt lat="43.15646807454597" lon="2.966306454589664"><ele>37.285714285714285</ele><time>2026-04-10T09:53:29Z</time></trkpt><trkpt lat="43.156411658727045" lon="2.966348235845775"><ele>37.142857142857146</ele><time>2026-04-10T09:53:31Z</time></trkpt><trkpt lat="43.15635733574354" lon="2.966392347821622"><ele>37.0</ele><time>2026-04-10T09:53:33Z</time></trkpt><trkpt lat="43.156276246174826" lon="2.96644966448096"><ele>37.714285714285715</ele><time>2026-04-10T09:53:36Z</time></trkpt><trkpt lat="43.15621524830973" lon="2.9664922349757816"><ele>38.42857142857143</ele><time>2026-04-10T09:53:38Z</time></trkpt><trkpt lat="43.15615971671808" lon="2.9665385866298"><ele>39.14285714285714</ele><time>2026-04-10T09:53:40Z</time></trkpt><trkpt lat="43.15610708078354" lon="2.966586191824791"><ele>39.85714285714286</ele><time>2026-04-10T09:53:42Z</time></trkpt><trkpt lat="43.156050958122" lon="2.966625906268509"><ele>40.57142857142857</ele><time>2026-04-10T09:53:44Z</time></trkpt><trkpt lat="43.15596674763775" lon="2.9666829176401754"><ele>41.285714285714285</ele><time>2026-04-10T09:53:47Z</time></trkpt><trkpt lat="43.15590701313068" lon="2.9667181318712768"><ele>42.0</ele><time>2026-04-10T09:53:49Z</time></trkpt><trkpt lat="43.15584815152587" lon="2.9667617727899023"><ele>42.0</ele><time>2026-04-10T09:53:51Z</time></trkpt><trkpt lat="43.15578444271928" lon="2.966796569558059"><ele>42.0</ele><time>2026-04-10T09:53:53Z</time></trkpt><trkpt lat="43.15571774396926" lon="2.9668022266560596"><ele>42.0</ele><time>2026-04-10T09:53:55Z</time></trkpt><trkpt lat="43.15565344043099" lon="2.96680819031072"><ele>42.0</ele><time>2026-04-10T09:53:57Z</time></trkpt><trkpt lat="43.155597136733796" lon="2.9668501734416726"><ele>42.0</ele><time>2026-04-10T09:53:59Z</time></trkpt><trkpt lat="43.15556373166993" lon="2.966935546874936"><ele>42.0</ele><time>2026-04-10T09:54:01Z</time></trkpt><trkpt lat="43.15558928746661" lon="2.967032343248703"><ele>42.0</ele><time>2026-04-10T09:54:03Z</time></trkpt><trkpt lat="43.15563495204651" lon="2.967111162033233"><ele>42.0</ele><time>2026-04-10T09:54:05Z</time></trkpt><trkpt lat="43.155702702147146" lon="2.9671898159166186"><ele>42.0</ele><time>2026-04-10T09:54:07Z</time></trkpt><trkpt lat="43.1557523072115" lon="2.967303476829589"><ele>42.0</ele><time>2026-04-10T09:54:09Z</time></trkpt><trkpt lat="43.15578548902508" lon="2.967434155824021"><ele>42.0</ele><time>2026-04-10T09:54:11Z</time></trkpt><trkpt lat="43.15582968044885" lon="2.967548971845081"><ele>42.0</ele><time>2026-04-10T09:54:12.999Z</time></trkpt><trkpt lat="43.155872654179106" lon="2.9676672480860393"><ele>42.6</ele><time>2026-04-10T09:54:14.999Z</time></trkpt><trkpt lat="43.15591656544081" lon="2.9677890873980086"><ele>43.2</ele><time>2026-04-10T09:54:16.999Z</time></trkpt><trkpt lat="43.155955317970154" lon="2.96791192218533"><ele>43.8</ele><time>2026-04-10T09:54:18.999Z</time></trkpt><trkpt lat="43.15600096069211" lon="2.9680344862363945"><ele>44.4</ele><time>2026-04-10T09:54:20.999Z</time></trkpt><trkpt lat="43.156045960503754" lon="2.968151489221715"><ele>45.0</ele><time>2026-04-10T09:54:22.999Z</time></trkpt><trkpt lat="43.15609511142856" lon="2.968266904109459"><ele>45.2</ele><time>2026-04-10T09:54:24.999Z</time></trkpt><trkpt lat="43.15613844392102" lon="2.968390204965319"><ele>45.4</ele><time>2026-04-10T09:54:26.999Z</time></trkpt><trkpt lat="43.156194242104114" lon="2.96851010656201"><ele>45.599999999999994</ele><time>2026-04-10T09:54:28.999Z</time></trkpt><trkpt lat="43.15624144266429" lon="2.9686515803642632"><ele>45.8</ele><time>2026-04-10T09:54:30.999Z</time></trkpt><trkpt lat="43.15630533091487" lon="2.9687943644913664"><ele>46.0</ele><time>2026-04-10T09:54:32.999Z</time></trkpt><trkpt lat="43.15634236140675" lon="2.968872882187125"><ele>46.0</ele><time>2026-04-10T09:54:33.999Z</time></trkpt><trkpt lat="43.15637938877419" lon="2.9689546986793958"><ele>46.0</ele><time>2026-04-10T09:54:34.999Z</time></trkpt><trkpt lat="43.15641634113064" lon="2.96903848073126"><ele>46.0</ele><time>2026-04-10T09:54:35.999Z</time></trkpt><trkpt lat="43.15645372708553" lon="2.969122906141936"><ele>46.0</ele><time>2026-04-10T09:54:36.999Z</time></trkpt><trkpt lat="43.156494659158085" lon="2.9692136562064806"><ele>46.0</ele><time>2026-04-10T09:54:37.999Z</time></trkpt><trkpt lat="43.15653603378361" lon="2.969312575242885"><ele>46.0</ele><time>2026-04-10T09:54:38.999Z</time></trkpt><trkpt lat="43.15658051938299" lon="2.9694066069293954"><ele>43.5</ele><time>2026-04-10T09:54:39.999Z</time></trkpt><trkpt lat="43.15662027103139" lon="2.9694951481256893"><ele>41.0</ele><time>2026-04-10T09:54:40.999Z</time></trkpt><trkpt lat="43.15666878940488" lon="2.9695858117169327"><ele>38.5</ele><time>2026-04-10T09:54:41.999Z</time></trkpt><trkpt lat="43.15671595714173" lon="2.969684021766449"><ele>36.0</ele><time>2026-04-10T09:54:42.999Z</time></trkpt><trkpt lat="43.15676618504795" lon="2.9697871958191264"><ele>33.5</ele><time>2026-04-10T09:54:43.999Z</time></trkpt><trkpt lat="43.15681744778599" lon="2.969895357631209"><ele>31.0</ele><time>2026-04-10T09:54:44.999Z</time></trkpt><trkpt lat="43.156873537702346" lon="2.9700082005068613"><ele>31.4</ele><time>2026-04-10T09:54:45.999Z</time></trkpt><trkpt lat="43.15693716152239" lon="2.9701213660094736"><ele>31.8</ele><time>2026-04-10T09:54:46.999Z</time></trkpt><trkpt lat="43.15700411251162" lon="2.970238364965816"><ele>32.199999999999996</ele><time>2026-04-10T09:54:47.999Z</time></trkpt><trkpt lat="43.15706176343734" lon="2.97035251881627"><ele>32.6</ele><time>2026-04-10T09:54:48.999Z</time></trkpt><trkpt lat="43.15712165810934" lon="2.970452818943427"><ele>33.0</ele><time>2026-04-10T09:54:49.999Z</time></trkpt><trkpt lat="43.15718422956085" lon="2.970545900821224"><ele>33.0</ele><time>2026-04-10T09:54:50.999Z</time></trkpt><trkpt lat="43.15724645849353" lon="2.9706399549225853"><ele>33.0</ele><time>2026-04-10T09:54:51.999Z</time></trkpt><trkpt lat="43.15730855935728" lon="2.970737335059045"><ele>33.0</ele><time>2026-04-10T09:54:52.999Z</time></trkpt><trkpt lat="43.15736941253039" lon="2.970837545559329"><ele>33.0</ele><time>2026-04-10T09:54:53.999Z</time></trkpt><trkpt lat="43.15742482537903" lon="2.9709400262556893"><ele>33.0</ele><time>2026-04-10T09:54:54.999Z</time></trkpt><trkpt lat="43.15747790189928" lon="2.971029339828563"><ele>31.857142857142858</ele><time>2026-04-10T09:54:55.999Z</time></trkpt><trkpt lat="43.157532176621174" lon="2.9711146177318013"><ele>30.714285714285715</ele><time>2026-04-10T09:54:56.999Z</time></trkpt><trkpt lat="43.15758577304902" lon="2.971196645392449"><ele>29.571428571428573</ele><time>2026-04-10T09:54:57.999Z</time></trkpt><trkpt lat="43.157632671253324" lon="2.9712717008277383"><ele>28.42857142857143</ele><time>2026-04-10T09:54:58.999Z</time></trkpt><trkpt lat="43.15768016528101" lon="2.9713458022235186"><ele>27.285714285714285</ele><time>2026-04-10T09:54:59.999Z</time></trkpt><trkpt lat="43.15772844052881" lon="2.971414191078971"><ele>26.142857142857146</ele><time>2026-04-10T09:55:01Z</time></trkpt><trkpt lat="43.15777044130773" lon="2.97147864449189"><ele>25.0</ele><time>2026-04-10T09:55:02Z</time></trkpt><trkpt lat="43.157849422022174" lon="2.9716135096233667"><ele>25.000000000000004</ele><time>2026-04-10T09:55:04Z</time></trkpt><trkpt lat="43.157897786424634" lon="2.971679381774983"><ele>25.0</ele><time>2026-04-10T09:55:05Z</time></trkpt><trkpt lat="43.15797164291432" lon="2.971794436103959"><ele>25.0</ele><time>2026-04-10T09:55:07Z</time></trkpt><trkpt lat="43.15804666289269" lon="2.9719174291931245"><ele>25.0</ele><time>2026-04-10T09:55:09Z</time></trkpt><trkpt lat="43.15805905377546" lon="2.9720081313885856"><ele>25.000000000000004</ele><time>2026-04-10T09:55:10Z</time></trkpt><trkpt lat="43.15804692356939" lon="2.9721024995880154"><ele>25.0</ele><time>2026-04-10T09:55:11Z</time></trkpt><trkpt lat="43.158026739644505" lon="2.9721937402525"><ele>25.000000000000004</ele><time>2026-04-10T09:55:12Z</time></trkpt><trkpt lat="43.1580189885469" lon="2.9722869673369705"><ele>25.0</ele><time>2026-04-10T09:55:13Z</time></trkpt><trkpt lat="43.15803887615932" lon="2.9723826063309295"><ele>25.0</ele><time>2026-04-10T09:55:14Z</time></trkpt><trkpt lat="43.15807743033705" lon="2.972467194586578"><ele>25.0</ele><time>2026-04-10T09:55:15Z</time></trkpt><trkpt lat="43.1581199503455" lon="2.9725494035687348"><ele>25.000000000000004</ele><time>2026-04-10T09:55:16Z</time></trkpt><trkpt lat="43.15818491199112" lon="2.9725901706470883"><ele>25.0</ele><time>2026-04-10T09:55:17Z</time></trkpt><trkpt lat="43.158208182977155" lon="2.9728126825169237"><ele>25.166666666666668</ele><time>2026-04-10T09:55:19Z</time></trkpt><trkpt lat="43.15819893271899" lon="2.972917329127304"><ele>25.333333333333336</ele><time>2026-04-10T09:55:20Z</time></trkpt><trkpt lat="43.15818781219585" lon="2.973009415648983"><ele>25.5</ele><time>2026-04-10T09:55:21Z</time></trkpt><trkpt lat="43.158181124938324" lon="2.973097248645464"><ele>25.666666666666664</ele><time>2026-04-10T09:55:22Z</time></trkpt><trkpt lat="43.158172517570875" lon="2.9731868731761053"><ele>25.833333333333332</ele><time>2026-04-10T09:55:23Z</time></trkpt><trkpt lat="43.15815369826985" lon="2.973341732997296"><ele>26.0</ele><time>2026-04-10T09:55:25Z</time></trkpt><trkpt lat="43.158142806411625" lon="2.9734950355834604"><ele>26.0</ele><time>2026-04-10T09:55:27Z</time></trkpt><trkpt lat="43.15812843492182" lon="2.9736473252060667"><ele>26.0</ele><time>2026-04-10T09:55:29Z</time></trkpt><trkpt lat="43.158113236359334" lon="2.9738015209866"><ele>26.0</ele><time>2026-04-10T09:55:31Z</time></trkpt><trkpt lat="43.158101677547535" lon="2.973961010777903"><ele>26.0</ele><time>2026-04-10T09:55:33Z</time></trkpt><trkpt lat="43.15808804581675" lon="2.974133400340324"><ele>25.285714285714285</ele><time>2026-04-10T09:55:35Z</time></trkpt><trkpt lat="43.158077232192774" lon="2.9742235416311327"><ele>24.571428571428573</ele><time>2026-04-10T09:55:36Z</time></trkpt><trkpt lat="43.15806840336559" lon="2.9743175219432514"><ele>23.857142857142858</ele><time>2026-04-10T09:55:37Z</time></trkpt><trkpt lat="43.15806838225502" lon="2.9744199453213995"><ele>23.142857142857142</ele><time>2026-04-10T09:55:38Z</time></trkpt><trkpt lat="43.158067236012236" lon="2.9745251054975204"><ele>22.42857142857143</ele><time>2026-04-10T09:55:39Z</time></trkpt><trkpt lat="43.15805711281415" lon="2.9746289295361854"><ele>21.714285714285715</ele><time>2026-04-10T09:55:40Z</time></trkpt><trkpt lat="43.15804943181489" lon="2.97472955058628"><ele>21.0</ele><time>2026-04-10T09:55:41Z</time></trkpt><trkpt lat="43.158040150469" lon="2.974827001956281"><ele>21.0</ele><time>2026-04-10T09:55:42Z</time></trkpt><trkpt lat="43.158032166585244" lon="2.9749194319906036"><ele>21.0</ele><time>2026-04-10T09:55:43Z</time></trkpt><trkpt lat="43.15801411680174" lon="2.9750863208557368"><ele>21.0</ele><time>2026-04-10T09:55:45Z</time></trkpt><trkpt lat="43.15799854972555" lon="2.9752564361618847"><ele>21.0</ele><time>2026-04-10T09:55:47Z</time></trkpt><trkpt lat="43.15798626692987" lon="2.975427916803917"><ele>21.0</ele><time>2026-04-10T09:55:49Z</time></trkpt><trkpt lat="43.15797701433355" lon="2.975597002443202"><ele>20.333333333333332</ele><time>2026-04-10T09:55:51Z</time></trkpt><trkpt lat="43.15796405530843" lon="2.975769726389912"><ele>19.666666666666668</ele><time>2026-04-10T09:55:53Z</time></trkpt><trkpt lat="43.157954800768664" lon="2.9758583786627995"><ele>19.0</ele><time>2026-04-10T09:55:54Z</time></trkpt><trkpt lat="43.15794580756522" lon="2.9759500818226092"><ele>18.333333333333336</ele><time>2026-04-10T09:55:55Z</time></trkpt><trkpt lat="43.157936994429704" lon="2.9760405999422654"><ele>17.666666666666668</ele><time>2026-04-10T09:55:56Z</time></trkpt><trkpt lat="43.157923900699366" lon="2.976192267305446"><ele>17.0</ele><time>2026-04-10T09:55:58Z</time></trkpt><trkpt lat="43.15790950877918" lon="2.9763556847362107"><ele>16.666666666666668</ele><time>2026-04-10T09:56:00Z</time></trkpt><trkpt lat="43.15789671908059" lon="2.9765264904128186"><ele>16.333333333333336</ele><time>2026-04-10T09:56:02Z</time></trkpt><trkpt lat="43.15788791733403" lon="2.9766145377049926"><ele>16.0</ele><time>2026-04-10T09:56:03Z</time></trkpt><trkpt lat="43.15788030796221" lon="2.976703504034066"><ele>15.666666666666668</ele><time>2026-04-10T09:56:04Z</time></trkpt><trkpt lat="43.157871094396974" lon="2.9767961405927994"><ele>15.333333333333334</ele><time>2026-04-10T09:56:05Z</time></trkpt><trkpt lat="43.15786252533061" lon="2.9768873471238173"><ele>15.0</ele><time>2026-04-10T09:56:06Z</time></trkpt><trkpt lat="43.15785714073143" lon="2.976980392336441"><ele>14.833333333333334</ele><time>2026-04-10T09:56:07Z</time></trkpt><trkpt lat="43.157850444732695" lon="2.977074497843581"><ele>14.666666666666668</ele><time>2026-04-10T09:56:08Z</time></trkpt><trkpt lat="43.157841085494965" lon="2.977161234652017"><ele>14.5</ele><time>2026-04-10T09:56:09Z</time></trkpt><trkpt lat="43.15782999928022" lon="2.9772484561798174"><ele>14.333333333333334</ele><time>2026-04-10T09:56:10Z</time></trkpt><trkpt lat="43.15782147314428" lon="2.977336356499894"><ele>14.166666666666668</ele><time>2026-04-10T09:56:11Z</time></trkpt><trkpt lat="43.15780325754703" lon="2.9774980269487314"><ele>14.0</ele><time>2026-04-10T09:56:13Z</time></trkpt><trkpt lat="43.15774250234678" lon="2.977641889013599"><ele>13.399999999999999</ele><time>2026-04-10T09:56:15Z</time></trkpt><trkpt lat="43.15769310010394" lon="2.977703148533605"><ele>12.799999999999999</ele><time>2026-04-10T09:56:16Z</time></trkpt><trkpt lat="43.15764148954856" lon="2.9777539708584784"><ele>12.2</ele><time>2026-04-10T09:56:17Z</time></trkpt><trkpt lat="43.15755790141949" lon="2.9778750154758975"><ele>11.600000000000001</ele><time>2026-04-10T09:56:19Z</time></trkpt><trkpt lat="43.157510851165455" lon="2.978030795644088"><ele>11.0</ele><time>2026-04-10T09:56:20.999Z</time></trkpt><trkpt lat="43.157516359030886" lon="2.9781806311602557"><ele>11.0</ele><time>2026-04-10T09:56:22.999Z</time></trkpt><trkpt lat="43.1575565805959" lon="2.9783217625692453"><ele>11.0</ele><time>2026-04-10T09:56:24.999Z</time></trkpt><trkpt lat="43.15764460093739" lon="2.9784202077887665"><ele>11.0</ele><time>2026-04-10T09:56:26.999Z</time></trkpt><trkpt lat="43.157596082308224" lon="2.978640251346071"><ele>11.0</ele><time>2026-04-10T09:56:28.999Z</time></trkpt><trkpt lat="43.15757228557838" lon="2.9787293487919957"><ele>10.857142857142858</ele><time>2026-04-10T09:56:29.999Z</time></trkpt><trkpt lat="43.157555226127116" lon="2.9788202767399965"><ele>10.714285714285714</ele><time>2026-04-10T09:56:30.999Z</time></trkpt><trkpt lat="43.157538037600524" lon="2.9789112780461284"><ele>10.571428571428571</ele><time>2026-04-10T09:56:31.999Z</time></trkpt><trkpt lat="43.157518859450754" lon="2.9789947623974435"><ele>10.428571428571429</ele><time>2026-04-10T09:56:32.999Z</time></trkpt><trkpt lat="43.15750144315335" lon="2.9790801186021003"><ele>10.285714285714286</ele><time>2026-04-10T09:56:33.999Z</time></trkpt><trkpt lat="43.15747989256093" lon="2.9791658837237573"><ele>10.142857142857142</ele><time>2026-04-10T09:56:34.999Z</time></trkpt><trkpt lat="43.157456343341096" lon="2.9792502268981282"><ele>10.0</ele><time>2026-04-10T09:56:35.999Z</time></trkpt><trkpt lat="43.15743895813847" lon="2.9793349487951555"><ele>9.857142857142858</ele><time>2026-04-10T09:56:36.999Z</time></trkpt><trkpt lat="43.15741996162984" lon="2.979421135423837"><ele>9.714285714285715</ele><time>2026-04-10T09:56:37.999Z</time></trkpt><trkpt lat="43.157398798273064" lon="2.9795075872179404"><ele>9.571428571428573</ele><time>2026-04-10T09:56:38.999Z</time></trkpt><trkpt lat="43.15737709366374" lon="2.9795965891561957"><ele>9.428571428571429</ele><time>2026-04-10T09:56:39.999Z</time></trkpt><trkpt lat="43.15735601117666" lon="2.979686605546994"><ele>9.285714285714286</ele><time>2026-04-10T09:56:40.999Z</time></trkpt><trkpt lat="43.15733260672712" lon="2.9797803211750558"><ele>9.142857142857144</ele><time>2026-04-10T09:56:41.999Z</time></trkpt><trkpt lat="43.1573152007614" lon="2.9798703465946876"><ele>9.0</ele><time>2026-04-10T09:56:42.999Z</time></trkpt><trkpt lat="43.15728387217227" lon="2.98003617007207"><ele>9.5</ele><time>2026-04-10T09:56:44.999Z</time></trkpt><trkpt lat="43.1572649936925" lon="2.980119326816099"><ele>10.0</ele><time>2026-04-10T09:56:45.999Z</time></trkpt><trkpt lat="43.157245185495285" lon="2.980203286849819"><ele>10.5</ele><time>2026-04-10T09:56:46.999Z</time></trkpt><trkpt lat="43.15722813725486" lon="2.9802889529962147"><ele>11.0</ele><time>2026-04-10T09:56:47.999Z</time></trkpt><trkpt lat="43.15721000474776" lon="2.9803718640104027"><ele>11.5</ele><time>2026-04-10T09:56:48.999Z</time></trkpt><trkpt lat="43.15717761705666" lon="2.9805306935023888"><ele>12.0</ele><time>2026-04-10T09:56:50.999Z</time></trkpt><trkpt lat="43.157124303172104" lon="2.980674199154381"><ele>12.0</ele><time>2026-04-10T09:56:52.999Z</time></trkpt><trkpt lat="43.1570113466593" lon="2.980738049271858"><ele>12.0</ele><time>2026-04-10T09:56:54.999Z</time></trkpt><trkpt lat="43.1568999551156" lon="2.9807885349598844"><ele>12.0</ele><time>2026-04-10T09:56:56.999Z</time></trkpt><trkpt lat="43.1568278099944" lon="2.980911771377631"><ele>12.0</ele><time>2026-04-10T09:56:58.999Z</time></trkpt><trkpt lat="43.156731067143205" lon="2.980978324955652"><ele>11.666666666666666</ele><time>2026-04-10T09:57:00.999Z</time></trkpt><trkpt lat="43.15663778986159" lon="2.9810215304684955"><ele>11.333333333333334</ele><time>2026-04-10T09:57:02.999Z</time></trkpt><trkpt lat="43.156570666174254" lon="2.981045927326073"><ele>11.0</ele><time>2026-04-10T09:57:04.999Z</time></trkpt><trkpt lat="43.156506528087874" lon="2.981051184892032"><ele>10.666666666666668</ele><time>2026-04-10T09:57:07.001Z</time></trkpt><trkpt lat="43.156439707538944" lon="2.9810314450521256"><ele>10.333333333333334</ele><time>2026-04-10T09:57:09.001Z</time></trkpt><trkpt lat="43.15636494791415" lon="2.9809992603435944"><ele>10.0</ele><time>2026-04-10T09:57:11.001Z</time></trkpt><trkpt lat="43.15628913352161" lon="2.9809553452845803"><ele>10.0</ele><time>2026-04-10T09:57:13.001Z</time></trkpt><trkpt lat="43.15620537815387" lon="2.980926644554459"><ele>10.0</ele><time>2026-04-10T09:57:15.001Z</time></trkpt><trkpt lat="43.15613548306514" lon="2.9809258078280707"><ele>10.0</ele><time>2026-04-10T09:57:17.001Z</time></trkpt><trkpt lat="43.156063780704194" lon="2.9809314035390466"><ele>10.0</ele><time>2026-04-10T09:57:21Z</time></trkpt><trkpt lat="43.15611691962189" lon="2.9810484115013365"><ele>10.0</ele><time>2026-04-10T09:57:34Z</time></trkpt><trkpt lat="43.1561720150585" lon="2.981090352810351"><ele>10.0</ele><time>2026-04-10T09:57:36Z</time></trkpt><trkpt lat="43.156269415343175" lon="2.980965812106071"><ele>10.0</ele><time>2026-04-10T09:57:38Z</time></trkpt><trkpt lat="43.1563405551145" lon="2.9809958429961956"><ele>10.0</ele><time>2026-04-10T09:57:40Z</time></trkpt><trkpt lat="43.156425550454536" lon="2.9810273381370576"><ele>10.0</ele><time>2026-04-10T09:57:43Z</time></trkpt><trkpt lat="43.1565049309159" lon="2.9810432150009056"><ele>10.0</ele><time>2026-04-10T09:57:46Z</time></trkpt><trkpt lat="43.15644230013746" lon="2.981554775671212"><ele>10.0</ele><time>2026-04-10T09:58:09Z</time></trkpt><trkpt lat="43.15635183099409" lon="2.9815373799136276"><ele>10.0</ele><time>2026-04-10T09:58:11Z</time></trkpt><trkpt lat="43.15626081991401" lon="2.9814973593391993"><ele>10.0</ele><time>2026-04-10T09:58:13Z</time></trkpt><trkpt lat="43.15617884235771" lon="2.9814629009733364"><ele>10.0</ele><time>2026-04-10T09:58:15Z</time></trkpt><trkpt lat="43.15610424658369" lon="2.9814337722851287"><ele>10.0</ele><time>2026-04-10T09:58:17Z</time></trkpt><trkpt lat="43.15602527406325" lon="2.981400082631453"><ele>10.0</ele><time>2026-04-10T09:58:19Z</time></trkpt><trkpt lat="43.155953938768064" lon="2.981368341087002"><ele>10.0</ele><time>2026-04-10T09:58:21Z</time></trkpt><trkpt lat="43.155887527470945" lon="2.981341788835844"><ele>10.0</ele><time>2026-04-10T09:58:23Z</time></trkpt><trkpt lat="43.15582777290068" lon="2.9813077293595254"><ele>10.0</ele><time>2026-04-10T09:58:25Z</time></trkpt><trkpt lat="43.15585721220343" lon="2.981071419328936"><ele>10.0</ele><time>2026-04-10T09:58:26Z</time></trkpt><trkpt lat="43.155797267618816" lon="2.9810438638420362"><ele>10.0</ele><time>2026-04-10T09:58:28Z</time></trkpt><trkpt lat="43.15572222844082" lon="2.9810097087891845"><ele>10.142857142857142</ele><time>2026-04-10T09:58:30Z</time></trkpt><trkpt lat="43.1556507359123" lon="2.9809792199315335"><ele>10.285714285714286</ele><time>2026-04-10T09:58:32Z</time></trkpt><trkpt lat="43.155576797814945" lon="2.9809476881311383"><ele>10.428571428571429</ele><time>2026-04-10T09:58:34Z</time></trkpt><trkpt lat="43.155502707231115" lon="2.980916758210931"><ele>10.571428571428571</ele><time>2026-04-10T09:58:36Z</time></trkpt><trkpt lat="43.155438322953174" lon="2.980890105011024"><ele>10.714285714285714</ele><time>2026-04-10T09:58:38Z</time></trkpt><trkpt lat="43.15537545204418" lon="2.980864078566371"><ele>10.857142857142858</ele><time>2026-04-10T09:58:39.999Z</time></trkpt><trkpt lat="43.155304885048565" lon="2.9808353435155364"><ele>11.0</ele><time>2026-04-10T09:58:41.999Z</time></trkpt><trkpt lat="43.15523723555518" lon="2.9808076194321376"><ele>11.0</ele><time>2026-04-10T09:58:43.999Z</time></trkpt><trkpt lat="43.15516819665659" lon="2.980779490098283"><ele>11.0</ele><time>2026-04-10T09:58:45.999Z</time></trkpt><trkpt lat="43.15509692090763" lon="2.9807505041757736"><ele>11.0</ele><time>2026-04-10T09:58:47.999Z</time></trkpt><trkpt lat="43.15502572309918" lon="2.9807215499426363"><ele>11.0</ele><time>2026-04-10T09:58:49.999Z</time></trkpt><trkpt lat="43.154953722769385" lon="2.980692269354619"><ele>11.0</ele><time>2026-04-10T09:58:51.999Z</time></trkpt><trkpt lat="43.1548816376022" lon="2.980662954257195"><ele>11.0</ele><time>2026-04-10T09:58:53.999Z</time></trkpt><trkpt lat="43.154815645094395" lon="2.9806361168872733"><ele>11.0</ele><time>2026-04-10T09:58:55.999Z</time></trkpt><trkpt lat="43.15474763986018" lon="2.9806084609998633"><ele>10.857142857142858</ele><time>2026-04-10T09:58:57.999Z</time></trkpt><trkpt lat="43.15467900121697" lon="2.9805803866796468"><ele>10.714285714285714</ele><time>2026-04-10T09:58:59.999Z</time></trkpt><trkpt lat="43.1546113293382" lon="2.980552222398701"><ele>10.571428571428571</ele><time>2026-04-10T09:59:01.999Z</time></trkpt><trkpt lat="43.15454408665125" lon="2.980524236740279"><ele>10.428571428571429</ele><time>2026-04-10T09:59:03.999Z</time></trkpt><trkpt lat="43.154477896576914" lon="2.980496689166488"><ele>10.285714285714286</ele><time>2026-04-10T09:59:05.999Z</time></trkpt><trkpt lat="43.15441180508646" lon="2.9804691826248106"><ele>10.142857142857142</ele><time>2026-04-10T09:59:07.999Z</time></trkpt><trkpt lat="43.154350704305706" lon="2.9804444273662773"><ele>10.0</ele><time>2026-04-10T09:59:09.999Z</time></trkpt><trkpt lat="43.15425626857159" lon="2.980406432318959"><ele>10.0</ele><time>2026-04-10T09:59:13.001Z</time></trkpt><trkpt lat="43.154182342471735" lon="2.980376689066633"><ele>10.0</ele><time>2026-04-10T09:59:15.001Z</time></trkpt><trkpt lat="43.15410737120744" lon="2.9803465253008254"><ele>10.0</ele><time>2026-04-10T09:59:17.001Z</time></trkpt><trkpt lat="43.15403428357053" lon="2.9803171193925064"><ele>10.0</ele><time>2026-04-10T09:59:19.001Z</time></trkpt><trkpt lat="43.15395824772772" lon="2.9802865273115438"><ele>10.0</ele><time>2026-04-10T09:59:21.001Z</time></trkpt><trkpt lat="43.15388166416817" lon="2.980255714858897"><ele>10.0</ele><time>2026-04-10T09:59:23.001Z</time></trkpt><trkpt lat="43.153807270802126" lon="2.9802257836086237"><ele>9.833333333333334</ele><time>2026-04-10T09:59:25.001Z</time></trkpt><trkpt lat="43.153741496685086" lon="2.9801993202059847"><ele>9.666666666666668</ele><time>2026-04-10T09:59:27.001Z</time></trkpt><trkpt lat="43.15366927083385" lon="2.9801702610225336"><ele>9.5</ele><time>2026-04-10T09:59:29.001Z</time></trkpt><trkpt lat="43.15359007423973" lon="2.9801386468716147"><ele>9.333333333333334</ele><time>2026-04-10T09:59:31Z</time></trkpt><trkpt lat="43.15351227341042" lon="2.9801078401245853"><ele>9.166666666666666</ele><time>2026-04-10T09:59:33Z</time></trkpt><trkpt lat="43.153431212463325" lon="2.980075742473261"><ele>9.0</ele><time>2026-04-10T09:59:35Z</time></trkpt><trkpt lat="43.153355956194794" lon="2.9800459432996482"><ele>9.000000000000002</ele><time>2026-04-10T09:59:37Z</time></trkpt><trkpt lat="43.15328248537003" lon="2.9800168511023606"><ele>9.0</ele><time>2026-04-10T09:59:39Z</time></trkpt><trkpt lat="43.15321228868531" lon="2.9799878770232477"><ele>9.0</ele><time>2026-04-10T09:59:41Z</time></trkpt><trkpt lat="43.15314340162878" lon="2.979959346143971"><ele>9.0</ele><time>2026-04-10T09:59:43Z</time></trkpt><trkpt lat="43.15307855616302" lon="2.9799324891697796"><ele>9.0</ele><time>2026-04-10T09:59:45Z</time></trkpt><trkpt lat="43.15300012978426" lon="2.9799006450969303"><ele>9.000000000000002</ele><time>2026-04-10T09:59:48Z</time></trkpt><trkpt lat="43.15293340543605" lon="2.9798737598270577"><ele>9.0</ele><time>2026-04-10T09:59:51Z</time></trkpt><trkpt lat="43.152856213539636" lon="2.979842656871378"><ele>9.666666666666666</ele><time>2026-04-10T09:59:53Z</time></trkpt><trkpt lat="43.15276626161525" lon="2.979806241228465"><ele>10.333333333333332</ele><time>2026-04-10T09:59:55Z</time></trkpt><trkpt lat="43.152667273163935" lon="2.9797653925555956"><ele>11.0</ele><time>2026-04-10T09:59:57Z</time></trkpt><trkpt lat="43.1525856658358" lon="2.979731716411913"><ele>11.666666666666666</ele><time>2026-04-10T09:59:59Z</time></trkpt><trkpt lat="43.152509571371446" lon="2.979700315208218"><ele>12.333333333333332</ele><time>2026-04-10T10:00:01Z</time></trkpt><trkpt lat="43.15243407529123" lon="2.979669160936078"><ele>13.0</ele><time>2026-04-10T10:00:03Z</time></trkpt><trkpt lat="43.15235449073118" lon="2.9796363195005737"><ele>13.714285714285714</ele><time>2026-04-10T10:00:05Z</time></trkpt><trkpt lat="43.15227851139768" lon="2.9796049658062524"><ele>14.42857142857143</ele><time>2026-04-10T10:00:07Z</time></trkpt><trkpt lat="43.152204415357566" lon="2.979574389267702"><ele>15.142857142857144</ele><time>2026-04-10T10:00:09Z</time></trkpt><trkpt lat="43.15213503068799" lon="2.9795457569374024"><ele>15.857142857142858</ele><time>2026-04-10T10:00:11Z</time></trkpt><trkpt lat="43.15206674359583" lon="2.9795162802728465"><ele>16.571428571428573</ele><time>2026-04-10T10:00:13Z</time></trkpt><trkpt lat="43.152005803515515" lon="2.979489215567067"><ele>17.28571428571429</ele><time>2026-04-10T10:00:15Z</time></trkpt><trkpt lat="43.151943051981924" lon="2.9794607280743115"><ele>18.0</ele><time>2026-04-10T10:00:17Z</time></trkpt><trkpt lat="43.1518706889852" lon="2.9794270578904634"><ele>18.0</ele><time>2026-04-10T10:00:19Z</time></trkpt><trkpt lat="43.1517925147715" lon="2.97939049083947"><ele>18.0</ele><time>2026-04-10T10:00:21Z</time></trkpt><trkpt lat="43.15171533773569" lon="2.979353136507134"><ele>18.0</ele><time>2026-04-10T10:00:23Z</time></trkpt><trkpt lat="43.151640362093225" lon="2.979314463603273"><ele>18.0</ele><time>2026-04-10T10:00:25Z</time></trkpt><trkpt lat="43.15157629941312" lon="2.979281419732819"><ele>18.0</ele><time>2026-04-10T10:00:27Z</time></trkpt><trkpt lat="43.15149887290896" lon="2.9792409339679575"><ele>18.0</ele><time>2026-04-10T10:00:29Z</time></trkpt><trkpt lat="43.15142032118803" lon="2.979199211283178"><ele>17.666666666666668</ele><time>2026-04-10T10:00:31Z</time></trkpt><trkpt lat="43.15134339798564" lon="2.979157246644872"><ele>17.333333333333332</ele><time>2026-04-10T10:00:33Z</time></trkpt><trkpt lat="43.15126939690368" lon="2.979116746435874"><ele>17.0</ele><time>2026-04-10T10:00:35Z</time></trkpt><trkpt lat="43.15118534398995" lon="2.9790707449325255"><ele>16.666666666666664</ele><time>2026-04-10T10:00:36.999Z</time></trkpt><trkpt lat="43.15110075823179" lon="2.979023864729139"><ele>16.333333333333332</ele><time>2026-04-10T10:00:38.999Z</time></trkpt><trkpt lat="43.15101810765131" lon="2.978976959477663"><ele>16.0</ele><time>2026-04-10T10:00:40.999Z</time></trkpt><trkpt lat="43.15093977896467" lon="2.978932506947433"><ele>15.999999999999998</ele><time>2026-04-10T10:00:42.999Z</time></trkpt><trkpt lat="43.15086034652331" lon="2.9788874280396676"><ele>16.0</ele><time>2026-04-10T10:00:44.999Z</time></trkpt><trkpt lat="43.150786222431165" lon="2.9788453618353534"><ele>16.0</ele><time>2026-04-10T10:00:46.999Z</time></trkpt><trkpt lat="43.150707649484204" lon="2.9788007709460227"><ele>16.0</ele><time>2026-04-10T10:00:48.999Z</time></trkpt><trkpt lat="43.15062628385304" lon="2.978754229142741"><ele>15.999999999999998</ele><time>2026-04-10T10:00:50.999Z</time></trkpt><trkpt lat="43.15054325967052" lon="2.9787069661058303"><ele>16.0</ele><time>2026-04-10T10:00:52.999Z</time></trkpt><trkpt lat="43.15046100203823" lon="2.9786601394468177"><ele>16.400000000000002</ele><time>2026-04-10T10:00:54.999Z</time></trkpt><trkpt lat="43.150378143497136" lon="2.9786132128441056"><ele>16.8</ele><time>2026-04-10T10:00:56.999Z</time></trkpt><trkpt lat="43.15027620853719" lon="2.9785557183252607"><ele>17.200000000000003</ele><time>2026-04-10T10:00:58.999Z</time></trkpt><trkpt lat="43.15017258429325" lon="2.978497271109445"><ele>17.6</ele><time>2026-04-10T10:01:00.999Z</time></trkpt><trkpt lat="43.15008153566122" lon="2.9784451613944016"><ele>18.0</ele><time>2026-04-10T10:01:02.999Z</time></trkpt><trkpt lat="43.149993937421804" lon="2.9783952303931978"><ele>17.6</ele><time>2026-04-10T10:01:04.999Z</time></trkpt><trkpt lat="43.149905183480456" lon="2.9783446406458767"><ele>17.200000000000003</ele><time>2026-04-10T10:01:06.999Z</time></trkpt><trkpt lat="43.14981842072212" lon="2.9782951860936806"><ele>16.8</ele><time>2026-04-10T10:01:08.999Z</time></trkpt><trkpt lat="43.14973654192217" lon="2.978247020421662"><ele>16.400000000000002</ele><time>2026-04-10T10:01:10.999Z</time></trkpt><trkpt lat="43.149651693961985" lon="2.9781978207222575"><ele>16.0</ele><time>2026-04-10T10:01:12.999Z</time></trkpt><trkpt lat="43.14956952360676" lon="2.9782955355781775"><ele>16.0</ele><time>2026-04-10T10:01:13.999Z</time></trkpt><trkpt lat="43.14948217043428" lon="2.978271171294636"><ele>16.0</ele><time>2026-04-10T10:01:15.999Z</time></trkpt><trkpt lat="43.149455149618284" lon="2.9780854490916355"><ele>16.0</ele><time>2026-04-10T10:01:17.999Z</time></trkpt><trkpt lat="43.149388380686325" lon="2.978047371099038"><ele>16.0</ele><time>2026-04-10T10:01:20.001Z</time></trkpt><trkpt lat="43.14930228272413" lon="2.9779982698634293"><ele>16.0</ele><time>2026-04-10T10:01:23.001Z</time></trkpt><trkpt lat="43.149242093776095" lon="2.977963505588508"><ele>15.999999999999998</ele><time>2026-04-10T10:01:25.001Z</time></trkpt><trkpt lat="43.149179479718704" lon="2.9779273735267324"><ele>16.0</ele><time>2026-04-10T10:01:27.001Z</time></trkpt><trkpt lat="43.1490875080535" lon="2.9778714021486534"><ele>16.0</ele><time>2026-04-10T10:01:30.001Z</time></trkpt><trkpt lat="43.14901474364183" lon="2.9778296308234533"><ele>16.0</ele><time>2026-04-10T10:01:32.001Z</time></trkpt><trkpt lat="43.14893256624557" lon="2.977782455861983"><ele>15.999999999999998</ele><time>2026-04-10T10:01:34Z</time></trkpt><trkpt lat="43.14885718602355" lon="2.977739182906918"><ele>16.0</ele><time>2026-04-10T10:01:36Z</time></trkpt><trkpt lat="43.14878291685419" lon="2.97769654775684"><ele>15.833333333333332</ele><time>2026-04-10T10:01:38Z</time></trkpt><trkpt lat="43.14871453687209" lon="2.9776577223891985"><ele>15.666666666666666</ele><time>2026-04-10T10:01:40Z</time></trkpt><trkpt lat="43.14865561573922" lon="2.977623766372253"><ele>15.5</ele><time>2026-04-10T10:01:42Z</time></trkpt><trkpt lat="43.14859115819095" lon="2.977627973663475"><ele>15.333333333333332</ele><time>2026-04-10T10:01:45Z</time></trkpt><trkpt lat="43.148547762490985" lon="2.9777336097456604"><ele>15.166666666666666</ele><time>2026-04-10T10:01:48Z</time></trkpt><trkpt lat="43.14860416123493" lon="2.977626511428425"><ele>15.0</ele><time>2026-04-10T10:01:50Z</time></trkpt><trkpt lat="43.14864333871481" lon="2.9775289085381864"><ele>14.833333333333334</ele><time>2026-04-10T10:01:52Z</time></trkpt><trkpt lat="43.148676668240064" lon="2.9774365634818647"><ele>14.666666666666668</ele><time>2026-04-10T10:01:54Z</time></trkpt><trkpt lat="43.14866496246887" lon="2.9773467467918593"><ele>14.5</ele><time>2026-04-10T10:01:57Z</time></trkpt><trkpt lat="43.148614504590434" lon="2.9772674691287535"><ele>14.333333333333334</ele><time>2026-04-10T10:02:01Z</time></trkpt><trkpt lat="43.14853732479217" lon="2.9772046071018092"><ele>14.166666666666668</ele><time>2026-04-10T10:02:04Z</time></trkpt><trkpt lat="43.14845600899261" lon="2.97717095324083"><ele>14.0</ele><time>2026-04-10T10:02:07Z</time></trkpt><trkpt lat="43.14837269927394" lon="2.977155718707803"><ele>14.000000000000002</ele><time>2026-04-10T10:02:10Z</time></trkpt><trkpt lat="43.148306905581215" lon="2.9771200899030257"><ele>14.0</ele><time>2026-04-10T10:02:13Z</time></trkpt><trkpt lat="43.14824080403715" lon="2.9770964266375155"><ele>14.0</ele><time>2026-04-10T10:02:16Z</time></trkpt><trkpt lat="43.14815712222159" lon="2.9770408046285803"><ele>14.0</ele><time>2026-04-10T10:02:19Z</time></trkpt><trkpt lat="43.14806360107637" lon="2.9769938888849263"><ele>14.000000000000002</ele><time>2026-04-10T10:02:22Z</time></trkpt><trkpt lat="43.14799930618076" lon="2.9769511818819825"><ele>14.0</ele><time>2026-04-10T10:02:24Z</time></trkpt><trkpt lat="43.14793933920782" lon="2.976920576760302"><ele>13.857142857142858</ele><time>2026-04-10T10:02:26Z</time></trkpt><trkpt lat="43.14785734013342" lon="2.976874651736732"><ele>13.714285714285715</ele><time>2026-04-10T10:02:29Z</time></trkpt><trkpt lat="43.147794126303474" lon="2.97683881440986"><ele>13.571428571428571</ele><time>2026-04-10T10:02:30.999Z</time></trkpt><trkpt lat="43.14773123546884" lon="2.9768018963341514"><ele>13.428571428571429</ele><time>2026-04-10T10:02:32.999Z</time></trkpt><trkpt lat="43.147662900441176" lon="2.9767557974898256"><ele>13.285714285714286</ele><time>2026-04-10T10:02:34.999Z</time></trkpt><trkpt lat="43.14759447397688" lon="2.9767154909760563"><ele>13.142857142857142</ele><time>2026-04-10T10:02:36.999Z</time></trkpt><trkpt lat="43.14753294667026" lon="2.976678186105061"><ele>13.0</ele><time>2026-04-10T10:02:38.999Z</time></trkpt><trkpt lat="43.147462124467545" lon="2.976640791354235"><ele>13.285714285714285</ele><time>2026-04-10T10:02:40.999Z</time></trkpt><trkpt lat="43.14739100283269" lon="2.9766007926333073"><ele>13.571428571428573</ele><time>2026-04-10T10:02:42.999Z</time></trkpt><trkpt lat="43.14732458282303" lon="2.976565609110782"><ele>13.857142857142858</ele><time>2026-04-10T10:02:44.999Z</time></trkpt><trkpt lat="43.147255707649094" lon="2.9765281841939664"><ele>14.142857142857142</ele><time>2026-04-10T10:02:46.999Z</time></trkpt><trkpt lat="43.14718833143983" lon="2.9764858538168735"><ele>14.428571428571427</ele><time>2026-04-10T10:02:48.999Z</time></trkpt><trkpt lat="43.14712355711975" lon="2.9764490219154003"><ele>14.714285714285715</ele><time>2026-04-10T10:02:50.999Z</time></trkpt><trkpt lat="43.147056215875814" lon="2.9764123318432656"><ele>15.0</ele><time>2026-04-10T10:02:52.999Z</time></trkpt><trkpt lat="43.146991849227774" lon="2.976374376078144"><ele>15.428571428571429</ele><time>2026-04-10T10:02:54.999Z</time></trkpt><trkpt lat="43.14692289645946" lon="2.9763282757515146"><ele>15.857142857142858</ele><time>2026-04-10T10:02:56.999Z</time></trkpt><trkpt lat="43.146858574745266" lon="2.9762814353420834"><ele>16.285714285714285</ele><time>2026-04-10T10:02:58.999Z</time></trkpt><trkpt lat="43.14679857407787" lon="2.9762394764280815"><ele>16.714285714285715</ele><time>2026-04-10T10:03:00.999Z</time></trkpt><trkpt lat="43.14673764806869" lon="2.976200423596289"><ele>17.142857142857142</ele><time>2026-04-10T10:03:02.999Z</time></trkpt><trkpt lat="43.14667790484804" lon="2.9761544577540398"><ele>17.571428571428573</ele><time>2026-04-10T10:03:04.999Z</time></trkpt><trkpt lat="43.14662103601226" lon="2.976101947869032"><ele>18.0</ele><time>2026-04-10T10:03:06.999Z</time></trkpt><trkpt lat="43.14657186955241" lon="2.976023631536561"><ele>18.333333333333332</ele><time>2026-04-10T10:03:08.999Z</time></trkpt><trkpt lat="43.14653178901713" lon="2.975936763307653"><ele>18.666666666666668</ele><time>2026-04-10T10:03:10.999Z</time></trkpt><trkpt lat="43.1464811117458" lon="2.975872702994794"><ele>19.0</ele><time>2026-04-10T10:03:12.999Z</time></trkpt><trkpt lat="43.146411062247594" lon="2.975837803336907"><ele>19.333333333333336</ele><time>2026-04-10T10:03:14.999Z</time></trkpt><trkpt lat="43.14632970804869" lon="2.975799011257637"><ele>19.666666666666668</ele><time>2026-04-10T10:03:17.999Z</time></trkpt><trkpt lat="43.14626228447206" lon="2.9757562610929376"><ele>20.0</ele><time>2026-04-10T10:03:20.999Z</time></trkpt><trkpt lat="43.1461937246773" lon="2.975712193108422"><ele>20.285714285714285</ele><time>2026-04-10T10:03:23.999Z</time></trkpt><trkpt lat="43.14610893435791" lon="2.9756664056041435"><ele>20.571428571428573</ele><time>2026-04-10T10:03:27Z</time></trkpt><trkpt lat="43.146038668973965" lon="2.975622731615704"><ele>20.857142857142858</ele><time>2026-04-10T10:03:29Z</time></trkpt><trkpt lat="43.14598509412158" lon="2.975560957366853"><ele>21.142857142857142</ele><time>2026-04-10T10:03:31Z</time></trkpt><trkpt lat="43.14593523621108" lon="2.975485809757028"><ele>21.428571428571427</ele><time>2026-04-10T10:03:33Z</time></trkpt><trkpt lat="43.14589540885692" lon="2.975407199242585"><ele>21.714285714285715</ele><time>2026-04-10T10:03:35Z</time></trkpt><trkpt lat="43.14588328710806" lon="2.9753194552565843"><ele>22.0</ele><time>2026-04-10T10:03:37Z</time></trkpt><trkpt lat="43.14587419660503" lon="2.9752094648359537"><ele>22.0</ele><time>2026-04-10T10:03:40Z</time></trkpt><trkpt lat="43.14587945328689" lon="2.975091109773763"><ele>22.0</ele><time>2026-04-10T10:03:43Z</time></trkpt><trkpt lat="43.14588328483414" lon="2.9749912941877645"><ele>22.0</ele><time>2026-04-10T10:03:45Z</time></trkpt><trkpt lat="43.145892349598604" lon="2.9748874239820164"><ele>22.0</ele><time>2026-04-10T10:03:48Z</time></trkpt><trkpt lat="43.14588641673962" lon="2.974770435153273"><ele>22.0</ele><time>2026-04-10T10:03:52Z</time></trkpt><trkpt lat="43.145874406347474" lon="2.974653476964739"><ele>22.0</ele><time>2026-04-10T10:03:55Z</time></trkpt><trkpt lat="43.14585403202833" lon="2.97456748491413"><ele>22.333333333333332</ele><time>2026-04-10T10:03:57Z</time></trkpt><trkpt lat="43.145802935238" lon="2.9745091429436763"><ele>22.666666666666664</ele><time>2026-04-10T10:03:59Z</time></trkpt><trkpt lat="43.1457323522729" lon="2.974435408353708"><ele>23.0</ele><time>2026-04-10T10:04:02Z</time></trkpt><trkpt lat="43.14565502497359" lon="2.9743931563395636"><ele>23.333333333333332</ele><time>2026-04-10T10:04:05Z</time></trkpt><trkpt lat="43.14556982482004" lon="2.974379200048899"><ele>23.666666666666668</ele><time>2026-04-10T10:04:08Z</time></trkpt><trkpt lat="43.1454972265917" lon="2.9743719409786076"><ele>24.0</ele><time>2026-04-10T10:04:11Z</time></trkpt><trkpt lat="43.145433317102906" lon="2.974303364584932"><ele>24.166666666666668</ele><time>2026-04-10T10:04:14Z</time></trkpt><trkpt lat="43.14543361955885" lon="2.9741956592127843"><ele>24.333333333333336</ele><time>2026-04-10T10:04:17Z</time></trkpt><trkpt lat="43.14536802476441" lon="2.9741507888312935"><ele>24.5</ele><time>2026-04-10T10:04:20Z</time></trkpt><trkpt lat="43.14530379452914" lon="2.9741545682050177"><ele>24.666666666666668</ele><time>2026-04-10T10:04:22Z</time></trkpt><trkpt lat="43.14521097560924" lon="2.9741523962716094"><ele>24.833333333333336</ele><time>2026-04-10T10:04:25Z</time></trkpt><trkpt lat="43.14512837015479" lon="2.974163528090463"><ele>25.0</ele><time>2026-04-10T10:04:27.999Z</time></trkpt><trkpt lat="43.1451111896151" lon="2.974251252610114"><ele>25.000000000000004</ele><time>2026-04-10T10:04:29.999Z</time></trkpt><trkpt lat="43.145107069270686" lon="2.9743584480930823"><ele>25.0</ele><time>2026-04-10T10:04:31.999Z</time></trkpt><trkpt lat="43.145021324805235" lon="2.974439793593416"><ele>25.0</ele><time>2026-04-10T10:04:33.999Z</time></trkpt><trkpt lat="43.144949620170436" lon="2.974419189364813"><ele>25.0</ele><time>2026-04-10T10:04:34.999Z</time></trkpt><trkpt lat="43.144886911833666" lon="2.9743961809652166"><ele>25.000000000000004</ele><time>2026-04-10T10:04:35.999Z</time></trkpt><trkpt lat="43.144778901773854" lon="2.9744187479198807"><ele>25.0</ele><time>2026-04-10T10:04:37.999Z</time></trkpt><trkpt lat="43.14468964218647" lon="2.974513225025107"><ele>25.0</ele><time>2026-04-10T10:04:39.999Z</time></trkpt><trkpt lat="43.14464166286758" lon="2.974625810496148"><ele>25.0</ele><time>2026-04-10T10:04:41.999Z</time></trkpt><trkpt lat="43.14460600117559" lon="2.974733489411622"><ele>25.0</ele><time>2026-04-10T10:04:43.999Z</time></trkpt><trkpt lat="43.14450582749064" lon="2.974741209982657"><ele>25.0</ele><time>2026-04-10T10:04:45.999Z</time></trkpt><trkpt lat="43.14442014850909" lon="2.974649371068336"><ele>25.0</ele><time>2026-04-10T10:04:47.999Z</time></trkpt><trkpt lat="43.14433150062287" lon="2.9745972425641023"><ele>25.0</ele><time>2026-04-10T10:04:49.999Z</time></trkpt><trkpt lat="43.14425022719898" lon="2.974537060793952"><ele>25.0</ele><time>2026-04-10T10:04:51.999Z</time></trkpt><trkpt lat="43.14416199834009" lon="2.974492208590488"><ele>25.0</ele><time>2026-04-10T10:04:53.999Z</time></trkpt><trkpt lat="43.14408147749382" lon="2.974427584895355"><ele>25.0</ele><time>2026-04-10T10:04:55.999Z</time></trkpt><trkpt lat="43.1439972882219" lon="2.974384764535914"><ele>25.0</ele><time>2026-04-10T10:04:57.999Z</time></trkpt><trkpt lat="43.14392294047532" lon="2.974336556904047"><ele>24.833333333333336</ele><time>2026-04-10T10:04:59.999Z</time></trkpt><trkpt lat="43.14383992050667" lon="2.97428579352706"><ele>24.666666666666668</ele><time>2026-04-10T10:05:01.999Z</time></trkpt><trkpt lat="43.143761105424815" lon="2.974234836207217"><ele>24.5</ele><time>2026-04-10T10:05:03.999Z</time></trkpt><trkpt lat="43.14368798984065" lon="2.9741825934069013"><ele>24.333333333333336</ele><time>2026-04-10T10:05:05.999Z</time></trkpt><trkpt lat="43.14361440768267" lon="2.974144782936229"><ele>24.166666666666668</ele><time>2026-04-10T10:05:07.999Z</time></trkpt><trkpt lat="43.143536070688974" lon="2.9741012591485907"><ele>24.0</ele><time>2026-04-10T10:05:09.999Z</time></trkpt><trkpt lat="43.14345567641492" lon="2.9740456562655146"><ele>24.166666666666668</ele><time>2026-04-10T10:05:11.999Z</time></trkpt><trkpt lat="43.14337582847223" lon="2.973995145901784"><ele>24.333333333333336</ele><time>2026-04-10T10:05:13.999Z</time></trkpt><trkpt lat="43.143295634867975" lon="2.9739415184034526"><ele>24.5</ele><time>2026-04-10T10:05:15.999Z</time></trkpt><trkpt lat="43.14321706343225" lon="2.9738931506911466"><ele>24.666666666666668</ele><time>2026-04-10T10:05:17.999Z</time></trkpt><trkpt lat="43.14313981172805" lon="2.97384442114782"><ele>24.833333333333336</ele><time>2026-04-10T10:05:19.999Z</time></trkpt><trkpt lat="43.14306119670731" lon="2.973801983742986"><ele>25.0</ele><time>2026-04-10T10:05:21.999Z</time></trkpt><trkpt lat="43.142983584935784" lon="2.973750511350009"><ele>25.000000000000004</ele><time>2026-04-10T10:05:23.999Z</time></trkpt><trkpt lat="43.142915227543796" lon="2.9737083356726006"><ele>25.0</ele><time>2026-04-10T10:05:25.999Z</time></trkpt><trkpt lat="43.142854230513855" lon="2.9736629297798385"><ele>25.0</ele><time>2026-04-10T10:05:27.999Z</time></trkpt><trkpt lat="43.1427910210852" lon="2.973622925436098"><ele>25.0</ele><time>2026-04-10T10:05:29.999Z</time></trkpt><trkpt lat="43.142719663941335" lon="2.973593419029219"><ele>25.0</ele><time>2026-04-10T10:05:32Z</time></trkpt><trkpt lat="43.14265474688791" lon="2.973542652640988"><ele>25.000000000000004</ele><time>2026-04-10T10:05:34Z</time></trkpt><trkpt lat="43.14258283033031" lon="2.973492592212484"><ele>25.0</ele><time>2026-04-10T10:05:36Z</time></trkpt><trkpt lat="43.142508093213095" lon="2.973449320404731"><ele>25.000000000000004</ele><time>2026-04-10T10:05:38Z</time></trkpt><trkpt lat="43.142435037793334" lon="2.9734020022161896"><ele>25.0</ele><time>2026-04-10T10:05:40Z</time></trkpt><trkpt lat="43.14235870456233" lon="2.9733523749579382"><ele>25.0</ele><time>2026-04-10T10:05:42Z</time></trkpt><trkpt lat="43.14227791618278" lon="2.9733046043599174"><ele>25.0</ele><time>2026-04-10T10:05:44Z</time></trkpt><trkpt lat="43.14219340165122" lon="2.9732604115748176"><ele>25.000000000000004</ele><time>2026-04-10T10:05:46Z</time></trkpt><trkpt lat="43.142111406448706" lon="2.973208093837897"><ele>25.0</ele><time>2026-04-10T10:05:48Z</time></trkpt><trkpt lat="43.14203533576803" lon="2.973162253115499"><ele>25.333333333333336</ele><time>2026-04-10T10:05:50Z</time></trkpt><trkpt lat="43.14196593757391" lon="2.9731160711992466"><ele>25.666666666666668</ele><time>2026-04-10T10:05:52Z</time></trkpt><trkpt lat="43.14188817435587" lon="2.97306546909353"><ele>26.0</ele><time>2026-04-10T10:05:54Z</time></trkpt><trkpt lat="43.141809272725396" lon="2.973014582062835"><ele>26.333333333333336</ele><time>2026-04-10T10:05:56Z</time></trkpt><trkpt lat="43.14174140421218" lon="2.972982352497464"><ele>26.666666666666668</ele><time>2026-04-10T10:05:58Z</time></trkpt><trkpt lat="43.14167197448197" lon="2.9729455298530967"><ele>27.0</ele><time>2026-04-10T10:06:00Z</time></trkpt><trkpt lat="43.14160382468329" lon="2.9728938951684"><ele>27.166666666666668</ele><time>2026-04-10T10:06:02Z</time></trkpt><trkpt lat="43.1415322107441" lon="2.972858438908954"><ele>27.333333333333336</ele><time>2026-04-10T10:06:04Z</time></trkpt><trkpt lat="43.141462597729614" lon="2.972812758510799"><ele>27.5</ele><time>2026-04-10T10:06:06Z</time></trkpt><trkpt lat="43.14139038774898" lon="2.9727731766751275"><ele>27.666666666666668</ele><time>2026-04-10T10:06:08Z</time></trkpt><trkpt lat="43.141321313295876" lon="2.9727313532213544"><ele>27.833333333333336</ele><time>2026-04-10T10:06:10Z</time></trkpt><trkpt lat="43.14123512033377" lon="2.9726766110547493"><ele>28.0</ele><time>2026-04-10T10:06:13Z</time></trkpt><trkpt lat="43.14117279977232" lon="2.9726279970301914"><ele>28.000000000000004</ele><time>2026-04-10T10:06:15Z</time></trkpt><trkpt lat="43.14110484444647" lon="2.9725880202405546"><ele>28.0</ele><time>2026-04-10T10:06:17Z</time></trkpt><trkpt lat="43.14103735675211" lon="2.972537002814709"><ele>28.0</ele><time>2026-04-10T10:06:19Z</time></trkpt><trkpt lat="43.14096165558668" lon="2.9724995942267776"><ele>28.0</ele><time>2026-04-10T10:06:21Z</time></trkpt><trkpt lat="43.14090116954763" lon="2.972459951495006"><ele>28.000000000000004</ele><time>2026-04-10T10:06:23Z</time></trkpt><trkpt lat="43.140818962999006" lon="2.9724111909304227"><ele>28.0</ele><time>2026-04-10T10:06:25.999Z</time></trkpt><trkpt lat="43.1407520234675" lon="2.9723661255725267"><ele>28.285714285714285</ele><time>2026-04-10T10:06:27.999Z</time></trkpt><trkpt lat="43.14068303931402" lon="2.9723180453473064"><ele>28.57142857142857</ele><time>2026-04-10T10:06:29.999Z</time></trkpt><trkpt lat="43.14061092718827" lon="2.9722775767934517"><ele>28.857142857142858</ele><time>2026-04-10T10:06:31.999Z</time></trkpt><trkpt lat="43.14053944122314" lon="2.9722334146466682"><ele>29.142857142857142</ele><time>2026-04-10T10:06:33.999Z</time></trkpt><trkpt lat="43.14047507492402" lon="2.9721901967087216"><ele>29.428571428571427</ele><time>2026-04-10T10:06:35.999Z</time></trkpt><trkpt lat="43.14041585143939" lon="2.9721605194083"><ele>29.714285714285715</ele><time>2026-04-10T10:06:37.999Z</time></trkpt><trkpt lat="43.140352224944785" lon="2.9721154126248583"><ele>30.0</ele><time>2026-04-10T10:06:39.999Z</time></trkpt><trkpt lat="43.14027911865184" lon="2.9720710830814165"><ele>30.0</ele><time>2026-04-10T10:06:41.999Z</time></trkpt><trkpt lat="43.140208991457314" lon="2.972024115187488"><ele>30.0</ele><time>2026-04-10T10:06:43.999Z</time></trkpt><trkpt lat="43.14014181236873" lon="2.9719896331109084"><ele>30.0</ele><time>2026-04-10T10:06:45.999Z</time></trkpt><trkpt lat="43.14008477445358" lon="2.97195301632337"><ele>30.0</ele><time>2026-04-10T10:06:47.999Z</time></trkpt><trkpt lat="43.140026794118384" lon="2.9719123591607937"><ele>30.0</ele><time>2026-04-10T10:06:49.999Z</time></trkpt><trkpt lat="43.13996366125726" lon="2.9718719625873287"><ele>30.0</ele><time>2026-04-10T10:06:51.999Z</time></trkpt><trkpt lat="43.1399006845427" lon="2.971824681485686"><ele>30.0</ele><time>2026-04-10T10:06:53.999Z</time></trkpt><trkpt lat="43.139838830692874" lon="2.971772279104412"><ele>30.0</ele><time>2026-04-10T10:06:55.999Z</time></trkpt><trkpt lat="43.13977549021309" lon="2.9717240354007854"><ele>30.0</ele><time>2026-04-10T10:06:57.999Z</time></trkpt><trkpt lat="43.13971408948809" lon="2.971667350236468"><ele>30.0</ele><time>2026-04-10T10:06:59.999Z</time></trkpt><trkpt lat="43.13964564568927" lon="2.9716086248625624"><ele>30.0</ele><time>2026-04-10T10:07:01.999Z</time></trkpt><trkpt lat="43.139564043186034" lon="2.9715384218067267"><ele>30.0</ele><time>2026-04-10T10:07:03.999Z</time></trkpt><trkpt lat="43.139479077173505" lon="2.9714406686278125"><ele>30.0</ele><time>2026-04-10T10:07:05.999Z</time></trkpt><trkpt lat="43.13939534992326" lon="2.971340875272285"><ele>30.0</ele><time>2026-04-10T10:07:07.999Z</time></trkpt><trkpt lat="43.13932357878582" lon="2.9712358823186937"><ele>30.0</ele><time>2026-04-10T10:07:09.999Z</time></trkpt><trkpt lat="43.139253902633584" lon="2.9711632394178866"><ele>30.0</ele><time>2026-04-10T10:07:11.999Z</time></trkpt><trkpt lat="43.13919329311303" lon="2.971124179971478"><ele>30.0</ele><time>2026-04-10T10:07:13.999Z</time></trkpt><trkpt lat="43.13911725334523" lon="2.9711557756126754"><ele>30.0</ele><time>2026-04-10T10:07:15.999Z</time></trkpt><trkpt lat="43.139077489955824" lon="2.9712628257257814"><ele>30.0</ele><time>2026-04-10T10:07:17.999Z</time></trkpt><trkpt lat="43.13902570144442" lon="2.971381170958892"><ele>29.0</ele><time>2026-04-10T10:07:19.999Z</time></trkpt><trkpt lat="43.13894186612057" lon="2.971473654498769"><ele>28.0</ele><time>2026-04-10T10:07:21.999Z</time></trkpt><trkpt lat="43.13887775759199" lon="2.9715892050092885"><ele>27.0</ele><time>2026-04-10T10:07:23.999Z</time></trkpt><trkpt lat="43.13887221122318" lon="2.971719071479475"><ele>26.0</ele><time>2026-04-10T10:07:25.999Z</time></trkpt><trkpt lat="43.13890505967724" lon="2.9718016879573725"><ele>25.0</ele><time>2026-04-10T10:07:26.999Z</time></trkpt><trkpt lat="43.13896586699534" lon="2.971857837236273"><ele>25.500000000000004</ele><time>2026-04-10T10:07:27.999Z</time></trkpt><trkpt lat="43.139034637468725" lon="2.9718842798858716"><ele>26.0</ele><time>2026-04-10T10:07:28.999Z</time></trkpt><trkpt lat="43.13912952165604" lon="2.971955447080697"><ele>26.5</ele><time>2026-04-10T10:07:30.999Z</time></trkpt><trkpt lat="43.139220610269895" lon="2.972004038746803"><ele>27.0</ele><time>2026-04-10T10:07:32.998Z</time></trkpt><trkpt lat="43.13929799733449" lon="2.9720292586154984"><ele>27.500000000000004</ele><time>2026-04-10T10:07:34.998Z</time></trkpt><trkpt lat="43.13936713407463" lon="2.9720341836601714"><ele>28.0</ele><time>2026-04-10T10:07:37Z</time></trkpt><trkpt lat="43.13942183473576" lon="2.9720951464000533"><ele>28.0</ele><time>2026-04-10T10:07:39Z</time></trkpt><trkpt lat="43.13948010158192" lon="2.972139727196295"><ele>28.0</ele><time>2026-04-10T10:07:41Z</time></trkpt><trkpt lat="43.13953657479889" lon="2.9721807318844835"><ele>28.0</ele><time>2026-04-10T10:07:43Z</time></trkpt><trkpt lat="43.13959568218299" lon="2.9722662176032673"><ele>28.0</ele><time>2026-04-10T10:07:46Z</time></trkpt><trkpt lat="43.139577279413395" lon="2.9723945110536985"><ele>28.0</ele><time>2026-04-10T10:07:48Z</time></trkpt><trkpt lat="43.13953345250883" lon="2.9724618177160225"><ele>28.0</ele><time>2026-04-10T10:07:49Z</time></trkpt><trkpt lat="43.1394736390278" lon="2.9725062426368063"><ele>28.0</ele><time>2026-04-10T10:07:50Z</time></trkpt><trkpt lat="43.139398124235264" lon="2.9725700129038346"><ele>27.500000000000004</ele><time>2026-04-10T10:07:52Z</time></trkpt><trkpt lat="43.13934641326931" lon="2.9726231423471243"><ele>27.0</ele><time>2026-04-10T10:07:54Z</time></trkpt><trkpt lat="43.13927773692118" lon="2.972703731810357"><ele>26.5</ele><time>2026-04-10T10:07:56Z</time></trkpt><trkpt lat="43.139200554235735" lon="2.9727876573939307"><ele>26.0</ele><time>2026-04-10T10:07:58Z</time></trkpt><trkpt lat="43.139108316087686" lon="2.9728853178493404"><ele>25.500000000000004</ele><time>2026-04-10T10:08:00Z</time></trkpt><trkpt lat="43.139055335580714" lon="2.9729394910516556"><ele>25.0</ele><time>2026-04-10T10:08:01Z</time></trkpt><trkpt lat="43.13899557092308" lon="2.9730013786139127"><ele>24.166666666666668</ele><time>2026-04-10T10:08:02Z</time></trkpt><trkpt lat="43.13893515604434" lon="2.9730612214286536"><ele>23.333333333333336</ele><time>2026-04-10T10:08:03Z</time></trkpt><trkpt lat="43.138870314181176" lon="2.973125932717815"><ele>22.5</ele><time>2026-04-10T10:08:04Z</time></trkpt><trkpt lat="43.13880195780429" lon="2.973192360302805"><ele>21.666666666666668</ele><time>2026-04-10T10:08:05Z</time></trkpt><trkpt lat="43.138727314376005" lon="2.973262815941998"><ele>20.833333333333336</ele><time>2026-04-10T10:08:06Z</time></trkpt><trkpt lat="43.13865357202684" lon="2.9733334442731"><ele>20.0</ele><time>2026-04-10T10:08:07Z</time></trkpt><trkpt lat="43.138578402686434" lon="2.9734125213291076"><ele>20.0</ele><time>2026-04-10T10:08:08Z</time></trkpt><trkpt lat="43.13850562000299" lon="2.9734867402691356"><ele>20.0</ele><time>2026-04-10T10:08:09Z</time></trkpt><trkpt lat="43.13843083549543" lon="2.973556824477278"><ele>20.0</ele><time>2026-04-10T10:08:10Z</time></trkpt><trkpt lat="43.138356518539595" lon="2.9736250522672343"><ele>20.0</ele><time>2026-04-10T10:08:11Z</time></trkpt><trkpt lat="43.138294521261734" lon="2.973691076203694"><ele>20.0</ele><time>2026-04-10T10:08:12Z</time></trkpt><trkpt lat="43.13823845651601" lon="2.9737548938973353"><ele>20.0</ele><time>2026-04-10T10:08:13Z</time></trkpt><trkpt lat="43.13818230089721" lon="2.973810070836881"><ele>19.714285714285715</ele><time>2026-04-10T10:08:14Z</time></trkpt><trkpt lat="43.1381254666729" lon="2.973856350856741"><ele>19.42857142857143</ele><time>2026-04-10T10:08:15Z</time></trkpt><trkpt lat="43.1380647793197" lon="2.973902056958651"><ele>19.142857142857146</ele><time>2026-04-10T10:08:16Z</time></trkpt><trkpt lat="43.137994409566026" lon="2.973925922187006"><ele>18.857142857142858</ele><time>2026-04-10T10:08:17Z</time></trkpt><trkpt lat="43.13791864513323" lon="2.9739082609301914"><ele>18.571428571428573</ele><time>2026-04-10T10:08:18Z</time></trkpt><trkpt lat="43.137840955224206" lon="2.9739048699666273"><ele>18.28571428571429</ele><time>2026-04-10T10:08:19Z</time></trkpt><trkpt lat="43.13776593212059" lon="2.9738964941427093"><ele>18.0</ele><time>2026-04-10T10:08:20Z</time></trkpt><trkpt lat="43.137686764551916" lon="2.9739029607955842"><ele>18.0</ele><time>2026-04-10T10:08:21Z</time></trkpt><trkpt lat="43.13760752233363" lon="2.9738802358718037"><ele>18.0</ele><time>2026-04-10T10:08:22Z</time></trkpt><trkpt lat="43.13752905437352" lon="2.9738510338747086"><ele>18.0</ele><time>2026-04-10T10:08:23Z</time></trkpt><trkpt lat="43.13744692160893" lon="2.9738326553139007"><ele>18.0</ele><time>2026-04-10T10:08:24Z</time></trkpt><trkpt lat="43.13736291009625" lon="2.9738287051540664"><ele>18.0</ele><time>2026-04-10T10:08:25Z</time></trkpt><trkpt lat="43.13728715746994" lon="2.9738140870304854"><ele>18.0</ele><time>2026-04-10T10:08:26Z</time></trkpt><trkpt lat="43.13720790169077" lon="2.973814009461793"><ele>18.0</ele><time>2026-04-10T10:08:27Z</time></trkpt><trkpt lat="43.137128055622625" lon="2.9738296922485343"><ele>18.0</ele><time>2026-04-10T10:08:27.999Z</time></trkpt><trkpt lat="43.13704624523022" lon="2.973858184812097"><ele>18.0</ele><time>2026-04-10T10:08:28.999Z</time></trkpt><trkpt lat="43.13696924159328" lon="2.9739055030765957"><ele>18.0</ele><time>2026-04-10T10:08:29.999Z</time></trkpt><trkpt lat="43.13690205878199" lon="2.97395822266592"><ele>18.0</ele><time>2026-04-10T10:08:30.999Z</time></trkpt><trkpt lat="43.13683756086033" lon="2.973984495069296"><ele>18.0</ele><time>2026-04-10T10:08:31.999Z</time></trkpt><trkpt lat="43.136769897926726" lon="2.974043680593935"><ele>18.0</ele><time>2026-04-10T10:08:32.999Z</time></trkpt><trkpt lat="43.13666896801855" lon="2.9741192317339555"><ele>18.0</ele><time>2026-04-10T10:08:34.999Z</time></trkpt><trkpt lat="43.1365943101054" lon="2.9741642241458175"><ele>18.0</ele><time>2026-04-10T10:08:35.999Z</time></trkpt><trkpt lat="43.136500526439015" lon="2.9742151977412647"><ele>18.0</ele><time>2026-04-10T10:08:37.999Z</time></trkpt><trkpt lat="43.136395374066396" lon="2.9742227352073307"><ele>18.0</ele><time>2026-04-10T10:08:39.999Z</time></trkpt><trkpt lat="43.13628915836795" lon="2.974172410398903"><ele>17.8</ele><time>2026-04-10T10:08:41.999Z</time></trkpt><trkpt lat="43.13619253528084" lon="2.974105934439104"><ele>17.6</ele><time>2026-04-10T10:08:43.999Z</time></trkpt><trkpt lat="43.13610774347898" lon="2.9740276071771463"><ele>17.4</ele><time>2026-04-10T10:08:45.999Z</time></trkpt><trkpt lat="43.13603406283592" lon="2.9739609470698896"><ele>17.2</ele><time>2026-04-10T10:08:47.999Z</time></trkpt><trkpt lat="43.13596914775821" lon="2.9739116276638047"><ele>17.0</ele><time>2026-04-10T10:08:49.999Z</time></trkpt><trkpt lat="43.135883288731264" lon="2.9738662666244555"><ele>17.0</ele><time>2026-04-10T10:08:52.999Z</time></trkpt><trkpt lat="43.13579535930025" lon="2.973824286506061"><ele>17.0</ele><time>2026-04-10T10:08:55.999Z</time></trkpt><trkpt lat="43.1357159099108" lon="2.9738198614404694"><ele>17.0</ele><time>2026-04-10T10:08:57.999Z</time></trkpt><trkpt lat="43.135634769013954" lon="2.97383718032943"><ele>17.0</ele><time>2026-04-10T10:08:59.999Z</time></trkpt><trkpt lat="43.13554097366194" lon="2.9738841834359167"><ele>17.0</ele><time>2026-04-10T10:09:01.999Z</time></trkpt><trkpt lat="43.13543146447063" lon="2.973918665521259"><ele>16.166666666666668</ele><time>2026-04-10T10:09:03.999Z</time></trkpt><trkpt lat="43.1353143632019" lon="2.9739803170041594"><ele>15.333333333333334</ele><time>2026-04-10T10:09:05.999Z</time></trkpt><trkpt lat="43.13525002358325" lon="2.9740147867105065"><ele>14.5</ele><time>2026-04-10T10:09:06.999Z</time></trkpt><trkpt lat="43.13519073153772" lon="2.9740706755121424"><ele>13.666666666666668</ele><time>2026-04-10T10:09:07.999Z</time></trkpt><trkpt lat="43.135125985996815" lon="2.9740999724610053"><ele>12.833333333333334</ele><time>2026-04-10T10:09:08.999Z</time></trkpt><trkpt lat="43.13505984372314" lon="2.9741388257718624"><ele>12.0</ele><time>2026-04-10T10:09:09.999Z</time></trkpt><trkpt lat="43.13499232337026" lon="2.9741721951018927"><ele>12.0</ele><time>2026-04-10T10:09:10.999Z</time></trkpt><trkpt lat="43.1349270969922" lon="2.9742154145970185"><ele>12.0</ele><time>2026-04-10T10:09:11.999Z</time></trkpt><trkpt lat="43.134857030549554" lon="2.9742547433666475"><ele>12.0</ele><time>2026-04-10T10:09:12.999Z</time></trkpt><trkpt lat="43.13478930918658" lon="2.97431317283085"><ele>12.0</ele><time>2026-04-10T10:09:13.999Z</time></trkpt><trkpt lat="43.134724602852565" lon="2.9743644967354137"><ele>12.0</ele><time>2026-04-10T10:09:14.999Z</time></trkpt><trkpt lat="43.13466226558767" lon="2.9744383917121993"><ele>12.0</ele><time>2026-04-10T10:09:15.999Z</time></trkpt><trkpt lat="43.1346050252941" lon="2.9745198968228372"><ele>12.0</ele><time>2026-04-10T10:09:16.999Z</time></trkpt><trkpt lat="43.134551467169935" lon="2.974591647802593"><ele>12.0</ele><time>2026-04-10T10:09:17.999Z</time></trkpt><trkpt lat="43.13448717843888" lon="2.9746634392192512"><ele>12.0</ele><time>2026-04-10T10:09:18.999Z</time></trkpt><trkpt lat="43.13443497834873" lon="2.9747242565648655"><ele>12.0</ele><time>2026-04-10T10:09:19.999Z</time></trkpt><trkpt lat="43.13434719257007" lon="2.974817977409468"><ele>12.0</ele><time>2026-04-10T10:09:21.999Z</time></trkpt><trkpt lat="43.13427465870571" lon="2.9748995412999597"><ele>12.0</ele><time>2026-04-10T10:09:23.999Z</time></trkpt><trkpt lat="43.134200490735566" lon="2.9749719208480587"><ele>11.833333333333334</ele><time>2026-04-10T10:09:25.999Z</time></trkpt><trkpt lat="43.13413586961695" lon="2.975033984545575"><ele>11.666666666666666</ele><time>2026-04-10T10:09:27.999Z</time></trkpt><trkpt lat="43.1340622764131" lon="2.975104882392379"><ele>11.5</ele><time>2026-04-10T10:09:29.999Z</time></trkpt><trkpt lat="43.13398564635483" lon="2.9751670757247277"><ele>11.333333333333332</ele><time>2026-04-10T10:09:31.999Z</time></trkpt><trkpt lat="43.133947293980164" lon="2.9750267989781523"><ele>11.166666666666666</ele><time>2026-04-10T10:09:33.998Z</time></trkpt><trkpt lat="43.13391229788497" lon="2.974933356882226"><ele>11.0</ele><time>2026-04-10T10:09:35.998Z</time></trkpt><trkpt lat="43.133879620356424" lon="2.9748461076092276"><ele>11.333333333333332</ele><time>2026-04-10T10:09:37.998Z</time></trkpt><trkpt lat="43.13382611562704" lon="2.974773925871632"><ele>11.666666666666666</ele><time>2026-04-10T10:09:39.998Z</time></trkpt><trkpt lat="43.13377004058157" lon="2.974721263289862"><ele>12.0</ele><time>2026-04-10T10:09:41.998Z</time></trkpt><trkpt lat="43.133674893234534" lon="2.9747198876895324"><ele>12.333333333333332</ele><time>2026-04-10T10:09:45Z</time></trkpt><trkpt lat="43.133585868406094" lon="2.9746897537860373"><ele>12.666666666666666</ele><time>2026-04-10T10:09:48Z</time></trkpt><trkpt lat="43.13349195665467" lon="2.9746848199583282"><ele>13.0</ele><time>2026-04-10T10:09:51Z</time></trkpt><trkpt lat="43.13342875187548" lon="2.974708501739266"><ele>13.0</ele><time>2026-04-10T10:09:53Z</time></trkpt><trkpt lat="43.133359869769805" lon="2.974709201401717"><ele>13.0</ele><time>2026-04-10T10:09:55Z</time></trkpt><trkpt lat="43.13329689738437" lon="2.9747059301703627"><ele>13.0</ele><time>2026-04-10T10:09:57Z</time></trkpt><trkpt lat="43.13323330715991" lon="2.97471930881565"><ele>13.0</ele><time>2026-04-10T10:09:59Z</time></trkpt><trkpt lat="43.13316461187551" lon="2.974728719402345"><ele>13.0</ele><time>2026-04-10T10:10:01Z</time></trkpt><trkpt lat="43.133094011833435" lon="2.9747445247219906"><ele>13.0</ele><time>2026-04-10T10:10:03Z</time></trkpt><trkpt lat="43.13302590718359" lon="2.974765767588891"><ele>13.0</ele><time>2026-04-10T10:10:05Z</time></trkpt><trkpt lat="43.13296220194934" lon="2.9747842992747655"><ele>13.499999999999998</ele><time>2026-04-10T10:10:07Z</time></trkpt><trkpt lat="43.13287290538463" lon="2.9748089946450675"><ele>14.0</ele><time>2026-04-10T10:10:10Z</time></trkpt><trkpt lat="43.13279449736403" lon="2.9748285649136585"><ele>14.5</ele><time>2026-04-10T10:10:13Z</time></trkpt><trkpt lat="43.13270828866832" lon="2.9748434910854367"><ele>15.0</ele><time>2026-04-10T10:10:16Z</time></trkpt><trkpt lat="43.13264582817362" lon="2.9748634971281884"><ele>15.499999999999998</ele><time>2026-04-10T10:10:18Z</time></trkpt><trkpt lat="43.13255729257169" lon="2.9748909948221476"><ele>16.0</ele><time>2026-04-10T10:10:21Z</time></trkpt><trkpt lat="43.13246665956249" lon="2.974909207123422"><ele>17.666666666666664</ele><time>2026-04-10T10:10:24Z</time></trkpt><trkpt lat="43.13238216460527" lon="2.9749376628703237"><ele>19.333333333333332</ele><time>2026-04-10T10:10:27Z</time></trkpt><trkpt lat="43.13229505216251" lon="2.974951353451318"><ele>21.0</ele><time>2026-04-10T10:10:29.999Z</time></trkpt><trkpt lat="43.13220712833954" lon="2.9749722073052722"><ele>22.666666666666664</ele><time>2026-04-10T10:10:32.999Z</time></trkpt><trkpt lat="43.13211804267238" lon="2.974978206708709"><ele>24.333333333333332</ele><time>2026-04-10T10:10:35.999Z</time></trkpt><trkpt lat="43.13203004470604" lon="2.974997087469605"><ele>26.0</ele><time>2026-04-10T10:10:38.999Z</time></trkpt><trkpt lat="43.13194901713173" lon="2.974997900435823"><ele>25.999999999999996</ele><time>2026-04-10T10:10:41.999Z</time></trkpt><trkpt lat="43.13187002173586" lon="2.9750135665351"><ele>26.0</ele><time>2026-04-10T10:10:44.999Z</time></trkpt><trkpt lat="43.13178288010143" lon="2.975021742200877"><ele>26.0</ele><time>2026-04-10T10:10:47.999Z</time></trkpt><trkpt lat="43.13168716065768" lon="2.9750248809760675"><ele>26.0</ele><time>2026-04-10T10:10:50.999Z</time></trkpt><trkpt lat="43.13161203840013" lon="2.975023285184951"><ele>25.999999999999996</ele><time>2026-04-10T10:10:53.999Z</time></trkpt><trkpt lat="43.13153469137826" lon="2.975031082367361"><ele>26.0</ele><time>2026-04-10T10:10:56.999Z</time></trkpt><trkpt lat="43.131449560594774" lon="2.9750295739050436"><ele>27.833333333333332</ele><time>2026-04-10T10:10:59.999Z</time></trkpt><trkpt lat="43.13136953795519" lon="2.9750454532044928"><ele>29.666666666666664</ele><time>2026-04-10T10:11:02.999Z</time></trkpt><trkpt lat="43.13128720226168" lon="2.9750653508688583"><ele>31.5</ele><time>2026-04-10T10:11:05.999Z</time></trkpt><trkpt lat="43.131223698747355" lon="2.9751143609662374"><ele>33.333333333333336</ele><time>2026-04-10T10:11:08.999Z</time></trkpt><trkpt lat="43.13116920788014" lon="2.975184988896419"><ele>35.16666666666667</ele><time>2026-04-10T10:11:11.999Z</time></trkpt><trkpt lat="43.13114170157009" lon="2.9752734510757732"><ele>37.0</ele><time>2026-04-10T10:11:14.999Z</time></trkpt><trkpt lat="43.13112701256144" lon="2.9753694160062256"><ele>37.0</ele><time>2026-04-10T10:11:17.999Z</time></trkpt><trkpt lat="43.13110220816442" lon="2.9754780800652725"><ele>37.0</ele><time>2026-04-10T10:11:20.999Z</time></trkpt><trkpt lat="43.13108205943449" lon="2.9755798435023224"><ele>37.0</ele><time>2026-04-10T10:11:23.999Z</time></trkpt><trkpt lat="43.13106649504623" lon="2.9756786188285425"><ele>37.0</ele><time>2026-04-10T10:11:26.999Z</time></trkpt><trkpt lat="43.131050884363454" lon="2.9757874107314377"><ele>37.0</ele><time>2026-04-10T10:11:29.999Z</time></trkpt><trkpt lat="43.13101103738696" lon="2.9758894170258716"><ele>37.0</ele><time>2026-04-10T10:11:32.999Z</time></trkpt><trkpt lat="43.13093624699212" lon="2.975864455014411"><ele>37.0</ele><time>2026-04-10T10:11:35.998Z</time></trkpt><trkpt lat="43.13087291111959" lon="2.975895802985393"><ele>37.0</ele><time>2026-04-10T10:11:39.998Z</time></trkpt><trkpt lat="43.1308753094839" lon="2.975995263052454"><ele>37.0</ele><time>2026-04-10T10:11:43.998Z</time></trkpt><trkpt lat="43.13084564512692" lon="2.976072017771279"><ele>37.0</ele><time>2026-04-10T10:11:46.998Z</time></trkpt><trkpt lat="43.13081381352161" lon="2.976172726711696"><ele>37.0</ele><time>2026-04-10T10:11:51Z</time></trkpt><trkpt lat="43.13078904851207" lon="2.976254194993249"><ele>37.0</ele><time>2026-04-10T10:11:54Z</time></trkpt><trkpt lat="43.13076573798367" lon="2.976336338309815"><ele>37.0</ele><time>2026-04-10T10:11:57Z</time></trkpt><trkpt lat="43.13074182835306" lon="2.9764309838003262"><ele>38.285714285714285</ele><time>2026-04-10T10:12:01Z</time></trkpt><trkpt lat="43.13072404583269" lon="2.9765197012287645"><ele>39.57142857142857</ele><time>2026-04-10T10:12:04Z</time></trkpt><trkpt lat="43.13071530485904" lon="2.9766120689364217"><ele>40.85714285714286</ele><time>2026-04-10T10:12:07Z</time></trkpt><trkpt lat="43.13069665047988" lon="2.9767060443910767"><ele>42.14285714285714</ele><time>2026-04-10T10:12:11Z</time></trkpt><trkpt lat="43.1306726736911" lon="2.976794970212067"><ele>43.42857142857142</ele><time>2026-04-10T10:12:17Z</time></trkpt><trkpt lat="43.1306149013277" lon="2.9768660180706434"><ele>44.714285714285715</ele><time>2026-04-10T10:12:35Z</time></trkpt><trkpt lat="43.1305365001152" lon="2.9768922296141755"><ele>46.0</ele><time>2026-04-10T10:12:37.999Z</time></trkpt><trkpt lat="43.13045015292857" lon="2.976906399918576"><ele>46.42857142857143</ele><time>2026-04-10T10:12:40.999Z</time></trkpt><trkpt lat="43.1303920721362" lon="2.976971438267649"><ele>46.857142857142854</ele><time>2026-04-10T10:12:43.999Z</time></trkpt><trkpt lat="43.13035383976337" lon="2.9770598811080684"><ele>47.285714285714285</ele><time>2026-04-10T10:12:46.999Z</time></trkpt><trkpt lat="43.13031532379967" lon="2.977147590924842"><ele>47.714285714285715</ele><time>2026-04-10T10:12:49.999Z</time></trkpt><trkpt lat="43.13028634842075" lon="2.9772309431861803"><ele>48.14285714285714</ele><time>2026-04-10T10:12:52.999Z</time></trkpt><trkpt lat="43.13025311879872" lon="2.9773106218809895"><ele>48.57142857142857</ele><time>2026-04-10T10:12:55.999Z</time></trkpt><trkpt lat="43.13022310175078" lon="2.9773980122354864"><ele>49.0</ele><time>2026-04-10T10:12:58.999Z</time></trkpt><trkpt lat="43.13018506414002" lon="2.9774812253195826"><ele>49.42857142857143</ele><time>2026-04-10T10:13:01.999Z</time></trkpt><trkpt lat="43.130142336053225" lon="2.977550129520668"><ele>49.85714285714286</ele><time>2026-04-10T10:13:06.999Z</time></trkpt><trkpt lat="43.13008984004205" lon="2.9776227856015343"><ele>50.285714285714285</ele><time>2026-04-10T10:13:12.999Z</time></trkpt><trkpt lat="43.13003040429989" lon="2.977681331705671"><ele>50.714285714285715</ele><time>2026-04-10T10:13:18.999Z</time></trkpt><trkpt lat="43.129971369139334" lon="2.9777443170856586"><ele>51.142857142857146</ele><time>2026-04-10T10:13:24.999Z</time></trkpt><trkpt lat="43.12991693682748" lon="2.9778154691161243"><ele>51.57142857142857</ele><time>2026-04-10T10:13:31.999Z</time></trkpt><trkpt lat="43.129877021652156" lon="2.977883533065771"><ele>52.0</ele><time>2026-04-10T10:13:38.999Z</time></trkpt><trkpt lat="43.12983449086052" lon="2.977961983745396"><ele>53.166666666666664</ele><time>2026-04-10T10:13:44.998Z</time></trkpt><trkpt lat="43.12978638579467" lon="2.9780620851089177"><ele>54.33333333333333</ele><time>2026-04-10T10:13:47.998Z</time></trkpt><trkpt lat="43.12973784395151" lon="2.9781743436508044"><ele>55.5</ele><time>2026-04-10T10:13:50.998Z</time></trkpt><trkpt lat="43.12970207350702" lon="2.978282587469078"><ele>56.66666666666667</ele><time>2026-04-10T10:13:53.998Z</time></trkpt><trkpt lat="43.129684385484744" lon="2.9784063263105494"><ele>57.833333333333336</ele><time>2026-04-10T10:13:57Z</time></trkpt><trkpt lat="43.12966208111625" lon="2.9785010687617444"><ele>59.0</ele><time>2026-04-10T10:14:00Z</time></trkpt><trkpt lat="43.12967864440994" lon="2.978590749490719"><ele>59.333333333333336</ele><time>2026-04-10T10:14:04Z</time></trkpt><trkpt lat="43.12974235557711" lon="2.9786443135679006"><ele>59.66666666666667</ele><time>2026-04-10T10:14:24Z</time></trkpt><trkpt lat="43.129820501018834" lon="2.9787257161727214"><ele>60.0</ele><time>2026-04-10T10:14:27Z</time></trkpt><trkpt lat="43.12986924124574" lon="2.9788156191373023"><ele>60.33333333333333</ele><time>2026-04-10T10:14:29Z</time></trkpt><trkpt lat="43.12988359142968" lon="2.97892457435086"><ele>60.666666666666664</ele><time>2026-04-10T10:14:31Z</time></trkpt><trkpt lat="43.12986586569984" lon="2.9790242997403253"><ele>61.0</ele><time>2026-04-10T10:14:33Z</time></trkpt><trkpt lat="43.12985974716068" lon="2.9791211189833247"><ele>59.83333333333333</ele><time>2026-04-10T10:14:35Z</time></trkpt><trkpt lat="43.12989677600602" lon="2.979228806242127"><ele>58.666666666666664</ele><time>2026-04-10T10:14:37Z</time></trkpt><trkpt lat="43.12994484090518" lon="2.979321277949247"><ele>57.5</ele><time>2026-04-10T10:14:39Z</time></trkpt><trkpt lat="43.12999035021225" lon="2.979428111837642"><ele>56.33333333333333</ele><time>2026-04-10T10:14:40.999Z</time></trkpt><trkpt lat="43.13003090642147" lon="2.9795304320128215"><ele>55.166666666666664</ele><time>2026-04-10T10:14:42.999Z</time></trkpt><trkpt lat="43.13004315936385" lon="2.9796490407832583"><ele>54.0</ele><time>2026-04-10T10:14:44.999Z</time></trkpt><trkpt lat="43.130052944990126" lon="2.9797449620544296"><ele>54.0</ele><time>2026-04-10T10:14:46.999Z</time></trkpt><trkpt lat="43.130042414815115" lon="2.9798433056887927"><ele>54.0</ele><time>2026-04-10T10:14:48.999Z</time></trkpt><trkpt lat="43.1299717901706" lon="2.979894167917583"><ele>54.0</ele><time>2026-04-10T10:14:50.999Z</time></trkpt><trkpt lat="43.12990577632078" lon="2.979864853919786"><ele>54.0</ele><time>2026-04-10T10:14:52.999Z</time></trkpt><trkpt lat="43.12983019701021" lon="2.9797979141031656"><ele>54.0</ele><time>2026-04-10T10:14:55.999Z</time></trkpt><trkpt lat="43.12975537204335" lon="2.9797518263702303"><ele>54.0</ele><time>2026-04-10T10:14:58.999Z</time></trkpt><trkpt lat="43.12968306001737" lon="2.979695654604336"><ele>55.166666666666664</ele><time>2026-04-10T10:15:01.999Z</time></trkpt><trkpt lat="43.12961847446697" lon="2.9796300483516123"><ele>56.33333333333333</ele><time>2026-04-10T10:15:04.999Z</time></trkpt><trkpt lat="43.12955765751017" lon="2.979555471832064"><ele>57.5</ele><time>2026-04-10T10:15:07.999Z</time></trkpt><trkpt lat="43.12949313449694" lon="2.9794832382400678"><ele>58.666666666666664</ele><time>2026-04-10T10:15:10.999Z</time></trkpt><trkpt lat="43.1294386439108" lon="2.979415222587775"><ele>59.83333333333333</ele><time>2026-04-10T10:15:13.999Z</time></trkpt><trkpt lat="43.129367999913704" lon="2.9793784388243587"><ele>61.0</ele><time>2026-04-10T10:15:16.999Z</time></trkpt><trkpt lat="43.129304387478655" lon="2.979437073354494"><ele>60.99999999999999</ele><time>2026-04-10T10:15:19.999Z</time></trkpt><trkpt lat="43.12928553897069" lon="2.97956303770365"><ele>61.0</ele><time>2026-04-10T10:15:22.999Z</time></trkpt><trkpt lat="43.12926663927674" lon="2.979656929378599"><ele>61.0</ele><time>2026-04-10T10:15:25.999Z</time></trkpt><trkpt lat="43.12924171002095" lon="2.9797494498644634"><ele>61.0</ele><time>2026-04-10T10:15:28.999Z</time></trkpt><trkpt lat="43.12920582807644" lon="2.979859106770024"><ele>60.99999999999999</ele><time>2026-04-10T10:15:31.999Z</time></trkpt><trkpt lat="43.129188640466246" lon="2.9799459413231264"><ele>61.0</ele><time>2026-04-10T10:15:34.999Z</time></trkpt><trkpt lat="43.129171426871466" lon="2.980030886281891"><ele>61.33333333333333</ele><time>2026-04-10T10:15:37.999Z</time></trkpt><trkpt lat="43.12914441086201" lon="2.980133406384264"><ele>61.666666666666664</ele><time>2026-04-10T10:15:40.999Z</time></trkpt><trkpt lat="43.12912647201426" lon="2.980246554444815"><ele>62.0</ele><time>2026-04-10T10:15:43.999Z</time></trkpt><trkpt lat="43.1291093312844" lon="2.9803361166554665"><ele>62.33333333333333</ele><time>2026-04-10T10:15:45.999Z</time></trkpt><trkpt lat="43.12909152354765" lon="2.980432627654915"><ele>62.666666666666664</ele><time>2026-04-10T10:15:47.999Z</time></trkpt><trkpt lat="43.129063503327984" lon="2.9805625656583445"><ele>63.0</ele><time>2026-04-10T10:15:49.998Z</time></trkpt><trkpt lat="43.12902844351932" lon="2.980634862985109"><ele>63.0</ele><time>2026-04-10T10:15:50.998Z</time></trkpt><trkpt lat="43.128995260932214" lon="2.9807539948342643"><ele>63.0</ele><time>2026-04-10T10:15:52.998Z</time></trkpt><trkpt lat="43.12894817573472" lon="2.98088980444032"><ele>63.0</ele><time>2026-04-10T10:15:54.998Z</time></trkpt><trkpt lat="43.12890049792273" lon="2.9810562492134043"><ele>63.0</ele><time>2026-04-10T10:15:56.998Z</time></trkpt><trkpt lat="43.12887638773313" lon="2.9811368381081236"><ele>63.0</ele><time>2026-04-10T10:15:57.998Z</time></trkpt><trkpt lat="43.12882775640945" lon="2.9812647136217048"><ele>61.333333333333336</ele><time>2026-04-10T10:15:59.998Z</time></trkpt><trkpt lat="43.128777408841174" lon="2.9813728871791247"><ele>59.66666666666667</ele><time>2026-04-10T10:16:02Z</time></trkpt><trkpt lat="43.12871657637829" lon="2.981465273179167"><ele>58.0</ele><time>2026-04-10T10:16:04Z</time></trkpt><trkpt lat="43.12866232789901" lon="2.9815469695730816"><ele>56.333333333333336</ele><time>2026-04-10T10:16:06Z</time></trkpt><trkpt lat="43.12855740677824" lon="2.98159113856943"><ele>54.66666666666667</ele><time>2026-04-10T10:16:08Z</time></trkpt><trkpt lat="43.128490177202615" lon="2.9816086205995225"><ele>53.0</ele><time>2026-04-10T10:16:09Z</time></trkpt><trkpt lat="43.12842924223934" lon="2.9816643371171705"><ele>50.199999999999996</ele><time>2026-04-10T10:16:10Z</time></trkpt><trkpt lat="43.12838071088756" lon="2.981758867829381"><ele>47.4</ele><time>2026-04-10T10:16:11Z</time></trkpt><trkpt lat="43.128333718180095" lon="2.9818359484702723"><ele>44.599999999999994</ele><time>2026-04-10T10:16:12Z</time></trkpt><trkpt lat="43.12823182603594" lon="2.9819177161122004"><ele>41.8</ele><time>2026-04-10T10:16:14Z</time></trkpt><trkpt lat="43.12817286961277" lon="2.9819527277110156"><ele>39.0</ele><time>2026-04-10T10:16:15Z</time></trkpt><trkpt lat="43.12806077585334" lon="2.9820017524144076"><ele>38.666666666666664</ele><time>2026-04-10T10:16:17Z</time></trkpt><trkpt lat="43.127940044272556" lon="2.9820307941699125"><ele>38.333333333333336</ele><time>2026-04-10T10:16:19Z</time></trkpt><trkpt lat="43.127859605190096" lon="2.982061824866526"><ele>38.0</ele><time>2026-04-10T10:16:21Z</time></trkpt><trkpt lat="43.12779053464403" lon="2.98208636473474"><ele>37.66666666666667</ele><time>2026-04-10T10:16:26Z</time></trkpt><trkpt lat="43.12772570230636" lon="2.9821055899456788"><ele>37.333333333333336</ele><time>2026-04-10T10:16:29Z</time></trkpt><trkpt lat="43.127792347688825" lon="2.9820909401475357"><ele>37.0</ele><time>2026-04-10T10:16:43Z</time></trkpt><trkpt lat="43.1278578952564" lon="2.9820698473336686"><ele>37.0</ele><time>2026-04-10T10:16:48.999Z</time></trkpt><trkpt lat="43.12793203361969" lon="2.982045569177714"><ele>37.0</ele><time>2026-04-10T10:16:54.999Z</time></trkpt><trkpt lat="43.12799560272338" lon="2.9820297073752"><ele>37.0</ele><time>2026-04-10T10:16:59.999Z</time></trkpt><trkpt lat="43.1280601121284" lon="2.9820017074132354"><ele>37.0</ele><time>2026-04-10T10:17:05.999Z</time></trkpt><trkpt lat="43.12812168765327" lon="2.981981142492363"><ele>37.0</ele><time>2026-04-10T10:17:12.999Z</time></trkpt><trkpt lat="43.12817364458163" lon="2.9820346112240776"><ele>37.0</ele><time>2026-04-10T10:17:33.999Z</time></trkpt><trkpt lat="43.128200291176285" lon="2.982113124808695"><ele>37.0</ele><time>2026-04-10T10:17:41.999Z</time></trkpt><trkpt lat="43.12772670299106" lon="2.9821282625226138"><ele>37.0</ele><time>2026-04-10T10:22:45.996Z</time></trkpt><trkpt lat="43.12766916122579" lon="2.9821654781726954"><ele>37.0</ele><time>2026-04-10T10:22:47.996Z</time></trkpt><trkpt lat="43.1276047043904" lon="2.982198586690223"><ele>37.0</ele><time>2026-04-10T10:22:50Z</time></trkpt><trkpt lat="43.127540624740654" lon="2.9822163563249466"><ele>37.0</ele><time>2026-04-10T10:22:52Z</time></trkpt><trkpt lat="43.12746812127822" lon="2.9822145961252806"><ele>37.0</ele><time>2026-04-10T10:22:54Z</time></trkpt><trkpt lat="43.127399976405435" lon="2.9822129197446463"><ele>37.0</ele><time>2026-04-10T10:22:56Z</time></trkpt><trkpt lat="43.12733471873346" lon="2.982215316052914"><ele>37.0</ele><time>2026-04-10T10:22:58Z</time></trkpt><trkpt lat="43.12726800298485" lon="2.9822304401399915"><ele>37.285714285714285</ele><time>2026-04-10T10:23:00Z</time></trkpt><trkpt lat="43.127199164550305" lon="2.9822390052510976"><ele>37.57142857142857</ele><time>2026-04-10T10:23:02Z</time></trkpt><trkpt lat="43.12713488006816" lon="2.982269032557086"><ele>37.85714285714286</ele><time>2026-04-10T10:23:04Z</time></trkpt><trkpt lat="43.12707590443145" lon="2.9823078576332103"><ele>38.14285714285714</ele><time>2026-04-10T10:23:06Z</time></trkpt><trkpt lat="43.12701779399171" lon="2.982352529020065"><ele>38.42857142857142</ele><time>2026-04-10T10:23:08Z</time></trkpt><trkpt lat="43.12696420352102" lon="2.9824005105557467"><ele>38.714285714285715</ele><time>2026-04-10T10:23:10Z</time></trkpt><trkpt lat="43.12690141963348" lon="2.982455254445785"><ele>39.0</ele><time>2026-04-10T10:23:12Z</time></trkpt><trkpt lat="43.126847700830304" lon="2.98251134566655"><ele>36.0</ele><time>2026-04-10T10:23:14Z</time></trkpt><trkpt lat="43.12673593403452" lon="2.9825520358483804"><ele>33.0</ele><time>2026-04-10T10:23:17Z</time></trkpt><trkpt lat="43.12666327127706" lon="2.9825666508266973"><ele>30.0</ele><time>2026-04-10T10:23:20Z</time></trkpt><trkpt lat="43.126546598299775" lon="2.9825929483621363"><ele>27.0</ele><time>2026-04-10T10:23:22Z</time></trkpt><trkpt lat="43.12646585468081" lon="2.982599825767492"><ele>24.0</ele><time>2026-04-10T10:23:23Z</time></trkpt><trkpt lat="43.12637479166264" lon="2.982687632961066"><ele>24.0</ele><time>2026-04-10T10:23:28Z</time></trkpt><trkpt lat="43.1263062272508" lon="2.9827067733564596"><ele>24.0</ele><time>2026-04-10T10:23:29Z</time></trkpt><trkpt lat="43.12624229327116" lon="2.9827107796821757"><ele>24.0</ele><time>2026-04-10T10:23:30Z</time></trkpt><trkpt lat="43.12616237324977" lon="2.9827232836756132"><ele>24.0</ele><time>2026-04-10T10:23:31Z</time></trkpt><trkpt lat="43.12608705572378" lon="2.9827456394421024"><ele>24.0</ele><time>2026-04-10T10:23:32Z</time></trkpt><trkpt lat="43.12601438923449" lon="2.9827518915268327"><ele>24.0</ele><time>2026-04-10T10:23:33Z</time></trkpt><trkpt lat="43.12592416486522" lon="2.982751605493095"><ele>24.0</ele><time>2026-04-10T10:23:35Z</time></trkpt><trkpt lat="43.125842314713445" lon="2.9827759382329795"><ele>24.0</ele><time>2026-04-10T10:23:37Z</time></trkpt><trkpt lat="43.12577923473896" lon="2.982826956507534"><ele>24.0</ele><time>2026-04-10T10:23:39.999Z</time></trkpt><trkpt lat="43.12572019272961" lon="2.982894854326472"><ele>24.0</ele><time>2026-04-10T10:23:41.999Z</time></trkpt><trkpt lat="43.12567538139601" lon="2.982990540823247"><ele>24.0</ele><time>2026-04-10T10:23:43.999Z</time></trkpt><trkpt lat="43.125662645300615" lon="2.9831019102197645"><ele>24.0</ele><time>2026-04-10T10:23:45.999Z</time></trkpt><trkpt lat="43.12566876561532" lon="2.9832061075414633"><ele>23.4</ele><time>2026-04-10T10:23:47.999Z</time></trkpt><trkpt lat="43.12566899962146" lon="2.983316120686452"><ele>22.799999999999997</ele><time>2026-04-10T10:23:49.999Z</time></trkpt><trkpt lat="43.12566523909404" lon="2.983424333976668"><ele>22.200000000000003</ele><time>2026-04-10T10:23:51.999Z</time></trkpt><trkpt lat="43.12565506432982" lon="2.983543650327447"><ele>21.6</ele><time>2026-04-10T10:23:53.999Z</time></trkpt><trkpt lat="43.12561975403445" lon="2.983680208726156"><ele>21.0</ele><time>2026-04-10T10:23:55.999Z</time></trkpt><trkpt lat="43.125561110091134" lon="2.983809972304961"><ele>21.0</ele><time>2026-04-10T10:23:57.999Z</time></trkpt><trkpt lat="43.12549886900349" lon="2.9838884790804046"><ele>21.0</ele><time>2026-04-10T10:23:59.999Z</time></trkpt><trkpt lat="43.12541827886483" lon="2.983912785230666"><ele>21.0</ele><time>2026-04-10T10:24:01.999Z</time></trkpt><trkpt lat="43.12533692326738" lon="2.983899881028139"><ele>21.0</ele><time>2026-04-10T10:24:03.999Z</time></trkpt><trkpt lat="43.12525057573367" lon="2.983891197489089"><ele>21.0</ele><time>2026-04-10T10:24:05.999Z</time></trkpt><trkpt lat="43.125157659480934" lon="2.9838951217084166"><ele>21.0</ele><time>2026-04-10T10:24:07.999Z</time></trkpt><trkpt lat="43.12508123700907" lon="2.983953886176463"><ele>21.0</ele><time>2026-04-10T10:24:09.999Z</time></trkpt><trkpt lat="43.12505086158905" lon="2.9841047383116046"><ele>21.0</ele><time>2026-04-10T10:24:11.999Z</time></trkpt><trkpt lat="43.12503435179923" lon="2.9842384389514263"><ele>21.0</ele><time>2026-04-10T10:24:13.999Z</time></trkpt><trkpt lat="43.124962313571" lon="2.98434679146471"><ele>21.0</ele><time>2026-04-10T10:24:15.999Z</time></trkpt><trkpt lat="43.12495634993126" lon="2.9844834028287277"><ele>21.0</ele><time>2026-04-10T10:24:17.999Z</time></trkpt><trkpt lat="43.124961017404225" lon="2.984636737508702"><ele>19.666666666666668</ele><time>2026-04-10T10:24:19.999Z</time></trkpt><trkpt lat="43.12495733993964" lon="2.984726528759793"><ele>18.333333333333332</ele><time>2026-04-10T10:24:20.999Z</time></trkpt><trkpt lat="43.12495317682846" lon="2.984831833712292"><ele>17.0</ele><time>2026-04-10T10:24:21.999Z</time></trkpt><trkpt lat="43.124951308102965" lon="2.984939976644467"><ele>15.666666666666666</ele><time>2026-04-10T10:24:22.999Z</time></trkpt><trkpt lat="43.12495982698715" lon="2.985056567782072"><ele>14.333333333333332</ele><time>2026-04-10T10:24:23.999Z</time></trkpt><trkpt lat="43.12496038350874" lon="2.9851725265769025"><ele>13.0</ele><time>2026-04-10T10:24:24.999Z</time></trkpt><trkpt lat="43.12496626858941" lon="2.9852734235682497"><ele>12.333333333333332</ele><time>2026-04-10T10:24:25.999Z</time></trkpt><trkpt lat="43.124978067841546" lon="2.985385411024282"><ele>11.666666666666666</ele><time>2026-04-10T10:24:26.999Z</time></trkpt><trkpt lat="43.124987944084275" lon="2.9855074277972826"><ele>11.0</ele><time>2026-04-10T10:24:27.999Z</time></trkpt><trkpt lat="43.12498613128593" lon="2.985632534512705"><ele>10.333333333333332</ele><time>2026-04-10T10:24:28.999Z</time></trkpt><trkpt lat="43.12497663437335" lon="2.985763794293188"><ele>9.666666666666666</ele><time>2026-04-10T10:24:29.999Z</time></trkpt><trkpt lat="43.12498146969817" lon="2.9858835310662"><ele>9.0</ele><time>2026-04-10T10:24:30.999Z</time></trkpt><trkpt lat="43.1249788489531" lon="2.9859774851480156"><ele>9.2</ele><time>2026-04-10T10:24:31.999Z</time></trkpt><trkpt lat="43.12498067618354" lon="2.9861352121432896"><ele>9.4</ele><time>2026-04-10T10:24:33.999Z</time></trkpt><trkpt lat="43.124977989587755" lon="2.986246440773708"><ele>9.6</ele><time>2026-04-10T10:24:35.999Z</time></trkpt><trkpt lat="43.12496640731325" lon="2.986346841058464"><ele>9.8</ele><time>2026-04-10T10:24:37.999Z</time></trkpt><trkpt lat="43.12492463983006" lon="2.9864502957752177"><ele>10.0</ele><time>2026-04-10T10:24:39.999Z</time></trkpt><trkpt lat="43.12487375074771" lon="2.9865669632783742"><ele>9.333333333333334</ele><time>2026-04-10T10:24:41.999Z</time></trkpt><trkpt lat="43.12481961265389" lon="2.9866862524300712"><ele>8.666666666666668</ele><time>2026-04-10T10:24:43.999Z</time></trkpt><trkpt lat="43.124790687037695" lon="2.986771853031732"><ele>8.0</ele><time>2026-04-10T10:24:45.999Z</time></trkpt><trkpt lat="43.1247562804032" lon="2.986866984401822"><ele>7.333333333333334</ele><time>2026-04-10T10:24:47.999Z</time></trkpt><trkpt lat="43.124721556648254" lon="2.9869529978059326"><ele>6.666666666666667</ele><time>2026-04-10T10:24:49.998Z</time></trkpt><trkpt lat="43.124677033516015" lon="2.9870607904246875"><ele>6.0</ele><time>2026-04-10T10:24:51.998Z</time></trkpt><trkpt lat="43.12462957791627" lon="2.9871602178732592"><ele>6.0</ele><time>2026-04-10T10:24:53.998Z</time></trkpt><trkpt lat="43.124570031609046" lon="2.987265365690622"><ele>6.0</ele><time>2026-04-10T10:24:56Z</time></trkpt><trkpt lat="43.12450605768442" lon="2.9873730110902046"><ele>6.0</ele><time>2026-04-10T10:24:58Z</time></trkpt><trkpt lat="43.12444643409534" lon="2.9874786873856336"><ele>6.0</ele><time>2026-04-10T10:25:00Z</time></trkpt><trkpt lat="43.12438523077634" lon="2.987583946722464"><ele>6.0</ele><time>2026-04-10T10:25:02Z</time></trkpt><trkpt lat="43.12432493744688" lon="2.987677485965203"><ele>5.666666666666667</ele><time>2026-04-10T10:25:04Z</time></trkpt><trkpt lat="43.12429794609639" lon="2.9877911415810368"><ele>5.333333333333333</ele><time>2026-04-10T10:25:06Z</time></trkpt><trkpt lat="43.12427097760573" lon="2.9879135876505427"><ele>5.0</ele><time>2026-04-10T10:25:08Z</time></trkpt><trkpt lat="43.124317550242324" lon="2.98797324771228"><ele>4.666666666666666</ele><time>2026-04-10T10:25:09Z</time></trkpt><trkpt lat="43.1242461955026" lon="2.988039339285026"><ele>4.333333333333333</ele><time>2026-04-10T10:25:10Z</time></trkpt><trkpt lat="43.124210373768534" lon="2.9881681428219826"><ele>4.0</ele><time>2026-04-10T10:25:12Z</time></trkpt><trkpt lat="43.12418388442598" lon="2.9882810387785494"><ele>4.0</ele><time>2026-04-10T10:25:14Z</time></trkpt><trkpt lat="43.12415566091607" lon="2.988409104876441"><ele>4.0</ele><time>2026-04-10T10:25:16Z</time></trkpt><trkpt lat="43.12414533994652" lon="2.9885380297455564"><ele>4.0</ele><time>2026-04-10T10:25:18Z</time></trkpt><trkpt lat="43.12411937947867" lon="2.988663945692021"><ele>4.0</ele><time>2026-04-10T10:25:20Z</time></trkpt><trkpt lat="43.12415156833586" lon="2.9887944192427436"><ele>4.0</ele><time>2026-04-10T10:25:22Z</time></trkpt><trkpt lat="43.12413966317728" lon="2.988932493081199"><ele>4.0</ele><time>2026-04-10T10:25:24Z</time></trkpt><trkpt lat="43.12414587101595" lon="2.989066194402385"><ele>4.0</ele><time>2026-04-10T10:25:26Z</time></trkpt><trkpt lat="43.12413845005953" lon="2.9892029104843854"><ele>4.0</ele><time>2026-04-10T10:25:28Z</time></trkpt><trkpt lat="43.12415592763323" lon="2.9893384671074417"><ele>4.0</ele><time>2026-04-10T10:25:30Z</time></trkpt><trkpt lat="43.124178602343285" lon="2.9894792196408972"><ele>4.0</ele><time>2026-04-10T10:25:32Z</time></trkpt><trkpt lat="43.12421537254881" lon="2.9896134411104804"><ele>4.6</ele><time>2026-04-10T10:25:34Z</time></trkpt><trkpt lat="43.12426054963377" lon="2.98974508084953"><ele>5.2</ele><time>2026-04-10T10:25:36Z</time></trkpt><trkpt lat="43.124310435733975" lon="2.989866631327991"><ele>5.799999999999999</ele><time>2026-04-10T10:25:38Z</time></trkpt><trkpt lat="43.12436171305406" lon="2.9899816842296874"><ele>6.3999999999999995</ele><time>2026-04-10T10:25:40Z</time></trkpt><trkpt lat="43.124402509123456" lon="2.9900945429602572"><ele>7.0</ele><time>2026-04-10T10:25:42Z</time></trkpt><trkpt lat="43.124444085038206" lon="2.990200009729876"><ele>8.333333333333334</ele><time>2026-04-10T10:25:44Z</time></trkpt><trkpt lat="43.12449017881135" lon="2.990306657667082"><ele>9.666666666666668</ele><time>2026-04-10T10:25:45.999Z</time></trkpt><trkpt lat="43.1245338998212" lon="2.990406631813787"><ele>11.0</ele><time>2026-04-10T10:25:47.999Z</time></trkpt><trkpt lat="43.12457272813679" lon="2.990514168055442"><ele>12.333333333333334</ele><time>2026-04-10T10:25:49.999Z</time></trkpt><trkpt lat="43.124620252237555" lon="2.9906164054443307"><ele>13.666666666666666</ele><time>2026-04-10T10:25:51.999Z</time></trkpt><trkpt lat="43.1246660342524" lon="2.990715256773202"><ele>15.0</ele><time>2026-04-10T10:25:53.999Z</time></trkpt><trkpt lat="43.12470862570542" lon="2.990821842197031"><ele>16.4</ele><time>2026-04-10T10:25:55.999Z</time></trkpt><trkpt lat="43.12474378457344" lon="2.990932035829584"><ele>17.8</ele><time>2026-04-10T10:25:57.999Z</time></trkpt><trkpt lat="43.12476875713276" lon="2.9910468016017258"><ele>19.200000000000003</ele><time>2026-04-10T10:25:59.999Z</time></trkpt><trkpt lat="43.12477440043177" lon="2.9911769626746456"><ele>20.6</ele><time>2026-04-10T10:26:01.999Z</time></trkpt><trkpt lat="43.12477256013874" lon="2.991305640014746"><ele>22.0</ele><time>2026-04-10T10:26:03.999Z</time></trkpt><trkpt lat="43.12477110790463" lon="2.9914318357726164"><ele>22.0</ele><time>2026-04-10T10:26:05.999Z</time></trkpt><trkpt lat="43.124767520060765" lon="2.991551762494243"><ele>22.0</ele><time>2026-04-10T10:26:07.999Z</time></trkpt><trkpt lat="43.124762622583916" lon="2.991669972015897"><ele>22.0</ele><time>2026-04-10T10:26:09.999Z</time></trkpt><trkpt lat="43.124756187929364" lon="2.9917854333923084"><ele>22.0</ele><time>2026-04-10T10:26:11.999Z</time></trkpt><trkpt lat="43.124757062229506" lon="2.991908352525745"><ele>22.0</ele><time>2026-04-10T10:26:13.999Z</time></trkpt><trkpt lat="43.12475553219178" lon="2.9920304380107217"><ele>22.0</ele><time>2026-04-10T10:26:15.999Z</time></trkpt><trkpt lat="43.12475033340786" lon="2.9921515296603243"><ele>22.0</ele><time>2026-04-10T10:26:17.999Z</time></trkpt><trkpt lat="43.12474188569316" lon="2.9922698718061485"><ele>22.0</ele><time>2026-04-10T10:26:19.999Z</time></trkpt><trkpt lat="43.12474527295003" lon="2.9923922455543446"><ele>22.0</ele><time>2026-04-10T10:26:21.999Z</time></trkpt><trkpt lat="43.124745805650036" lon="2.9925128267057914"><ele>22.0</ele><time>2026-04-10T10:26:23.999Z</time></trkpt><trkpt lat="43.124745792931364" lon="2.9926400993725752"><ele>22.0</ele><time>2026-04-10T10:26:25.999Z</time></trkpt><trkpt lat="43.12475351997752" lon="2.992765313416828"><ele>22.0</ele><time>2026-04-10T10:26:27.999Z</time></trkpt><trkpt lat="43.12476917643697" lon="2.9928906393137207"><ele>22.0</ele><time>2026-04-10T10:26:29.999Z</time></trkpt><trkpt lat="43.12478816790881" lon="2.99301648456456"><ele>22.0</ele><time>2026-04-10T10:26:31.999Z</time></trkpt><trkpt lat="43.12480974318545" lon="2.9931433358273125"><ele>22.0</ele><time>2026-04-10T10:26:33.999Z</time></trkpt><trkpt lat="43.124843602149014" lon="2.9932733265835965"><ele>22.0</ele><time>2026-04-10T10:26:35.999Z</time></trkpt><trkpt lat="43.12488505657203" lon="2.993395382547191"><ele>22.0</ele><time>2026-04-10T10:26:37.999Z</time></trkpt><trkpt lat="43.12492900197072" lon="2.9935105176197285"><ele>18.400000000000002</ele><time>2026-04-10T10:26:39.999Z</time></trkpt><trkpt lat="43.12497676395465" lon="2.9936196174127465"><ele>14.8</ele><time>2026-04-10T10:26:41.999Z</time></trkpt><trkpt lat="43.12502285219839" lon="2.9937377805395875"><ele>11.200000000000001</ele><time>2026-04-10T10:26:43.999Z</time></trkpt><trkpt lat="43.12506817110352" lon="2.9938502164633745"><ele>7.6000000000000005</ele><time>2026-04-10T10:26:45.999Z</time></trkpt><trkpt lat="43.12509505616825" lon="2.993966717238844"><ele>4.0</ele><time>2026-04-10T10:26:47.999Z</time></trkpt><trkpt lat="43.125116007603914" lon="2.9940812602506335"><ele>3.4999999999999996</ele><time>2026-04-10T10:26:49.999Z</time></trkpt><trkpt lat="43.125119641376465" lon="2.9941894408886287"><ele>3.0</ele><time>2026-04-10T10:26:51.999Z</time></trkpt><trkpt lat="43.125101244713775" lon="2.994303868224658"><ele>2.5</ele><time>2026-04-10T10:26:54.999Z</time></trkpt><trkpt lat="43.1250364184661" lon="2.9943385876565727"><ele>2.0</ele><time>2026-04-10T10:26:56.998Z</time></trkpt><trkpt lat="43.12495726010869" lon="2.9943195073439095"><ele>1.5</ele><time>2026-04-10T10:26:59.998Z</time></trkpt><trkpt lat="43.124885493081386" lon="2.994315803917334"><ele>1.0</ele><time>2026-04-10T10:27:04Z</time></trkpt><trkpt lat="43.1248211471318" lon="2.994311183176463"><ele>0.9999999999999999</ele><time>2026-04-10T10:27:10Z</time></trkpt><trkpt lat="43.12474995799656" lon="2.9942868004375285"><ele>1.0</ele><time>2026-04-10T10:27:16Z</time></trkpt><trkpt lat="43.124686200079125" lon="2.994265524193004"><ele>1.0</ele><time>2026-04-10T10:27:21Z</time></trkpt><trkpt lat="43.12461360864287" lon="2.994245736116422"><ele>1.0</ele><time>2026-04-10T10:27:27Z</time></trkpt><trkpt lat="43.12453997904337" lon="2.9942076783622666"><ele>0.9999999999999999</ele><time>2026-04-10T10:27:33Z</time></trkpt><trkpt lat="43.124456934308405" lon="2.9941643521093644"><ele>1.0</ele><time>2026-04-10T10:27:38Z</time></trkpt><trkpt lat="43.12438110259924" lon="2.9941217295068787"><ele>1.2857142857142856</ele><time>2026-04-10T10:27:41Z</time></trkpt><trkpt lat="43.12430989428579" lon="2.994078677427977"><ele>1.5714285714285712</ele><time>2026-04-10T10:27:44Z</time></trkpt><trkpt lat="43.12424338018124" lon="2.9940344373779597"><ele>1.857142857142857</ele><time>2026-04-10T10:27:47Z</time></trkpt><trkpt lat="43.124187859308215" lon="2.993972288682244"><ele>2.142857142857143</ele><time>2026-04-10T10:27:50Z</time></trkpt><trkpt lat="43.124151102689346" lon="2.993880141665143"><ele>2.4285714285714284</ele><time>2026-04-10T10:27:52.999Z</time></trkpt><trkpt lat="43.12410943450907" lon="2.993808834391969"><ele>2.714285714285714</ele><time>2026-04-10T10:27:55.999Z</time></trkpt><trkpt lat="43.124066885460394" lon="2.9937298991996433"><ele>3.0</ele><time>2026-04-10T10:27:59.999Z</time></trkpt><trkpt lat="43.1240213374366" lon="2.9936413147774497"><ele>3.0</ele><time>2026-04-10T10:28:03.999Z</time></trkpt><trkpt lat="43.12396640646095" lon="2.993547623598974"><ele>3.0</ele><time>2026-04-10T10:28:07.999Z</time></trkpt><trkpt lat="43.12391567611678" lon="2.993477826777336"><ele>3.0</ele><time>2026-04-10T10:28:10.999Z</time></trkpt><trkpt lat="43.12386082660086" lon="2.99340988920035"><ele>3.0</ele><time>2026-04-10T10:28:13.999Z</time></trkpt><trkpt lat="43.12380680187892" lon="2.993333996499468"><ele>3.0</ele><time>2026-04-10T10:28:16.999Z</time></trkpt><trkpt lat="43.12375230433564" lon="2.993260688910794"><ele>3.0</ele><time>2026-04-10T10:28:19.999Z</time></trkpt><trkpt lat="43.12370201497345" lon="2.993194126726709"><ele>4.142857142857142</ele><time>2026-04-10T10:28:22.999Z</time></trkpt><trkpt lat="43.12364935030427" lon="2.993112249420546"><ele>5.285714285714286</ele><time>2026-04-10T10:28:25.999Z</time></trkpt><trkpt lat="43.12368902673381" lon="2.993020717702322"><ele>6.428571428571429</ele><time>2026-04-10T10:28:28.999Z</time></trkpt><trkpt lat="43.12370341235786" lon="2.9929268740655086"><ele>7.571428571428571</ele><time>2026-04-10T10:28:35.999Z</time></trkpt><trkpt lat="43.123729760470816" lon="2.9928396107006474"><ele>8.714285714285714</ele><time>2026-04-10T10:28:43.999Z</time></trkpt><trkpt lat="43.12374818213787" lon="2.992754072982423"><ele>9.857142857142858</ele><time>2026-04-10T10:28:50.999Z</time></trkpt><trkpt lat="43.123726917861056" lon="2.9926701019396607"><ele>11.0</ele><time>2026-04-10T10:28:58.999Z</time></trkpt><trkpt lat="43.1240258076359" lon="2.99167221808667"><ele>12.5</ele><time>2026-04-10T10:37:29Z</time></trkpt><trkpt lat="43.12398466203858" lon="2.9915596866224337"><ele>14.0</ele><time>2026-04-10T10:37:33.999Z</time></trkpt><trkpt lat="43.12392137986451" lon="2.991473229177924"><ele>15.5</ele><time>2026-04-10T10:37:36.999Z</time></trkpt><trkpt lat="43.12387546811677" lon="2.99139580692727"><ele>17.0</ele><time>2026-04-10T10:37:38.999Z</time></trkpt><trkpt lat="43.12381852035461" lon="2.9913355834787603"><ele>18.5</ele><time>2026-04-10T10:37:41.999Z</time></trkpt><trkpt lat="43.12375597472013" lon="2.9912596087283774"><ele>20.0</ele><time>2026-04-10T10:37:44.999Z</time></trkpt><trkpt lat="43.12369860895115" lon="2.9912146497042165"><ele>20.0</ele><time>2026-04-10T10:37:47.999Z</time></trkpt><trkpt lat="43.12363645042371" lon="2.9911780118369617"><ele>20.0</ele><time>2026-04-10T10:37:50.999Z</time></trkpt><trkpt lat="43.123566451776064" lon="2.9911706385679877"><ele>20.0</ele><time>2026-04-10T10:37:53.999Z</time></trkpt><trkpt lat="43.123490740990306" lon="2.9911848172469617"><ele>20.0</ele><time>2026-04-10T10:37:56.999Z</time></trkpt><trkpt lat="43.12345236564443" lon="2.991111710974055"><ele>20.0</ele><time>2026-04-10T10:37:59.999Z</time></trkpt><trkpt lat="43.12347055051163" lon="2.991006497782075"><ele>20.0</ele><time>2026-04-10T10:38:02.999Z</time></trkpt><trkpt lat="43.123473595973834" lon="2.9909124215477334"><ele>20.0</ele><time>2026-04-10T10:38:06.999Z</time></trkpt><trkpt lat="43.1234463168283" lon="2.9909976506126474"><ele>20.0</ele><time>2026-04-10T10:38:10.999Z</time></trkpt><trkpt lat="43.123456878974814" lon="2.991092820746325"><ele>20.0</ele><time>2026-04-10T10:38:13.999Z</time></trkpt><trkpt lat="43.12345510854465" lon="2.991190260083673"><ele>20.0</ele><time>2026-04-10T10:38:17.999Z</time></trkpt><trkpt lat="43.12348643997745" lon="2.9912896244789104"><ele>20.0</ele><time>2026-04-10T10:38:21.999Z</time></trkpt><trkpt lat="43.12351012088235" lon="2.991387234372961"><ele>20.0</ele><time>2026-04-10T10:38:24.999Z</time></trkpt><trkpt lat="43.12351659674993" lon="2.9914862048192994"><ele>20.0</ele><time>2026-04-10T10:38:27.999Z</time></trkpt><trkpt lat="43.123531661870864" lon="2.9915909772612777"><ele>20.0</ele><time>2026-04-10T10:38:30.999Z</time></trkpt><trkpt lat="43.12356651942391" lon="2.9917050952222954"><ele>19.5</ele><time>2026-04-10T10:38:33.999Z</time></trkpt><trkpt lat="43.123595510457484" lon="2.991824198415708"><ele>19.0</ele><time>2026-04-10T10:38:36.999Z</time></trkpt><trkpt lat="43.12361944414496" lon="2.9919069696993787"><ele>18.5</ele><time>2026-04-10T10:38:38.999Z</time></trkpt><trkpt lat="43.123646632028205" lon="2.9919973778861477"><ele>18.0</ele><time>2026-04-10T10:38:40.999Z</time></trkpt><trkpt lat="43.12368021315963" lon="2.9921087106727473"><ele>17.5</ele><time>2026-04-10T10:38:43.999Z</time></trkpt><trkpt lat="43.12370948507503" lon="2.9922302533799"><ele>17.0</ele><time>2026-04-10T10:38:47Z</time></trkpt><trkpt lat="43.12371153523489" lon="2.9923228502392716"><ele>16.999999999999996</ele><time>2026-04-10T10:38:49Z</time></trkpt><trkpt lat="43.123722648692095" lon="2.992417635358716"><ele>17.0</ele><time>2026-04-10T10:38:52Z</time></trkpt><trkpt lat="43.123729864249995" lon="2.992503978586529"><ele>17.0</ele><time>2026-04-10T10:38:55Z</time></trkpt><trkpt lat="43.123662650917396" lon="2.9925586193536473"><ele>17.0</ele><time>2026-04-10T10:38:58Z</time></trkpt><trkpt lat="43.12360021624821" lon="2.9925061974559584"><ele>17.0</ele><time>2026-04-10T10:39:00Z</time></trkpt><trkpt lat="43.123540175586115" lon="2.992447533354494"><ele>16.999999999999996</ele><time>2026-04-10T10:39:02Z</time></trkpt><trkpt lat="43.123485286866504" lon="2.9924017853529343"><ele>17.0</ele><time>2026-04-10T10:39:04Z</time></trkpt><trkpt lat="43.12340995062702" lon="2.9923494087390683"><ele>17.0</ele><time>2026-04-10T10:39:06Z</time></trkpt><trkpt lat="43.123328819572386" lon="2.9922849660795583"><ele>17.0</ele><time>2026-04-10T10:39:08Z</time></trkpt><trkpt lat="43.12325536314411" lon="2.9922490193085642"><ele>17.0</ele><time>2026-04-10T10:39:10Z</time></trkpt><trkpt lat="43.123198237168246" lon="2.9922067596913657"><ele>17.0</ele><time>2026-04-10T10:39:12Z</time></trkpt><trkpt lat="43.12312742152788" lon="2.9921529946051932"><ele>17.0</ele><time>2026-04-10T10:39:15Z</time></trkpt><trkpt lat="43.12305719337792" lon="2.9920829340895736"><ele>17.0</ele><time>2026-04-10T10:39:18Z</time></trkpt><trkpt lat="43.12299068946589" lon="2.991978279514681"><ele>14.833333333333334</ele><time>2026-04-10T10:39:21Z</time></trkpt><trkpt lat="43.122944472304034" lon="2.991897970373676"><ele>12.666666666666668</ele><time>2026-04-10T10:39:23Z</time></trkpt><trkpt lat="43.12289587946225" lon="2.9918409371853554"><ele>10.5</ele><time>2026-04-10T10:39:25Z</time></trkpt><trkpt lat="43.12282329895672" lon="2.9917909322103244"><ele>8.333333333333334</ele><time>2026-04-10T10:39:28Z</time></trkpt><trkpt lat="43.12274475003231" lon="2.991817813387845"><ele>6.166666666666666</ele><time>2026-04-10T10:39:31Z</time></trkpt><trkpt lat="43.12264801810029" lon="2.991781821751508"><ele>4.0</ele><time>2026-04-10T10:39:35Z</time></trkpt><trkpt lat="43.122597462818156" lon="2.991673970091894"><ele>3.6666666666666665</ele><time>2026-04-10T10:39:37Z</time></trkpt><trkpt lat="43.12254826166352" lon="2.991566674764738"><ele>3.333333333333333</ele><time>2026-04-10T10:39:39Z</time></trkpt><trkpt lat="43.12250601895805" lon="2.991472049487085"><ele>3.0</ele><time>2026-04-10T10:39:41Z</time></trkpt><trkpt lat="43.122458314452324" lon="2.9913869714572283"><ele>2.6666666666666665</ele><time>2026-04-10T10:39:43Z</time></trkpt><trkpt lat="43.122408188518854" lon="2.9913070191539832"><ele>2.333333333333333</ele><time>2026-04-10T10:39:45Z</time></trkpt><trkpt lat="43.122362827169965" lon="2.9912226087020866"><ele>2.0</ele><time>2026-04-10T10:39:47Z</time></trkpt><trkpt lat="43.122295822104306" lon="2.991158416566472"><ele>2.0</ele><time>2026-04-10T10:39:49Z</time></trkpt><trkpt lat="43.12223732503764" lon="2.991078765198083"><ele>1.9999999999999998</ele><time>2026-04-10T10:39:50.999Z</time></trkpt><trkpt lat="43.12217750722418" lon="2.991016342004543"><ele>2.0</ele><time>2026-04-10T10:39:52.999Z</time></trkpt><trkpt lat="43.122121964882275" lon="2.990965701856991"><ele>2.0</ele><time>2026-04-10T10:39:54.999Z</time></trkpt><trkpt lat="43.12207000382778" lon="2.9909080308777662"><ele>1.9999999999999998</ele><time>2026-04-10T10:39:56.999Z</time></trkpt><trkpt lat="43.122001405896114" lon="2.9908496751472597"><ele>2.0</ele><time>2026-04-10T10:39:58.999Z</time></trkpt><trkpt lat="43.121943366198494" lon="2.990784487116942"><ele>2.0</ele><time>2026-04-10T10:40:00.999Z</time></trkpt><trkpt lat="43.12187232488369" lon="2.9907195139914813"><ele>2.0</ele><time>2026-04-10T10:40:02.999Z</time></trkpt><trkpt lat="43.12181068238445" lon="2.9906641809201657"><ele>1.9999999999999998</ele><time>2026-04-10T10:40:04.999Z</time></trkpt><trkpt lat="43.12175092602354" lon="2.990626202754519"><ele>2.0</ele><time>2026-04-10T10:40:06.999Z</time></trkpt><trkpt lat="43.12169366967448" lon="2.9905823711411346"><ele>2.0</ele><time>2026-04-10T10:40:08.999Z</time></trkpt><trkpt lat="43.12162297251495" lon="2.990568700514099"><ele>1.9999999999999998</ele><time>2026-04-10T10:40:10.999Z</time></trkpt><trkpt lat="43.12155644900728" lon="2.990552070620747"><ele>2.0</ele><time>2026-04-10T10:40:12.999Z</time></trkpt><trkpt lat="43.12145532900728" lon="2.990533526915262"><ele>2.0</ele><time>2026-04-10T10:40:15.999Z</time></trkpt><trkpt lat="43.121380666375856" lon="2.9905271760160907"><ele>1.9999999999999998</ele><time>2026-04-10T10:40:17.999Z</time></trkpt><trkpt lat="43.121306980383665" lon="2.990516150746061"><ele>2.0</ele><time>2026-04-10T10:40:19.999Z</time></trkpt><trkpt lat="43.12122129984375" lon="2.990503841858098"><ele>2.0</ele><time>2026-04-10T10:40:21.999Z</time></trkpt><trkpt lat="43.12115060645671" lon="2.990484712081674"><ele>2.0</ele><time>2026-04-10T10:40:23.999Z</time></trkpt><trkpt lat="43.121076389654675" lon="2.99044196072818"><ele>1.9999999999999998</ele><time>2026-04-10T10:40:25.999Z</time></trkpt><trkpt lat="43.1210005720429" lon="2.99039501689586"><ele>2.0</ele><time>2026-04-10T10:40:27.999Z</time></trkpt><trkpt lat="43.12094150489735" lon="2.9903162803573937"><ele>1.9999999999999998</ele><time>2026-04-10T10:40:29.999Z</time></trkpt><trkpt lat="43.12087738747562" lon="2.9902384667209487"><ele>2.0</ele><time>2026-04-10T10:40:31.999Z</time></trkpt><trkpt lat="43.120820846544206" lon="2.9901559828365745"><ele>2.0</ele><time>2026-04-10T10:40:33.999Z</time></trkpt><trkpt lat="43.12075898397581" lon="2.990072588591809"><ele>2.0</ele><time>2026-04-10T10:40:35.999Z</time></trkpt><trkpt lat="43.12068035426598" lon="2.989993241140521"><ele>1.9999999999999998</ele><time>2026-04-10T10:40:37.999Z</time></trkpt><trkpt lat="43.12061668172708" lon="2.9899232184899636"><ele>2.0</ele><time>2026-04-10T10:40:39.999Z</time></trkpt><trkpt lat="43.12053436019416" lon="2.98986066983321"><ele>1.8</ele><time>2026-04-10T10:40:41.999Z</time></trkpt><trkpt lat="43.12046377228202" lon="2.989793012680734"><ele>1.6</ele><time>2026-04-10T10:40:43.999Z</time></trkpt><trkpt lat="43.120387986808026" lon="2.989725610419197"><ele>1.4000000000000001</ele><time>2026-04-10T10:40:45.999Z</time></trkpt><trkpt lat="43.12030695769948" lon="2.989653615929272"><ele>1.2000000000000002</ele><time>2026-04-10T10:40:47.999Z</time></trkpt><trkpt lat="43.1202244509288" lon="2.989584234341284"><ele>1.0</ele><time>2026-04-10T10:40:49.999Z</time></trkpt><trkpt lat="43.120153939638" lon="2.9895194947979213"><ele>0.9999999999999999</ele><time>2026-04-10T10:40:51.999Z</time></trkpt><trkpt lat="43.12007582063554" lon="2.9894589408599535"><ele>1.0</ele><time>2026-04-10T10:40:54Z</time></trkpt><trkpt lat="43.11999609577293" lon="2.9893881693862125"><ele>1.0</ele><time>2026-04-10T10:40:56Z</time></trkpt><trkpt lat="43.11992084224126" lon="2.9893210692840797"><ele>1.0</ele><time>2026-04-10T10:40:58Z</time></trkpt><trkpt lat="43.11984791241206" lon="2.9892561568952183"><ele>0.9999999999999999</ele><time>2026-04-10T10:41:00Z</time></trkpt><trkpt lat="43.11977167116165" lon="2.9891996859219527"><ele>1.0</ele><time>2026-04-10T10:41:02Z</time></trkpt><trkpt lat="43.119690571019355" lon="2.9891422898648647"><ele>0.8333333333333333</ele><time>2026-04-10T10:41:04Z</time></trkpt><trkpt lat="43.11961028999626" lon="2.9891013418412564"><ele>0.6666666666666666</ele><time>2026-04-10T10:41:06Z</time></trkpt><trkpt lat="43.11952810433795" lon="2.989074340725636"><ele>0.5</ele><time>2026-04-10T10:41:08Z</time></trkpt><trkpt lat="43.11944364015122" lon="2.9890521771162604"><ele>0.3333333333333333</ele><time>2026-04-10T10:41:10Z</time></trkpt><trkpt lat="43.11936270131357" lon="2.989036390490241"><ele>0.16666666666666666</ele><time>2026-04-10T10:41:12Z</time></trkpt><trkpt lat="43.11928567988934" lon="2.9890241714979733"><ele>0.0</ele><time>2026-04-10T10:41:14Z</time></trkpt><trkpt lat="43.11920605958945" lon="2.989003147194629"><ele>0.0</ele><time>2026-04-10T10:41:16Z</time></trkpt><trkpt lat="43.11912062243576" lon="2.988995543445504"><ele>0.0</ele><time>2026-04-10T10:41:18Z</time></trkpt><trkpt lat="43.11903831106537" lon="2.9889774636980317"><ele>0.0</ele><time>2026-04-10T10:41:20Z</time></trkpt><trkpt lat="43.11895554057803" lon="2.9889447499958326"><ele>0.0</ele><time>2026-04-10T10:41:22Z</time></trkpt><trkpt lat="43.11887544577584" lon="2.9889171461177795"><ele>0.0</ele><time>2026-04-10T10:41:24Z</time></trkpt><trkpt lat="43.118791395765534" lon="2.988872029893474"><ele>0.0</ele><time>2026-04-10T10:41:26Z</time></trkpt><trkpt lat="43.11871840353798" lon="2.9888108811293623"><ele>0.0</ele><time>2026-04-10T10:41:28Z</time></trkpt><trkpt lat="43.11865073181825" lon="2.9887346544212763"><ele>0.0</ele><time>2026-04-10T10:41:30Z</time></trkpt><trkpt lat="43.118593902255355" lon="2.9886309566615314"><ele>0.0</ele><time>2026-04-10T10:41:32Z</time></trkpt><trkpt lat="43.11854490143099" lon="2.988535398386976"><ele>0.0</ele><time>2026-04-10T10:41:34Z</time></trkpt><trkpt lat="43.11850469555637" lon="2.9884428671388013"><ele>0.0</ele><time>2026-04-10T10:41:36Z</time></trkpt><trkpt lat="43.11846346450859" lon="2.9883492136539638"><ele>0.0</ele><time>2026-04-10T10:41:38Z</time></trkpt><trkpt lat="43.11840748135867" lon="2.988254931021308"><ele>0.0</ele><time>2026-04-10T10:41:40Z</time></trkpt><trkpt lat="43.1183475626636" lon="2.988178105704836"><ele>0.0</ele><time>2026-04-10T10:41:42Z</time></trkpt><trkpt lat="43.11828670595883" lon="2.98809789203745"><ele>0.0</ele><time>2026-04-10T10:41:44Z</time></trkpt><trkpt lat="43.11821636616902" lon="2.9880162480673147"><ele>0.0</ele><time>2026-04-10T10:41:46Z</time></trkpt><trkpt lat="43.11814640430812" lon="2.987946374035895"><ele>0.0</ele><time>2026-04-10T10:41:48Z</time></trkpt><trkpt lat="43.11807790316318" lon="2.987879219588433"><ele>0.0</ele><time>2026-04-10T10:41:50Z</time></trkpt><trkpt lat="43.1180000275034" lon="2.987814578423706"><ele>0.0</ele><time>2026-04-10T10:41:52Z</time></trkpt><trkpt lat="43.11792594789978" lon="2.9877678882324674"><ele>0.0</ele><time>2026-04-10T10:41:53.999Z</time></trkpt><trkpt lat="43.117851843918224" lon="2.9877127923558344"><ele>0.0</ele><time>2026-04-10T10:41:55.999Z</time></trkpt><trkpt lat="43.117775387807065" lon="2.98766430913738"><ele>0.0</ele><time>2026-04-10T10:41:57.999Z</time></trkpt><trkpt lat="43.11769271179576" lon="2.9876132933717265"><ele>0.0</ele><time>2026-04-10T10:41:59.999Z</time></trkpt><trkpt lat="43.11761167207901" lon="2.987573902607951"><ele>0.0</ele><time>2026-04-10T10:42:01.999Z</time></trkpt><trkpt lat="43.11753579266648" lon="2.9875280503401522"><ele>0.0</ele><time>2026-04-10T10:42:03.999Z</time></trkpt><trkpt lat="43.11745140972419" lon="2.9874844183591307"><ele>0.0</ele><time>2026-04-10T10:42:05.999Z</time></trkpt><trkpt lat="43.11737022661204" lon="2.9874438686596507"><ele>0.0</ele><time>2026-04-10T10:42:07.999Z</time></trkpt><trkpt lat="43.11728466243984" lon="2.9873975881884687"><ele>0.0</ele><time>2026-04-10T10:42:09.999Z</time></trkpt><trkpt lat="43.117199218744126" lon="2.9873458536146678"><ele>0.0</ele><time>2026-04-10T10:42:11.999Z</time></trkpt><trkpt lat="43.11711200274402" lon="2.9872984457361813"><ele>0.0</ele><time>2026-04-10T10:42:13.999Z</time></trkpt><trkpt lat="43.117030723713256" lon="2.9872476253523192"><ele>0.0</ele><time>2026-04-10T10:42:15.999Z</time></trkpt><trkpt lat="43.11695417699218" lon="2.987195377417916"><ele>0.0</ele><time>2026-04-10T10:42:17.999Z</time></trkpt><trkpt lat="43.11687431794153" lon="2.987136170378861"><ele>0.0</ele><time>2026-04-10T10:42:19.999Z</time></trkpt><trkpt lat="43.116794176996436" lon="2.9870781226920884"><ele>0.0</ele><time>2026-04-10T10:42:21.999Z</time></trkpt><trkpt lat="43.116720976284256" lon="2.9870142581759502"><ele>0.0</ele><time>2026-04-10T10:42:23.999Z</time></trkpt><trkpt lat="43.11664363336052" lon="2.9869480265191886"><ele>0.0</ele><time>2026-04-10T10:42:25.999Z</time></trkpt><trkpt lat="43.1165683404057" lon="2.9868881697067367"><ele>0.0</ele><time>2026-04-10T10:42:27.999Z</time></trkpt><trkpt lat="43.116488270994076" lon="2.986827124447076"><ele>0.0</ele><time>2026-04-10T10:42:29.999Z</time></trkpt><trkpt lat="43.11641326242705" lon="2.986760485445954"><ele>0.0</ele><time>2026-04-10T10:42:31.999Z</time></trkpt><trkpt lat="43.11634314406768" lon="2.9867028170797836"><ele>0.0</ele><time>2026-04-10T10:42:33.999Z</time></trkpt><trkpt lat="43.1162747477296" lon="2.9866261018394518"><ele>0.0</ele><time>2026-04-10T10:42:35.999Z</time></trkpt><trkpt lat="43.116201908691146" lon="2.9865504318356213"><ele>0.3333333333333333</ele><time>2026-04-10T10:42:37.999Z</time></trkpt><trkpt lat="43.11612438837793" lon="2.986484141525196"><ele>0.6666666666666666</ele><time>2026-04-10T10:42:39.999Z</time></trkpt><trkpt lat="43.11605038889771" lon="2.986413256261776"><ele>1.0</ele><time>2026-04-10T10:42:41.999Z</time></trkpt><trkpt lat="43.115982093571844" lon="2.986356166053657"><ele>1.3333333333333333</ele><time>2026-04-10T10:42:43.999Z</time></trkpt><trkpt lat="43.115913345835196" lon="2.986309246188043"><ele>1.6666666666666665</ele><time>2026-04-10T10:42:45.999Z</time></trkpt><trkpt lat="43.115842383989815" lon="2.986241975892883"><ele>2.0</ele><time>2026-04-10T10:42:47.999Z</time></trkpt><trkpt lat="43.11576506117681" lon="2.9861765821165918"><ele>1.6666666666666665</ele><time>2026-04-10T10:42:49.999Z</time></trkpt><trkpt lat="43.1156868093116" lon="2.986119145767366"><ele>1.3333333333333333</ele><time>2026-04-10T10:42:51.999Z</time></trkpt><trkpt lat="43.11560531926817" lon="2.9860623994182713"><ele>1.0</ele><time>2026-04-10T10:42:53.999Z</time></trkpt><trkpt lat="43.1155336037572" lon="2.9860139445531693"><ele>0.6666666666666666</ele><time>2026-04-10T10:42:55.999Z</time></trkpt><trkpt lat="43.11547702505391" lon="2.985961567279875"><ele>0.3333333333333333</ele><time>2026-04-10T10:42:57.999Z</time></trkpt><trkpt lat="43.11541676081675" lon="2.985912307822855"><ele>0.0</ele><time>2026-04-10T10:43:00Z</time></trkpt><trkpt lat="43.115348012547464" lon="2.9858617773193448"><ele>0.3333333333333333</ele><time>2026-04-10T10:43:02Z</time></trkpt><trkpt lat="43.11527811017486" lon="2.985809603012991"><ele>0.6666666666666666</ele><time>2026-04-10T10:43:04Z</time></trkpt><trkpt lat="43.115207046863596" lon="2.9857507343845606"><ele>1.0</ele><time>2026-04-10T10:43:06Z</time></trkpt><trkpt lat="43.11513158194668" lon="2.9856947187465583"><ele>1.3333333333333333</ele><time>2026-04-10T10:43:08Z</time></trkpt><trkpt lat="43.115058018639665" lon="2.9856360134554913"><ele>1.6666666666666665</ele><time>2026-04-10T10:43:10Z</time></trkpt><trkpt lat="43.11498519970908" lon="2.9855769029948456"><ele>2.0</ele><time>2026-04-10T10:43:12Z</time></trkpt><trkpt lat="43.1149161212804" lon="2.9855182595317005"><ele>2.2857142857142856</ele><time>2026-04-10T10:43:14Z</time></trkpt><trkpt lat="43.11485003086205" lon="2.9854637529776293"><ele>2.571428571428571</ele><time>2026-04-10T10:43:16Z</time></trkpt><trkpt lat="43.11479265154089" lon="2.9854060485802605"><ele>2.8571428571428568</ele><time>2026-04-10T10:43:18Z</time></trkpt><trkpt lat="43.11473073488047" lon="2.985356641326506"><ele>3.142857142857143</ele><time>2026-04-10T10:43:20Z</time></trkpt><trkpt lat="43.11466847406657" lon="2.9852949646208375"><ele>3.428571428571428</ele><time>2026-04-10T10:43:22Z</time></trkpt><trkpt lat="43.114609144896306" lon="2.985234025177328"><ele>3.714285714285714</ele><time>2026-04-10T10:43:24Z</time></trkpt><trkpt lat="43.1145519111309" lon="2.985172236381808"><ele>4.0</ele><time>2026-04-10T10:43:26Z</time></trkpt><trkpt lat="43.11449214764432" lon="2.9851074588291375"><ele>4.0</ele><time>2026-04-10T10:43:28Z</time></trkpt><trkpt lat="43.11442891907978" lon="2.9850534860298303"><ele>3.9999999999999996</ele><time>2026-04-10T10:43:30Z</time></trkpt><trkpt lat="43.11436745346204" lon="2.984993801007886"><ele>4.0</ele><time>2026-04-10T10:43:32Z</time></trkpt><trkpt lat="43.114309256323786" lon="2.984930911758562"><ele>4.0</ele><time>2026-04-10T10:43:34Z</time></trkpt><trkpt lat="43.11424528321843" lon="2.984880086432513"><ele>3.9999999999999996</ele><time>2026-04-10T10:43:36Z</time></trkpt><trkpt lat="43.11418272867281" lon="2.9848212730798904"><ele>4.0</ele><time>2026-04-10T10:43:38Z</time></trkpt><trkpt lat="43.11411888095402" lon="2.9847660008148527"><ele>4.0</ele><time>2026-04-10T10:43:40Z</time></trkpt><trkpt lat="43.11405746195396" lon="2.9847075906817824"><ele>4.571428571428571</ele><time>2026-04-10T10:43:42Z</time></trkpt><trkpt lat="43.113997958207406" lon="2.9846510697603863"><ele>5.142857142857142</ele><time>2026-04-10T10:43:44Z</time></trkpt><trkpt lat="43.11393928659687" lon="2.984592791394773"><ele>5.7142857142857135</ele><time>2026-04-10T10:43:46Z</time></trkpt><trkpt lat="43.113881906571855" lon="2.984540340768587"><ele>6.285714285714286</ele><time>2026-04-10T10:43:48Z</time></trkpt><trkpt lat="43.113826901300975" lon="2.984484544198882"><ele>6.857142857142856</ele><time>2026-04-10T10:43:50Z</time></trkpt><trkpt lat="43.113775204791445" lon="2.9844285406776523"><ele>7.428571428571428</ele><time>2026-04-10T10:43:52Z</time></trkpt><trkpt lat="43.11371909953746" lon="2.984372261487216"><ele>8.0</ele><time>2026-04-10T10:43:54Z</time></trkpt><trkpt lat="43.11365873894467" lon="2.9843296531958314"><ele>8.0</ele><time>2026-04-10T10:43:56Z</time></trkpt><trkpt lat="43.11360327040322" lon="2.9842813099763768"><ele>7.999999999999999</ele><time>2026-04-10T10:43:57.999Z</time></trkpt><trkpt lat="43.11354642057939" lon="2.984236456858414"><ele>8.0</ele><time>2026-04-10T10:43:59.999Z</time></trkpt><trkpt lat="43.11346659679502" lon="2.9841848304276235"><ele>8.0</ele><time>2026-04-10T10:44:02.999Z</time></trkpt><trkpt lat="43.11338241881935" lon="2.9841525499097417"><ele>7.999999999999999</ele><time>2026-04-10T10:44:05.999Z</time></trkpt><trkpt lat="43.1133201084422" lon="2.984138161010304"><ele>8.0</ele><time>2026-04-10T10:44:07.999Z</time></trkpt><trkpt lat="43.1132546817727" lon="2.9841046124796042"><ele>8.0</ele><time>2026-04-10T10:44:09.999Z</time></trkpt><trkpt lat="43.113175917811446" lon="2.98407303637971"><ele>7.666666666666666</ele><time>2026-04-10T10:44:11.999Z</time></trkpt><trkpt lat="43.113091173878054" lon="2.984052120192717"><ele>7.333333333333333</ele><time>2026-04-10T10:44:13.999Z</time></trkpt><trkpt lat="43.113017692107135" lon="2.984029819435694"><ele>7.0</ele><time>2026-04-10T10:44:15.999Z</time></trkpt><trkpt lat="43.11296080442249" lon="2.983990970059984"><ele>6.666666666666666</ele><time>2026-04-10T10:44:17.999Z</time></trkpt><trkpt lat="43.11288240115368" lon="2.9839717063383353"><ele>6.333333333333333</ele><time>2026-04-10T10:44:19.999Z</time></trkpt><trkpt lat="43.11280265523497" lon="2.983936982673629"><ele>6.0</ele><time>2026-04-10T10:44:21.999Z</time></trkpt><trkpt lat="43.11272013717486" lon="2.983905152216126"><ele>6.0</ele><time>2026-04-10T10:44:23.999Z</time></trkpt><trkpt lat="43.11265473589006" lon="2.983868012315011"><ele>6.0</ele><time>2026-04-10T10:44:25.999Z</time></trkpt><trkpt lat="43.11258327867078" lon="2.983815106862341"><ele>6.0</ele><time>2026-04-10T10:44:27.999Z</time></trkpt><trkpt lat="43.1124919797901" lon="2.983761490362565"><ele>6.0</ele><time>2026-04-10T10:44:30.999Z</time></trkpt><trkpt lat="43.11241946778582" lon="2.983696234969219"><ele>6.0</ele><time>2026-04-10T10:44:32.999Z</time></trkpt><trkpt lat="43.11235268274825" lon="2.9836393107374586"><ele>6.0</ele><time>2026-04-10T10:44:34.999Z</time></trkpt><trkpt lat="43.11227612834658" lon="2.9835930865273332"><ele>5.571428571428571</ele><time>2026-04-10T10:44:36.999Z</time></trkpt><trkpt lat="43.11221281243672" lon="2.983557527183909"><ele>5.142857142857142</ele><time>2026-04-10T10:44:38.999Z</time></trkpt><trkpt lat="43.112163925301246" lon="2.9835010796064543"><ele>4.7142857142857135</ele><time>2026-04-10T10:44:40.999Z</time></trkpt><trkpt lat="43.11211018521433" lon="2.983444312064241"><ele>4.285714285714286</ele><time>2026-04-10T10:44:42.999Z</time></trkpt><trkpt lat="43.11204984535888" lon="2.9833843621040197"><ele>3.8571428571428568</ele><time>2026-04-10T10:44:44.999Z</time></trkpt><trkpt lat="43.111990260279114" lon="2.9833264024705923"><ele>3.4285714285714284</ele><time>2026-04-10T10:44:46.999Z</time></trkpt><trkpt lat="43.11192692277255" lon="2.9832595623135085"><ele>3.0</ele><time>2026-04-10T10:44:48.999Z</time></trkpt><trkpt lat="43.11186224413446" lon="2.9831907405691416"><ele>2.8</ele><time>2026-04-10T10:44:50.999Z</time></trkpt><trkpt lat="43.111790699250434" lon="2.9831223047536546"><ele>2.5999999999999996</ele><time>2026-04-10T10:44:52.999Z</time></trkpt><trkpt lat="43.111715936747224" lon="2.9830654944515373"><ele>2.4000000000000004</ele><time>2026-04-10T10:44:54.999Z</time></trkpt><trkpt lat="43.11164171664554" lon="2.9829937348273097"><ele>2.2</ele><time>2026-04-10T10:44:56.999Z</time></trkpt><trkpt lat="43.11156759681276" lon="2.9829212282987263"><ele>2.0</ele><time>2026-04-10T10:44:58.999Z</time></trkpt><trkpt lat="43.11148388589877" lon="2.9828504144276264"><ele>1.8333333333333333</ele><time>2026-04-10T10:45:00.999Z</time></trkpt><trkpt lat="43.11141059737249" lon="2.982775225306629"><ele>1.6666666666666665</ele><time>2026-04-10T10:45:02.999Z</time></trkpt><trkpt lat="43.111342403429425" lon="2.982710045667403"><ele>1.5</ele><time>2026-04-10T10:45:05Z</time></trkpt><trkpt lat="43.11127799993412" lon="2.9826540014734673"><ele>1.3333333333333333</ele><time>2026-04-10T10:45:07Z</time></trkpt><trkpt lat="43.11120471665929" lon="2.982584562776986"><ele>1.1666666666666665</ele><time>2026-04-10T10:45:09Z</time></trkpt><trkpt lat="43.11113149493177" lon="2.982513567007585"><ele>1.0</ele><time>2026-04-10T10:45:11Z</time></trkpt><trkpt lat="43.111058865464805" lon="2.982444257084269"><ele>0.9999999999999999</ele><time>2026-04-10T10:45:13Z</time></trkpt><trkpt lat="43.11099402888752" lon="2.9823796897730626"><ele>1.0</ele><time>2026-04-10T10:45:15Z</time></trkpt><trkpt lat="43.11092945152846" lon="2.9823184894162806"><ele>1.0</ele><time>2026-04-10T10:45:17Z</time></trkpt><trkpt lat="43.110877020902564" lon="2.9822543568865467"><ele>1.0</ele><time>2026-04-10T10:45:19Z</time></trkpt><trkpt lat="43.110824353771136" lon="2.982191760484209"><ele>0.9999999999999999</ele><time>2026-04-10T10:45:21Z</time></trkpt><trkpt lat="43.110769408182165" lon="2.982113646055995"><ele>1.0</ele><time>2026-04-10T10:45:23Z</time></trkpt><trkpt lat="43.11071299183678" lon="2.982046648500226"><ele>0.9999999999999999</ele><time>2026-04-10T10:45:25Z</time></trkpt><trkpt lat="43.110669372224166" lon="2.9819775500637022"><ele>1.0</ele><time>2026-04-10T10:45:27Z</time></trkpt><trkpt lat="43.110612577366666" lon="2.981900041349424"><ele>1.0</ele><time>2026-04-10T10:45:29Z</time></trkpt><trkpt lat="43.11055317073803" lon="2.981818906077415"><ele>1.0</ele><time>2026-04-10T10:45:31Z</time></trkpt><trkpt lat="43.11049234340697" lon="2.98174543783562"><ele>0.9999999999999999</ele><time>2026-04-10T10:45:33Z</time></trkpt><trkpt lat="43.11044453680445" lon="2.9816658320274487"><ele>1.0</ele><time>2026-04-10T10:45:35Z</time></trkpt><trkpt lat="43.1103940173112" lon="2.981600911831505"><ele>0.9999999999999999</ele><time>2026-04-10T10:45:37Z</time></trkpt><trkpt lat="43.110338487108976" lon="2.9815231508207662"><ele>1.0</ele><time>2026-04-10T10:45:39Z</time></trkpt><trkpt lat="43.11028679354976" lon="2.981453573384682"><ele>1.0</ele><time>2026-04-10T10:45:41Z</time></trkpt><trkpt lat="43.110233785197124" lon="2.981376304169454"><ele>1.0</ele><time>2026-04-10T10:45:43Z</time></trkpt><trkpt lat="43.110188617830175" lon="2.9813061487125805"><ele>0.9999999999999999</ele><time>2026-04-10T10:45:45Z</time></trkpt><trkpt lat="43.110135012139374" lon="2.9812353436924073"><ele>1.0</ele><time>2026-04-10T10:45:47Z</time></trkpt><trkpt lat="43.110067889064226" lon="2.981147890849599"><ele>1.0</ele><time>2026-04-10T10:45:50Z</time></trkpt><trkpt lat="43.1100142630811" lon="2.981070143924202"><ele>0.9999999999999999</ele><time>2026-04-10T10:45:52Z</time></trkpt><trkpt lat="43.10996591145829" lon="2.980997613584922"><ele>1.0</ele><time>2026-04-10T10:45:54Z</time></trkpt><trkpt lat="43.109914310282484" lon="2.9809319848009976"><ele>1.0</ele><time>2026-04-10T10:45:56Z</time></trkpt><trkpt lat="43.10986288378137" lon="2.9808581230440323"><ele>0.9999999999999999</ele><time>2026-04-10T10:45:57.999Z</time></trkpt><trkpt lat="43.10980856225824" lon="2.980786647465243"><ele>1.0</ele><time>2026-04-10T10:45:59.999Z</time></trkpt><trkpt lat="43.10976552976244" lon="2.980714397543397"><ele>1.0</ele><time>2026-04-10T10:46:01.999Z</time></trkpt><trkpt lat="43.109712497051305" lon="2.980643592680536"><ele>0.8571428571428571</ele><time>2026-04-10T10:46:03.999Z</time></trkpt><trkpt lat="43.10966118029294" lon="2.980578149159353"><ele>0.7142857142857142</ele><time>2026-04-10T10:46:05.999Z</time></trkpt><trkpt lat="43.10960912022685" lon="2.9805077484064624"><ele>0.5714285714285714</ele><time>2026-04-10T10:46:07.999Z</time></trkpt><trkpt lat="43.10956318382133" lon="2.9804345755911705"><ele>0.42857142857142855</ele><time>2026-04-10T10:46:09.999Z</time></trkpt><trkpt lat="43.109512954460556" lon="2.9803660954172297"><ele>0.2857142857142857</ele><time>2026-04-10T10:46:11.999Z</time></trkpt><trkpt lat="43.109457961231016" lon="2.9802982541827765"><ele>0.14285714285714285</ele><time>2026-04-10T10:46:13.999Z</time></trkpt><trkpt lat="43.1094128265735" lon="2.980237067747122"><ele>0.0</ele><time>2026-04-10T10:46:15.999Z</time></trkpt><trkpt lat="43.109368918173374" lon="2.980166714412868"><ele>0.0</ele><time>2026-04-10T10:46:17.999Z</time></trkpt><trkpt lat="43.10931551844227" lon="2.980097953022713"><ele>0.0</ele><time>2026-04-10T10:46:19.999Z</time></trkpt><trkpt lat="43.10927062718025" lon="2.980033199032864"><ele>0.0</ele><time>2026-04-10T10:46:21.999Z</time></trkpt><trkpt lat="43.10920175989387" lon="2.9799405281401476"><ele>0.0</ele><time>2026-04-10T10:46:24.999Z</time></trkpt><trkpt lat="43.109143332788975" lon="2.979850579200018"><ele>0.0</ele><time>2026-04-10T10:46:27.999Z</time></trkpt><trkpt lat="43.1090787500386" lon="2.9797622520160356"><ele>0.0</ele><time>2026-04-10T10:46:30.999Z</time></trkpt><trkpt lat="43.10901580591763" lon="2.979671903569211"><ele>0.0</ele><time>2026-04-10T10:46:33.999Z</time></trkpt><trkpt lat="43.10894926368735" lon="2.979582186129443"><ele>0.0</ele><time>2026-04-10T10:46:36.999Z</time></trkpt><trkpt lat="43.108903861270946" lon="2.9795153370548504"><ele>0.0</ele><time>2026-04-10T10:46:38.999Z</time></trkpt><trkpt lat="43.108859617505686" lon="2.9794499457812305"><ele>0.0</ele><time>2026-04-10T10:46:40.999Z</time></trkpt><trkpt lat="43.10881046978489" lon="2.979386065970854"><ele>0.0</ele><time>2026-04-10T10:46:42.999Z</time></trkpt><trkpt lat="43.108763981393544" lon="2.9793131734335176"><ele>0.0</ele><time>2026-04-10T10:46:44.999Z</time></trkpt><trkpt lat="43.10872079468871" lon="2.9792496268418125"><ele>0.0</ele><time>2026-04-10T10:46:46.999Z</time></trkpt><trkpt lat="43.108668082572606" lon="2.979180646074023"><ele>0.0</ele><time>2026-04-10T10:46:48.999Z</time></trkpt><trkpt lat="43.10861672205567" lon="2.9791078371738204"><ele>0.0</ele><time>2026-04-10T10:46:50.999Z</time></trkpt><trkpt lat="43.10856741284672" lon="2.979047101232633"><ele>0.0</ele><time>2026-04-10T10:46:52.999Z</time></trkpt><trkpt lat="43.10851670366241" lon="2.9789762186088264"><ele>0.0</ele><time>2026-04-10T10:46:54.999Z</time></trkpt><trkpt lat="43.10846506492883" lon="2.9789072190496246"><ele>0.0</ele><time>2026-04-10T10:46:56.999Z</time></trkpt><trkpt lat="43.108397272559735" lon="2.978805300498022"><ele>0.0</ele><time>2026-04-10T10:46:59.999Z</time></trkpt><trkpt lat="43.108345600430305" lon="2.9787390494251"><ele>0.0</ele><time>2026-04-10T10:47:01.999Z</time></trkpt><trkpt lat="43.10829347949538" lon="2.9786672962288714"><ele>0.0</ele><time>2026-04-10T10:47:03.999Z</time></trkpt><trkpt lat="43.10824269786472" lon="2.978596088584313"><ele>0.0</ele><time>2026-04-10T10:47:05.999Z</time></trkpt><trkpt lat="43.10819516913486" lon="2.9785308540792172"><ele>0.0</ele><time>2026-04-10T10:47:07.998Z</time></trkpt><trkpt lat="43.108143377453366" lon="2.978458655460367"><ele>0.0</ele><time>2026-04-10T10:47:09.998Z</time></trkpt><trkpt lat="43.108093140585176" lon="2.978381327965133"><ele>0.0</ele><time>2026-04-10T10:47:12Z</time></trkpt><trkpt lat="43.10804808489128" lon="2.9783132340411282"><ele>0.0</ele><time>2026-04-10T10:47:14Z</time></trkpt><trkpt lat="43.10799546955923" lon="2.9782453948470318"><ele>0.0</ele><time>2026-04-10T10:47:16Z</time></trkpt><trkpt lat="43.1079448827164" lon="2.978173425055019"><ele>0.0</ele><time>2026-04-10T10:47:18Z</time></trkpt><trkpt lat="43.10789294654369" lon="2.9781028808859267"><ele>0.0</ele><time>2026-04-10T10:47:20Z</time></trkpt><trkpt lat="43.10784611559301" lon="2.9780421231852503"><ele>0.0</ele><time>2026-04-10T10:47:22Z</time></trkpt><trkpt lat="43.10779955690995" lon="2.977976053502798"><ele>0.0</ele><time>2026-04-10T10:47:24Z</time></trkpt><trkpt lat="43.10774780727939" lon="2.9779111143461705"><ele>0.0</ele><time>2026-04-10T10:47:26Z</time></trkpt><trkpt lat="43.10769700824989" lon="2.9778351872096174"><ele>0.0</ele><time>2026-04-10T10:47:28Z</time></trkpt><trkpt lat="43.10763918032605" lon="2.9777674916303556"><ele>0.0</ele><time>2026-04-10T10:47:30Z</time></trkpt><trkpt lat="43.10759722102986" lon="2.9776996093394277"><ele>0.0</ele><time>2026-04-10T10:47:32Z</time></trkpt><trkpt lat="43.10755042695095" lon="2.977639701991388"><ele>0.0</ele><time>2026-04-10T10:47:34Z</time></trkpt><trkpt lat="43.107505146020934" lon="2.977569838842094"><ele>0.0</ele><time>2026-04-10T10:47:36Z</time></trkpt><trkpt lat="43.1074530024696" lon="2.9774977968923513"><ele>0.0</ele><time>2026-04-10T10:47:38Z</time></trkpt><trkpt lat="43.107402721327716" lon="2.9774343625525046"><ele>0.0</ele><time>2026-04-10T10:47:40Z</time></trkpt><trkpt lat="43.107352990312066" lon="2.977362232638512"><ele>0.0</ele><time>2026-04-10T10:47:42Z</time></trkpt><trkpt lat="43.10730846674537" lon="2.977290531952309"><ele>0.0</ele><time>2026-04-10T10:47:44Z</time></trkpt><trkpt lat="43.10724054415131" lon="2.977199928654663"><ele>0.0</ele><time>2026-04-10T10:47:47Z</time></trkpt><trkpt lat="43.10719267277597" lon="2.9771287652311256"><ele>0.0</ele><time>2026-04-10T10:47:49Z</time></trkpt><trkpt lat="43.107126138707756" lon="2.9770461936153034"><ele>0.0</ele><time>2026-04-10T10:47:52Z</time></trkpt><trkpt lat="43.10705360922513" lon="2.9769509401314753"><ele>0.0</ele><time>2026-04-10T10:47:55Z</time></trkpt><trkpt lat="43.107008946487746" lon="2.976879331167479"><ele>0.0</ele><time>2026-04-10T10:47:57Z</time></trkpt><trkpt lat="43.10695852369338" lon="2.9768070325297242"><ele>0.0</ele><time>2026-04-10T10:47:59Z</time></trkpt><trkpt lat="43.10690634006778" lon="2.976735759267239"><ele>0.0</ele><time>2026-04-10T10:48:01Z</time></trkpt><trkpt lat="43.1068395162398" lon="2.9766453150644843"><ele>0.0</ele><time>2026-04-10T10:48:03.999Z</time></trkpt><trkpt lat="43.106790867842854" lon="2.9765812603984605"><ele>0.0</ele><time>2026-04-10T10:48:05.999Z</time></trkpt><trkpt lat="43.106741458519124" lon="2.9765171192292867"><ele>0.0</ele><time>2026-04-10T10:48:07.999Z</time></trkpt><trkpt lat="43.10669626691643" lon="2.976452047647789"><ele>0.0</ele><time>2026-04-10T10:48:09.999Z</time></trkpt><trkpt lat="43.10661874801285" lon="2.9763677859349134"><ele>0.0</ele><time>2026-04-10T10:48:12.999Z</time></trkpt><trkpt lat="43.10654846657184" lon="2.976313375066628"><ele>0.0</ele><time>2026-04-10T10:48:14.999Z</time></trkpt><trkpt lat="43.10647731878924" lon="2.976262111412116"><ele>0.0</ele><time>2026-04-10T10:48:16.999Z</time></trkpt><trkpt lat="43.106398827672386" lon="2.9762244802827413"><ele>0.0</ele><time>2026-04-10T10:48:18.999Z</time></trkpt><trkpt lat="43.10632575020474" lon="2.9761903374653853"><ele>0.0</ele><time>2026-04-10T10:48:20.999Z</time></trkpt><trkpt lat="43.10625527629156" lon="2.9761596815032973"><ele>0.0</ele><time>2026-04-10T10:48:22.999Z</time></trkpt><trkpt lat="43.10617773522138" lon="2.9761278773596427"><ele>0.0</ele><time>2026-04-10T10:48:24.999Z</time></trkpt><trkpt lat="43.10610410740381" lon="2.9760969112098468"><ele>0.0</ele><time>2026-04-10T10:48:26.999Z</time></trkpt><trkpt lat="43.10603288757403" lon="2.976067994689292"><ele>0.0</ele><time>2026-04-10T10:48:28.999Z</time></trkpt><trkpt lat="43.10595534814182" lon="2.9760288699393342"><ele>0.0</ele><time>2026-04-10T10:48:30.999Z</time></trkpt><trkpt lat="43.10586810161316" lon="2.9759910247228287"><ele>0.0</ele><time>2026-04-10T10:48:32.999Z</time></trkpt><trkpt lat="43.10578832030264" lon="2.9759600679507416"><ele>0.0</ele><time>2026-04-10T10:48:34.999Z</time></trkpt><trkpt lat="43.105711609688875" lon="2.9759195853582296"><ele>0.0</ele><time>2026-04-10T10:48:36.999Z</time></trkpt><trkpt lat="43.105641873449386" lon="2.9758850821474505"><ele>0.0</ele><time>2026-04-10T10:48:38.999Z</time></trkpt><trkpt lat="43.105576936510104" lon="2.975837209375531"><ele>0.0</ele><time>2026-04-10T10:48:40.999Z</time></trkpt><trkpt lat="43.10550574465603" lon="2.975773684009911"><ele>0.0</ele><time>2026-04-10T10:48:42.999Z</time></trkpt><trkpt lat="43.105441502912264" lon="2.975696481788574"><ele>0.0</ele><time>2026-04-10T10:48:44.999Z</time></trkpt><trkpt lat="43.105370873141126" lon="2.9756201478932995"><ele>0.0</ele><time>2026-04-10T10:48:46.999Z</time></trkpt><trkpt lat="43.10532019860947" lon="2.9755297496025923"><ele>0.0</ele><time>2026-04-10T10:48:48.999Z</time></trkpt><trkpt lat="43.10526931962584" lon="2.9754552000004355"><ele>0.0</ele><time>2026-04-10T10:48:50.999Z</time></trkpt><trkpt lat="43.10522767600193" lon="2.975383337374955"><ele>0.0</ele><time>2026-04-10T10:48:52.999Z</time></trkpt><trkpt lat="43.10518019453006" lon="2.9753160227424735"><ele>0.0</ele><time>2026-04-10T10:48:54.999Z</time></trkpt><trkpt lat="43.10513977560128" lon="2.9752388297684833"><ele>0.0</ele><time>2026-04-10T10:48:56.999Z</time></trkpt><trkpt lat="43.10510019562019" lon="2.9751623224274075"><ele>0.0</ele><time>2026-04-10T10:48:58.999Z</time></trkpt><trkpt lat="43.10505081473906" lon="2.9750625412606473"><ele>0.0</ele><time>2026-04-10T10:49:01.999Z</time></trkpt><trkpt lat="43.105009818015766" lon="2.974984627877781"><ele>0.0</ele><time>2026-04-10T10:49:03.999Z</time></trkpt><trkpt lat="43.10497224797216" lon="2.9749094895778105"><ele>0.0</ele><time>2026-04-10T10:49:05.999Z</time></trkpt><trkpt lat="43.1049357463163" lon="2.9748299796933084"><ele>0.0</ele><time>2026-04-10T10:49:07.999Z</time></trkpt><trkpt lat="43.10489970648101" lon="2.9747590533003976"><ele>0.0</ele><time>2026-04-10T10:49:09.999Z</time></trkpt><trkpt lat="43.10485295263905" lon="2.9746704705756306"><ele>0.0</ele><time>2026-04-10T10:49:12.998Z</time></trkpt><trkpt lat="43.104808968291245" lon="2.9745649968365697"><ele>0.0</ele><time>2026-04-10T10:49:15.998Z</time></trkpt><trkpt lat="43.104771135726985" lon="2.9744931108030706"><ele>0.0</ele><time>2026-04-10T10:49:18Z</time></trkpt><trkpt lat="43.10473470679891" lon="2.9744186683113605"><ele>0.0</ele><time>2026-04-10T10:49:20Z</time></trkpt><trkpt lat="43.10469669420972" lon="2.974336324040475"><ele>0.0</ele><time>2026-04-10T10:49:22Z</time></trkpt><trkpt lat="43.104658583044476" lon="2.97425937661419"><ele>0.0</ele><time>2026-04-10T10:49:24Z</time></trkpt><trkpt lat="43.10461909795881" lon="2.974178516174157"><ele>0.0</ele><time>2026-04-10T10:49:26Z</time></trkpt><trkpt lat="43.104578414018654" lon="2.97410505998928"><ele>0.0</ele><time>2026-04-10T10:49:28Z</time></trkpt><trkpt lat="43.104529201455584" lon="2.973994816559295"><ele>0.0</ele><time>2026-04-10T10:49:31Z</time></trkpt><trkpt lat="43.104488386016165" lon="2.973924707449199"><ele>0.0</ele><time>2026-04-10T10:49:33Z</time></trkpt><trkpt lat="43.10445919952562" lon="2.9738478436061664"><ele>0.0</ele><time>2026-04-10T10:49:35Z</time></trkpt><trkpt lat="43.10440701122004" lon="2.9737449721628715"><ele>0.0</ele><time>2026-04-10T10:49:38Z</time></trkpt><trkpt lat="43.104370354452605" lon="2.9736591690009897"><ele>0.0</ele><time>2026-04-10T10:49:40Z</time></trkpt><trkpt lat="43.10431411107821" lon="2.9735528391757704"><ele>0.0</ele><time>2026-04-10T10:49:43Z</time></trkpt><trkpt lat="43.104277778980986" lon="2.9734760330424677"><ele>0.0</ele><time>2026-04-10T10:49:45Z</time></trkpt><trkpt lat="43.104225836330166" lon="2.973374195484506"><ele>0.0</ele><time>2026-04-10T10:49:48Z</time></trkpt><trkpt lat="43.10417288720321" lon="2.973266372044792"><ele>0.0</ele><time>2026-04-10T10:49:51Z</time></trkpt><trkpt lat="43.10413158672576" lon="2.973193630215407"><ele>0.0</ele><time>2026-04-10T10:49:53Z</time></trkpt><trkpt lat="43.10409142532639" lon="2.973104614676322"><ele>0.0</ele><time>2026-04-10T10:49:55Z</time></trkpt><trkpt lat="43.10404568100731" lon="2.973014680624888"><ele>0.0</ele><time>2026-04-10T10:49:57Z</time></trkpt><trkpt lat="43.10400509016797" lon="2.972920013865317"><ele>0.0</ele><time>2026-04-10T10:49:59Z</time></trkpt><trkpt lat="43.103958790560085" lon="2.972834882050842"><ele>0.0</ele><time>2026-04-10T10:50:01Z</time></trkpt><trkpt lat="43.10391054115987" lon="2.972735926319267"><ele>0.0</ele><time>2026-04-10T10:50:03Z</time></trkpt><trkpt lat="43.10386315425268" lon="2.9726424072135713"><ele>0.0</ele><time>2026-04-10T10:50:05Z</time></trkpt><trkpt lat="43.10382235927381" lon="2.9725544281488356"><ele>0.0</ele><time>2026-04-10T10:50:07Z</time></trkpt><trkpt lat="43.10377669670983" lon="2.9724648478157603"><ele>0.0</ele><time>2026-04-10T10:50:08.999Z</time></trkpt><trkpt lat="43.10373374606844" lon="2.972373167380535"><ele>0.0</ele><time>2026-04-10T10:50:10.999Z</time></trkpt><trkpt lat="43.10369292249603" lon="2.9722865863320194"><ele>0.0</ele><time>2026-04-10T10:50:12.999Z</time></trkpt><trkpt lat="43.103642273888745" lon="2.972184913575699"><ele>0.0</ele><time>2026-04-10T10:50:15.999Z</time></trkpt><trkpt lat="43.103601128277354" lon="2.972105300286665"><ele>0.0</ele><time>2026-04-10T10:50:17.999Z</time></trkpt><trkpt lat="43.1035627735776" lon="2.972027950922255"><ele>0.0</ele><time>2026-04-10T10:50:19.999Z</time></trkpt><trkpt lat="43.103530328756065" lon="2.9719486378813436"><ele>0.0</ele><time>2026-04-10T10:50:21.999Z</time></trkpt><trkpt lat="43.103492262381465" lon="2.9718703548980856"><ele>0.0</ele><time>2026-04-10T10:50:23.999Z</time></trkpt><trkpt lat="43.10345284450951" lon="2.971798483532335"><ele>0.0</ele><time>2026-04-10T10:50:25.999Z</time></trkpt><trkpt lat="43.10341236801347" lon="2.9717147600461766"><ele>0.0</ele><time>2026-04-10T10:50:27.999Z</time></trkpt><trkpt lat="43.10336989321128" lon="2.971628096543221"><ele>0.0</ele><time>2026-04-10T10:50:29.999Z</time></trkpt><trkpt lat="43.103331471337" lon="2.9715452177678223"><ele>0.0</ele><time>2026-04-10T10:50:31.999Z</time></trkpt><trkpt lat="43.103292493694866" lon="2.9714723269133834"><ele>0.0</ele><time>2026-04-10T10:50:33.999Z</time></trkpt><trkpt lat="43.10324207968043" lon="2.971360597077024"><ele>0.0</ele><time>2026-04-10T10:50:36.999Z</time></trkpt><trkpt lat="43.103206165464776" lon="2.9712872070101644"><ele>0.0</ele><time>2026-04-10T10:50:38.999Z</time></trkpt><trkpt lat="43.10317307110928" lon="2.9712109167358376"><ele>0.0</ele><time>2026-04-10T10:50:40.999Z</time></trkpt><trkpt lat="43.10313735663583" lon="2.9711392113979063"><ele>0.0</ele><time>2026-04-10T10:50:42.999Z</time></trkpt><trkpt lat="43.10307891135746" lon="2.971040465920131"><ele>1.2857142857142858</ele><time>2026-04-10T10:50:45.999Z</time></trkpt><trkpt lat="43.103039255976434" lon="2.9709712924271097"><ele>2.5714285714285716</ele><time>2026-04-10T10:50:47.999Z</time></trkpt><trkpt lat="43.103006641262205" lon="2.970892434556556"><ele>3.8571428571428577</ele><time>2026-04-10T10:50:49.999Z</time></trkpt><trkpt lat="43.10296582252612" lon="2.9708225884548525"><ele>5.142857142857143</ele><time>2026-04-10T10:50:51.999Z</time></trkpt><trkpt lat="43.10290673722393" lon="2.970750110849003"><ele>6.428571428571429</ele><time>2026-04-10T10:50:54.999Z</time></trkpt><trkpt lat="43.10286451596958" lon="2.9706776131964423"><ele>7.714285714285715</ele><time>2026-04-10T10:50:57.999Z</time></trkpt><trkpt lat="43.10281912572189" lon="2.9706016173104945"><ele>9.0</ele><time>2026-04-10T10:51:00.999Z</time></trkpt><trkpt lat="43.10275987554765" lon="2.9705147113331027"><ele>9.166666666666666</ele><time>2026-04-10T10:51:03.999Z</time></trkpt><trkpt lat="43.10270396940012" lon="2.970422027575412"><ele>9.333333333333334</ele><time>2026-04-10T10:51:06.999Z</time></trkpt><trkpt lat="43.10263779326236" lon="2.9703202855433526"><ele>9.5</ele><time>2026-04-10T10:51:09.999Z</time></trkpt><trkpt lat="43.10257035746909" lon="2.9702325983786326"><ele>9.666666666666668</ele><time>2026-04-10T10:51:12.999Z</time></trkpt><trkpt lat="43.102510178052164" lon="2.970155676730598"><ele>9.833333333333334</ele><time>2026-04-10T10:51:15.999Z</time></trkpt><trkpt lat="43.10246366747003" lon="2.970084477587134"><ele>10.0</ele><time>2026-04-10T10:51:18.998Z</time></trkpt><trkpt lat="43.10241269161303" lon="2.970003872269467"><ele>10.0</ele><time>2026-04-10T10:51:23Z</time></trkpt><trkpt lat="43.10234152352291" lon="2.9699358808783813"><ele>10.0</ele><time>2026-04-10T10:51:27Z</time></trkpt><trkpt lat="43.10227730710546" lon="2.969895537565313"><ele>10.0</ele><time>2026-04-10T10:51:30Z</time></trkpt><trkpt lat="43.10221761943176" lon="2.969835888347244"><ele>10.0</ele><time>2026-04-10T10:51:33Z</time></trkpt><trkpt lat="43.10214406723729" lon="2.9697867251151173"><ele>10.0</ele><time>2026-04-10T10:51:36Z</time></trkpt><trkpt lat="43.10207756113709" lon="2.969733946740096"><ele>10.0</ele><time>2026-04-10T10:51:39Z</time></trkpt><trkpt lat="43.10202231577943" lon="2.9696839916535716"><ele>10.0</ele><time>2026-04-10T10:51:41Z</time></trkpt><trkpt lat="43.10196689119132" lon="2.9696269447434305"><ele>10.0</ele><time>2026-04-10T10:51:43Z</time></trkpt><trkpt lat="43.10191703258309" lon="2.9695675962033645"><ele>10.0</ele><time>2026-04-10T10:51:45Z</time></trkpt><trkpt lat="43.10186680448427" lon="2.9694961412911933"><ele>10.0</ele><time>2026-04-10T10:51:47Z</time></trkpt><trkpt lat="43.10181919467687" lon="2.9694245970312347"><ele>10.0</ele><time>2026-04-10T10:51:49Z</time></trkpt><trkpt lat="43.10177734741226" lon="2.9693538447475603"><ele>10.0</ele><time>2026-04-10T10:51:51Z</time></trkpt><trkpt lat="43.10173529179929" lon="2.9692847329360674"><ele>10.0</ele><time>2026-04-10T10:51:53Z</time></trkpt><trkpt lat="43.10167697019158" lon="2.9691806213804477"><ele>9.285714285714285</ele><time>2026-04-10T10:51:56Z</time></trkpt><trkpt lat="43.10163525032633" lon="2.969101074522087"><ele>8.571428571428571</ele><time>2026-04-10T10:51:58Z</time></trkpt><trkpt lat="43.1015897165527" lon="2.969037235714739"><ele>7.857142857142858</ele><time>2026-04-10T10:52:00Z</time></trkpt><trkpt lat="43.101516817737206" lon="2.96895102477065"><ele>7.142857142857142</ele><time>2026-04-10T10:52:03Z</time></trkpt><trkpt lat="43.10146172042655" lon="2.968903214664206"><ele>6.428571428571429</ele><time>2026-04-10T10:52:05Z</time></trkpt><trkpt lat="43.101399673185654" lon="2.968861028652113"><ele>5.714285714285714</ele><time>2026-04-10T10:52:07Z</time></trkpt><trkpt lat="43.101336401283625" lon="2.968826514322881"><ele>5.0</ele><time>2026-04-10T10:52:09Z</time></trkpt><trkpt lat="43.10126640033529" lon="2.9687866175398216"><ele>5.0</ele><time>2026-04-10T10:52:11Z</time></trkpt><trkpt lat="43.10119622799776" lon="2.9687520480365075"><ele>5.0</ele><time>2026-04-10T10:52:12.999Z</time></trkpt><trkpt lat="43.10113071153333" lon="2.968724800625656"><ele>5.0</ele><time>2026-04-10T10:52:14.999Z</time></trkpt><trkpt lat="43.10105865756147" lon="2.9686891954506307"><ele>5.0</ele><time>2026-04-10T10:52:16.999Z</time></trkpt><trkpt lat="43.10098629642823" lon="2.968648108858167"><ele>5.0</ele><time>2026-04-10T10:52:18.999Z</time></trkpt><trkpt lat="43.100919189205065" lon="2.9686101926795603"><ele>5.0</ele><time>2026-04-10T10:52:20.999Z</time></trkpt><trkpt lat="43.10083912318404" lon="2.968577066801958"><ele>5.0</ele><time>2026-04-10T10:52:22.999Z</time></trkpt><trkpt lat="43.10076502169627" lon="2.968531442168494"><ele>5.0</ele><time>2026-04-10T10:52:24.999Z</time></trkpt><trkpt lat="43.10069081342134" lon="2.9684963856159263"><ele>5.0</ele><time>2026-04-10T10:52:26.999Z</time></trkpt><trkpt lat="43.10062422272852" lon="2.9684589923203863"><ele>5.0</ele><time>2026-04-10T10:52:28.999Z</time></trkpt><trkpt lat="43.1005573291172" lon="2.9684076941546795"><ele>5.0</ele><time>2026-04-10T10:52:30.999Z</time></trkpt><trkpt lat="43.10048874472286" lon="2.968339727926262"><ele>5.0</ele><time>2026-04-10T10:52:32.999Z</time></trkpt><trkpt lat="43.100432486360525" lon="2.9682545780781595"><ele>4.833333333333334</ele><time>2026-04-10T10:52:34.999Z</time></trkpt><trkpt lat="43.100391231235946" lon="2.968170269352789"><ele>4.666666666666667</ele><time>2026-04-10T10:52:36.999Z</time></trkpt><trkpt lat="43.100350210221954" lon="2.968081481365637"><ele>4.5</ele><time>2026-04-10T10:52:38.999Z</time></trkpt><trkpt lat="43.10031376025062" lon="2.9679909571853442"><ele>4.333333333333333</ele><time>2026-04-10T10:52:40.999Z</time></trkpt><trkpt lat="43.10027445505645" lon="2.9679046646405025"><ele>4.166666666666666</ele><time>2026-04-10T10:52:42.999Z</time></trkpt><trkpt lat="43.10023988290892" lon="2.967809578641593"><ele>4.0</ele><time>2026-04-10T10:52:44.999Z</time></trkpt><trkpt lat="43.10020008238669" lon="2.9677198675096204"><ele>3.9999999999999996</ele><time>2026-04-10T10:52:46.999Z</time></trkpt><trkpt lat="43.10016068706464" lon="2.9676292752861455"><ele>4.0</ele><time>2026-04-10T10:52:48.999Z</time></trkpt><trkpt lat="43.10011075671019" lon="2.9675506295564"><ele>4.0</ele><time>2026-04-10T10:52:50.999Z</time></trkpt><trkpt lat="43.100053841061" lon="2.967475803952281"><ele>4.0</ele><time>2026-04-10T10:52:52.999Z</time></trkpt><trkpt lat="43.09999236921256" lon="2.9673989479499507"><ele>3.9999999999999996</ele><time>2026-04-10T10:52:54.999Z</time></trkpt><trkpt lat="43.09992730387863" lon="2.9673268566383375"><ele>4.0</ele><time>2026-04-10T10:52:56.999Z</time></trkpt><trkpt lat="43.09984286897791" lon="2.967235125168509"><ele>3.9999999999999996</ele><time>2026-04-10T10:52:59.999Z</time></trkpt><trkpt lat="43.09978382713453" lon="2.9671696412264623"><ele>4.0</ele><time>2026-04-10T10:53:01.999Z</time></trkpt><trkpt lat="43.09972301493943" lon="2.967098052154326"><ele>4.0</ele><time>2026-04-10T10:53:03.999Z</time></trkpt><trkpt lat="43.099654612611175" lon="2.9670409573898047"><ele>4.0</ele><time>2026-04-10T10:53:05.999Z</time></trkpt><trkpt lat="43.099591059187055" lon="2.9669821199840447"><ele>3.9999999999999996</ele><time>2026-04-10T10:53:07.999Z</time></trkpt><trkpt lat="43.09952911721683" lon="2.966927126060347"><ele>4.0</ele><time>2026-04-10T10:53:09.999Z</time></trkpt><trkpt lat="43.09946905925483" lon="2.9668841770692045"><ele>3.9999999999999996</ele><time>2026-04-10T10:53:11.999Z</time></trkpt><trkpt lat="43.0993974764357" lon="2.966822716246804"><ele>4.0</ele><time>2026-04-10T10:53:13.999Z</time></trkpt><trkpt lat="43.09932569221123" lon="2.966767380105893"><ele>4.0</ele><time>2026-04-10T10:53:15.999Z</time></trkpt><trkpt lat="43.099263378762636" lon="2.966713167959781"><ele>4.0</ele><time>2026-04-10T10:53:17.999Z</time></trkpt><trkpt lat="43.09919219987881" lon="2.9666664821610076"><ele>3.9999999999999996</ele><time>2026-04-10T10:53:19.999Z</time></trkpt><trkpt lat="43.09912727557783" lon="2.966615145079081"><ele>4.0</ele><time>2026-04-10T10:53:21.999Z</time></trkpt><trkpt lat="43.09904752804334" lon="2.966574140837935"><ele>3.9999999999999996</ele><time>2026-04-10T10:53:23.998Z</time></trkpt><trkpt lat="43.0989644693791" lon="2.9665449361272827"><ele>4.0</ele><time>2026-04-10T10:53:25.998Z</time></trkpt><trkpt lat="43.09887952883684" lon="2.9665345553254334"><ele>4.0</ele><time>2026-04-10T10:53:27.998Z</time></trkpt><trkpt lat="43.09879896731406" lon="2.9665363450616287"><ele>4.0</ele><time>2026-04-10T10:53:30Z</time></trkpt><trkpt lat="43.098721296020635" lon="2.966539204439243"><ele>3.9999999999999996</ele><time>2026-04-10T10:53:32Z</time></trkpt><trkpt lat="43.09864675731633" lon="2.966541498051265"><ele>4.0</ele><time>2026-04-10T10:53:34Z</time></trkpt><trkpt lat="43.09856792679155" lon="2.9665336438532006"><ele>3.9999999999999996</ele><time>2026-04-10T10:53:36Z</time></trkpt><trkpt lat="43.09848237228976" lon="2.966503901406995"><ele>4.0</ele><time>2026-04-10T10:53:38Z</time></trkpt><trkpt lat="43.098398040888796" lon="2.966467716078394"><ele>4.0</ele><time>2026-04-10T10:53:40Z</time></trkpt><trkpt lat="43.09831965562727" lon="2.966423451372037"><ele>4.0</ele><time>2026-04-10T10:53:42Z</time></trkpt><trkpt lat="43.098247580022154" lon="2.9663770106996976"><ele>3.9999999999999996</ele><time>2026-04-10T10:53:44Z</time></trkpt><trkpt lat="43.09817683094429" lon="2.9663357711201357"><ele>4.0</ele><time>2026-04-10T10:53:46Z</time></trkpt><trkpt lat="43.09810207548653" lon="2.9662847039710614"><ele>4.666666666666666</ele><time>2026-04-10T10:53:48Z</time></trkpt><trkpt lat="43.098023624757076" lon="2.9662236152948025"><ele>5.333333333333333</ele><time>2026-04-10T10:53:50Z</time></trkpt><trkpt lat="43.09795654916731" lon="2.96616677108076"><ele>6.0</ele><time>2026-04-10T10:53:52Z</time></trkpt><trkpt lat="43.09789065940014" lon="2.9661092258064468"><ele>6.666666666666666</ele><time>2026-04-10T10:53:54Z</time></trkpt><trkpt lat="43.09782882648357" lon="2.966048793400317"><ele>7.333333333333333</ele><time>2026-04-10T10:53:56Z</time></trkpt><trkpt lat="43.09776271568265" lon="2.9659809622311832"><ele>8.0</ele><time>2026-04-10T10:53:58Z</time></trkpt><trkpt lat="43.09769653603813" lon="2.96590985078509"><ele>7.499999999999999</ele><time>2026-04-10T10:54:00Z</time></trkpt><trkpt lat="43.09763391279783" lon="2.965837113169872"><ele>7.0</ele><time>2026-04-10T10:54:02Z</time></trkpt><trkpt lat="43.09757088389582" lon="2.96577038895212"><ele>6.5</ele><time>2026-04-10T10:54:04Z</time></trkpt><trkpt lat="43.09751710852981" lon="2.9657116595718973"><ele>6.0</ele><time>2026-04-10T10:54:06Z</time></trkpt><trkpt lat="43.09745277511123" lon="2.965640521426806"><ele>5.5</ele><time>2026-04-10T10:54:08Z</time></trkpt><trkpt lat="43.09739093889421" lon="2.9655577720225645"><ele>5.0</ele><time>2026-04-10T10:54:10Z</time></trkpt><trkpt lat="43.097316799228295" lon="2.965499713564804"><ele>5.0</ele><time>2026-04-10T10:54:12Z</time></trkpt><trkpt lat="43.097247057310625" lon="2.9654401748215418"><ele>5.0</ele><time>2026-04-10T10:54:14Z</time></trkpt><trkpt lat="43.0971738414744" lon="2.9653994470469183"><ele>5.0</ele><time>2026-04-10T10:54:16Z</time></trkpt><trkpt lat="43.0970959231423" lon="2.9653655734747737"><ele>5.0</ele><time>2026-04-10T10:54:18Z</time></trkpt><trkpt lat="43.09700886992439" lon="2.965356371496659"><ele>5.0</ele><time>2026-04-10T10:54:19.999Z</time></trkpt><trkpt lat="43.09692439530982" lon="2.9653533772521317"><ele>5.0</ele><time>2026-04-10T10:54:21.999Z</time></trkpt><trkpt lat="43.09684569639321" lon="2.965358888668183"><ele>5.0</ele><time>2026-04-10T10:54:23.999Z</time></trkpt><trkpt lat="43.09676409328466" lon="2.9653844773999336"><ele>5.0</ele><time>2026-04-10T10:54:25.999Z</time></trkpt><trkpt lat="43.09668387985443" lon="2.9653886704513686"><ele>5.0</ele><time>2026-04-10T10:54:27.999Z</time></trkpt><trkpt lat="43.09660958344305" lon="2.965384117984829"><ele>5.0</ele><time>2026-04-10T10:54:29.999Z</time></trkpt><trkpt lat="43.09653452142845" lon="2.965387900564534"><ele>5.0</ele><time>2026-04-10T10:54:31.999Z</time></trkpt><trkpt lat="43.0964655326784" lon="2.9653885334658794"><ele>5.0</ele><time>2026-04-10T10:54:33.999Z</time></trkpt><trkpt lat="43.09639124102398" lon="2.9653813620633716"><ele>5.0</ele><time>2026-04-10T10:54:35.999Z</time></trkpt><trkpt lat="43.09631498133518" lon="2.9653614214746233"><ele>5.0</ele><time>2026-04-10T10:54:37.999Z</time></trkpt><trkpt lat="43.096235368926884" lon="2.965344996168663"><ele>5.0</ele><time>2026-04-10T10:54:39.999Z</time></trkpt><trkpt lat="43.09615368752524" lon="2.9653187340981146"><ele>5.0</ele><time>2026-04-10T10:54:41.999Z</time></trkpt><trkpt lat="43.09608267206239" lon="2.9652707866255663"><ele>5.0</ele><time>2026-04-10T10:54:43.999Z</time></trkpt><trkpt lat="43.096023254268005" lon="2.9652333089952343"><ele>5.0</ele><time>2026-04-10T10:54:45.999Z</time></trkpt><trkpt lat="43.09593851587299" lon="2.9651815107580486"><ele>5.0</ele><time>2026-04-10T10:54:48.999Z</time></trkpt><trkpt lat="43.09586854353124" lon="2.9651374174806393"><ele>5.0</ele><time>2026-04-10T10:54:50.999Z</time></trkpt><trkpt lat="43.0957992960577" lon="2.9650771200322823"><ele>5.0</ele><time>2026-04-10T10:54:52.999Z</time></trkpt><trkpt lat="43.09572711290032" lon="2.965028780686557"><ele>5.0</ele><time>2026-04-10T10:54:54.999Z</time></trkpt><trkpt lat="43.0956569622441" lon="2.9649761319415293"><ele>5.0</ele><time>2026-04-10T10:54:56.999Z</time></trkpt><trkpt lat="43.095592963056994" lon="2.964926835858523"><ele>5.0</ele><time>2026-04-10T10:54:58.999Z</time></trkpt><trkpt lat="43.09552852664759" lon="2.964879071722958"><ele>5.166666666666667</ele><time>2026-04-10T10:55:00.999Z</time></trkpt><trkpt lat="43.0954596276021" lon="2.9648335893994493"><ele>5.333333333333334</ele><time>2026-04-10T10:55:02.999Z</time></trkpt><trkpt lat="43.09538669107721" lon="2.9647859513167267"><ele>5.5</ele><time>2026-04-10T10:55:04.999Z</time></trkpt><trkpt lat="43.09531575420412" lon="2.964743391547539"><ele>5.666666666666667</ele><time>2026-04-10T10:55:06.999Z</time></trkpt><trkpt lat="43.09523873429856" lon="2.964693119109027"><ele>5.833333333333333</ele><time>2026-04-10T10:55:08.999Z</time></trkpt><trkpt lat="43.09516366274502" lon="2.9646524742900717"><ele>6.0</ele><time>2026-04-10T10:55:10.999Z</time></trkpt><trkpt lat="43.09509713944994" lon="2.9646213705444695"><ele>6.0</ele><time>2026-04-10T10:55:12.999Z</time></trkpt><trkpt lat="43.095022727524146" lon="2.964597705412048"><ele>6.0</ele><time>2026-04-10T10:55:14.999Z</time></trkpt><trkpt lat="43.09495645565361" lon="2.964575574483619"><ele>6.0</ele><time>2026-04-10T10:55:16.999Z</time></trkpt><trkpt lat="43.09488135033839" lon="2.964546291241286"><ele>6.0</ele><time>2026-04-10T10:55:18.999Z</time></trkpt><trkpt lat="43.094800521134644" lon="2.964510187354443"><ele>6.0</ele><time>2026-04-10T10:55:20.999Z</time></trkpt><trkpt lat="43.09472294550395" lon="2.9644671357800005"><ele>6.0</ele><time>2026-04-10T10:55:22.999Z</time></trkpt><trkpt lat="43.09464191964465" lon="2.964433299249614"><ele>6.166666666666667</ele><time>2026-04-10T10:55:24.999Z</time></trkpt><trkpt lat="43.09457015018924" lon="2.964387663216938"><ele>6.333333333333334</ele><time>2026-04-10T10:55:26.999Z</time></trkpt><trkpt lat="43.09449241573694" lon="2.964359528058136"><ele>6.5</ele><time>2026-04-10T10:55:28.998Z</time></trkpt><trkpt lat="43.09441554165414" lon="2.964322543704732"><ele>6.666666666666667</ele><time>2026-04-10T10:55:30.998Z</time></trkpt><trkpt lat="43.094340038365374" lon="2.9642809312431004"><ele>6.833333333333334</ele><time>2026-04-10T10:55:32.998Z</time></trkpt><trkpt lat="43.094273831984424" lon="2.964231143793652"><ele>7.0</ele><time>2026-04-10T10:55:35Z</time></trkpt><trkpt lat="43.0942008434823" lon="2.9641879432212725"><ele>7.000000000000001</ele><time>2026-04-10T10:55:37Z</time></trkpt><trkpt lat="43.09413657282587" lon="2.964138610534392"><ele>7.0</ele><time>2026-04-10T10:55:39Z</time></trkpt><trkpt lat="43.09407069313076" lon="2.9640959903547324"><ele>7.0</ele><time>2026-04-10T10:55:41Z</time></trkpt><trkpt lat="43.09400871558419" lon="2.9640450695034444"><ele>7.0</ele><time>2026-04-10T10:55:43Z</time></trkpt><trkpt lat="43.09393394936944" lon="2.9639994496588553"><ele>7.000000000000001</ele><time>2026-04-10T10:55:45Z</time></trkpt><trkpt lat="43.093859936745" lon="2.9639413455031547"><ele>7.0</ele><time>2026-04-10T10:55:47Z</time></trkpt><trkpt lat="43.0937864258645" lon="2.963882745525696"><ele>7.666666666666667</ele><time>2026-04-10T10:55:49Z</time></trkpt><trkpt lat="43.093709108696984" lon="2.963827167008662"><ele>8.333333333333334</ele><time>2026-04-10T10:55:51Z</time></trkpt><trkpt lat="43.09363011980423" lon="2.9637775660085497"><ele>9.0</ele><time>2026-04-10T10:55:53Z</time></trkpt><trkpt lat="43.09355512821721" lon="2.9637152397274664"><ele>9.666666666666666</ele><time>2026-04-10T10:55:55Z</time></trkpt><trkpt lat="43.09348381594343" lon="2.9636550579685124"><ele>10.333333333333332</ele><time>2026-04-10T10:55:57Z</time></trkpt><trkpt lat="43.09341031927655" lon="2.9636049093355497"><ele>11.0</ele><time>2026-04-10T10:55:59Z</time></trkpt><trkpt lat="43.0933490703468" lon="2.963530615579982"><ele>11.0</ele><time>2026-04-10T10:56:01Z</time></trkpt><trkpt lat="43.09327510480592" lon="2.963483480671787"><ele>11.0</ele><time>2026-04-10T10:56:03Z</time></trkpt><trkpt lat="43.09320674432152" lon="2.963431516462381"><ele>11.0</ele><time>2026-04-10T10:56:05Z</time></trkpt><trkpt lat="43.09313490341269" lon="2.9633638117273713"><ele>11.0</ele><time>2026-04-10T10:56:07Z</time></trkpt><trkpt lat="43.093059283188545" lon="2.9633111364893483"><ele>11.0</ele><time>2026-04-10T10:56:09Z</time></trkpt><trkpt lat="43.092990657452944" lon="2.9632447968048408"><ele>11.0</ele><time>2026-04-10T10:56:11Z</time></trkpt><trkpt lat="43.09291883993038" lon="2.9631858551533474"><ele>10.166666666666666</ele><time>2026-04-10T10:56:13Z</time></trkpt><trkpt lat="43.09285125214028" lon="2.9631229020819303"><ele>9.333333333333332</ele><time>2026-04-10T10:56:15Z</time></trkpt><trkpt lat="43.092785530684914" lon="2.963060429478266"><ele>8.5</ele><time>2026-04-10T10:56:17Z</time></trkpt><trkpt lat="43.09272109685285" lon="2.963003980024396"><ele>7.666666666666666</ele><time>2026-04-10T10:56:19Z</time></trkpt><trkpt lat="43.092647333271806" lon="2.9629444074074724"><ele>6.833333333333333</ele><time>2026-04-10T10:56:21Z</time></trkpt><trkpt lat="43.09257126361829" lon="2.962872099335684"><ele>6.0</ele><time>2026-04-10T10:56:22.999Z</time></trkpt><trkpt lat="43.09250087365971" lon="2.9628041766819777"><ele>6.0</ele><time>2026-04-10T10:56:24.999Z</time></trkpt><trkpt lat="43.09244380606343" lon="2.962712836737161"><ele>6.0</ele><time>2026-04-10T10:56:26.999Z</time></trkpt><trkpt lat="43.09237745334848" lon="2.9626335179693286"><ele>6.0</ele><time>2026-04-10T10:56:28.999Z</time></trkpt><trkpt lat="43.09232083000791" lon="2.9625559137424826"><ele>6.0</ele><time>2026-04-10T10:56:30.999Z</time></trkpt><trkpt lat="43.09227317103883" lon="2.9624577919401474"><ele>6.0</ele><time>2026-04-10T10:56:32.999Z</time></trkpt><trkpt lat="43.09221614545447" lon="2.962353336445223"><ele>6.0</ele><time>2026-04-10T10:56:34.999Z</time></trkpt><trkpt lat="43.09216753058783" lon="2.9622532782615756"><ele>5.166666666666667</ele><time>2026-04-10T10:56:36.999Z</time></trkpt><trkpt lat="43.09211961757659" lon="2.962164629627671"><ele>4.333333333333333</ele><time>2026-04-10T10:56:38.999Z</time></trkpt><trkpt lat="43.092067137570126" lon="2.962079079026881"><ele>3.5</ele><time>2026-04-10T10:56:40.999Z</time></trkpt><trkpt lat="43.09202929401956" lon="2.961993398599391"><ele>2.6666666666666665</ele><time>2026-04-10T10:56:42.999Z</time></trkpt><trkpt lat="43.091985714653035" lon="2.9619143051984427"><ele>1.8333333333333333</ele><time>2026-04-10T10:56:44.999Z</time></trkpt><trkpt lat="43.091939075781845" lon="2.9618251274989404"><ele>1.0</ele><time>2026-04-10T10:56:46.999Z</time></trkpt><trkpt lat="43.0918889363881" lon="2.9617452981570267"><ele>0.9999999999999999</ele><time>2026-04-10T10:56:48.999Z</time></trkpt><trkpt lat="43.09183947828691" lon="2.9616632567384182"><ele>1.0</ele><time>2026-04-10T10:56:50.999Z</time></trkpt><trkpt lat="43.091781442605324" lon="2.9615919151867836"><ele>1.0</ele><time>2026-04-10T10:56:52.999Z</time></trkpt><trkpt lat="43.09171196770384" lon="2.9615290478110228"><ele>1.0</ele><time>2026-04-10T10:56:54.999Z</time></trkpt><trkpt lat="43.091644749897895" lon="2.9614900317948054"><ele>0.9999999999999999</ele><time>2026-04-10T10:56:56.999Z</time></trkpt><trkpt lat="43.09157009261904" lon="2.961448798284813"><ele>1.0</ele><time>2026-04-10T10:56:58.999Z</time></trkpt><trkpt lat="43.09149240323442" lon="2.961421641881695"><ele>0.9999999999999999</ele><time>2026-04-10T10:57:00.999Z</time></trkpt><trkpt lat="43.09142465359176" lon="2.9613872226280478"><ele>1.0</ele><time>2026-04-10T10:57:02.999Z</time></trkpt><trkpt lat="43.09135407123546" lon="2.9613578076139957"><ele>1.0</ele><time>2026-04-10T10:57:04.999Z</time></trkpt><trkpt lat="43.09128978002749" lon="2.961309226419941"><ele>1.0</ele><time>2026-04-10T10:57:06.999Z</time></trkpt><trkpt lat="43.09122072955976" lon="2.961253969445415"><ele>0.9999999999999999</ele><time>2026-04-10T10:57:08.999Z</time></trkpt><trkpt lat="43.09115866766564" lon="2.9611907461658165"><ele>1.0</ele><time>2026-04-10T10:57:10.999Z</time></trkpt><trkpt lat="43.09108494125306" lon="2.9611250658942576"><ele>0.9999999999999999</ele><time>2026-04-10T10:57:12.999Z</time></trkpt><trkpt lat="43.09102192470905" lon="2.961053481129623"><ele>1.0</ele><time>2026-04-10T10:57:14.999Z</time></trkpt><trkpt lat="43.090966267526056" lon="2.960975948818104"><ele>1.0</ele><time>2026-04-10T10:57:16.999Z</time></trkpt><trkpt lat="43.09091380104771" lon="2.960910332439773"><ele>1.0</ele><time>2026-04-10T10:57:18.999Z</time></trkpt><trkpt lat="43.09085207429537" lon="2.9608433992056993"><ele>0.9999999999999999</ele><time>2026-04-10T10:57:20.999Z</time></trkpt><trkpt lat="43.09079491488747" lon="2.960788479297689"><ele>1.0</ele><time>2026-04-10T10:57:22.999Z</time></trkpt><trkpt lat="43.09073423928697" lon="2.960716615323145"><ele>1.1428571428571428</ele><time>2026-04-10T10:57:24.999Z</time></trkpt><trkpt lat="43.09067749624111" lon="2.9606508187866765"><ele>1.2857142857142856</ele><time>2026-04-10T10:57:26.999Z</time></trkpt><trkpt lat="43.090616131010464" lon="2.960592440804665"><ele>1.4285714285714284</ele><time>2026-04-10T10:57:28.999Z</time></trkpt><trkpt lat="43.09056325147004" lon="2.960534735806137"><ele>1.5714285714285714</ele><time>2026-04-10T10:57:30.999Z</time></trkpt><trkpt lat="43.090506699698544" lon="2.960471371825138"><ele>1.714285714285714</ele><time>2026-04-10T10:57:32.998Z</time></trkpt><trkpt lat="43.09045461987217" lon="2.9604151067094753"><ele>1.857142857142857</ele><time>2026-04-10T10:57:34.998Z</time></trkpt><trkpt lat="43.090389301616284" lon="2.9603531015450932"><ele>2.0</ele><time>2026-04-10T10:57:36.998Z</time></trkpt><trkpt lat="43.09032910115344" lon="2.9602744356821287"><ele>1.9999999999999998</ele><time>2026-04-10T10:57:38.998Z</time></trkpt><trkpt lat="43.090269194492365" lon="2.960211766201706"><ele>2.0</ele><time>2026-04-10T10:57:41Z</time></trkpt><trkpt lat="43.090213786665316" lon="2.9601563455584006"><ele>2.0</ele><time>2026-04-10T10:57:43Z</time></trkpt><trkpt lat="43.0901621022082" lon="2.960094077127323"><ele>2.0</ele><time>2026-04-10T10:57:45Z</time></trkpt><trkpt lat="43.09010478402099" lon="2.960023203117105"><ele>1.9999999999999998</ele><time>2026-04-10T10:57:47Z</time></trkpt><trkpt lat="43.090042508459085" lon="2.9599482700034008"><ele>2.0</ele><time>2026-04-10T10:57:49Z</time></trkpt><trkpt lat="43.089980223634434" lon="2.959885539570745"><ele>2.2857142857142856</ele><time>2026-04-10T10:57:51Z</time></trkpt><trkpt lat="43.08992827807332" lon="2.959821248203008"><ele>2.571428571428571</ele><time>2026-04-10T10:57:53Z</time></trkpt><trkpt lat="43.08987122431985" lon="2.9597585958823394"><ele>2.8571428571428568</ele><time>2026-04-10T10:57:55Z</time></trkpt><trkpt lat="43.089824213742666" lon="2.959697692362328"><ele>3.142857142857143</ele><time>2026-04-10T10:57:57Z</time></trkpt><trkpt lat="43.08976591821488" lon="2.959637298446263"><ele>3.428571428571428</ele><time>2026-04-10T10:57:59Z</time></trkpt><trkpt lat="43.08970824457862" lon="2.9595794042548604"><ele>3.714285714285714</ele><time>2026-04-10T10:58:01Z</time></trkpt><trkpt lat="43.089634995146014" lon="2.959495902360117"><ele>4.0</ele><time>2026-04-10T10:58:04Z</time></trkpt><trkpt lat="43.08958596242672" lon="2.9594339095097624"><ele>4.142857142857142</ele><time>2026-04-10T10:58:06Z</time></trkpt><trkpt lat="43.08952071110983" lon="2.959445410362753"><ele>4.285714285714286</ele><time>2026-04-10T10:58:08Z</time></trkpt><trkpt lat="43.08945809061034" lon="2.959500773504725"><ele>4.428571428571429</ele><time>2026-04-10T10:58:10Z</time></trkpt><trkpt lat="43.089391162345905" lon="2.9594882183706868"><ele>4.571428571428571</ele><time>2026-04-10T10:58:12Z</time></trkpt><trkpt lat="43.08931192594818" lon="2.959477622782885"><ele>4.714285714285714</ele><time>2026-04-10T10:58:14Z</time></trkpt><trkpt lat="43.089230843089034" lon="2.959472131003864"><ele>4.857142857142857</ele><time>2026-04-10T10:58:16Z</time></trkpt><trkpt lat="43.0891573257405" lon="2.9594498879291935"><ele>5.0</ele><time>2026-04-10T10:58:18Z</time></trkpt><trkpt lat="43.08908670772272" lon="2.9594083836844596"><ele>5.166666666666667</ele><time>2026-04-10T10:58:20Z</time></trkpt><trkpt lat="43.08901038371556" lon="2.9593741952494854"><ele>5.333333333333334</ele><time>2026-04-10T10:58:22Z</time></trkpt><trkpt lat="43.08894162403267" lon="2.9593201799422792"><ele>5.5</ele><time>2026-04-10T10:58:24Z</time></trkpt><trkpt lat="43.08887742117325" lon="2.9592648926255265"><ele>5.666666666666667</ele><time>2026-04-10T10:58:26Z</time></trkpt><trkpt lat="43.08881178003038" lon="2.9592159800348257"><ele>5.833333333333333</ele><time>2026-04-10T10:58:27.999Z</time></trkpt><trkpt lat="43.08874924093676" lon="2.9591771266548768"><ele>6.0</ele><time>2026-04-10T10:58:29.999Z</time></trkpt><trkpt lat="43.08868681893666" lon="2.959120990138314"><ele>6.0</ele><time>2026-04-10T10:58:31.999Z</time></trkpt><trkpt lat="43.08862196541546" lon="2.959063440952401"><ele>6.0</ele><time>2026-04-10T10:58:33.999Z</time></trkpt><trkpt lat="43.088551545600914" lon="2.9589921899172507"><ele>6.0</ele><time>2026-04-10T10:58:36.999Z</time></trkpt><trkpt lat="43.08848410016457" lon="2.958951907417272"><ele>6.0</ele><time>2026-04-10T10:58:38.999Z</time></trkpt><trkpt lat="43.088417981411446" lon="2.9589539289325097"><ele>6.0</ele><time>2026-04-10T10:58:40.999Z</time></trkpt><trkpt lat="43.08834597557243" lon="2.959031462008902"><ele>6.0</ele><time>2026-04-10T10:58:42.999Z</time></trkpt><trkpt lat="43.08827318797031" lon="2.959111178239371"><ele>5.833333333333333</ele><time>2026-04-10T10:58:44.999Z</time></trkpt><trkpt lat="43.088202801283266" lon="2.959186208093119"><ele>5.666666666666667</ele><time>2026-04-10T10:58:46.999Z</time></trkpt><trkpt lat="43.08812707198619" lon="2.959231873935428"><ele>5.5</ele><time>2026-04-10T10:58:48.999Z</time></trkpt><trkpt lat="43.088055700280485" lon="2.959286650561012"><ele>5.333333333333334</ele><time>2026-04-10T10:58:50.999Z</time></trkpt><trkpt lat="43.088001380908715" lon="2.959371605602164"><ele>5.166666666666667</ele><time>2026-04-10T10:58:52.999Z</time></trkpt><trkpt lat="43.08795756833726" lon="2.9594648144553903"><ele>5.0</ele><time>2026-04-10T10:58:54.999Z</time></trkpt><trkpt lat="43.087916426759634" lon="2.959558195437782"><ele>4.833333333333334</ele><time>2026-04-10T10:58:56.999Z</time></trkpt><trkpt lat="43.08787547790098" lon="2.959663209390278"><ele>4.666666666666667</ele><time>2026-04-10T10:58:58.999Z</time></trkpt><trkpt lat="43.08784607097943" lon="2.9597654702293625"><ele>4.5</ele><time>2026-04-10T10:59:00.999Z</time></trkpt><trkpt lat="43.08781343171145" lon="2.9598507349734944"><ele>4.333333333333333</ele><time>2026-04-10T10:59:02.999Z</time></trkpt><trkpt lat="43.087767092908805" lon="2.9599530539596035"><ele>4.166666666666666</ele><time>2026-04-10T10:59:05.999Z</time></trkpt><trkpt lat="43.087693271558166" lon="2.9599396894126033"><ele>4.0</ele><time>2026-04-10T10:59:07.999Z</time></trkpt><trkpt lat="43.0876320379305" lon="2.9598792672264556"><ele>3.9999999999999996</ele><time>2026-04-10T10:59:09.999Z</time></trkpt><trkpt lat="43.08757385207614" lon="2.9598462877945533"><ele>4.0</ele><time>2026-04-10T10:59:11.999Z</time></trkpt><trkpt lat="43.087483868739035" lon="2.9598185150805603"><ele>4.0</ele><time>2026-04-10T10:59:14.999Z</time></trkpt><trkpt lat="43.08739962338224" lon="2.959779355713254"><ele>4.0</ele><time>2026-04-10T10:59:17.999Z</time></trkpt><trkpt lat="43.08732622099817" lon="2.959740833512367"><ele>3.9999999999999996</ele><time>2026-04-10T10:59:20.999Z</time></trkpt><trkpt lat="43.0872500409293" lon="2.95971365079653"><ele>4.0</ele><time>2026-04-10T10:59:23.999Z</time></trkpt><trkpt lat="43.08716385586195" lon="2.959693644072916"><ele>4.833333333333333</ele><time>2026-04-10T10:59:26.999Z</time></trkpt><trkpt lat="43.08710111797547" lon="2.9596454872421805"><ele>5.666666666666666</ele><time>2026-04-10T10:59:29.999Z</time></trkpt><trkpt lat="43.087034362116434" lon="2.9596030226114403"><ele>6.5</ele><time>2026-04-10T10:59:32.999Z</time></trkpt><trkpt lat="43.08694475633601" lon="2.959627383033139"><ele>7.333333333333333</ele><time>2026-04-10T10:59:35.999Z</time></trkpt><trkpt lat="43.086863600622806" lon="2.959654722162886"><ele>8.166666666666666</ele><time>2026-04-10T10:59:38.998Z</time></trkpt><trkpt lat="43.08680391430082" lon="2.959688440247902"><ele>9.0</ele><time>2026-04-10T10:59:41.998Z</time></trkpt><trkpt lat="43.08676791694761" lon="2.9597647590959917"><ele>9.000000000000002</ele><time>2026-04-10T10:59:45.998Z</time></trkpt><trkpt lat="43.08677156744016" lon="2.959855993112661"><ele>9.0</ele><time>2026-04-10T10:59:54Z</time></trkpt><trkpt lat="43.08678333771983" lon="2.9597611954037237"><ele>9.0</ele><time>2026-04-10T11:01:36.999Z</time></trkpt><trkpt lat="43.086807396865815" lon="2.959675066947639"><ele>9.0</ele><time>2026-04-10T11:01:46.998Z</time></trkpt><trkpt lat="43.08684528517143" lon="2.95960352499724"><ele>9.0</ele><time>2026-04-10T11:01:54Z</time></trkpt><trkpt lat="43.086891117164825" lon="2.959530407183978"><ele>9.000000000000002</ele><time>2026-04-10T11:02:02Z</time></trkpt><trkpt lat="43.086968090222506" lon="2.9595535069376853"><ele>9.0</ele><time>2026-04-10T11:02:08Z</time></trkpt><trkpt lat="43.08703777998323" lon="2.9595844676432086"><ele>9.0</ele><time>2026-04-10T11:02:12Z</time></trkpt><trkpt lat="43.087097616851" lon="2.959637148051923"><ele>9.0</ele><time>2026-04-10T11:02:17Z</time></trkpt><trkpt lat="43.08715329409617" lon="2.959706706162519"><ele>9.0</ele><time>2026-04-10T11:02:23Z</time></trkpt><trkpt lat="43.08719105942367" lon="2.959791307734196"><ele>9.0</ele><time>2026-04-10T11:02:29Z</time></trkpt><trkpt lat="43.08712954279712" lon="2.9597720053483823"><ele>9.0</ele><time>2026-04-10T11:03:15.999Z</time></trkpt><trkpt lat="43.08720146108596" lon="2.95958492287925"><ele>9.0</ele><time>2026-04-10T11:04:41.02Z</time></trkpt><trkpt lat="43.08722266600398" lon="2.959675171511294"><ele>9.0</ele><time>2026-04-10T11:04:45.999Z</time></trkpt><trkpt lat="43.087179064425456" lon="2.959796980012214"><ele>9.0</ele><time>2026-04-10T11:05:09.999Z</time></trkpt><trkpt lat="43.08719112155066" lon="2.9598840763134926"><ele>9.0</ele><time>2026-04-10T11:05:16.999Z</time></trkpt><trkpt lat="43.08722711934826" lon="2.9599615773623675"><ele>9.0</ele><time>2026-04-10T11:05:34.999Z</time></trkpt><trkpt lat="43.087237533389896" lon="2.959864871365421"><ele>9.0</ele><time>2026-04-10T11:05:47.999Z</time></trkpt><trkpt lat="43.08730136736934" lon="2.9598315064116076"><ele>9.0</ele><time>2026-04-10T11:06:05.997Z</time></trkpt><trkpt lat="43.08718092277933" lon="2.9596810229150203"><ele>9.000000000000002</ele><time>2026-04-10T11:12:28.999Z</time></trkpt><trkpt lat="43.087221575009714" lon="2.9597492516068367"><ele>9.0</ele><time>2026-04-10T11:12:32.999Z</time></trkpt><trkpt lat="43.08730061635662" lon="2.959768613803163"><ele>9.0</ele><time>2026-04-10T11:12:36Z</time></trkpt><trkpt lat="43.087369180324565" lon="2.959782695400491"><ele>9.0</ele><time>2026-04-10T11:12:38Z</time></trkpt><trkpt lat="43.087438820571215" lon="2.9598077886622347"><ele>9.0</ele><time>2026-04-10T11:12:40Z</time></trkpt><trkpt lat="43.08750414448453" lon="2.95983951059564"><ele>9.000000000000002</ele><time>2026-04-10T11:12:42Z</time></trkpt><trkpt lat="43.0875676456752" lon="2.9598575976180497"><ele>9.0</ele><time>2026-04-10T11:12:44Z</time></trkpt><trkpt lat="43.087653935529545" lon="2.9598997930095887"><ele>8.285714285714286</ele><time>2026-04-10T11:12:47Z</time></trkpt><trkpt lat="43.087715334925974" lon="2.9599362321176734"><ele>7.571428571428571</ele><time>2026-04-10T11:12:49Z</time></trkpt><trkpt lat="43.08777392854876" lon="2.959974975712667"><ele>6.857142857142858</ele><time>2026-04-10T11:12:51Z</time></trkpt><trkpt lat="43.0878367388298" lon="2.959957579416424"><ele>6.142857142857143</ele><time>2026-04-10T11:12:53Z</time></trkpt><trkpt lat="43.08789215177831" lon="2.959887068410701"><ele>5.428571428571429</ele><time>2026-04-10T11:12:55Z</time></trkpt><trkpt lat="43.08792751837374" lon="2.959785932096645"><ele>4.714285714285714</ele><time>2026-04-10T11:12:57Z</time></trkpt><trkpt lat="43.08794936858818" lon="2.959690354373346"><ele>4.0</ele><time>2026-04-10T11:12:59Z</time></trkpt><trkpt lat="43.08792073850505" lon="2.9596077086772663"><ele>4.0</ele><time>2026-04-10T11:13:00Z</time></trkpt><trkpt lat="43.08794661166958" lon="2.9595117420232255"><ele>3.9999999999999996</ele><time>2026-04-10T11:13:02Z</time></trkpt><trkpt lat="43.08797450748638" lon="2.959431062108632"><ele>4.0</ele><time>2026-04-10T11:13:04Z</time></trkpt><trkpt lat="43.08802258630825" lon="2.959366843778583"><ele>4.0</ele><time>2026-04-10T11:13:06Z</time></trkpt><trkpt lat="43.08806921169187" lon="2.959292163561487"><ele>3.9999999999999996</ele><time>2026-04-10T11:13:08Z</time></trkpt><trkpt lat="43.08812571162204" lon="2.9592499575983857"><ele>4.0</ele><time>2026-04-10T11:13:10Z</time></trkpt><trkpt lat="43.08818233271307" lon="2.9592045027624185"><ele>4.0</ele><time>2026-04-10T11:13:12Z</time></trkpt><trkpt lat="43.088240315762626" lon="2.9591516321895126"><ele>4.285714285714286</ele><time>2026-04-10T11:13:14Z</time></trkpt><trkpt lat="43.0883055063452" lon="2.95909991031611"><ele>4.571428571428571</ele><time>2026-04-10T11:13:16Z</time></trkpt><trkpt lat="43.08836386854207" lon="2.9590603013852435"><ele>4.857142857142857</ele><time>2026-04-10T11:13:18Z</time></trkpt><trkpt lat="43.08842561319457" lon="2.959023236986171"><ele>5.142857142857142</ele><time>2026-04-10T11:13:20Z</time></trkpt><trkpt lat="43.08851019841263" lon="2.9589873382758154"><ele>5.428571428571429</ele><time>2026-04-10T11:13:23Z</time></trkpt><trkpt lat="43.08857126474493" lon="2.9590154526312773"><ele>5.7142857142857135</ele><time>2026-04-10T11:13:25Z</time></trkpt><trkpt lat="43.08862042438286" lon="2.959078958051014"><ele>6.0</ele><time>2026-04-10T11:13:27Z</time></trkpt><trkpt lat="43.0887010770107" lon="2.959145757170571"><ele>5.857142857142857</ele><time>2026-04-10T11:13:30Z</time></trkpt><trkpt lat="43.08876472469661" lon="2.959205222403164"><ele>5.714285714285714</ele><time>2026-04-10T11:13:32Z</time></trkpt><trkpt lat="43.08882892373676" lon="2.959260491544127"><ele>5.571428571428571</ele><time>2026-04-10T11:13:34Z</time></trkpt><trkpt lat="43.08889663113153" lon="2.959302413789525"><ele>5.428571428571429</ele><time>2026-04-10T11:13:36Z</time></trkpt><trkpt lat="43.08895263922277" lon="2.9593485330941993"><ele>5.285714285714286</ele><time>2026-04-10T11:13:38Z</time></trkpt><trkpt lat="43.08902265406505" lon="2.9593864143037387"><ele>5.142857142857142</ele><time>2026-04-10T11:13:40Z</time></trkpt><trkpt lat="43.08909517488348" lon="2.9594372758490874"><ele>5.0</ele><time>2026-04-10T11:13:42Z</time></trkpt><trkpt lat="43.0891746894471" lon="2.9594699888471756"><ele>5.0</ele><time>2026-04-10T11:13:44Z</time></trkpt><trkpt lat="43.08924865198459" lon="2.9594932107583722"><ele>5.0</ele><time>2026-04-10T11:13:46Z</time></trkpt><trkpt lat="43.08931995410684" lon="2.959511692171009"><ele>5.0</ele><time>2026-04-10T11:13:48Z</time></trkpt><trkpt lat="43.08939390654264" lon="2.9595274861418766"><ele>5.0</ele><time>2026-04-10T11:13:50Z</time></trkpt><trkpt lat="43.08947211690791" lon="2.9595164612546982"><ele>5.0</ele><time>2026-04-10T11:13:52Z</time></trkpt><trkpt lat="43.08956612831946" lon="2.959470719881258"><ele>5.0</ele><time>2026-04-10T11:13:55Z</time></trkpt><trkpt lat="43.08965014423465" lon="2.9595422505100553"><ele>5.0</ele><time>2026-04-10T11:13:58Z</time></trkpt><trkpt lat="43.08970775690128" lon="2.9596011860866764"><ele>5.0</ele><time>2026-04-10T11:14:00Z</time></trkpt><trkpt lat="43.089767616820836" lon="2.959655318003993"><ele>5.0</ele><time>2026-04-10T11:14:02Z</time></trkpt><trkpt lat="43.089835495068506" lon="2.9597155861424476"><ele>5.0</ele><time>2026-04-10T11:14:04Z</time></trkpt><trkpt lat="43.08989601185984" lon="2.9597883564148275"><ele>5.0</ele><time>2026-04-10T11:14:06Z</time></trkpt><trkpt lat="43.089961903058715" lon="2.9598595095138696"><ele>5.0</ele><time>2026-04-10T11:14:08Z</time></trkpt><trkpt lat="43.090020068319205" lon="2.959941212632568"><ele>4.833333333333334</ele><time>2026-04-10T11:14:10Z</time></trkpt><trkpt lat="43.09008464034633" lon="2.9600142154538758"><ele>4.666666666666667</ele><time>2026-04-10T11:14:12Z</time></trkpt><trkpt lat="43.09014412516042" lon="2.960092969640606"><ele>4.5</ele><time>2026-04-10T11:14:14Z</time></trkpt><trkpt lat="43.090215144287725" lon="2.9601726160363055"><ele>4.333333333333333</ele><time>2026-04-10T11:14:16Z</time></trkpt><trkpt lat="43.0902820890778" lon="2.9602496736762314"><ele>4.166666666666666</ele><time>2026-04-10T11:14:18Z</time></trkpt><trkpt lat="43.09034451917358" lon="2.9603285176778233"><ele>4.0</ele><time>2026-04-10T11:14:20Z</time></trkpt><trkpt lat="43.090406767041415" lon="2.9604024928451116"><ele>3.9999999999999996</ele><time>2026-04-10T11:14:22Z</time></trkpt><trkpt lat="43.09047834725855" lon="2.9604761378498776"><ele>4.0</ele><time>2026-04-10T11:14:24Z</time></trkpt><trkpt lat="43.090542127532444" lon="2.9605548799357653"><ele>4.0</ele><time>2026-04-10T11:14:26Z</time></trkpt><trkpt lat="43.09060472806472" lon="2.960627971699707"><ele>4.0</ele><time>2026-04-10T11:14:28Z</time></trkpt><trkpt lat="43.09065969385363" lon="2.9607045351911263"><ele>3.9999999999999996</ele><time>2026-04-10T11:14:30Z</time></trkpt><trkpt lat="43.09073122080755" lon="2.9607765246484843"><ele>4.0</ele><time>2026-04-10T11:14:32Z</time></trkpt><trkpt lat="43.09080807500318" lon="2.9608531227058283"><ele>3.4000000000000004</ele><time>2026-04-10T11:14:34Z</time></trkpt><trkpt lat="43.090883372018865" lon="2.960940849707344"><ele>2.8000000000000003</ele><time>2026-04-10T11:14:36Z</time></trkpt><trkpt lat="43.09095186773757" lon="2.9610198482893573"><ele>2.2</ele><time>2026-04-10T11:14:38Z</time></trkpt><trkpt lat="43.09102584903596" lon="2.9610939624763777"><ele>1.6</ele><time>2026-04-10T11:14:40.001Z</time></trkpt><trkpt lat="43.09109718714898" lon="2.961165684033162"><ele>1.0</ele><time>2026-04-10T11:14:42.001Z</time></trkpt><trkpt lat="43.09116611190802" lon="2.9612305775710377"><ele>0.9999999999999999</ele><time>2026-04-10T11:14:44.001Z</time></trkpt><trkpt lat="43.09124392754727" lon="2.9613005035276347"><ele>1.0</ele><time>2026-04-10T11:14:46.001Z</time></trkpt><trkpt lat="43.091316141275605" lon="2.961361638399353"><ele>1.0</ele><time>2026-04-10T11:14:48.001Z</time></trkpt><trkpt lat="43.0913810268474" lon="2.9614095747783105"><ele>1.0</ele><time>2026-04-10T11:14:50.001Z</time></trkpt><trkpt lat="43.09145066131957" lon="2.9614409639586285"><ele>0.9999999999999999</ele><time>2026-04-10T11:14:52.001Z</time></trkpt><trkpt lat="43.09152963526347" lon="2.9614713295412503"><ele>1.0</ele><time>2026-04-10T11:14:54.001Z</time></trkpt><trkpt lat="43.091609460539" lon="2.961504376957431"><ele>0.9999999999999999</ele><time>2026-04-10T11:14:56.001Z</time></trkpt><trkpt lat="43.091686369933" lon="2.961560783002873"><ele>1.0</ele><time>2026-04-10T11:14:58.001Z</time></trkpt><trkpt lat="43.09176253706383" lon="2.9616200801846975"><ele>1.0</ele><time>2026-04-10T11:15:00.001Z</time></trkpt><trkpt lat="43.091817788509005" lon="2.961706102773416"><ele>1.0</ele><time>2026-04-10T11:15:02.001Z</time></trkpt><trkpt lat="43.09187191281616" lon="2.961771800758113"><ele>0.9999999999999999</ele><time>2026-04-10T11:15:04.001Z</time></trkpt><trkpt lat="43.09190760325543" lon="2.9618566138224423"><ele>1.0</ele><time>2026-04-10T11:15:06.001Z</time></trkpt><trkpt lat="43.09195139273021" lon="2.9619345667214594"><ele>1.0</ele><time>2026-04-10T11:15:08.001Z</time></trkpt><trkpt lat="43.09199542084537" lon="2.9620139816994437"><ele>0.9999999999999999</ele><time>2026-04-10T11:15:10.001Z</time></trkpt><trkpt lat="43.09203789564314" lon="2.9620821254981884"><ele>1.0</ele><time>2026-04-10T11:15:12.001Z</time></trkpt><trkpt lat="43.0920783212685" lon="2.962156201401247"><ele>1.0</ele><time>2026-04-10T11:15:14Z</time></trkpt><trkpt lat="43.092120022384776" lon="2.9622302809638446"><ele>0.9999999999999999</ele><time>2026-04-10T11:15:16Z</time></trkpt><trkpt lat="43.09216424643225" lon="2.962317811661646"><ele>1.0</ele><time>2026-04-10T11:15:18Z</time></trkpt><trkpt lat="43.092215475177056" lon="2.962408991442918"><ele>1.0</ele><time>2026-04-10T11:15:20Z</time></trkpt><trkpt lat="43.09226376394232" lon="2.9624999689155436"><ele>1.0</ele><time>2026-04-10T11:15:22Z</time></trkpt><trkpt lat="43.0923068559442" lon="2.9625790178948668"><ele>0.9999999999999999</ele><time>2026-04-10T11:15:24Z</time></trkpt><trkpt lat="43.09235733706481" lon="2.9626622297983154"><ele>1.0</ele><time>2026-04-10T11:15:26Z</time></trkpt><trkpt lat="43.09241430732924" lon="2.9627314232167055"><ele>1.0</ele><time>2026-04-10T11:15:28Z</time></trkpt><trkpt lat="43.09247655075684" lon="2.9627960427353894"><ele>0.9999999999999999</ele><time>2026-04-10T11:15:30Z</time></trkpt><trkpt lat="43.092528084982305" lon="2.962852942182222"><ele>1.0</ele><time>2026-04-10T11:15:32Z</time></trkpt><trkpt lat="43.092581393917094" lon="2.962908469689332"><ele>1.0</ele><time>2026-04-10T11:15:34Z</time></trkpt><trkpt lat="43.09263538703126" lon="2.9629768713682623"><ele>1.8333333333333333</ele><time>2026-04-10T11:15:36Z</time></trkpt><trkpt lat="43.092704159137305" lon="2.9630275597290137"><ele>2.6666666666666665</ele><time>2026-04-10T11:15:38Z</time></trkpt><trkpt lat="43.09276568355687" lon="2.9630810174598423"><ele>3.5</ele><time>2026-04-10T11:15:40Z</time></trkpt><trkpt lat="43.0928203776495" lon="2.963127422662261"><ele>4.333333333333333</ele><time>2026-04-10T11:15:42Z</time></trkpt><trkpt lat="43.092876266714896" lon="2.963183124298122"><ele>5.166666666666667</ele><time>2026-04-10T11:15:44Z</time></trkpt><trkpt lat="43.092958736787885" lon="2.9632467528098894"><ele>6.0</ele><time>2026-04-10T11:15:47Z</time></trkpt><trkpt lat="43.09301818874988" lon="2.9633070986018555"><ele>6.833333333333333</ele><time>2026-04-10T11:15:49Z</time></trkpt><trkpt lat="43.09308362511759" lon="2.963368186401105"><ele>7.666666666666666</ele><time>2026-04-10T11:15:51Z</time></trkpt><trkpt lat="43.093152058885345" lon="2.963420929714129"><ele>8.5</ele><time>2026-04-10T11:15:53Z</time></trkpt><trkpt lat="43.09322241236603" lon="2.963476074764182"><ele>9.333333333333332</ele><time>2026-04-10T11:15:55Z</time></trkpt><trkpt lat="43.093283510284394" lon="2.9635266879964974"><ele>10.166666666666666</ele><time>2026-04-10T11:15:57Z</time></trkpt><trkpt lat="43.093349397221935" lon="2.9635749485488527"><ele>11.0</ele><time>2026-04-10T11:15:59Z</time></trkpt><trkpt lat="43.09342337448766" lon="2.9636341203685674"><ele>11.0</ele><time>2026-04-10T11:16:01Z</time></trkpt><trkpt lat="43.09349889756419" lon="2.9636896632575103"><ele>11.0</ele><time>2026-04-10T11:16:03Z</time></trkpt><trkpt lat="43.09357214892912" lon="2.9637523693167886"><ele>11.0</ele><time>2026-04-10T11:16:05Z</time></trkpt><trkpt lat="43.09365219914921" lon="2.963804759184166"><ele>11.0</ele><time>2026-04-10T11:16:07Z</time></trkpt><trkpt lat="43.0937230783986" lon="2.963867223151236"><ele>11.0</ele><time>2026-04-10T11:16:09Z</time></trkpt><trkpt lat="43.09379163768097" lon="2.9639150904557257"><ele>11.0</ele><time>2026-04-10T11:16:11Z</time></trkpt><trkpt lat="43.09385541623235" lon="2.9639675239200067"><ele>11.0</ele><time>2026-04-10T11:16:13Z</time></trkpt><trkpt lat="43.09392789082126" lon="2.964024630115231"><ele>11.0</ele><time>2026-04-10T11:16:15Z</time></trkpt><trkpt lat="43.09400119822709" lon="2.9640748889297552"><ele>11.0</ele><time>2026-04-10T11:16:17Z</time></trkpt><trkpt lat="43.0940756633332" lon="2.964132998826255"><ele>11.0</ele><time>2026-04-10T11:16:19Z</time></trkpt><trkpt lat="43.094150560543845" lon="2.964186249923334"><ele>11.0</ele><time>2026-04-10T11:16:21Z</time></trkpt><trkpt lat="43.09423246500688" lon="2.964239959645436"><ele>11.0</ele><time>2026-04-10T11:16:23Z</time></trkpt><trkpt lat="43.09431485838" lon="2.964288764955018"><ele>11.0</ele><time>2026-04-10T11:16:25Z</time></trkpt><trkpt lat="43.094393096168645" lon="2.964335425917917"><ele>11.0</ele><time>2026-04-10T11:16:27Z</time></trkpt><trkpt lat="43.09447285424174" lon="2.9643799746269193"><ele>11.0</ele><time>2026-04-10T11:16:29Z</time></trkpt><trkpt lat="43.094556650293285" lon="2.9644258770505645"><ele>11.0</ele><time>2026-04-10T11:16:31Z</time></trkpt><trkpt lat="43.09463908246173" lon="2.9644617745993025"><ele>11.0</ele><time>2026-04-10T11:16:33Z</time></trkpt><trkpt lat="43.094721324958265" lon="2.9645041853488876"><ele>11.0</ele><time>2026-04-10T11:16:35Z</time></trkpt><trkpt lat="43.09479902369375" lon="2.964536834752099"><ele>11.0</ele><time>2026-04-10T11:16:37Z</time></trkpt><trkpt lat="43.09488054485278" lon="2.964555285075718"><ele>11.0</ele><time>2026-04-10T11:16:39Z</time></trkpt><trkpt lat="43.094950976949455" lon="2.96458996191024"><ele>11.0</ele><time>2026-04-10T11:16:41Z</time></trkpt><trkpt lat="43.09502421366915" lon="2.9646258303812103"><ele>11.0</ele><time>2026-04-10T11:16:43Z</time></trkpt><trkpt lat="43.09509763251691" lon="2.9646505560217054"><ele>11.0</ele><time>2026-04-10T11:16:45Z</time></trkpt><trkpt lat="43.09517065678314" lon="2.9646887777368334"><ele>11.0</ele><time>2026-04-10T11:16:47.002Z</time></trkpt><trkpt lat="43.095237037210374" lon="2.964722451080233"><ele>10.166666666666666</ele><time>2026-04-10T11:16:49.001Z</time></trkpt><trkpt lat="43.09531136877826" lon="2.964772295120442"><ele>9.333333333333332</ele><time>2026-04-10T11:16:51.001Z</time></trkpt><trkpt lat="43.09538364138358" lon="2.964817601752281"><ele>8.5</ele><time>2026-04-10T11:16:53.001Z</time></trkpt><trkpt lat="43.09544934456188" lon="2.9648663516226303"><ele>7.666666666666666</ele><time>2026-04-10T11:16:55.001Z</time></trkpt><trkpt lat="43.09552170953698" lon="2.964911180451302"><ele>6.833333333333333</ele><time>2026-04-10T11:16:57.001Z</time></trkpt><trkpt lat="43.095592859951864" lon="2.9649675793437"><ele>6.0</ele><time>2026-04-10T11:16:59.001Z</time></trkpt><trkpt lat="43.09566661560627" lon="2.965008671359828"><ele>5.833333333333333</ele><time>2026-04-10T11:17:01.001Z</time></trkpt><trkpt lat="43.095741099015726" lon="2.965061030820335"><ele>5.666666666666667</ele><time>2026-04-10T11:17:03.001Z</time></trkpt><trkpt lat="43.09581318723383" lon="2.9651297180223772"><ele>5.5</ele><time>2026-04-10T11:17:05.001Z</time></trkpt><trkpt lat="43.0958948746973" lon="2.9651726009280925"><ele>5.333333333333334</ele><time>2026-04-10T11:17:07.001Z</time></trkpt><trkpt lat="43.09596540409999" lon="2.9652284612348883"><ele>5.166666666666667</ele><time>2026-04-10T11:17:09.001Z</time></trkpt><trkpt lat="43.09604961001816" lon="2.965282868080959"><ele>5.0</ele><time>2026-04-10T11:17:11.001Z</time></trkpt><trkpt lat="43.09613866965343" lon="2.9653181143145964"><ele>5.0</ele><time>2026-04-10T11:17:13.001Z</time></trkpt><trkpt lat="43.0962187012024" lon="2.9653553864752125"><ele>5.0</ele><time>2026-04-10T11:17:15.001Z</time></trkpt><trkpt lat="43.09629915449998" lon="2.965389721160128"><ele>5.0</ele><time>2026-04-10T11:17:17.001Z</time></trkpt><trkpt lat="43.096380255574445" lon="2.965406327282083"><ele>5.0</ele><time>2026-04-10T11:17:19.001Z</time></trkpt><trkpt lat="43.09645571954634" lon="2.9654125603481436"><ele>5.0</ele><time>2026-04-10T11:17:21.001Z</time></trkpt><trkpt lat="43.096539125204096" lon="2.9654251592841625"><ele>5.0</ele><time>2026-04-10T11:17:23.001Z</time></trkpt><trkpt lat="43.09660926162907" lon="2.9654148551501893"><ele>5.0</ele><time>2026-04-10T11:17:25.001Z</time></trkpt><trkpt lat="43.096682843076266" lon="2.9654108765996603"><ele>5.0</ele><time>2026-04-10T11:17:27.001Z</time></trkpt><trkpt lat="43.096765084201735" lon="2.9653997654639133"><ele>5.0</ele><time>2026-04-10T11:17:29.001Z</time></trkpt><trkpt lat="43.09685430081644" lon="2.9653760935758244"><ele>5.0</ele><time>2026-04-10T11:17:31.001Z</time></trkpt><trkpt lat="43.096949089612544" lon="2.9653646720409066"><ele>5.0</ele><time>2026-04-10T11:17:33.001Z</time></trkpt><trkpt lat="43.09703990270024" lon="2.965373230851413"><ele>5.0</ele><time>2026-04-10T11:17:35.001Z</time></trkpt><trkpt lat="43.09712201081385" lon="2.9653985503595917"><ele>5.0</ele><time>2026-04-10T11:17:37Z</time></trkpt><trkpt lat="43.09720114917894" lon="2.965441963066233"><ele>5.0</ele><time>2026-04-10T11:17:39Z</time></trkpt><trkpt lat="43.09727731368295" lon="2.965505941383387"><ele>5.0</ele><time>2026-04-10T11:17:41Z</time></trkpt><trkpt lat="43.097351561298034" lon="2.965569829976074"><ele>5.0</ele><time>2026-04-10T11:17:43Z</time></trkpt><trkpt lat="43.09742009438843" lon="2.965646769925673"><ele>5.0</ele><time>2026-04-10T11:17:45Z</time></trkpt><trkpt lat="43.09748557057786" lon="2.965713273681569"><ele>5.0</ele><time>2026-04-10T11:17:47Z</time></trkpt><trkpt lat="43.09754695854144" lon="2.9657781520226862"><ele>5.0</ele><time>2026-04-10T11:17:49Z</time></trkpt><trkpt lat="43.09760256595701" lon="2.96584769114187"><ele>5.0</ele><time>2026-04-10T11:17:51Z</time></trkpt><trkpt lat="43.09765939076888" lon="2.9659106066970127"><ele>5.0</ele><time>2026-04-10T11:17:53Z</time></trkpt><trkpt lat="43.09771770310857" lon="2.965975147629443"><ele>5.0</ele><time>2026-04-10T11:17:55Z</time></trkpt><trkpt lat="43.09777369314852" lon="2.9660381684097605"><ele>5.0</ele><time>2026-04-10T11:17:57Z</time></trkpt><trkpt lat="43.097830647907685" lon="2.9660941976823794"><ele>5.0</ele><time>2026-04-10T11:17:59Z</time></trkpt><trkpt lat="43.097893439991644" lon="2.9661650030350826"><ele>5.0</ele><time>2026-04-10T11:18:01Z</time></trkpt><trkpt lat="43.09796282827642" lon="2.9662134044294763"><ele>4.833333333333334</ele><time>2026-04-10T11:18:03Z</time></trkpt><trkpt lat="43.098023363764824" lon="2.966264835560105"><ele>4.666666666666667</ele><time>2026-04-10T11:18:05Z</time></trkpt><trkpt lat="43.09809237195114" lon="2.9663115960741804"><ele>4.5</ele><time>2026-04-10T11:18:07Z</time></trkpt><trkpt lat="43.09816598386594" lon="2.9663635477895016"><ele>4.333333333333333</ele><time>2026-04-10T11:18:09Z</time></trkpt><trkpt lat="43.09823999526688" lon="2.966402611648065"><ele>4.166666666666666</ele><time>2026-04-10T11:18:11Z</time></trkpt><trkpt lat="43.09831641489172" lon="2.966450460564991"><ele>4.0</ele><time>2026-04-10T11:18:13Z</time></trkpt><trkpt lat="43.09838844008656" lon="2.9664931475554193"><ele>4.0</ele><time>2026-04-10T11:18:15Z</time></trkpt><trkpt lat="43.098464135939764" lon="2.9665312210149692"><ele>3.9999999999999996</ele><time>2026-04-10T11:18:17Z</time></trkpt><trkpt lat="43.098542099294434" lon="2.966552270677088"><ele>4.0</ele><time>2026-04-10T11:18:19Z</time></trkpt><trkpt lat="43.0986201832465" lon="2.966562891863521"><ele>4.0</ele><time>2026-04-10T11:18:21Z</time></trkpt><trkpt lat="43.09869426746461" lon="2.966565721665758"><ele>3.9999999999999996</ele><time>2026-04-10T11:18:23Z</time></trkpt><trkpt lat="43.098762629555885" lon="2.966550969646079"><ele>4.0</ele><time>2026-04-10T11:18:25Z</time></trkpt><trkpt lat="43.09882810957745" lon="2.9665603142163417"><ele>4.0</ele><time>2026-04-10T11:18:27Z</time></trkpt><trkpt lat="43.09890015883775" lon="2.9665571965405264"><ele>3.9999999999999996</ele><time>2026-04-10T11:18:29Z</time></trkpt><trkpt lat="43.09897030021692" lon="2.966564472401642"><ele>4.0</ele><time>2026-04-10T11:18:31Z</time></trkpt><trkpt lat="43.09904357463072" lon="2.966593099747181"><ele>4.0</ele><time>2026-04-10T11:18:33Z</time></trkpt><trkpt lat="43.09911753511142" lon="2.96664292594793"><ele>4.0</ele><time>2026-04-10T11:18:35Z</time></trkpt><trkpt lat="43.09918493440644" lon="2.9666950586873484"><ele>3.9999999999999996</ele><time>2026-04-10T11:18:37Z</time></trkpt><trkpt lat="43.099248964338344" lon="2.96674739890239"><ele>4.0</ele><time>2026-04-10T11:18:39Z</time></trkpt><trkpt lat="43.099315537591885" lon="2.9667921850446985"><ele>3.9999999999999996</ele><time>2026-04-10T11:18:41Z</time></trkpt><trkpt lat="43.09938410515196" lon="2.9668476103286276"><ele>4.0</ele><time>2026-04-10T11:18:43Z</time></trkpt><trkpt lat="43.099451163391464" lon="2.966908582175513"><ele>4.0</ele><time>2026-04-10T11:18:45Z</time></trkpt><trkpt lat="43.09951514859958" lon="2.9669632920473905"><ele>4.0</ele><time>2026-04-10T11:18:47Z</time></trkpt><trkpt lat="43.09957915990224" lon="2.967017692693988"><ele>3.9999999999999996</ele><time>2026-04-10T11:18:49Z</time></trkpt><trkpt lat="43.09964508448406" lon="2.9670770874294483"><ele>4.0</ele><time>2026-04-10T11:18:51Z</time></trkpt><trkpt lat="43.09970767625877" lon="2.967134646085947"><ele>3.9999999999999996</ele><time>2026-04-10T11:18:53.001Z</time></trkpt><trkpt lat="43.099768352812966" lon="2.9672087605172255"><ele>4.0</ele><time>2026-04-10T11:18:55.001Z</time></trkpt><trkpt lat="43.09983992406417" lon="2.967274057850621"><ele>4.0</ele><time>2026-04-10T11:18:57.001Z</time></trkpt><trkpt lat="43.09990271541741" lon="2.9673367197036398"><ele>4.0</ele><time>2026-04-10T11:18:59.001Z</time></trkpt><trkpt lat="43.09995760492451" lon="2.967404724235902"><ele>3.9999999999999996</ele><time>2026-04-10T11:19:01.001Z</time></trkpt><trkpt lat="43.10001388264334" lon="2.9674704085860513"><ele>4.0</ele><time>2026-04-10T11:19:03.001Z</time></trkpt><trkpt lat="43.1000665850826" lon="2.9675331728962324"><ele>3.9999999999999996</ele><time>2026-04-10T11:19:05.001Z</time></trkpt><trkpt lat="43.100105577131096" lon="2.9676168292749776"><ele>4.0</ele><time>2026-04-10T11:19:07.001Z</time></trkpt><trkpt lat="43.10016402616256" lon="2.9677122723488116"><ele>4.0</ele><time>2026-04-10T11:19:09.001Z</time></trkpt><trkpt lat="43.10021065176947" lon="2.9678208186515542"><ele>4.0</ele><time>2026-04-10T11:19:11.001Z</time></trkpt><trkpt lat="43.10025518928789" lon="2.967923462925712"><ele>3.9999999999999996</ele><time>2026-04-10T11:19:13.001Z</time></trkpt><trkpt lat="43.10028896244599" lon="2.9680283783034156"><ele>4.0</ele><time>2026-04-10T11:19:15.001Z</time></trkpt><trkpt lat="43.100328087347805" lon="2.968122882764611"><ele>3.9999999999999996</ele><time>2026-04-10T11:19:17.001Z</time></trkpt><trkpt lat="43.10036421960942" lon="2.968215275396222"><ele>4.0</ele><time>2026-04-10T11:19:19.001Z</time></trkpt><trkpt lat="43.100409052775824" lon="2.9682953597974175"><ele>4.0</ele><time>2026-04-10T11:19:21.001Z</time></trkpt><trkpt lat="43.10046020184996" lon="2.968362234436839"><ele>4.0</ele><time>2026-04-10T11:19:23.001Z</time></trkpt><trkpt lat="43.10052175606461" lon="2.9684309992707973"><ele>3.9999999999999996</ele><time>2026-04-10T11:19:25.001Z</time></trkpt><trkpt lat="43.10060143632045" lon="2.9684884485423266"><ele>4.0</ele><time>2026-04-10T11:19:27Z</time></trkpt><trkpt lat="43.10068293909696" lon="2.9685235807054964"><ele>4.166666666666666</ele><time>2026-04-10T11:19:29Z</time></trkpt><trkpt lat="43.10075710980189" lon="2.968567327091807"><ele>4.333333333333333</ele><time>2026-04-10T11:19:31Z</time></trkpt><trkpt lat="43.10082852304525" lon="2.9686036935009525"><ele>4.5</ele><time>2026-04-10T11:19:33Z</time></trkpt><trkpt lat="43.10089633854126" lon="2.9686347367192134"><ele>4.666666666666667</ele><time>2026-04-10T11:19:35Z</time></trkpt><trkpt lat="43.10097035258532" lon="2.9686749876435985"><ele>4.833333333333334</ele><time>2026-04-10T11:19:37Z</time></trkpt><trkpt lat="43.10104788237429" lon="2.968708692505351"><ele>5.0</ele><time>2026-04-10T11:19:39Z</time></trkpt><trkpt lat="43.10111955957222" lon="2.96874452614176"><ele>5.0</ele><time>2026-04-10T11:19:41Z</time></trkpt><trkpt lat="43.10118741844889" lon="2.968777262002707"><ele>5.0</ele><time>2026-04-10T11:19:43Z</time></trkpt><trkpt lat="43.10125612682531" lon="2.9688125871392574"><ele>5.0</ele><time>2026-04-10T11:19:45Z</time></trkpt><trkpt lat="43.10132625076377" lon="2.9688485347207734"><ele>5.0</ele><time>2026-04-10T11:19:47Z</time></trkpt><trkpt lat="43.10139122921598" lon="2.9688880032821854"><ele>5.0</ele><time>2026-04-10T11:19:49Z</time></trkpt><trkpt lat="43.10145680340254" lon="2.968939135846311"><ele>5.0</ele><time>2026-04-10T11:19:51Z</time></trkpt><trkpt lat="43.101518334594" lon="2.9690069196635256"><ele>5.0</ele><time>2026-04-10T11:19:53Z</time></trkpt><trkpt lat="43.101578638904776" lon="2.969085169856523"><ele>4.571428571428571</ele><time>2026-04-10T11:19:55Z</time></trkpt><trkpt lat="43.101625694506616" lon="2.969161670573323"><ele>4.142857142857143</ele><time>2026-04-10T11:19:57Z</time></trkpt><trkpt lat="43.10166992607354" lon="2.9692395626214543"><ele>3.7142857142857144</ele><time>2026-04-10T11:19:59Z</time></trkpt><trkpt lat="43.101711072443244" lon="2.969312991173813"><ele>3.2857142857142856</ele><time>2026-04-10T11:20:01Z</time></trkpt><trkpt lat="43.10175172175025" lon="2.9693867874155564"><ele>2.8571428571428568</ele><time>2026-04-10T11:20:03Z</time></trkpt><trkpt lat="43.10180275846172" lon="2.9694595398721035"><ele>2.4285714285714284</ele><time>2026-04-10T11:20:05Z</time></trkpt><trkpt lat="43.10185774322889" lon="2.9695460157190223"><ele>2.0</ele><time>2026-04-10T11:20:07Z</time></trkpt><trkpt lat="43.10191346374988" lon="2.969623891752209"><ele>3.333333333333333</ele><time>2026-04-10T11:20:09Z</time></trkpt><trkpt lat="43.101978292180284" lon="2.9696880392287466"><ele>4.666666666666667</ele><time>2026-04-10T11:20:11Z</time></trkpt><trkpt lat="43.10204770689966" lon="2.9697528215452"><ele>6.0</ele><time>2026-04-10T11:20:13Z</time></trkpt><trkpt lat="43.102113320697654" lon="2.9697980581443812"><ele>7.333333333333334</ele><time>2026-04-10T11:20:15Z</time></trkpt><trkpt lat="43.10218815511082" lon="2.9698463677731795"><ele>8.666666666666668</ele><time>2026-04-10T11:20:17Z</time></trkpt><trkpt lat="43.10225414258913" lon="2.969899622382256"><ele>10.0</ele><time>2026-04-10T11:20:19Z</time></trkpt><trkpt lat="43.10231630090862" lon="2.9699571074901963"><ele>10.0</ele><time>2026-04-10T11:20:21Z</time></trkpt><trkpt lat="43.10238058059331" lon="2.9700147597764683"><ele>10.0</ele><time>2026-04-10T11:20:23Z</time></trkpt><trkpt lat="43.10243622078914" lon="2.9700870966118087"><ele>10.0</ele><time>2026-04-10T11:20:25Z</time></trkpt><trkpt lat="43.102494469923435" lon="2.970165784086225"><ele>10.0</ele><time>2026-04-10T11:20:27Z</time></trkpt><trkpt lat="43.102561602757085" lon="2.9702583758829677"><ele>10.0</ele><time>2026-04-10T11:20:29Z</time></trkpt><trkpt lat="43.10263875593673" lon="2.9703717726019896"><ele>10.0</ele><time>2026-04-10T11:20:31Z</time></trkpt><trkpt lat="43.1027088128951" lon="2.9704801591993677"><ele>10.0</ele><time>2026-04-10T11:20:33Z</time></trkpt><trkpt lat="43.10277504666505" lon="2.97057977964759"><ele>10.0</ele><time>2026-04-10T11:20:35Z</time></trkpt><trkpt lat="43.102837400679256" lon="2.970673122089364"><ele>10.0</ele><time>2026-04-10T11:20:37Z</time></trkpt><trkpt lat="43.102896913140334" lon="2.9707589452547265"><ele>10.0</ele><time>2026-04-10T11:20:39Z</time></trkpt><trkpt lat="43.102951104145966" lon="2.9708461793285568"><ele>10.0</ele><time>2026-04-10T11:20:41Z</time></trkpt><trkpt lat="43.10299893185104" lon="2.970943372372517"><ele>10.0</ele><time>2026-04-10T11:20:43Z</time></trkpt><trkpt lat="43.10304977795682" lon="2.971035588785354"><ele>9.833333333333334</ele><time>2026-04-10T11:20:45Z</time></trkpt><trkpt lat="43.103095089230884" lon="2.9711290807117963"><ele>9.666666666666668</ele><time>2026-04-10T11:20:47Z</time></trkpt><trkpt lat="43.103140397238455" lon="2.971217990804635"><ele>9.5</ele><time>2026-04-10T11:20:49Z</time></trkpt><trkpt lat="43.10318376824187" lon="2.971308649487442"><ele>9.333333333333334</ele><time>2026-04-10T11:20:51Z</time></trkpt><trkpt lat="43.10322873930999" lon="2.971399104325819"><ele>9.166666666666666</ele><time>2026-04-10T11:20:53Z</time></trkpt><trkpt lat="43.10327011804212" lon="2.971485647965213"><ele>9.0</ele><time>2026-04-10T11:20:55Z</time></trkpt><trkpt lat="43.103301365537085" lon="2.971574648405779"><ele>7.5</ele><time>2026-04-10T11:20:57Z</time></trkpt><trkpt lat="43.10334936511885" lon="2.971648876002408"><ele>6.0</ele><time>2026-04-10T11:20:59.001Z</time></trkpt><trkpt lat="43.10338415346243" lon="2.971724734318493"><ele>4.5</ele><time>2026-04-10T11:21:01.001Z</time></trkpt><trkpt lat="43.10342049677798" lon="2.971807369219211"><ele>3.0</ele><time>2026-04-10T11:21:03.001Z</time></trkpt><trkpt lat="43.10347106047698" lon="2.971910727726696"><ele>1.5</ele><time>2026-04-10T11:21:05.001Z</time></trkpt><trkpt lat="43.10351937733141" lon="2.9720117451140986"><ele>0.0</ele><time>2026-04-10T11:21:07.001Z</time></trkpt><trkpt lat="43.10356944369243" lon="2.9721189930942997"><ele>0.0</ele><time>2026-04-10T11:21:09.001Z</time></trkpt><trkpt lat="43.10361993517298" lon="2.9722240374994993"><ele>0.0</ele><time>2026-04-10T11:21:11.001Z</time></trkpt><trkpt lat="43.103671132142225" lon="2.9723242673662997"><ele>0.0</ele><time>2026-04-10T11:21:13.001Z</time></trkpt><trkpt lat="43.10371915759608" lon="2.9724286305058807"><ele>0.0</ele><time>2026-04-10T11:21:15.001Z</time></trkpt><trkpt lat="43.10377173073188" lon="2.9725346904689123"><ele>0.0</ele><time>2026-04-10T11:21:17.001Z</time></trkpt><trkpt lat="43.10382455781336" lon="2.972639630515612"><ele>0.0</ele><time>2026-04-10T11:21:19.001Z</time></trkpt><trkpt lat="43.103875582657686" lon="2.972749194969342"><ele>0.0</ele><time>2026-04-10T11:21:21Z</time></trkpt><trkpt lat="43.10392534208469" lon="2.9728431805357527"><ele>0.0</ele><time>2026-04-10T11:21:23Z</time></trkpt><trkpt lat="43.10396219895975" lon="2.9729293960397136"><ele>0.0</ele><time>2026-04-10T11:21:25Z</time></trkpt><trkpt lat="43.10399982128198" lon="2.973003502003843"><ele>0.0</ele><time>2026-04-10T11:21:27Z</time></trkpt><trkpt lat="43.10404262833836" lon="2.973086741427237"><ele>0.0</ele><time>2026-04-10T11:21:29Z</time></trkpt><trkpt lat="43.10408611156941" lon="2.973169729115403"><ele>0.0</ele><time>2026-04-10T11:21:31Z</time></trkpt><trkpt lat="43.10413688798199" lon="2.9732704646608616"><ele>0.0</ele><time>2026-04-10T11:21:34Z</time></trkpt><trkpt lat="43.104171322605765" lon="2.973342971231805"><ele>0.0</ele><time>2026-04-10T11:21:36Z</time></trkpt><trkpt lat="43.104221116252084" lon="2.9734449019898817"><ele>0.0</ele><time>2026-04-10T11:21:39Z</time></trkpt><trkpt lat="43.10425839812498" lon="2.9735216107433984"><ele>0.0</ele><time>2026-04-10T11:21:41Z</time></trkpt><trkpt lat="43.104299478154154" lon="2.9736023022892595"><ele>0.0</ele><time>2026-04-10T11:21:43Z</time></trkpt><trkpt lat="43.10434907149769" lon="2.973699779578072"><ele>0.0</ele><time>2026-04-10T11:21:45Z</time></trkpt><trkpt lat="43.10440429084108" lon="2.973819568179175"><ele>0.0</ele><time>2026-04-10T11:21:47Z</time></trkpt><trkpt lat="43.10446283042444" lon="2.973935920101962"><ele>0.0</ele><time>2026-04-10T11:21:49Z</time></trkpt><trkpt lat="43.104521206383644" lon="2.974056142756483"><ele>0.0</ele><time>2026-04-10T11:21:51Z</time></trkpt><trkpt lat="43.10457339142396" lon="2.974177318909059"><ele>0.0</ele><time>2026-04-10T11:21:53Z</time></trkpt><trkpt lat="43.10463032847233" lon="2.9742887501582014"><ele>0.0</ele><time>2026-04-10T11:21:55Z</time></trkpt><trkpt lat="43.10468453249462" lon="2.974399668894394"><ele>0.0</ele><time>2026-04-10T11:21:57Z</time></trkpt><trkpt lat="43.10474058610902" lon="2.9745091699345085"><ele>0.0</ele><time>2026-04-10T11:21:59Z</time></trkpt><trkpt lat="43.104789415674844" lon="2.974615506302501"><ele>0.0</ele><time>2026-04-10T11:22:01Z</time></trkpt><trkpt lat="43.10484507507082" lon="2.974721932361142"><ele>0.0</ele><time>2026-04-10T11:22:03Z</time></trkpt><trkpt lat="43.104891410357794" lon="2.9748297805533244"><ele>0.0</ele><time>2026-04-10T11:22:05Z</time></trkpt><trkpt lat="43.10493972567541" lon="2.9749341512894514"><ele>0.0</ele><time>2026-04-10T11:22:07Z</time></trkpt><trkpt lat="43.10499505392723" lon="2.97504148085605"><ele>0.0</ele><time>2026-04-10T11:22:09Z</time></trkpt><trkpt lat="43.10504334850048" lon="2.9751443973998506"><ele>0.0</ele><time>2026-04-10T11:22:11Z</time></trkpt><trkpt lat="43.10509316084512" lon="2.975237020619585"><ele>0.0</ele><time>2026-04-10T11:22:13Z</time></trkpt><trkpt lat="43.10513846558537" lon="2.9753252156361256"><ele>0.0</ele><time>2026-04-10T11:22:15Z</time></trkpt><trkpt lat="43.10519404462411" lon="2.9754178412565344"><ele>0.0</ele><time>2026-04-10T11:22:17Z</time></trkpt><trkpt lat="43.105244297657386" lon="2.9754999638398925"><ele>0.0</ele><time>2026-04-10T11:22:19Z</time></trkpt><trkpt lat="43.10529479666899" lon="2.9755727290214407"><ele>0.0</ele><time>2026-04-10T11:22:21Z</time></trkpt><trkpt lat="43.10534805326772" lon="2.975657361133958"><ele>0.0</ele><time>2026-04-10T11:22:23Z</time></trkpt><trkpt lat="43.10540492188437" lon="2.9757318087312323"><ele>0.0</ele><time>2026-04-10T11:22:25Z</time></trkpt><trkpt lat="43.105462744136005" lon="2.97579445757833"><ele>0.0</ele><time>2026-04-10T11:22:27Z</time></trkpt><trkpt lat="43.10552963882458" lon="2.975853514592868"><ele>0.0</ele><time>2026-04-10T11:22:29Z</time></trkpt><trkpt lat="43.10559862542602" lon="2.9758961971110502"><ele>0.0</ele><time>2026-04-10T11:22:31Z</time></trkpt><trkpt lat="43.10566962065504" lon="2.9759380705417633"><ele>0.0</ele><time>2026-04-10T11:22:33Z</time></trkpt><trkpt lat="43.10574498566729" lon="2.975976685718679"><ele>0.0</ele><time>2026-04-10T11:22:35Z</time></trkpt><trkpt lat="43.10581962935568" lon="2.976005178545487"><ele>0.0</ele><time>2026-04-10T11:22:36.999Z</time></trkpt><trkpt lat="43.1058979822132" lon="2.9760415217782943"><ele>0.0</ele><time>2026-04-10T11:22:38.999Z</time></trkpt><trkpt lat="43.105971711253176" lon="2.9760645865873787"><ele>0.0</ele><time>2026-04-10T11:22:40.999Z</time></trkpt><trkpt lat="43.10604778049704" lon="2.976101428612882"><ele>0.0</ele><time>2026-04-10T11:22:42.999Z</time></trkpt><trkpt lat="43.1061308839666" lon="2.9761381212600932"><ele>0.0</ele><time>2026-04-10T11:22:44.999Z</time></trkpt><trkpt lat="43.10621401287557" lon="2.9761747932287332"><ele>0.0</ele><time>2026-04-10T11:22:46.999Z</time></trkpt><trkpt lat="43.106300146856384" lon="2.976216892309646"><ele>0.0</ele><time>2026-04-10T11:22:48.999Z</time></trkpt><trkpt lat="43.10637749341194" lon="2.97624553311768"><ele>0.0</ele><time>2026-04-10T11:22:50.999Z</time></trkpt><trkpt lat="43.10644628595328" lon="2.9762815762559747"><ele>0.0</ele><time>2026-04-10T11:22:52.999Z</time></trkpt><trkpt lat="43.106506618833116" lon="2.9763175010774976"><ele>0.0</ele><time>2026-04-10T11:22:54.999Z</time></trkpt><trkpt lat="43.10656038540444" lon="2.9763679145449897"><ele>0.0</ele><time>2026-04-10T11:22:56.999Z</time></trkpt><trkpt lat="43.106617917688496" lon="2.9764077196804224"><ele>0.0</ele><time>2026-04-10T11:22:58.999Z</time></trkpt><trkpt lat="43.10668675054544" lon="2.9764944129937456"><ele>0.0</ele><time>2026-04-10T11:23:01.999Z</time></trkpt><trkpt lat="43.1067358562115" lon="2.9765580606440443"><ele>0.0</ele><time>2026-04-10T11:23:04.001Z</time></trkpt><trkpt lat="43.10678434259402" lon="2.976626365802932"><ele>0.0</ele><time>2026-04-10T11:23:06.001Z</time></trkpt><trkpt lat="43.10683717463752" lon="2.9766979885642924"><ele>0.0</ele><time>2026-04-10T11:23:08.001Z</time></trkpt><trkpt lat="43.10688679631335" lon="2.976768297111432"><ele>0.0</ele><time>2026-04-10T11:23:10.001Z</time></trkpt><trkpt lat="43.106934550780615" lon="2.976830376946312"><ele>0.0</ele><time>2026-04-10T11:23:12Z</time></trkpt><trkpt lat="43.10700190414741" lon="2.9769175717097927"><ele>0.0</ele><time>2026-04-10T11:23:15Z</time></trkpt><trkpt lat="43.10705854794012" lon="2.9770043930474945"><ele>0.0</ele><time>2026-04-10T11:23:18Z</time></trkpt><trkpt lat="43.10712869980691" lon="2.9770907743184902"><ele>0.0</ele><time>2026-04-10T11:23:21Z</time></trkpt><trkpt lat="43.10717489809093" lon="2.977165509413423"><ele>0.0</ele><time>2026-04-10T11:23:23Z</time></trkpt><trkpt lat="43.107230121030824" lon="2.9772345236050137"><ele>0.0</ele><time>2026-04-10T11:23:25Z</time></trkpt><trkpt lat="43.10728262630152" lon="2.9773088265350736"><ele>0.0</ele><time>2026-04-10T11:23:27Z</time></trkpt><trkpt lat="43.10733602650308" lon="2.9773837590764707"><ele>0.0</ele><time>2026-04-10T11:23:29Z</time></trkpt><trkpt lat="43.10738553803259" lon="2.9774567212373473"><ele>0.0</ele><time>2026-04-10T11:23:31Z</time></trkpt><trkpt lat="43.10743787755245" lon="2.9775309892240474"><ele>0.0</ele><time>2026-04-10T11:23:33Z</time></trkpt><trkpt lat="43.10749521929958" lon="2.977605569048191"><ele>0.0</ele><time>2026-04-10T11:23:35Z</time></trkpt><trkpt lat="43.10755068510761" lon="2.9776745495375723"><ele>0.0</ele><time>2026-04-10T11:23:37Z</time></trkpt><trkpt lat="43.10760309129008" lon="2.9777531361488228"><ele>0.0</ele><time>2026-04-10T11:23:39Z</time></trkpt><trkpt lat="43.107658476854276" lon="2.977823915032028"><ele>0.0</ele><time>2026-04-10T11:23:41Z</time></trkpt><trkpt lat="43.10772553544493" lon="2.9779293254985353"><ele>0.0</ele><time>2026-04-10T11:23:43Z</time></trkpt><trkpt lat="43.107793770620944" lon="2.9780215581047225"><ele>0.0</ele><time>2026-04-10T11:23:45Z</time></trkpt><trkpt lat="43.10785673969839" lon="2.9781062715882918"><ele>0.0</ele><time>2026-04-10T11:23:47Z</time></trkpt><trkpt lat="43.107916426392855" lon="2.978192635759111"><ele>0.0</ele><time>2026-04-10T11:23:49Z</time></trkpt><trkpt lat="43.10797113840331" lon="2.97827664552107"><ele>0.0</ele><time>2026-04-10T11:23:51Z</time></trkpt><trkpt lat="43.10802861861535" lon="2.9783494443895857"><ele>0.0</ele><time>2026-04-10T11:23:53Z</time></trkpt><trkpt lat="43.10808028273638" lon="2.9784220826961616"><ele>0.0</ele><time>2026-04-10T11:23:55Z</time></trkpt><trkpt lat="43.108128921421006" lon="2.9784967333200068"><ele>0.0</ele><time>2026-04-10T11:23:57Z</time></trkpt><trkpt lat="43.10818474065359" lon="2.9785744495172586"><ele>0.0</ele><time>2026-04-10T11:23:59Z</time></trkpt><trkpt lat="43.10823684727707" lon="2.9786483122328753"><ele>0.0</ele><time>2026-04-10T11:24:01Z</time></trkpt><trkpt lat="43.108291833099955" lon="2.9787247479274637"><ele>0.0</ele><time>2026-04-10T11:24:03Z</time></trkpt><trkpt lat="43.10834456470424" lon="2.978796095661062"><ele>0.0</ele><time>2026-04-10T11:24:05Z</time></trkpt><trkpt lat="43.10839818049688" lon="2.97886916300683"><ele>0.0</ele><time>2026-04-10T11:24:07Z</time></trkpt><trkpt lat="43.108457371475595" lon="2.978931257954504"><ele>0.0</ele><time>2026-04-10T11:24:09Z</time></trkpt><trkpt lat="43.10850713196619" lon="2.9789896148620283"><ele>0.0</ele><time>2026-04-10T11:24:11Z</time></trkpt><trkpt lat="43.10856998221004" lon="2.9790719462528554"><ele>0.0</ele><time>2026-04-10T11:24:14Z</time></trkpt><trkpt lat="43.10861341193852" lon="2.979136382202931"><ele>0.0</ele><time>2026-04-10T11:24:16Z</time></trkpt><trkpt lat="43.10866085100228" lon="2.979211407328245"><ele>0.0</ele><time>2026-04-10T11:24:18Z</time></trkpt><trkpt lat="43.10871210157412" lon="2.9792795039764712"><ele>0.0</ele><time>2026-04-10T11:24:19.999Z</time></trkpt><trkpt lat="43.10875739549058" lon="2.979340427070271"><ele>0.0</ele><time>2026-04-10T11:24:21.999Z</time></trkpt><trkpt lat="43.108806225055645" lon="2.9794074658528573"><ele>0.0</ele><time>2026-04-10T11:24:23.999Z</time></trkpt><trkpt lat="43.10885371697177" lon="2.979476646611498"><ele>0.0</ele><time>2026-04-10T11:24:25.999Z</time></trkpt><trkpt lat="43.108900172742814" lon="2.9795511084286757"><ele>0.0</ele><time>2026-04-10T11:24:27.999Z</time></trkpt><trkpt lat="43.1089564571836" lon="2.9796252718326235"><ele>0.0</ele><time>2026-04-10T11:24:29.999Z</time></trkpt><trkpt lat="43.10900512038139" lon="2.9796966280928903"><ele>0.0</ele><time>2026-04-10T11:24:31.999Z</time></trkpt><trkpt lat="43.1090617699588" lon="2.9797788097253153"><ele>0.0</ele><time>2026-04-10T11:24:33.999Z</time></trkpt><trkpt lat="43.109116852378925" lon="2.979852818993472"><ele>0.0</ele><time>2026-04-10T11:24:35.999Z</time></trkpt><trkpt lat="43.109171474958636" lon="2.9799138860570533"><ele>0.0</ele><time>2026-04-10T11:24:37.999Z</time></trkpt><trkpt lat="43.10921464803078" lon="2.9800012015981077"><ele>0.0</ele><time>2026-04-10T11:24:39.999Z</time></trkpt><trkpt lat="43.10927325859798" lon="2.9800760811630465"><ele>0.0</ele><time>2026-04-10T11:24:41.999Z</time></trkpt><trkpt lat="43.10933575780919" lon="2.9801659642035085"><ele>0.0</ele><time>2026-04-10T11:24:43.999Z</time></trkpt><trkpt lat="43.10939637739655" lon="2.980246833499511"><ele>0.0</ele><time>2026-04-10T11:24:45.999Z</time></trkpt><trkpt lat="43.10945920132582" lon="2.980327808684254"><ele>0.0</ele><time>2026-04-10T11:24:47.999Z</time></trkpt><trkpt lat="43.109517779591265" lon="2.980408493046124"><ele>0.0</ele><time>2026-04-10T11:24:49.999Z</time></trkpt><trkpt lat="43.10956515474665" lon="2.9804897442834593"><ele>0.0</ele><time>2026-04-10T11:24:51.999Z</time></trkpt><trkpt lat="43.10962507387868" lon="2.980568419048123"><ele>0.0</ele><time>2026-04-10T11:24:53.999Z</time></trkpt><trkpt lat="43.10967974022886" lon="2.9806468503063823"><ele>0.0</ele><time>2026-04-10T11:24:55.999Z</time></trkpt><trkpt lat="43.10973713097134" lon="2.980728389722624"><ele>0.0</ele><time>2026-04-10T11:24:57.999Z</time></trkpt><trkpt lat="43.10979696640301" lon="2.980803240650243"><ele>0.0</ele><time>2026-04-10T11:24:59.999Z</time></trkpt><trkpt lat="43.1098488688095" lon="2.980874913445886"><ele>0.0</ele><time>2026-04-10T11:25:01.999Z</time></trkpt><trkpt lat="43.10990693134472" lon="2.9809549661372894"><ele>0.16666666666666666</ele><time>2026-04-10T11:25:03.999Z</time></trkpt><trkpt lat="43.10996395660704" lon="2.981031362653534"><ele>0.3333333333333333</ele><time>2026-04-10T11:25:05.999Z</time></trkpt><trkpt lat="43.110015838409446" lon="2.981102720363131"><ele>0.5</ele><time>2026-04-10T11:25:07.999Z</time></trkpt><trkpt lat="43.11007533055103" lon="2.981180736038431"><ele>0.6666666666666666</ele><time>2026-04-10T11:25:10Z</time></trkpt><trkpt lat="43.11012843546978" lon="2.9812644223207276"><ele>0.8333333333333333</ele><time>2026-04-10T11:25:12Z</time></trkpt><trkpt lat="43.110184718942506" lon="2.9813379999113008"><ele>1.0</ele><time>2026-04-10T11:25:14Z</time></trkpt><trkpt lat="43.110237107928086" lon="2.9814128242507927"><ele>0.9999999999999999</ele><time>2026-04-10T11:25:16Z</time></trkpt><trkpt lat="43.110304526841816" lon="2.9815000158461795"><ele>1.0</ele><time>2026-04-10T11:25:18Z</time></trkpt><trkpt lat="43.11035625616341" lon="2.9815909925889468"><ele>1.0</ele><time>2026-04-10T11:25:20Z</time></trkpt><trkpt lat="43.11041610345418" lon="2.9816706362425767"><ele>1.0</ele><time>2026-04-10T11:25:22Z</time></trkpt><trkpt lat="43.11046820900786" lon="2.9817510642965073"><ele>0.9999999999999999</ele><time>2026-04-10T11:25:24Z</time></trkpt><trkpt lat="43.11052237191034" lon="2.9818247720097246"><ele>1.0</ele><time>2026-04-10T11:25:26Z</time></trkpt><trkpt lat="43.110583289043205" lon="2.9819099260224142"><ele>0.9999999999999999</ele><time>2026-04-10T11:25:28Z</time></trkpt><trkpt lat="43.11064621147517" lon="2.9819974707552577"><ele>1.0</ele><time>2026-04-10T11:25:30Z</time></trkpt><trkpt lat="43.11070161058726" lon="2.98207667835412"><ele>1.0</ele><time>2026-04-10T11:25:32Z</time></trkpt><trkpt lat="43.11076079972599" lon="2.982151067943779"><ele>1.0</ele><time>2026-04-10T11:25:34Z</time></trkpt><trkpt lat="43.11082255142278" lon="2.9822357116247895"><ele>0.9999999999999999</ele><time>2026-04-10T11:25:36Z</time></trkpt><trkpt lat="43.11088512260279" lon="2.9823067539918453"><ele>1.0</ele><time>2026-04-10T11:25:38Z</time></trkpt><trkpt lat="43.11095103582964" lon="2.9823761675241656"><ele>0.9999999999999999</ele><time>2026-04-10T11:25:40Z</time></trkpt><trkpt lat="43.11102292154959" lon="2.9824388180596957"><ele>1.0</ele><time>2026-04-10T11:25:42Z</time></trkpt><trkpt lat="43.11109063682033" lon="2.9825133358388056"><ele>1.0</ele><time>2026-04-10T11:25:44Z</time></trkpt><trkpt lat="43.11116720614301" lon="2.9825767974677975"><ele>1.0</ele><time>2026-04-10T11:25:46Z</time></trkpt><trkpt lat="43.11123912901006" lon="2.9826390245380803"><ele>0.9999999999999999</ele><time>2026-04-10T11:25:48Z</time></trkpt><trkpt lat="43.111307612800594" lon="2.9826968200292066"><ele>1.0</ele><time>2026-04-10T11:25:50Z</time></trkpt><trkpt lat="43.111377365449826" lon="2.9827756799188063"><ele>0.9999999999999999</ele><time>2026-04-10T11:25:52Z</time></trkpt><trkpt lat="43.11145431686674" lon="2.9828395364577247"><ele>1.0</ele><time>2026-04-10T11:25:54Z</time></trkpt><trkpt lat="43.11152354203977" lon="2.9829046892363342"><ele>1.0</ele><time>2026-04-10T11:25:56Z</time></trkpt><trkpt lat="43.11159084528503" lon="2.9829696386094744"><ele>1.0</ele><time>2026-04-10T11:25:58Z</time></trkpt><trkpt lat="43.111665819851865" lon="2.9830383831621825"><ele>0.9999999999999999</ele><time>2026-04-10T11:26:00Z</time></trkpt><trkpt lat="43.11174037169362" lon="2.983102437481676"><ele>1.0</ele><time>2026-04-10T11:26:02Z</time></trkpt><trkpt lat="43.111812017957526" lon="2.9831655865258466"><ele>1.1666666666666665</ele><time>2026-04-10T11:26:04Z</time></trkpt><trkpt lat="43.11188098671902" lon="2.9832278004569717"><ele>1.3333333333333333</ele><time>2026-04-10T11:26:06Z</time></trkpt><trkpt lat="43.11194003776864" lon="2.9832957908851387"><ele>1.5</ele><time>2026-04-10T11:26:08Z</time></trkpt><trkpt lat="43.11200473713555" lon="2.983364268865736"><ele>1.6666666666666665</ele><time>2026-04-10T11:26:10Z</time></trkpt><trkpt lat="43.112076124929" lon="2.983417275232286"><ele>1.8333333333333333</ele><time>2026-04-10T11:26:12Z</time></trkpt><trkpt lat="43.11213826423642" lon="2.983484082113091"><ele>2.0</ele><time>2026-04-10T11:26:14Z</time></trkpt><trkpt lat="43.1122109525788" lon="2.9835408875755474"><ele>2.1666666666666665</ele><time>2026-04-10T11:26:15.999Z</time></trkpt><trkpt lat="43.11228580250398" lon="2.9836123725874577"><ele>2.333333333333333</ele><time>2026-04-10T11:26:17.999Z</time></trkpt><trkpt lat="43.11235639701512" lon="2.9836777371918646"><ele>2.5</ele><time>2026-04-10T11:26:19.999Z</time></trkpt><trkpt lat="43.11242542592053" lon="2.983737092720358"><ele>2.6666666666666665</ele><time>2026-04-10T11:26:21.999Z</time></trkpt><trkpt lat="43.11249609014864" lon="2.983783379422362"><ele>2.8333333333333335</ele><time>2026-04-10T11:26:23.999Z</time></trkpt><trkpt lat="43.112562338421014" lon="2.9838305566350027"><ele>3.0</ele><time>2026-04-10T11:26:25.999Z</time></trkpt><trkpt lat="43.11263441344489" lon="2.9838701612927134"><ele>3.5</ele><time>2026-04-10T11:26:27.999Z</time></trkpt><trkpt lat="43.112704228637014" lon="2.983902879758292"><ele>4.0</ele><time>2026-04-10T11:26:29.999Z</time></trkpt><trkpt lat="43.112762713812224" lon="2.9839359612742427"><ele>4.5</ele><time>2026-04-10T11:26:31.999Z</time></trkpt><trkpt lat="43.11285860304224" lon="2.983966760573069"><ele>5.0</ele><time>2026-04-10T11:26:34.999Z</time></trkpt><trkpt lat="43.11294141307771" lon="2.9839924758843392"><ele>5.5</ele><time>2026-04-10T11:26:36.999Z</time></trkpt><trkpt lat="43.113006793303384" lon="2.9840296664872183"><ele>6.0</ele><time>2026-04-10T11:26:38.999Z</time></trkpt><trkpt lat="43.113074068748084" lon="2.9840528147495737"><ele>5.999999999999999</ele><time>2026-04-10T11:26:40.999Z</time></trkpt><trkpt lat="43.11314432684913" lon="2.984075382073403"><ele>6.0</ele><time>2026-04-10T11:26:42.999Z</time></trkpt><trkpt lat="43.11320913986389" lon="2.984106018754924"><ele>6.0</ele><time>2026-04-10T11:26:44.999Z</time></trkpt><trkpt lat="43.11327923418311" lon="2.984129963248632"><ele>6.0</ele><time>2026-04-10T11:26:46.999Z</time></trkpt><trkpt lat="43.11334428083688" lon="2.98415758430932"><ele>6.0</ele><time>2026-04-10T11:26:48.999Z</time></trkpt><trkpt lat="43.11340825868724" lon="2.984174833030369"><ele>5.999999999999999</ele><time>2026-04-10T11:26:50.999Z</time></trkpt><trkpt lat="43.11348217609348" lon="2.984217509320901"><ele>6.0</ele><time>2026-04-10T11:26:53.999Z</time></trkpt><trkpt lat="43.113554328544105" lon="2.9842540884584907"><ele>6.333333333333333</ele><time>2026-04-10T11:26:56.999Z</time></trkpt><trkpt lat="43.113612434070966" lon="2.9843087274530005"><ele>6.666666666666666</ele><time>2026-04-10T11:26:58.999Z</time></trkpt><trkpt lat="43.11367936178751" lon="2.9843674992897173"><ele>7.0</ele><time>2026-04-10T11:27:00.999Z</time></trkpt><trkpt lat="43.11375055133998" lon="2.9844340377515204"><ele>7.333333333333333</ele><time>2026-04-10T11:27:02.999Z</time></trkpt><trkpt lat="43.11382750400079" lon="2.9844998469490545"><ele>7.666666666666666</ele><time>2026-04-10T11:27:04.999Z</time></trkpt><trkpt lat="43.11390361440997" lon="2.9845780860487277"><ele>8.0</ele><time>2026-04-10T11:27:06.999Z</time></trkpt><trkpt lat="43.114034062757874" lon="2.9847022936353986"><ele>7.4</ele><time>2026-04-10T11:27:09.999Z</time></trkpt><trkpt lat="43.11412876066199" lon="2.984781978284948"><ele>6.800000000000001</ele><time>2026-04-10T11:27:11.999Z</time></trkpt><trkpt lat="43.11422272163601" lon="2.984875650901005"><ele>6.2</ele><time>2026-04-10T11:27:13.999Z</time></trkpt><trkpt lat="43.114275750649796" lon="2.984924355314261"><ele>5.6</ele><time>2026-04-10T11:27:14.999Z</time></trkpt><trkpt lat="43.11436497662369" lon="2.985007725174155"><ele>5.0</ele><time>2026-04-10T11:27:17Z</time></trkpt><trkpt lat="43.11445109583507" lon="2.9850843969148824"><ele>4.75</ele><time>2026-04-10T11:27:19Z</time></trkpt><trkpt lat="43.114548748927064" lon="2.985169559622772"><ele>4.5</ele><time>2026-04-10T11:27:21Z</time></trkpt><trkpt lat="43.114642271771736" lon="2.985261870413408"><ele>4.25</ele><time>2026-04-10T11:27:23Z</time></trkpt><trkpt lat="43.11473157967864" lon="2.9853691531319804"><ele>4.0</ele><time>2026-04-10T11:27:25Z</time></trkpt><trkpt lat="43.11483642550901" lon="2.985464865671263"><ele>4.0</ele><time>2026-04-10T11:27:27Z</time></trkpt><trkpt lat="43.11489027765638" lon="2.9855117653756693"><ele>3.9999999999999996</ele><time>2026-04-10T11:27:28Z</time></trkpt><trkpt lat="43.11495326108606" lon="2.985536276308455"><ele>4.0</ele><time>2026-04-10T11:27:29Z</time></trkpt><trkpt lat="43.11500825310586" lon="2.985583150332134"><ele>4.0</ele><time>2026-04-10T11:27:30Z</time></trkpt><trkpt lat="43.11506385975919" lon="2.985629130663362"><ele>3.9999999999999996</ele><time>2026-04-10T11:27:31Z</time></trkpt><trkpt lat="43.115109513880405" lon="2.9856963329937676"><ele>4.0</ele><time>2026-04-10T11:27:32Z</time></trkpt><trkpt lat="43.115164878645025" lon="2.9857401097699015"><ele>4.0</ele><time>2026-04-10T11:27:33Z</time></trkpt><trkpt lat="43.115223168625114" lon="2.985784775656436"><ele>3.714285714285714</ele><time>2026-04-10T11:27:34Z</time></trkpt><trkpt lat="43.115280552830924" lon="2.985827614770464"><ele>3.428571428571428</ele><time>2026-04-10T11:27:35Z</time></trkpt><trkpt lat="43.1153505309966" lon="2.9858426650947623"><ele>3.142857142857143</ele><time>2026-04-10T11:27:36Z</time></trkpt><trkpt lat="43.115404767765476" lon="2.985889778086611"><ele>2.8571428571428568</ele><time>2026-04-10T11:27:37Z</time></trkpt><trkpt lat="43.115461321316815" lon="2.9859362916496788"><ele>2.571428571428571</ele><time>2026-04-10T11:27:38Z</time></trkpt><trkpt lat="43.115507798971436" lon="2.9859972610817618"><ele>2.2857142857142856</ele><time>2026-04-10T11:27:39Z</time></trkpt><trkpt lat="43.11556397615243" lon="2.9860391990971453"><ele>2.0</ele><time>2026-04-10T11:27:40Z</time></trkpt><trkpt lat="43.11567156039477" lon="2.986119514062027"><ele>2.0</ele><time>2026-04-10T11:27:42Z</time></trkpt><trkpt lat="43.115773661117046" lon="2.9861957354478923"><ele>2.0</ele><time>2026-04-10T11:27:44Z</time></trkpt><trkpt lat="43.115872433015596" lon="2.986272427662026"><ele>2.0</ele><time>2026-04-10T11:27:46Z</time></trkpt><trkpt lat="43.115968035986455" lon="2.986352786805821"><ele>2.0</ele><time>2026-04-10T11:27:48Z</time></trkpt><trkpt lat="43.11606484879306" lon="2.986418379558769"><ele>2.0</ele><time>2026-04-10T11:27:50Z</time></trkpt><trkpt lat="43.11615337758327" lon="2.9864958140573594"><ele>2.0</ele><time>2026-04-10T11:27:52Z</time></trkpt><trkpt lat="43.116241157751745" lon="2.9865819470897987"><ele>2.0</ele><time>2026-04-10T11:27:54Z</time></trkpt><trkpt lat="43.116330321092356" lon="2.9866689635738473"><ele>2.0</ele><time>2026-04-10T11:27:56Z</time></trkpt><trkpt lat="43.11641850895027" lon="2.986744297471605"><ele>2.0</ele><time>2026-04-10T11:27:58Z</time></trkpt><trkpt lat="43.11650457493233" lon="2.986828885806123"><ele>1.6</ele><time>2026-04-10T11:28:00Z</time></trkpt><trkpt lat="43.1165905015731" lon="2.986906253565337"><ele>1.2000000000000002</ele><time>2026-04-10T11:28:02Z</time></trkpt><trkpt lat="43.11668438695519" lon="2.9869772976475497"><ele>0.8</ele><time>2026-04-10T11:28:04Z</time></trkpt><trkpt lat="43.116773485173276" lon="2.9870474550321098"><ele>0.4</ele><time>2026-04-10T11:28:06Z</time></trkpt><trkpt lat="43.11685730356327" lon="2.987124527145926"><ele>0.0</ele><time>2026-04-10T11:28:08Z</time></trkpt><trkpt lat="43.116948054977385" lon="2.9871843988766043"><ele>0.0</ele><time>2026-04-10T11:28:10Z</time></trkpt><trkpt lat="43.11703098360829" lon="2.9872499553127865"><ele>0.0</ele><time>2026-04-10T11:28:11.999Z</time></trkpt><trkpt lat="43.11711461220492" lon="2.987299953086895"><ele>0.0</ele><time>2026-04-10T11:28:13.999Z</time></trkpt><trkpt lat="43.1171976837115" lon="2.987353752335632"><ele>0.0</ele><time>2026-04-10T11:28:15.999Z</time></trkpt><trkpt lat="43.11728973966682" lon="2.987403820445754"><ele>0.0</ele><time>2026-04-10T11:28:17.999Z</time></trkpt><trkpt lat="43.117379166059635" lon="2.9874583588667227"><ele>0.0</ele><time>2026-04-10T11:28:19.999Z</time></trkpt><trkpt lat="43.117471294584924" lon="2.9875047629496"><ele>0.0</ele><time>2026-04-10T11:28:21.999Z</time></trkpt><trkpt lat="43.11756311499752" lon="2.9875504297077797"><ele>0.0</ele><time>2026-04-10T11:28:23.999Z</time></trkpt><trkpt lat="43.11765244212827" lon="2.9875955891016384"><ele>0.0</ele><time>2026-04-10T11:28:25.999Z</time></trkpt><trkpt lat="43.11773975155803" lon="2.9876470756682045"><ele>0.0</ele><time>2026-04-10T11:28:27.999Z</time></trkpt><trkpt lat="43.11782378690854" lon="2.9876985379426686"><ele>0.0</ele><time>2026-04-10T11:28:29.999Z</time></trkpt><trkpt lat="43.11789882515584" lon="2.987762872386411"><ele>0.0</ele><time>2026-04-10T11:28:31.999Z</time></trkpt><trkpt lat="43.11797452523842" lon="2.9878155345090267"><ele>0.0</ele><time>2026-04-10T11:28:33.999Z</time></trkpt><trkpt lat="43.11805417269119" lon="2.9878649751170725"><ele>0.0</ele><time>2026-04-10T11:28:35.999Z</time></trkpt><trkpt lat="43.11812026178975" lon="2.987940285050029"><ele>0.0</ele><time>2026-04-10T11:28:37.999Z</time></trkpt><trkpt lat="43.1181890691262" lon="2.9880017653037916"><ele>0.0</ele><time>2026-04-10T11:28:39.999Z</time></trkpt><trkpt lat="43.118252889395514" lon="2.9880721595067983"><ele>0.0</ele><time>2026-04-10T11:28:41.999Z</time></trkpt><trkpt lat="43.118317080017256" lon="2.988135051628815"><ele>0.0</ele><time>2026-04-10T11:28:43.999Z</time></trkpt><trkpt lat="43.11836897178313" lon="2.988211923599659"><ele>0.0</ele><time>2026-04-10T11:28:45.999Z</time></trkpt><trkpt lat="43.118420995879895" lon="2.9882837177601664"><ele>0.0</ele><time>2026-04-10T11:28:47.999Z</time></trkpt><trkpt lat="43.11846828827051" lon="2.988371916854835"><ele>0.0</ele><time>2026-04-10T11:28:49.999Z</time></trkpt><trkpt lat="43.118511812778124" lon="2.988468868198889"><ele>0.0</ele><time>2026-04-10T11:28:51.999Z</time></trkpt><trkpt lat="43.11855200962172" lon="2.9885652222083934"><ele>0.0</ele><time>2026-04-10T11:28:53.999Z</time></trkpt><trkpt lat="43.118597242311935" lon="2.9886511862654763"><ele>0.0</ele><time>2026-04-10T11:28:55.999Z</time></trkpt><trkpt lat="43.118644440164566" lon="2.9887461075629966"><ele>0.0</ele><time>2026-04-10T11:28:57.999Z</time></trkpt><trkpt lat="43.11870600061952" lon="2.9888288946017845"><ele>0.0</ele><time>2026-04-10T11:28:59.999Z</time></trkpt><trkpt lat="43.11877885778081" lon="2.988873226135468"><ele>0.0</ele><time>2026-04-10T11:29:01.999Z</time></trkpt><trkpt lat="43.11885796150604" lon="2.988906819995102"><ele>0.0</ele><time>2026-04-10T11:29:03.999Z</time></trkpt><trkpt lat="43.11893595824176" lon="2.988950066811582"><ele>0.0</ele><time>2026-04-10T11:29:05.999Z</time></trkpt><trkpt lat="43.11901545350936" lon="2.988974933249777"><ele>0.0</ele><time>2026-04-10T11:29:07.999Z</time></trkpt><trkpt lat="43.11908523282747" lon="2.9889995750982434"><ele>0.0</ele><time>2026-04-10T11:29:09.999Z</time></trkpt><trkpt lat="43.11916155609165" lon="2.989014820235705"><ele>0.0</ele><time>2026-04-10T11:29:11.999Z</time></trkpt><trkpt lat="43.11924141459537" lon="2.9890191830953565"><ele>0.0</ele><time>2026-04-10T11:29:13.999Z</time></trkpt><trkpt lat="43.11933627398535" lon="2.989032022861799"><ele>0.0</ele><time>2026-04-10T11:29:15.999Z</time></trkpt><trkpt lat="43.11942965534574" lon="2.9890435794788663"><ele>0.0</ele><time>2026-04-10T11:29:17.999Z</time></trkpt><trkpt lat="43.11951749780898" lon="2.9890656124827135"><ele>0.0</ele><time>2026-04-10T11:29:19.999Z</time></trkpt><trkpt lat="43.11960402413819" lon="2.9890863208139113"><ele>0.0</ele><time>2026-04-10T11:29:22Z</time></trkpt><trkpt lat="43.11972400315979" lon="2.9891602231871333"><ele>0.0</ele><time>2026-04-10T11:29:25Z</time></trkpt><trkpt lat="43.11978922209386" lon="2.9892183490560393"><ele>0.0</ele><time>2026-04-10T11:29:27Z</time></trkpt><trkpt lat="43.11985467756217" lon="2.989268627163862"><ele>0.14285714285714285</ele><time>2026-04-10T11:29:29Z</time></trkpt><trkpt lat="43.11991775857631" lon="2.9893294689732417"><ele>0.2857142857142857</ele><time>2026-04-10T11:29:31Z</time></trkpt><trkpt lat="43.11997933374332" lon="2.9893804721398474"><ele>0.42857142857142855</ele><time>2026-04-10T11:29:33Z</time></trkpt><trkpt lat="43.1200352544799" lon="2.989440100708937"><ele>0.5714285714285714</ele><time>2026-04-10T11:29:35Z</time></trkpt><trkpt lat="43.120095175414654" lon="2.989491090842603"><ele>0.7142857142857142</ele><time>2026-04-10T11:29:37Z</time></trkpt><trkpt lat="43.12015689695009" lon="2.9895473076743517"><ele>0.8571428571428571</ele><time>2026-04-10T11:29:39Z</time></trkpt><trkpt lat="43.12022391455645" lon="2.989598774743711"><ele>1.0</ele><time>2026-04-10T11:29:41Z</time></trkpt><trkpt lat="43.12029037779108" lon="2.989661564160906"><ele>0.9999999999999999</ele><time>2026-04-10T11:29:43Z</time></trkpt><trkpt lat="43.12035992320457" lon="2.9897148846329062"><ele>1.0</ele><time>2026-04-10T11:29:45Z</time></trkpt><trkpt lat="43.120422217787095" lon="2.989770990368646"><ele>1.0</ele><time>2026-04-10T11:29:47Z</time></trkpt><trkpt lat="43.12048614128212" lon="2.989824274428553"><ele>1.0</ele><time>2026-04-10T11:29:49Z</time></trkpt><trkpt lat="43.12055890829867" lon="2.989883171594555"><ele>0.9999999999999999</ele><time>2026-04-10T11:29:51Z</time></trkpt><trkpt lat="43.12062569649371" lon="2.9899517097651653"><ele>1.0</ele><time>2026-04-10T11:29:53Z</time></trkpt><trkpt lat="43.1206938213251" lon="2.9900163386799887"><ele>1.1666666666666665</ele><time>2026-04-10T11:29:55Z</time></trkpt><trkpt lat="43.120757311013634" lon="2.9900929570370107"><ele>1.3333333333333333</ele><time>2026-04-10T11:29:57Z</time></trkpt><trkpt lat="43.120820916857646" lon="2.9901749377700426"><ele>1.5</ele><time>2026-04-10T11:29:59Z</time></trkpt><trkpt lat="43.12087656698812" lon="2.9902546408155315"><ele>1.6666666666666665</ele><time>2026-04-10T11:30:01Z</time></trkpt><trkpt lat="43.12093115170931" lon="2.9903343103038904"><ele>1.8333333333333333</ele><time>2026-04-10T11:30:03Z</time></trkpt><trkpt lat="43.12100058842451" lon="2.99040267373393"><ele>2.0</ele><time>2026-04-10T11:30:05Z</time></trkpt><trkpt lat="43.12107323963333" lon="2.9904588093996214"><ele>1.9999999999999998</ele><time>2026-04-10T11:30:07Z</time></trkpt><trkpt lat="43.121150177399954" lon="2.99048372659094"><ele>2.0</ele><time>2026-04-10T11:30:09Z</time></trkpt><trkpt lat="43.121222338290366" lon="2.9905048637032987"><ele>2.0</ele><time>2026-04-10T11:30:10.999Z</time></trkpt><trkpt lat="43.12129208440643" lon="2.99052320024148"><ele>2.0</ele><time>2026-04-10T11:30:12.999Z</time></trkpt><trkpt lat="43.12136538432737" lon="2.9905310639569525"><ele>1.9999999999999998</ele><time>2026-04-10T11:30:14.999Z</time></trkpt><trkpt lat="43.12145291797243" lon="2.9905442580159174"><ele>2.0</ele><time>2026-04-10T11:30:16.999Z</time></trkpt><trkpt lat="43.12153007874738" lon="2.9905570819339893"><ele>2.5</ele><time>2026-04-10T11:30:18.999Z</time></trkpt><trkpt lat="43.12160260653034" lon="2.9905777064916634"><ele>3.0</ele><time>2026-04-10T11:30:20.999Z</time></trkpt><trkpt lat="43.1216835302425" lon="2.9905986563887774"><ele>3.5</ele><time>2026-04-10T11:30:22.999Z</time></trkpt><trkpt lat="43.12175838141042" lon="2.9906336263021154"><ele>4.0</ele><time>2026-04-10T11:30:24.999Z</time></trkpt><trkpt lat="43.12182805537158" lon="2.9906943371529544"><ele>4.5</ele><time>2026-04-10T11:30:26.999Z</time></trkpt><trkpt lat="43.12189744242524" lon="2.9907488837291507"><ele>5.0</ele><time>2026-04-10T11:30:28.999Z</time></trkpt><trkpt lat="43.1219646192" lon="2.9908217138524664"><ele>4.5</ele><time>2026-04-10T11:30:30.999Z</time></trkpt><trkpt lat="43.12203346997423" lon="2.9908782740213167"><ele>4.0</ele><time>2026-04-10T11:30:32.999Z</time></trkpt><trkpt lat="43.12209414100763" lon="2.9909444438638393"><ele>3.5</ele><time>2026-04-10T11:30:34.999Z</time></trkpt><trkpt lat="43.12215503142632" lon="2.990997646828683"><ele>3.0</ele><time>2026-04-10T11:30:36.999Z</time></trkpt><trkpt lat="43.12222052751435" lon="2.991069455485993"><ele>2.5</ele><time>2026-04-10T11:30:38.999Z</time></trkpt><trkpt lat="43.12228974680016" lon="2.9911487292287817"><ele>2.0</ele><time>2026-04-10T11:30:40.999Z</time></trkpt><trkpt lat="43.12235720038273" lon="2.991236360311448"><ele>2.333333333333333</ele><time>2026-04-10T11:30:42.999Z</time></trkpt><trkpt lat="43.12241238032816" lon="2.991328814578404"><ele>2.6666666666666665</ele><time>2026-04-10T11:30:44.999Z</time></trkpt><trkpt lat="43.122466279268856" lon="2.9914140589574303"><ele>3.0</ele><time>2026-04-10T11:30:46.999Z</time></trkpt><trkpt lat="43.12250996250905" lon="2.991500556710278"><ele>3.333333333333333</ele><time>2026-04-10T11:30:48.999Z</time></trkpt><trkpt lat="43.12255325232719" lon="2.9915812087312723"><ele>3.6666666666666665</ele><time>2026-04-10T11:30:50.999Z</time></trkpt><trkpt lat="43.122598274795514" lon="2.9916731792664835"><ele>4.0</ele><time>2026-04-10T11:30:52.999Z</time></trkpt><trkpt lat="43.12264046804596" lon="2.9917516837530362"><ele>3.9999999999999996</ele><time>2026-04-10T11:30:54.999Z</time></trkpt><trkpt lat="43.12267542253227" lon="2.991837106454575"><ele>4.0</ele><time>2026-04-10T11:30:56.999Z</time></trkpt><trkpt lat="43.12271064971058" lon="2.9919184641306096"><ele>4.0</ele><time>2026-04-10T11:30:58.999Z</time></trkpt><trkpt lat="43.12274791248692" lon="2.992014714722974"><ele>4.0</ele><time>2026-04-10T11:31:00.999Z</time></trkpt><trkpt lat="43.12278304899666" lon="2.9921137745805093"><ele>3.9999999999999996</ele><time>2026-04-10T11:31:02.999Z</time></trkpt><trkpt lat="43.12281515028625" lon="2.9922159274988855"><ele>4.0</ele><time>2026-04-10T11:31:04.999Z</time></trkpt><trkpt lat="43.12282992669846" lon="2.9923224280679017"><ele>4.0</ele><time>2026-04-10T11:31:06.999Z</time></trkpt><trkpt lat="43.122850201592016" lon="2.9924426021537647"><ele>4.0</ele><time>2026-04-10T11:31:08.999Z</time></trkpt><trkpt lat="43.12286183669861" lon="2.9925713948577912"><ele>4.0</ele><time>2026-04-10T11:31:10.999Z</time></trkpt><trkpt lat="43.12288287422409" lon="2.992686327721331"><ele>4.0</ele><time>2026-04-10T11:31:12.999Z</time></trkpt><trkpt lat="43.122920036897305" lon="2.9927913976003655"><ele>4.0</ele><time>2026-04-10T11:31:14.999Z</time></trkpt><trkpt lat="43.12297342583151" lon="2.992896864636999"><ele>3.833333333333333</ele><time>2026-04-10T11:31:16.999Z</time></trkpt><trkpt lat="43.12304445910507" lon="2.9929755113337526"><ele>3.6666666666666665</ele><time>2026-04-10T11:31:18.999Z</time></trkpt><trkpt lat="43.12310022114212" lon="2.9930562246764234"><ele>3.5</ele><time>2026-04-10T11:31:20.999Z</time></trkpt><trkpt lat="43.123158491215065" lon="2.9931306675836575"><ele>3.333333333333333</ele><time>2026-04-10T11:31:22.999Z</time></trkpt><trkpt lat="43.12321646839331" lon="2.993207703122182"><ele>3.1666666666666665</ele><time>2026-04-10T11:31:24.999Z</time></trkpt><trkpt lat="43.12327295326761" lon="2.9932803658650395"><ele>3.0</ele><time>2026-04-10T11:31:26.999Z</time></trkpt><trkpt lat="43.123324813681975" lon="2.9933435502536345"><ele>2.9999999999999996</ele><time>2026-04-10T11:31:28.999Z</time></trkpt><trkpt lat="43.12338315192314" lon="2.9934185336267114"><ele>3.0</ele><time>2026-04-10T11:31:30.999Z</time></trkpt><trkpt lat="43.12343738548079" lon="2.9935007472715927"><ele>3.0</ele><time>2026-04-10T11:31:32.999Z</time></trkpt><trkpt lat="43.12349366011841" lon="2.993563863606812"><ele>3.0</ele><time>2026-04-10T11:31:34.999Z</time></trkpt><trkpt lat="43.12355328793639" lon="2.993625159018807"><ele>3.0</ele><time>2026-04-10T11:31:36.999Z</time></trkpt><trkpt lat="43.12360513523219" lon="2.9936786420616333"><ele>2.9999999999999996</ele><time>2026-04-10T11:31:38.999Z</time></trkpt><trkpt lat="43.123664238092914" lon="2.993739651125472"><ele>3.0</ele><time>2026-04-10T11:31:40.999Z</time></trkpt><trkpt lat="43.12373107852517" lon="2.993800495618333"><ele>3.0</ele><time>2026-04-10T11:31:42.999Z</time></trkpt><trkpt lat="43.123789121354335" lon="2.9938693645382974"><ele>3.0</ele><time>2026-04-10T11:31:44.999Z</time></trkpt><trkpt lat="43.12385761347347" lon="2.9939246842119904"><ele>3.0</ele><time>2026-04-10T11:31:46.999Z</time></trkpt><trkpt lat="43.123928870112486" lon="2.993997733445594"><ele>3.0</ele><time>2026-04-10T11:31:48.999Z</time></trkpt><trkpt lat="43.12398882395476" lon="2.994066566809518"><ele>3.0</ele><time>2026-04-10T11:31:50.999Z</time></trkpt><trkpt lat="43.12405307006789" lon="2.9941273698471087"><ele>3.0</ele><time>2026-04-10T11:31:52.999Z</time></trkpt><trkpt lat="43.1241239376415" lon="2.99418377979405"><ele>2.6666666666666665</ele><time>2026-04-10T11:31:54.999Z</time></trkpt><trkpt lat="43.12419145475423" lon="2.9942384246706433"><ele>2.3333333333333335</ele><time>2026-04-10T11:31:56.999Z</time></trkpt><trkpt lat="43.12425458557674" lon="2.9942955293224416"><ele>2.0</ele><time>2026-04-10T11:31:58.999Z</time></trkpt><trkpt lat="43.12433202272993" lon="2.994347660435143"><ele>1.6666666666666665</ele><time>2026-04-10T11:32:00.999Z</time></trkpt><trkpt lat="43.12440964722109" lon="2.994387945045568"><ele>1.3333333333333333</ele><time>2026-04-10T11:32:02.999Z</time></trkpt><trkpt lat="43.12448259020983" lon="2.9944281516998084"><ele>1.0</ele><time>2026-04-10T11:32:04.999Z</time></trkpt><trkpt lat="43.12456471494963" lon="2.9944608068814933"><ele>0.9999999999999999</ele><time>2026-04-10T11:32:06.999Z</time></trkpt><trkpt lat="43.12464816592666" lon="2.994474293015745"><ele>1.0</ele><time>2026-04-10T11:32:08.999Z</time></trkpt><trkpt lat="43.124727372287296" lon="2.994482464723959"><ele>1.0</ele><time>2026-04-10T11:32:10.999Z</time></trkpt><trkpt lat="43.12480349909098" lon="2.9944949680320008"><ele>1.0</ele><time>2026-04-10T11:32:12.999Z</time></trkpt><trkpt lat="43.12488429659071" lon="2.9944914508558655"><ele>0.9999999999999999</ele><time>2026-04-10T11:32:14.999Z</time></trkpt><trkpt lat="43.12496737605252" lon="2.9944900444318594"><ele>1.0</ele><time>2026-04-10T11:32:16.999Z</time></trkpt><trkpt lat="43.125042083725106" lon="2.9944462687756306"><ele>0.9999999999999999</ele><time>2026-04-10T11:32:18.999Z</time></trkpt><trkpt lat="43.12510050680289" lon="2.994373322621628"><ele>1.0</ele><time>2026-04-10T11:32:20.999Z</time></trkpt><trkpt lat="43.125134045756205" lon="2.994273467075129"><ele>1.0</ele><time>2026-04-10T11:32:22.999Z</time></trkpt><trkpt lat="43.12513193759554" lon="2.9941617070987503"><ele>1.0</ele><time>2026-04-10T11:32:24.999Z</time></trkpt><trkpt lat="43.12511801444643" lon="2.9940470895491504"><ele>0.9999999999999999</ele><time>2026-04-10T11:32:26.999Z</time></trkpt><trkpt lat="43.12510873122439" lon="2.9939350001573475"><ele>1.0</ele><time>2026-04-10T11:32:28.999Z</time></trkpt><trkpt lat="43.12508851136183" lon="2.9938406443376415"><ele>1.4285714285714284</ele><time>2026-04-10T11:32:30.999Z</time></trkpt><trkpt lat="43.12505614503478" lon="2.9937621161589667"><ele>1.857142857142857</ele><time>2026-04-10T11:32:32.999Z</time></trkpt><trkpt lat="43.12502363698851" lon="2.9936799830303666"><ele>2.2857142857142856</ele><time>2026-04-10T11:32:34.999Z</time></trkpt><trkpt lat="43.12498665585266" lon="2.9935829317157916"><ele>2.714285714285714</ele><time>2026-04-10T11:32:36.999Z</time></trkpt><trkpt lat="43.12494532578868" lon="2.99350060809892"><ele>3.1428571428571423</ele><time>2026-04-10T11:32:38.999Z</time></trkpt><trkpt lat="43.124918031503434" lon="2.9934168428082435"><ele>3.571428571428571</ele><time>2026-04-10T11:32:40.999Z</time></trkpt><trkpt lat="43.124873982395336" lon="2.9933053010958313"><ele>4.0</ele><time>2026-04-10T11:32:43.999Z</time></trkpt><trkpt lat="43.124848583568614" lon="2.993220113388038"><ele>6.571428571428571</ele><time>2026-04-10T11:32:45.999Z</time></trkpt><trkpt lat="43.12483130419439" lon="2.993131541699139"><ele>9.142857142857142</ele><time>2026-04-10T11:32:47.999Z</time></trkpt><trkpt lat="43.12480145685891" lon="2.9930143661557174"><ele>11.714285714285715</ele><time>2026-04-10T11:32:50.999Z</time></trkpt><trkpt lat="43.12479367159021" lon="2.9929156516942768"><ele>14.285714285714285</ele><time>2026-04-10T11:32:52.999Z</time></trkpt><trkpt lat="43.124782208549256" lon="2.992822699507108"><ele>16.857142857142858</ele><time>2026-04-10T11:32:54.999Z</time></trkpt><trkpt lat="43.12477172775399" lon="2.99273472638333"><ele>19.42857142857143</ele><time>2026-04-10T11:32:56.999Z</time></trkpt><trkpt lat="43.12477002038095" lon="2.9926454150245974"><ele>22.0</ele><time>2026-04-10T11:32:58.999Z</time></trkpt><trkpt lat="43.1247646992456" lon="2.992524239977903"><ele>22.571428571428573</ele><time>2026-04-10T11:33:01.999Z</time></trkpt><trkpt lat="43.12476030156529" lon="2.992432046977698"><ele>23.142857142857142</ele><time>2026-04-10T11:33:03.999Z</time></trkpt><trkpt lat="43.12476609435958" lon="2.992335150307502"><ele>23.714285714285715</ele><time>2026-04-10T11:33:05.999Z</time></trkpt><trkpt lat="43.12476480811194" lon="2.992243273600429"><ele>24.285714285714285</ele><time>2026-04-10T11:33:07.999Z</time></trkpt><trkpt lat="43.12477647639068" lon="2.9921466111336836"><ele>24.857142857142858</ele><time>2026-04-10T11:33:09.999Z</time></trkpt><trkpt lat="43.12477685893424" lon="2.9920406161735786"><ele>25.428571428571427</ele><time>2026-04-10T11:33:11.999Z</time></trkpt><trkpt lat="43.12478116501291" lon="2.9919353931571746"><ele>26.0</ele><time>2026-04-10T11:33:13.999Z</time></trkpt><trkpt lat="43.124783178791624" lon="2.9918305743210922"><ele>26.0</ele><time>2026-04-10T11:33:15.999Z</time></trkpt><trkpt lat="43.12478783638792" lon="2.991737465257786"><ele>26.0</ele><time>2026-04-10T11:33:17.999Z</time></trkpt><trkpt lat="43.1247941284167" lon="2.9916175912160954"><ele>26.0</ele><time>2026-04-10T11:33:20.999Z</time></trkpt><trkpt lat="43.12479428434928" lon="2.9915174209565025"><ele>26.0</ele><time>2026-04-10T11:33:22.999Z</time></trkpt><trkpt lat="43.12479747166688" lon="2.991416008074202"><ele>26.0</ele><time>2026-04-10T11:33:24.999Z</time></trkpt><trkpt lat="43.12479862947402" lon="2.99131218897041"><ele>26.0</ele><time>2026-04-10T11:33:26.999Z</time></trkpt><trkpt lat="43.124801914110385" lon="2.9912211899146333"><ele>26.0</ele><time>2026-04-10T11:33:28.998Z</time></trkpt><trkpt lat="43.12479898168185" lon="2.991124699664887"><ele>25.333333333333332</ele><time>2026-04-10T11:33:30.998Z</time></trkpt><trkpt lat="43.12478868762996" lon="2.9910260033942033"><ele>24.666666666666664</ele><time>2026-04-10T11:33:32.998Z</time></trkpt><trkpt lat="43.1247687630165" lon="2.9909294816321688"><ele>24.0</ele><time>2026-04-10T11:33:34.999Z</time></trkpt><trkpt lat="43.12474249510797" lon="2.990838061911799"><ele>23.333333333333332</ele><time>2026-04-10T11:33:36.999Z</time></trkpt><trkpt lat="43.12470414560575" lon="2.9907354536588326"><ele>22.666666666666664</ele><time>2026-04-10T11:33:38.999Z</time></trkpt><trkpt lat="43.12464955333679" lon="2.99060800147716"><ele>22.0</ele><time>2026-04-10T11:33:41.999Z</time></trkpt><trkpt lat="43.12461057848227" lon="2.9905228181555166"><ele>21.0</ele><time>2026-04-10T11:33:44Z</time></trkpt><trkpt lat="43.124577165704075" lon="2.990437724456498"><ele>20.0</ele><time>2026-04-10T11:33:46Z</time></trkpt><trkpt lat="43.124544149674" lon="2.990359374485267"><ele>19.0</ele><time>2026-04-10T11:33:48Z</time></trkpt><trkpt lat="43.124507318107256" lon="2.990269475095237"><ele>18.0</ele><time>2026-04-10T11:33:50Z</time></trkpt><trkpt lat="43.124473482419546" lon="2.9901808878196277"><ele>17.0</ele><time>2026-04-10T11:33:52Z</time></trkpt><trkpt lat="43.12443550859694" lon="2.9901014573238434"><ele>16.0</ele><time>2026-04-10T11:33:54Z</time></trkpt><trkpt lat="43.12440115761316" lon="2.9900208770067445"><ele>15.0</ele><time>2026-04-10T11:33:56Z</time></trkpt><trkpt lat="43.124358553063836" lon="2.989901989405945"><ele>13.857142857142858</ele><time>2026-04-10T11:33:59Z</time></trkpt><trkpt lat="43.124321782078496" lon="2.9897942426814756"><ele>12.714285714285714</ele><time>2026-04-10T11:34:02Z</time></trkpt><trkpt lat="43.12429016057417" lon="2.989719395907012"><ele>11.571428571428571</ele><time>2026-04-10T11:34:04Z</time></trkpt><trkpt lat="43.12426005428735" lon="2.9896422952404356"><ele>10.428571428571429</ele><time>2026-04-10T11:34:06Z</time></trkpt><trkpt lat="43.124235830125826" lon="2.989557571413777"><ele>9.285714285714285</ele><time>2026-04-10T11:34:08Z</time></trkpt><trkpt lat="43.124207944592605" lon="2.989455019076959"><ele>8.142857142857142</ele><time>2026-04-10T11:34:10.999Z</time></trkpt><trkpt lat="43.1241993618057" lon="2.9893451699115006"><ele>7.0</ele><time>2026-04-10T11:34:13.999Z</time></trkpt><trkpt lat="43.124183055857195" lon="2.9892329387467838"><ele>6.571428571428571</ele><time>2026-04-10T11:34:16.999Z</time></trkpt><trkpt lat="43.12418308723773" lon="2.989118819777134"><ele>6.142857142857142</ele><time>2026-04-10T11:34:19.999Z</time></trkpt><trkpt lat="43.12418450538326" lon="2.9890240831328514"><ele>5.714285714285714</ele><time>2026-04-10T11:34:21.999Z</time></trkpt><trkpt lat="43.12418064839402" lon="2.98892618398231"><ele>5.285714285714286</ele><time>2026-04-10T11:34:23.999Z</time></trkpt><trkpt lat="43.124179981410535" lon="2.9888275603240007"><ele>4.857142857142857</ele><time>2026-04-10T11:34:25.999Z</time></trkpt><trkpt lat="43.12417638724023" lon="2.9887393908838384"><ele>4.428571428571429</ele><time>2026-04-10T11:34:27.999Z</time></trkpt><trkpt lat="43.124175946493445" lon="2.9886503672280176"><ele>4.0</ele><time>2026-04-10T11:34:29.999Z</time></trkpt><trkpt lat="43.12418135646678" lon="2.988549054563803"><ele>3.9999999999999996</ele><time>2026-04-10T11:34:31.999Z</time></trkpt><trkpt lat="43.12418502072082" lon="2.9884438392494537"><ele>4.0</ele><time>2026-04-10T11:34:33.999Z</time></trkpt><trkpt lat="43.124203773906714" lon="2.9883358644854656"><ele>4.0</ele><time>2026-04-10T11:34:35.999Z</time></trkpt><trkpt lat="43.124236670424516" lon="2.988230902533166"><ele>4.0</ele><time>2026-04-10T11:34:37.999Z</time></trkpt><trkpt lat="43.12426255438534" lon="2.988132864800506"><ele>3.9999999999999996</ele><time>2026-04-10T11:34:39.999Z</time></trkpt><trkpt lat="43.1242864128223" lon="2.988039015715342"><ele>4.0</ele><time>2026-04-10T11:34:41.999Z</time></trkpt><trkpt lat="43.12431527995409" lon="2.9879582492642363"><ele>3.9999999999999996</ele><time>2026-04-10T11:34:43.999Z</time></trkpt><trkpt lat="43.12435739024992" lon="2.987890394247952"><ele>4.0</ele><time>2026-04-10T11:34:45.999Z</time></trkpt><trkpt lat="43.12441363057916" lon="2.9878244356672803"><ele>4.0</ele><time>2026-04-10T11:34:47.999Z</time></trkpt><trkpt lat="43.12448797507168" lon="2.9877649938633914"><ele>4.0</ele><time>2026-04-10T11:34:49.999Z</time></trkpt><trkpt lat="43.12455784404737" lon="2.9877091826007964"><ele>3.9999999999999996</ele><time>2026-04-10T11:34:51.999Z</time></trkpt><trkpt lat="43.12463408060305" lon="2.987664307408115"><ele>4.0</ele><time>2026-04-10T11:34:53.999Z</time></trkpt><trkpt lat="43.124709508216135" lon="2.9876250845178984"><ele>3.9999999999999996</ele><time>2026-04-10T11:34:55.999Z</time></trkpt><trkpt lat="43.124778719040826" lon="2.9875799486848167"><ele>4.0</ele><time>2026-04-10T11:34:57.999Z</time></trkpt><trkpt lat="43.124852226391326" lon="2.9875422640606555"><ele>4.0</ele><time>2026-04-10T11:34:59.999Z</time></trkpt><trkpt lat="43.124928079767855" lon="2.987500176970575"><ele>4.0</ele><time>2026-04-10T11:35:01.999Z</time></trkpt><trkpt lat="43.12501222607068" lon="2.9874506593728536"><ele>3.9999999999999996</ele><time>2026-04-10T11:35:03.999Z</time></trkpt><trkpt lat="43.125091997391124" lon="2.9874013660127816"><ele>4.0</ele><time>2026-04-10T11:35:05.999Z</time></trkpt><trkpt lat="43.12516275501809" lon="2.9873591732341427"><ele>3.833333333333333</ele><time>2026-04-10T11:35:07.999Z</time></trkpt><trkpt lat="43.12522629978964" lon="2.987313149055888"><ele>3.6666666666666665</ele><time>2026-04-10T11:35:09.999Z</time></trkpt><trkpt lat="43.12530668859406" lon="2.9872720299029236"><ele>3.5</ele><time>2026-04-10T11:35:11.999Z</time></trkpt><trkpt lat="43.125390588743095" lon="2.9872298813489486"><ele>3.333333333333333</ele><time>2026-04-10T11:35:13.999Z</time></trkpt><trkpt lat="43.125475456267125" lon="2.9871822623691133"><ele>3.1666666666666665</ele><time>2026-04-10T11:35:15.999Z</time></trkpt><trkpt lat="43.1255556901873" lon="2.9871487695851893"><ele>3.0</ele><time>2026-04-10T11:35:17.999Z</time></trkpt><trkpt lat="43.12562248946054" lon="2.9871128587004874"><ele>3.0</ele><time>2026-04-10T11:35:19.999Z</time></trkpt><trkpt lat="43.12568711489239" lon="2.987103162402519"><ele>3.0</ele><time>2026-04-10T11:35:21.999Z</time></trkpt><trkpt lat="43.12577828967506" lon="2.987083107846339"><ele>3.0</ele><time>2026-04-10T11:35:24.999Z</time></trkpt><trkpt lat="43.12585710610452" lon="2.987066748765889"><ele>3.0</ele><time>2026-04-10T11:35:27.999Z</time></trkpt><trkpt lat="43.12593453340154" lon="2.9870637173852845"><ele>3.0</ele><time>2026-04-10T11:35:30.999Z</time></trkpt><trkpt lat="43.12600989325611" lon="2.987044468733017"><ele>3.0</ele><time>2026-04-10T11:35:33.999Z</time></trkpt><trkpt lat="43.126077586634885" lon="2.9870303277322683"><ele>2.8333333333333335</ele><time>2026-04-10T11:35:36.999Z</time></trkpt><trkpt lat="43.12615335264627" lon="2.9870190453487933"><ele>2.6666666666666665</ele><time>2026-04-10T11:35:40Z</time></trkpt><trkpt lat="43.126243596881025" lon="2.98699351326784"><ele>2.5</ele><time>2026-04-10T11:35:43Z</time></trkpt><trkpt lat="43.126308048315" lon="2.986974297848144"><ele>2.333333333333333</ele><time>2026-04-10T11:35:45Z</time></trkpt><trkpt lat="43.12640497029616" lon="2.9869619631417157"><ele>2.1666666666666665</ele><time>2026-04-10T11:35:48Z</time></trkpt><trkpt lat="43.126483760288714" lon="2.9869512050262315"><ele>2.0</ele><time>2026-04-10T11:35:50Z</time></trkpt><trkpt lat="43.12656453334555" lon="2.986946875937945"><ele>1.857142857142857</ele><time>2026-04-10T11:35:52Z</time></trkpt><trkpt lat="43.12664228712302" lon="2.986950678890356"><ele>1.714285714285714</ele><time>2026-04-10T11:35:54Z</time></trkpt><trkpt lat="43.12671585326446" lon="2.9869601490411735"><ele>1.5714285714285714</ele><time>2026-04-10T11:35:56Z</time></trkpt><trkpt lat="43.12678857845772" lon="2.9869622489413303"><ele>1.4285714285714284</ele><time>2026-04-10T11:35:58Z</time></trkpt><trkpt lat="43.126862724622875" lon="2.986966737241562"><ele>1.2857142857142856</ele><time>2026-04-10T11:36:00Z</time></trkpt><trkpt lat="43.12693100649741" lon="2.9869778816204207"><ele>1.1428571428571428</ele><time>2026-04-10T11:36:02Z</time></trkpt><trkpt lat="43.12700565419846" lon="2.986991310488995"><ele>1.0</ele><time>2026-04-10T11:36:04Z</time></trkpt><trkpt lat="43.127090783510305" lon="2.986993805170124"><ele>1.0</ele><time>2026-04-10T11:36:06Z</time></trkpt><trkpt lat="43.12717131669249" lon="2.9869971163406284"><ele>0.9999999999999999</ele><time>2026-04-10T11:36:08Z</time></trkpt><trkpt lat="43.12724632420934" lon="2.9870059892495617"><ele>1.0</ele><time>2026-04-10T11:36:10Z</time></trkpt><trkpt lat="43.127315001459856" lon="2.9870077007067963"><ele>1.0</ele><time>2026-04-10T11:36:12Z</time></trkpt><trkpt lat="43.12738509472685" lon="2.987010536530736"><ele>0.9999999999999999</ele><time>2026-04-10T11:36:14Z</time></trkpt><trkpt lat="43.127462831351856" lon="2.9870047398133197"><ele>1.0</ele><time>2026-04-10T11:36:16Z</time></trkpt><trkpt lat="43.127535767615576" lon="2.9869913799358243"><ele>1.0</ele><time>2026-04-10T11:36:18Z</time></trkpt><trkpt lat="43.12761741311465" lon="2.9869866416847706"><ele>0.8333333333333333</ele><time>2026-04-10T11:36:20Z</time></trkpt><trkpt lat="43.12769770793462" lon="2.9869732227736927"><ele>0.6666666666666666</ele><time>2026-04-10T11:36:22Z</time></trkpt><trkpt lat="43.127777271655795" lon="2.9869646644090957"><ele>0.5</ele><time>2026-04-10T11:36:24Z</time></trkpt><trkpt lat="43.127861862948066" lon="2.9869589852335725"><ele>0.3333333333333333</ele><time>2026-04-10T11:36:26Z</time></trkpt><trkpt lat="43.12793947093478" lon="2.9869524657242024"><ele>0.16666666666666666</ele><time>2026-04-10T11:36:28Z</time></trkpt><trkpt lat="43.12801354374929" lon="2.9869490349369228"><ele>0.0</ele><time>2026-04-10T11:36:30Z</time></trkpt><trkpt lat="43.12808924613318" lon="2.986943612678886"><ele>0.0</ele><time>2026-04-10T11:36:32Z</time></trkpt><trkpt lat="43.128167609353135" lon="2.9869327778723265"><ele>0.0</ele><time>2026-04-10T11:36:34Z</time></trkpt><trkpt lat="43.1282485091086" lon="2.986922901511908"><ele>0.0</ele><time>2026-04-10T11:36:36Z</time></trkpt><trkpt lat="43.12832583167353" lon="2.986904387502923"><ele>0.0</ele><time>2026-04-10T11:36:38Z</time></trkpt><trkpt lat="43.12840759377586" lon="2.986873344534007"><ele>0.0</ele><time>2026-04-10T11:36:40Z</time></trkpt><trkpt lat="43.12849835395699" lon="2.986836510319948"><ele>0.0</ele><time>2026-04-10T11:36:42Z</time></trkpt><trkpt lat="43.12857995304993" lon="2.9867885385614765"><ele>0.16666666666666666</ele><time>2026-04-10T11:36:44Z</time></trkpt><trkpt lat="43.12866012714415" lon="2.9867463854842016"><ele>0.3333333333333333</ele><time>2026-04-10T11:36:45.999Z</time></trkpt><trkpt lat="43.128736857449866" lon="2.986708020526903"><ele>0.5</ele><time>2026-04-10T11:36:47.999Z</time></trkpt><trkpt lat="43.128810499250925" lon="2.9866679209201155"><ele>0.6666666666666666</ele><time>2026-04-10T11:36:49.999Z</time></trkpt><trkpt lat="43.12887773667519" lon="2.986626243440028"><ele>0.8333333333333333</ele><time>2026-04-10T11:36:51.999Z</time></trkpt><trkpt lat="43.12895081836935" lon="2.98658747334419"><ele>1.0</ele><time>2026-04-10T11:36:53.999Z</time></trkpt><trkpt lat="43.12903055757091" lon="2.98654991304355"><ele>1.3333333333333333</ele><time>2026-04-10T11:36:55.999Z</time></trkpt><trkpt lat="43.12911027070425" lon="2.9865052323392023"><ele>1.6666666666666665</ele><time>2026-04-10T11:36:57.999Z</time></trkpt><trkpt lat="43.129178797255705" lon="2.9864580560278964"><ele>2.0</ele><time>2026-04-10T11:36:59.999Z</time></trkpt><trkpt lat="43.129244622467965" lon="2.986426080374221"><ele>2.3333333333333335</ele><time>2026-04-10T11:37:01.999Z</time></trkpt><trkpt lat="43.129308368849216" lon="2.9863877462069777"><ele>2.6666666666666665</ele><time>2026-04-10T11:37:03.999Z</time></trkpt><trkpt lat="43.12937713281041" lon="2.9863575099118593"><ele>3.0</ele><time>2026-04-10T11:37:05.999Z</time></trkpt><trkpt lat="43.12944781653648" lon="2.986312913819807"><ele>2.9999999999999996</ele><time>2026-04-10T11:37:07.999Z</time></trkpt><trkpt lat="43.12951843377929" lon="2.9862800979851425"><ele>3.0</ele><time>2026-04-10T11:37:09.999Z</time></trkpt><trkpt lat="43.12958078380499" lon="2.986238472403306"><ele>3.0</ele><time>2026-04-10T11:37:11.999Z</time></trkpt><trkpt lat="43.12964547781361" lon="2.986205385266681"><ele>3.0</ele><time>2026-04-10T11:37:13.999Z</time></trkpt><trkpt lat="43.12971648648948" lon="2.9861714372753734"><ele>3.0</ele><time>2026-04-10T11:37:15.999Z</time></trkpt><trkpt lat="43.129792146936154" lon="2.9861381358984325"><ele>2.9999999999999996</ele><time>2026-04-10T11:37:17.999Z</time></trkpt><trkpt lat="43.129859603993545" lon="2.986101663050935"><ele>3.0</ele><time>2026-04-10T11:37:19.999Z</time></trkpt><trkpt lat="43.129918486121575" lon="2.98605864528355"><ele>3.1666666666666665</ele><time>2026-04-10T11:37:21.999Z</time></trkpt><trkpt lat="43.12999371817266" lon="2.986040452902284"><ele>3.333333333333333</ele><time>2026-04-10T11:37:23.999Z</time></trkpt><trkpt lat="43.13006472405996" lon="2.9860093245417243"><ele>3.5</ele><time>2026-04-10T11:37:25.999Z</time></trkpt><trkpt lat="43.13012448591648" lon="2.985970134088162"><ele>3.6666666666666665</ele><time>2026-04-10T11:37:27.999Z</time></trkpt><trkpt lat="43.1301845768298" lon="2.985924630830358"><ele>3.833333333333333</ele><time>2026-04-10T11:37:29.999Z</time></trkpt><trkpt lat="43.130266873335074" lon="2.985879148365534"><ele>4.0</ele><time>2026-04-10T11:37:32.999Z</time></trkpt><trkpt lat="43.130347909456525" lon="2.985844224491682"><ele>4.0</ele><time>2026-04-10T11:37:35.999Z</time></trkpt><trkpt lat="43.13041891111462" lon="2.98582437529262"><ele>3.9999999999999996</ele><time>2026-04-10T11:37:37.999Z</time></trkpt><trkpt lat="43.130506271017836" lon="2.9857888027139174"><ele>4.0</ele><time>2026-04-10T11:37:40.999Z</time></trkpt><trkpt lat="43.13057357379809" lon="2.9857569405794897"><ele>4.0</ele><time>2026-04-10T11:37:42.999Z</time></trkpt><trkpt lat="43.13063959744054" lon="2.9857308579418538"><ele>3.9999999999999996</ele><time>2026-04-10T11:37:44.999Z</time></trkpt><trkpt lat="43.13070455704472" lon="2.9857141506375893"><ele>4.0</ele><time>2026-04-10T11:37:47Z</time></trkpt><trkpt lat="43.13076853988332" lon="2.985692144300423"><ele>4.0</ele><time>2026-04-10T11:37:49Z</time></trkpt><trkpt lat="43.1308331985253" lon="2.9856854973499596"><ele>4.0</ele><time>2026-04-10T11:37:51Z</time></trkpt><trkpt lat="43.1308982930233" lon="2.985662789153368"><ele>3.9999999999999996</ele><time>2026-04-10T11:37:53Z</time></trkpt><trkpt lat="43.130965713423755" lon="2.9856673975955115"><ele>4.0</ele><time>2026-04-10T11:37:55Z</time></trkpt><trkpt lat="43.13106268325247" lon="2.985656493412858"><ele>4.0</ele><time>2026-04-10T11:37:58Z</time></trkpt><trkpt lat="43.13113009870387" lon="2.985656671325845"><ele>3.9999999999999996</ele><time>2026-04-10T11:38:00Z</time></trkpt><trkpt lat="43.13119927911883" lon="2.98567729469757"><ele>4.0</ele><time>2026-04-10T11:38:02Z</time></trkpt><trkpt lat="43.13127165930753" lon="2.985684660593588"><ele>4.0</ele><time>2026-04-10T11:38:04Z</time></trkpt><trkpt lat="43.131338088931" lon="2.985702570276105"><ele>3.9999999999999996</ele><time>2026-04-10T11:38:06Z</time></trkpt><trkpt lat="43.1314085443296" lon="2.9857211057573116"><ele>4.0</ele><time>2026-04-10T11:38:08Z</time></trkpt><trkpt lat="43.131488621735436" lon="2.9857427209000633"><ele>4.0</ele><time>2026-04-10T11:38:10Z</time></trkpt><trkpt lat="43.13156343669341" lon="2.985766646674641"><ele>4.0</ele><time>2026-04-10T11:38:12Z</time></trkpt><trkpt lat="43.131633593005326" lon="2.9857912226426206"><ele>3.9999999999999996</ele><time>2026-04-10T11:38:14Z</time></trkpt><trkpt lat="43.13170283426614" lon="2.9858254247162024"><ele>4.0</ele><time>2026-04-10T11:38:16Z</time></trkpt><trkpt lat="43.131779407465174" lon="2.985859750807605"><ele>3.6666666666666665</ele><time>2026-04-10T11:38:18Z</time></trkpt><trkpt lat="43.1318554261321" lon="2.9858955550704827"><ele>3.333333333333333</ele><time>2026-04-10T11:38:20Z</time></trkpt><trkpt lat="43.13192451457089" lon="2.985932002450164"><ele>3.0</ele><time>2026-04-10T11:38:22Z</time></trkpt><trkpt lat="43.131997888329586" lon="2.98595852886718"><ele>2.6666666666666665</ele><time>2026-04-10T11:38:24Z</time></trkpt><trkpt lat="43.132083115844104" lon="2.9859885456660056"><ele>2.333333333333333</ele><time>2026-04-10T11:38:26Z</time></trkpt><trkpt lat="43.13216309403516" lon="2.986017859036239"><ele>2.0</ele><time>2026-04-10T11:38:28Z</time></trkpt><trkpt lat="43.132237726525865" lon="2.986043750109398"><ele>1.9999999999999998</ele><time>2026-04-10T11:38:30Z</time></trkpt><trkpt lat="43.13230915452264" lon="2.9860721366494065"><ele>2.0</ele><time>2026-04-10T11:38:32Z</time></trkpt><trkpt lat="43.13239840031045" lon="2.9861070243853454"><ele>2.0</ele><time>2026-04-10T11:38:35Z</time></trkpt><trkpt lat="43.1324735339261" lon="2.986117448266812"><ele>2.0</ele><time>2026-04-10T11:38:37Z</time></trkpt><trkpt lat="43.132544313925706" lon="2.986128130599266"><ele>1.9999999999999998</ele><time>2026-04-10T11:38:39Z</time></trkpt><trkpt lat="43.132612892854965" lon="2.986133547883176"><ele>2.0</ele><time>2026-04-10T11:38:41Z</time></trkpt><trkpt lat="43.13269039885961" lon="2.986127060393358"><ele>1.8333333333333333</ele><time>2026-04-10T11:38:43Z</time></trkpt><trkpt lat="43.13277061167785" lon="2.9861336161524044"><ele>1.6666666666666665</ele><time>2026-04-10T11:38:45Z</time></trkpt><trkpt lat="43.13284014792608" lon="2.9861316839398055"><ele>1.5</ele><time>2026-04-10T11:38:47Z</time></trkpt><trkpt lat="43.13290415046377" lon="2.986134059080129"><ele>1.3333333333333333</ele><time>2026-04-10T11:38:49Z</time></trkpt><trkpt lat="43.13297047281898" lon="2.9861264127661946"><ele>1.1666666666666665</ele><time>2026-04-10T11:38:51Z</time></trkpt><trkpt lat="43.13306074792975" lon="2.9861079301052227"><ele>1.0</ele><time>2026-04-10T11:38:54Z</time></trkpt><trkpt lat="43.133148881668184" lon="2.9860829594808522"><ele>1.0</ele><time>2026-04-10T11:38:57Z</time></trkpt><trkpt lat="43.13323383960908" lon="2.9860432988108627"><ele>0.9999999999999999</ele><time>2026-04-10T11:39:00Z</time></trkpt><trkpt lat="43.13329086505833" lon="2.9860055002265846"><ele>1.0</ele><time>2026-04-10T11:39:02Z</time></trkpt><trkpt lat="43.13336727426684" lon="2.985947819528212"><ele>1.0</ele><time>2026-04-10T11:39:04.999Z</time></trkpt><trkpt lat="43.13342001097378" lon="2.9858885280961487"><ele>0.9999999999999999</ele><time>2026-04-10T11:39:06.999Z</time></trkpt><trkpt lat="43.13347196723758" lon="2.985834837537605"><ele>1.0</ele><time>2026-04-10T11:39:08.999Z</time></trkpt><trkpt lat="43.13352015523581" lon="2.985769768392317"><ele>1.0</ele><time>2026-04-10T11:39:10.999Z</time></trkpt><trkpt lat="43.133561981579156" lon="2.9857032327728987"><ele>1.7142857142857142</ele><time>2026-04-10T11:39:12.999Z</time></trkpt><trkpt lat="43.13361239538706" lon="2.9856344729723756"><ele>2.4285714285714284</ele><time>2026-04-10T11:39:14.999Z</time></trkpt><trkpt lat="43.13366150470591" lon="2.9855643246301207"><ele>3.1428571428571423</ele><time>2026-04-10T11:39:16.999Z</time></trkpt><trkpt lat="43.13370970483764" lon="2.985500070638138"><ele>3.8571428571428568</ele><time>2026-04-10T11:39:18.999Z</time></trkpt><trkpt lat="43.1337609827782" lon="2.985437340382562"><ele>4.571428571428571</ele><time>2026-04-10T11:39:20.999Z</time></trkpt><trkpt lat="43.133823891758965" lon="2.985356926495787"><ele>5.285714285714286</ele><time>2026-04-10T11:39:23.999Z</time></trkpt><trkpt lat="43.13387796925716" lon="2.9853040337921017"><ele>6.0</ele><time>2026-04-10T11:39:26.999Z</time></trkpt><trkpt lat="43.13394939780468" lon="2.985241252733223"><ele>6.0</ele><time>2026-04-10T11:39:29.999Z</time></trkpt><trkpt lat="43.13400302649322" lon="2.9851752384583254"><ele>6.0</ele><time>2026-04-10T11:39:31.999Z</time></trkpt><trkpt lat="43.13406014692967" lon="2.9851269260422595"><ele>6.0</ele><time>2026-04-10T11:39:33.999Z</time></trkpt><trkpt lat="43.13413205081779" lon="2.985063093379465"><ele>6.0</ele><time>2026-04-10T11:39:36.999Z</time></trkpt><trkpt lat="43.13420531722491" lon="2.984989360425343"><ele>6.0</ele><time>2026-04-10T11:39:39.999Z</time></trkpt><trkpt lat="43.13427851736168" lon="2.9849296871197644"><ele>6.0</ele><time>2026-04-10T11:39:42.999Z</time></trkpt><trkpt lat="43.134352225902006" lon="2.9848677220013218"><ele>5.333333333333333</ele><time>2026-04-10T11:39:45.999Z</time></trkpt><trkpt lat="43.13442557652992" lon="2.984803239658429"><ele>4.666666666666667</ele><time>2026-04-10T11:39:48.999Z</time></trkpt><trkpt lat="43.134487720306225" lon="2.9847451537098"><ele>4.0</ele><time>2026-04-10T11:39:52.001Z</time></trkpt><trkpt lat="43.13456001122717" lon="2.984677278261639"><ele>3.333333333333333</ele><time>2026-04-10T11:39:55.001Z</time></trkpt><trkpt lat="43.134628103188255" lon="2.9846096131436957"><ele>2.6666666666666665</ele><time>2026-04-10T11:39:58.001Z</time></trkpt><trkpt lat="43.1346925941206" lon="2.98452621485749"><ele>2.0</ele><time>2026-04-10T11:40:01.001Z</time></trkpt><trkpt lat="43.13475270325443" lon="2.984445228949514"><ele>1.9999999999999998</ele><time>2026-04-10T11:40:04Z</time></trkpt><trkpt lat="43.134815052966246" lon="2.9843706369275442"><ele>2.0</ele><time>2026-04-10T11:40:07Z</time></trkpt><trkpt lat="43.13486874408048" lon="2.9842974151895487"><ele>2.0</ele><time>2026-04-10T11:40:10Z</time></trkpt><trkpt lat="43.134925472842966" lon="2.9842111903328865"><ele>2.0</ele><time>2026-04-10T11:40:13Z</time></trkpt><trkpt lat="43.13498547504858" lon="2.984121746100655"><ele>1.9999999999999998</ele><time>2026-04-10T11:40:16Z</time></trkpt><trkpt lat="43.13502824939673" lon="2.984056926649016"><ele>2.0</ele><time>2026-04-10T11:40:18Z</time></trkpt><trkpt lat="43.135088782114686" lon="2.983963867106605"><ele>1.6666666666666665</ele><time>2026-04-10T11:40:21Z</time></trkpt><trkpt lat="43.135144474310046" lon="2.9838682015964504"><ele>1.3333333333333333</ele><time>2026-04-10T11:40:24Z</time></trkpt><trkpt lat="43.135207781191845" lon="2.9837833448632063"><ele>1.0</ele><time>2026-04-10T11:40:27Z</time></trkpt><trkpt lat="43.13527400145889" lon="2.983699781252984"><ele>0.6666666666666666</ele><time>2026-04-10T11:40:30Z</time></trkpt><trkpt lat="43.13534090133815" lon="2.98361249107738"><ele>0.3333333333333333</ele><time>2026-04-10T11:40:33Z</time></trkpt><trkpt lat="43.13539417903626" lon="2.983554372263568"><ele>0.0</ele><time>2026-04-10T11:40:35Z</time></trkpt><trkpt lat="43.13544666061207" lon="2.983501246866645"><ele>0.0</ele><time>2026-04-10T11:40:37Z</time></trkpt><trkpt lat="43.13551410157477" lon="2.9834277433046132"><ele>0.0</ele><time>2026-04-10T11:40:40Z</time></trkpt><trkpt lat="43.135567391559434" lon="2.9833690132923945"><ele>0.0</ele><time>2026-04-10T11:40:42Z</time></trkpt><trkpt lat="43.135623216380104" lon="2.98331680645508"><ele>0.0</ele><time>2026-04-10T11:40:44Z</time></trkpt><trkpt lat="43.13567242270264" lon="2.9832538134056708"><ele>0.0</ele><time>2026-04-10T11:40:46Z</time></trkpt><trkpt lat="43.13572699139089" lon="2.983208134332029"><ele>0.0</ele><time>2026-04-10T11:40:48Z</time></trkpt><trkpt lat="43.135778846758846" lon="2.9831495329090796"><ele>0.0</ele><time>2026-04-10T11:40:50Z</time></trkpt><trkpt lat="43.13584617865893" lon="2.983069696731627"><ele>0.5</ele><time>2026-04-10T11:40:53Z</time></trkpt><trkpt lat="43.13591828885738" lon="2.983001748514877"><ele>1.0</ele><time>2026-04-10T11:40:56Z</time></trkpt><trkpt lat="43.13598568906382" lon="2.982915591588294"><ele>1.5</ele><time>2026-04-10T11:40:59Z</time></trkpt><trkpt lat="43.13603405022235" lon="2.9828577169202006"><ele>2.0</ele><time>2026-04-10T11:41:01Z</time></trkpt><trkpt lat="43.136091058708764" lon="2.9827561350737004"><ele>2.5</ele><time>2026-04-10T11:41:04Z</time></trkpt><trkpt lat="43.136135997081745" lon="2.982694992445113"><ele>3.0</ele><time>2026-04-10T11:41:06Z</time></trkpt><trkpt lat="43.13617463169942" lon="2.9826253631309867"><ele>2.9999999999999996</ele><time>2026-04-10T11:41:07.999Z</time></trkpt><trkpt lat="43.1362240157427" lon="2.9825404014261574"><ele>3.0</ele><time>2026-04-10T11:41:10.999Z</time></trkpt><trkpt lat="43.13626640211699" lon="2.9824581448183043"><ele>3.0</ele><time>2026-04-10T11:41:13.999Z</time></trkpt><trkpt lat="43.136317498425846" lon="2.982373446199404"><ele>3.0</ele><time>2026-04-10T11:41:16.999Z</time></trkpt><trkpt lat="43.13635944651285" lon="2.9823064770892365"><ele>3.0</ele><time>2026-04-10T11:41:18.999Z</time></trkpt><trkpt lat="43.13639983616827" lon="2.982238056798386"><ele>2.9999999999999996</ele><time>2026-04-10T11:41:20.999Z</time></trkpt><trkpt lat="43.13644395350624" lon="2.9821656054901595"><ele>3.0</ele><time>2026-04-10T11:41:22.999Z</time></trkpt><trkpt lat="43.13649267923705" lon="2.9821042429268707"><ele>3.0</ele><time>2026-04-10T11:41:24.999Z</time></trkpt><trkpt lat="43.13654967595884" lon="2.9820303497076615"><ele>3.0</ele><time>2026-04-10T11:41:26.999Z</time></trkpt><trkpt lat="43.136607273820886" lon="2.981949534524355"><ele>3.0</ele><time>2026-04-10T11:41:28.999Z</time></trkpt><trkpt lat="43.13666638697521" lon="2.981863999722536"><ele>3.0</ele><time>2026-04-10T11:41:30.999Z</time></trkpt><trkpt lat="43.13671603057864" lon="2.9817896498877525"><ele>3.0</ele><time>2026-04-10T11:41:32.999Z</time></trkpt><trkpt lat="43.13678929030143" lon="2.9816962046055684"><ele>3.0</ele><time>2026-04-10T11:41:35.999Z</time></trkpt><trkpt lat="43.13684029186209" lon="2.98162823638619"><ele>3.0</ele><time>2026-04-10T11:41:37.999Z</time></trkpt><trkpt lat="43.136889347252755" lon="2.9815544528453044"><ele>3.0</ele><time>2026-04-10T11:41:39.999Z</time></trkpt><trkpt lat="43.13694223245936" lon="2.981489618001686"><ele>3.0</ele><time>2026-04-10T11:41:41.999Z</time></trkpt><trkpt lat="43.136993177631005" lon="2.981436406044236"><ele>3.0</ele><time>2026-04-10T11:41:43.999Z</time></trkpt><trkpt lat="43.1370724236635" lon="2.981370598760002"><ele>3.0</ele><time>2026-04-10T11:41:46.999Z</time></trkpt><trkpt lat="43.13715087652899" lon="2.9813172920514446"><ele>3.0</ele><time>2026-04-10T11:41:49.999Z</time></trkpt><trkpt lat="43.13722793051089" lon="2.9812720387618046"><ele>2.9999999999999996</ele><time>2026-04-10T11:41:52.999Z</time></trkpt><trkpt lat="43.13728677231788" lon="2.9812389845700795"><ele>3.0</ele><time>2026-04-10T11:41:55.999Z</time></trkpt><trkpt lat="43.13736424403859" lon="2.981203167581871"><ele>3.0</ele><time>2026-04-10T11:42:01Z</time></trkpt><trkpt lat="43.137433688058266" lon="2.981167170861798"><ele>3.0</ele><time>2026-04-10T11:42:03Z</time></trkpt><trkpt lat="43.13750191372537" lon="2.9811428892414975"><ele>3.0</ele><time>2026-04-10T11:42:05Z</time></trkpt><trkpt lat="43.13756420826152" lon="2.981117539912033"><ele>2.9999999999999996</ele><time>2026-04-10T11:42:07Z</time></trkpt><trkpt lat="43.137623922263515" lon="2.9810793805491027"><ele>3.0</ele><time>2026-04-10T11:42:10Z</time></trkpt><trkpt lat="43.137683375763736" lon="2.981042532257786"><ele>2.9999999999999996</ele><time>2026-04-10T11:44:47Z</time></trkpt><trkpt lat="43.13774157495168" lon="2.981006491924331"><ele>3.0</ele><time>2026-04-10T11:44:50Z</time></trkpt><trkpt lat="43.13779870372188" lon="2.9809340520447973"><ele>3.0</ele><time>2026-04-10T11:44:54Z</time></trkpt><trkpt lat="43.137852116479834" lon="2.980841680435938"><ele>3.0</ele><time>2026-04-10T11:44:57Z</time></trkpt><trkpt lat="43.137883919965645" lon="2.9807608904392993"><ele>3.0</ele><time>2026-04-10T11:44:59Z</time></trkpt><trkpt lat="43.13792708700933" lon="2.9806867299170885"><ele>2.9999999999999996</ele><time>2026-04-10T11:45:01Z</time></trkpt><trkpt lat="43.13796122273896" lon="2.9806005440294547"><ele>3.0</ele><time>2026-04-10T11:45:02.999Z</time></trkpt><trkpt lat="43.13799397403526" lon="2.980524812848101"><ele>2.9999999999999996</ele><time>2026-04-10T11:45:04.999Z</time></trkpt><trkpt lat="43.138030442493324" lon="2.980418297803436"><ele>3.0</ele><time>2026-04-10T11:45:07.999Z</time></trkpt><trkpt lat="43.13805992881707" lon="2.9803046592030573"><ele>3.0</ele><time>2026-04-10T11:45:10.999Z</time></trkpt><trkpt lat="43.13809420658382" lon="2.9802294480879343"><ele>3.0</ele><time>2026-04-10T11:45:12.999Z</time></trkpt><trkpt lat="43.138123287658296" lon="2.9801436652515343"><ele>3.0</ele><time>2026-04-10T11:45:14.999Z</time></trkpt><trkpt lat="43.13815935756478" lon="2.980067464139015"><ele>2.9999999999999996</ele><time>2026-04-10T11:45:16.999Z</time></trkpt><trkpt lat="43.13819876380289" lon="2.9799838636105793"><ele>3.0</ele><time>2026-04-10T11:45:18.999Z</time></trkpt><trkpt lat="43.13824125520676" lon="2.9799065167097045"><ele>3.0</ele><time>2026-04-10T11:45:20.999Z</time></trkpt><trkpt lat="43.13829459820332" lon="2.979838268485553"><ele>3.0</ele><time>2026-04-10T11:45:22.999Z</time></trkpt><trkpt lat="43.13834973652201" lon="2.979774724824573"><ele>3.0</ele><time>2026-04-10T11:45:24.999Z</time></trkpt><trkpt lat="43.13840650789181" lon="2.9797242595452986"><ele>3.0</ele><time>2026-04-10T11:45:26.999Z</time></trkpt><trkpt lat="43.13849303746142" lon="2.979662520212263"><ele>3.0</ele><time>2026-04-10T11:45:29.999Z</time></trkpt><trkpt lat="43.13855782202783" lon="2.979622090659028"><ele>3.0</ele><time>2026-04-10T11:45:31.999Z</time></trkpt><trkpt lat="43.138633235327504" lon="2.9795910671545207"><ele>3.0</ele><time>2026-04-10T11:45:33.999Z</time></trkpt><trkpt lat="43.138702886937686" lon="2.9795656470681195"><ele>3.0</ele><time>2026-04-10T11:45:35.999Z</time></trkpt><trkpt lat="43.138779337287716" lon="2.979546379360227"><ele>3.0</ele><time>2026-04-10T11:45:37.999Z</time></trkpt><trkpt lat="43.13886052796912" lon="2.9795384126048066"><ele>3.0</ele><time>2026-04-10T11:45:39.999Z</time></trkpt><trkpt lat="43.13893708544235" lon="2.9795444817050893"><ele>3.0</ele><time>2026-04-10T11:45:41.999Z</time></trkpt><trkpt lat="43.13901542249779" lon="2.9795526834677717"><ele>3.0</ele><time>2026-04-10T11:45:43.999Z</time></trkpt><trkpt lat="43.13908806670491" lon="2.979572778072315"><ele>3.0</ele><time>2026-04-10T11:45:45.999Z</time></trkpt><trkpt lat="43.13916183497529" lon="2.979598017100436"><ele>3.0</ele><time>2026-04-10T11:45:47.999Z</time></trkpt><trkpt lat="43.13924104305255" lon="2.9796364707964536"><ele>3.0</ele><time>2026-04-10T11:45:49.999Z</time></trkpt><trkpt lat="43.13930992649661" lon="2.9796737179728"><ele>3.0</ele><time>2026-04-10T11:45:51.999Z</time></trkpt><trkpt lat="43.13938284771598" lon="2.979727196900792"><ele>3.0</ele><time>2026-04-10T11:45:53.999Z</time></trkpt><trkpt lat="43.13945358094074" lon="2.979787727005978"><ele>3.0</ele><time>2026-04-10T11:45:55.999Z</time></trkpt><trkpt lat="43.13952327501278" lon="2.9798505326835443"><ele>3.0</ele><time>2026-04-10T11:45:57.999Z</time></trkpt><trkpt lat="43.139601254950485" lon="2.9799139050725336"><ele>3.0</ele><time>2026-04-10T11:45:59.999Z</time></trkpt><trkpt lat="43.13967151260111" lon="2.979982320311614"><ele>3.0</ele><time>2026-04-10T11:46:01.999Z</time></trkpt><trkpt lat="43.13975504308512" lon="2.980045521625801"><ele>3.0</ele><time>2026-04-10T11:46:03.999Z</time></trkpt><trkpt lat="43.13983213354414" lon="2.980122326561007"><ele>3.0</ele><time>2026-04-10T11:46:05.999Z</time></trkpt><trkpt lat="43.139910103122375" lon="2.980197419979046"><ele>2.6</ele><time>2026-04-10T11:46:07.999Z</time></trkpt><trkpt lat="43.13998408746745" lon="2.980268553943365"><ele>2.1999999999999997</ele><time>2026-04-10T11:46:10Z</time></trkpt><trkpt lat="43.14006059151179" lon="2.9803279834933134"><ele>1.8</ele><time>2026-04-10T11:46:12Z</time></trkpt><trkpt lat="43.14013954436324" lon="2.98040817495148"><ele>1.4</ele><time>2026-04-10T11:46:14Z</time></trkpt><trkpt lat="43.14022434508234" lon="2.980477690107641"><ele>1.0</ele><time>2026-04-10T11:46:16Z</time></trkpt><trkpt lat="43.14030301222956" lon="2.980551268284472"><ele>1.0</ele><time>2026-04-10T11:46:18Z</time></trkpt><trkpt lat="43.140380116495486" lon="2.980618850481496"><ele>1.0</ele><time>2026-04-10T11:46:20Z</time></trkpt><trkpt lat="43.14046413451729" lon="2.9806918300666796"><ele>1.0</ele><time>2026-04-10T11:46:22Z</time></trkpt><trkpt lat="43.14054103682571" lon="2.980769652284347"><ele>1.0</ele><time>2026-04-10T11:46:24Z</time></trkpt><trkpt lat="43.14061963618528" lon="2.980841030045373"><ele>1.0</ele><time>2026-04-10T11:46:26Z</time></trkpt><trkpt lat="43.1406986311972" lon="2.9809127226393985"><ele>1.4</ele><time>2026-04-10T11:46:28Z</time></trkpt><trkpt lat="43.140776973156285" lon="2.980983016073433"><ele>1.8</ele><time>2026-04-10T11:46:30Z</time></trkpt><trkpt lat="43.14085258964969" lon="2.981049527847572"><ele>2.1999999999999997</ele><time>2026-04-10T11:46:32Z</time></trkpt><trkpt lat="43.140927258431205" lon="2.98112233172603"><ele>2.6</ele><time>2026-04-10T11:46:34Z</time></trkpt><trkpt lat="43.14100352502089" lon="2.9811931224542505"><ele>3.0</ele><time>2026-04-10T11:46:36Z</time></trkpt><trkpt lat="43.141086413355666" lon="2.981267269499782"><ele>3.0</ele><time>2026-04-10T11:46:38Z</time></trkpt><trkpt lat="43.14116468122763" lon="2.9813352971887292"><ele>3.0</ele><time>2026-04-10T11:46:40Z</time></trkpt><trkpt lat="43.141245060886625" lon="2.9814130065718305"><ele>3.0</ele><time>2026-04-10T11:46:42Z</time></trkpt><trkpt lat="43.141322522765215" lon="2.9814803139734427"><ele>3.0</ele><time>2026-04-10T11:46:44Z</time></trkpt><trkpt lat="43.14139835310338" lon="2.9815544311786883"><ele>3.0</ele><time>2026-04-10T11:46:46Z</time></trkpt><trkpt lat="43.14147542242483" lon="2.9816266854573144"><ele>3.0</ele><time>2026-04-10T11:46:48Z</time></trkpt><trkpt lat="43.14155150538568" lon="2.9816928132136122"><ele>3.0</ele><time>2026-04-10T11:46:50Z</time></trkpt><trkpt lat="43.14163049609467" lon="2.9817619094704266"><ele>3.0</ele><time>2026-04-10T11:46:52Z</time></trkpt><trkpt lat="43.14169933533205" lon="2.9818335689952287"><ele>3.0</ele><time>2026-04-10T11:46:54Z</time></trkpt><trkpt lat="43.14176836542513" lon="2.9819001461484844"><ele>3.0</ele><time>2026-04-10T11:46:56Z</time></trkpt><trkpt lat="43.14184011060941" lon="2.9819646527282435"><ele>3.0</ele><time>2026-04-10T11:46:58Z</time></trkpt><trkpt lat="43.141904962243196" lon="2.9820511066623068"><ele>3.0</ele><time>2026-04-10T11:47:00Z</time></trkpt><trkpt lat="43.14197365574352" lon="2.982130147374486"><ele>3.0</ele><time>2026-04-10T11:47:02Z</time></trkpt><trkpt lat="43.14204705495124" lon="2.9822047986223"><ele>3.0</ele><time>2026-04-10T11:47:03.999Z</time></trkpt><trkpt lat="43.142117915511186" lon="2.9822794487782747"><ele>3.0</ele><time>2026-04-10T11:47:05.999Z</time></trkpt><trkpt lat="43.14218808999" lon="2.9823605831851787"><ele>3.0</ele><time>2026-04-10T11:47:07.999Z</time></trkpt><trkpt lat="43.142255800678186" lon="2.982435364141607"><ele>3.0</ele><time>2026-04-10T11:47:09.999Z</time></trkpt><trkpt lat="43.14232584169851" lon="2.982507975192336"><ele>3.1666666666666665</ele><time>2026-04-10T11:47:11.999Z</time></trkpt><trkpt lat="43.142394762805026" lon="2.9825786570363655"><ele>3.333333333333333</ele><time>2026-04-10T11:47:13.999Z</time></trkpt><trkpt lat="43.142466716400484" lon="2.982647622841475"><ele>3.5</ele><time>2026-04-10T11:47:15.999Z</time></trkpt><trkpt lat="43.14253490233453" lon="2.9827170157945417"><ele>3.6666666666666665</ele><time>2026-04-10T11:47:17.999Z</time></trkpt><trkpt lat="43.14260030190179" lon="2.982783744091643"><ele>3.833333333333333</ele><time>2026-04-10T11:47:19.999Z</time></trkpt><trkpt lat="43.1426629356629" lon="2.98284575586913"><ele>4.0</ele><time>2026-04-10T11:47:21.999Z</time></trkpt><trkpt lat="43.142731787427735" lon="2.982917698217381"><ele>3.9999999999999996</ele><time>2026-04-10T11:47:23.999Z</time></trkpt><trkpt lat="43.14280153297187" lon="2.982992729310739"><ele>4.0</ele><time>2026-04-10T11:47:25.999Z</time></trkpt><trkpt lat="43.14287074842623" lon="2.9830570396790232"><ele>4.0</ele><time>2026-04-10T11:47:27.999Z</time></trkpt><trkpt lat="43.1429394696414" lon="2.983110836320139"><ele>4.0</ele><time>2026-04-10T11:47:29.999Z</time></trkpt><trkpt lat="43.14301105533226" lon="2.9831588903019015"><ele>3.9999999999999996</ele><time>2026-04-10T11:47:31.999Z</time></trkpt><trkpt lat="43.14308126264705" lon="2.983205484379562"><ele>4.0</ele><time>2026-04-10T11:47:33.999Z</time></trkpt><trkpt lat="43.14315862193187" lon="2.9832426493318787"><ele>3.833333333333333</ele><time>2026-04-10T11:47:35.999Z</time></trkpt><trkpt lat="43.14323207221017" lon="2.9832801947436303"><ele>3.6666666666666665</ele><time>2026-04-10T11:47:37.999Z</time></trkpt><trkpt lat="43.14332107953504" lon="2.9833148492026473"><ele>3.5</ele><time>2026-04-10T11:47:39.999Z</time></trkpt><trkpt lat="43.14340727565456" lon="2.9833461018325007"><ele>3.333333333333333</ele><time>2026-04-10T11:47:41.999Z</time></trkpt><trkpt lat="43.143486970924215" lon="2.983373114492191"><ele>3.1666666666666665</ele><time>2026-04-10T11:47:43.999Z</time></trkpt><trkpt lat="43.1435654361229" lon="2.9834003766136803"><ele>3.0</ele><time>2026-04-10T11:47:45.999Z</time></trkpt><trkpt lat="43.14363935333102" lon="2.9834226768229435"><ele>3.0</ele><time>2026-04-10T11:47:47.999Z</time></trkpt><trkpt lat="43.14371644865512" lon="2.983453455362242"><ele>3.0</ele><time>2026-04-10T11:47:49.999Z</time></trkpt><trkpt lat="43.14379535527306" lon="2.98345778636443"><ele>3.0</ele><time>2026-04-10T11:47:51.999Z</time></trkpt><trkpt lat="43.143870166403396" lon="2.9834401530846124"><ele>3.0</ele><time>2026-04-10T11:47:53.999Z</time></trkpt><trkpt lat="43.14394955457476" lon="2.98340104756947"><ele>3.0</ele><time>2026-04-10T11:47:55.999Z</time></trkpt><trkpt lat="43.1440161906442" lon="2.983328584204543"><ele>3.0</ele><time>2026-04-10T11:47:57.999Z</time></trkpt><trkpt lat="43.14406850522713" lon="2.983249143740792"><ele>3.3333333333333335</ele><time>2026-04-10T11:47:59.999Z</time></trkpt><trkpt lat="43.14410348375242" lon="2.9831537379512203"><ele>3.666666666666667</ele><time>2026-04-10T11:48:01.999Z</time></trkpt><trkpt lat="43.14414128173148" lon="2.9830528948615136"><ele>4.0</ele><time>2026-04-10T11:48:03.999Z</time></trkpt><trkpt lat="43.144174067030846" lon="2.9829585785556216"><ele>4.333333333333334</ele><time>2026-04-10T11:48:05.999Z</time></trkpt><trkpt lat="43.14420604388519" lon="2.9828650194345605"><ele>4.666666666666667</ele><time>2026-04-10T11:48:07.999Z</time></trkpt><trkpt lat="43.1442356475405" lon="2.98277308379033"><ele>5.0</ele><time>2026-04-10T11:48:09.999Z</time></trkpt><trkpt lat="43.144269821905546" lon="2.9826779931864364"><ele>5.0</ele><time>2026-04-10T11:48:11.999Z</time></trkpt><trkpt lat="43.14429545922719" lon="2.9825895018575044"><ele>5.0</ele><time>2026-04-10T11:48:13.999Z</time></trkpt><trkpt lat="43.1443275421205" lon="2.9825086196343107"><ele>5.0</ele><time>2026-04-10T11:48:16Z</time></trkpt><trkpt lat="43.14435874373507" lon="2.982421937769943"><ele>5.0</ele><time>2026-04-10T11:48:18Z</time></trkpt><trkpt lat="43.144392443592196" lon="2.9823291325831063"><ele>5.0</ele><time>2026-04-10T11:48:20Z</time></trkpt><trkpt lat="43.14443653365868" lon="2.982243664269304"><ele>5.0</ele><time>2026-04-10T11:48:22Z</time></trkpt><trkpt lat="43.144485606325865" lon="2.982157063130375"><ele>5.0</ele><time>2026-04-10T11:48:24Z</time></trkpt><trkpt lat="43.144526735392226" lon="2.9820870481997153"><ele>5.333333333333334</ele><time>2026-04-10T11:48:26Z</time></trkpt><trkpt lat="43.14459235972088" lon="2.9820470190381836"><ele>5.666666666666667</ele><time>2026-04-10T11:48:28Z</time></trkpt><trkpt lat="43.14465386886103" lon="2.9819659724525915"><ele>6.0</ele><time>2026-04-10T11:48:31Z</time></trkpt><trkpt lat="43.14471578240704" lon="2.9818742057333014"><ele>6.333333333333334</ele><time>2026-04-10T11:48:34Z</time></trkpt><trkpt lat="43.144775514037164" lon="2.981776738647323"><ele>6.666666666666667</ele><time>2026-04-10T11:48:37Z</time></trkpt><trkpt lat="43.144814263293064" lon="2.9816986382061046"><ele>7.0</ele><time>2026-04-10T11:48:39Z</time></trkpt><trkpt lat="43.1448614741512" lon="2.9816220859297227"><ele>7.500000000000001</ele><time>2026-04-10T11:48:41Z</time></trkpt><trkpt lat="43.144912477037934" lon="2.98153810680879"><ele>8.0</ele><time>2026-04-10T11:48:43Z</time></trkpt><trkpt lat="43.14496428536215" lon="2.9814502145911406"><ele>8.5</ele><time>2026-04-10T11:48:45Z</time></trkpt><trkpt lat="43.14501396178809" lon="2.9813646550688526"><ele>9.0</ele><time>2026-04-10T11:48:47Z</time></trkpt><trkpt lat="43.14505978692341" lon="2.981276405917285"><ele>9.5</ele><time>2026-04-10T11:48:49Z</time></trkpt><trkpt lat="43.14510492005227" lon="2.98118504234314"><ele>10.0</ele><time>2026-04-10T11:48:51Z</time></trkpt><trkpt lat="43.14514485967534" lon="2.9811026678905925"><ele>10.0</ele><time>2026-04-10T11:48:54Z</time></trkpt><trkpt lat="43.1451829124367" lon="2.98103042207409"><ele>10.0</ele><time>2026-04-10T11:48:57Z</time></trkpt><trkpt lat="43.145237878926814" lon="2.9809356777840157"><ele>10.0</ele><time>2026-04-10T11:48:59Z</time></trkpt><trkpt lat="43.145263823745445" lon="2.980845501881381"><ele>10.0</ele><time>2026-04-10T11:49:01Z</time></trkpt><trkpt lat="43.145353105251026" lon="2.980777025560229"><ele>10.0</ele><time>2026-04-10T11:49:03.999Z</time></trkpt><trkpt lat="43.14539332049393" lon="2.9806937551405164"><ele>10.0</ele><time>2026-04-10T11:49:05.999Z</time></trkpt><trkpt lat="43.14542444517915" lon="2.9806105566213668"><ele>10.0</ele><time>2026-04-10T11:49:07.999Z</time></trkpt><trkpt lat="43.14546466907752" lon="2.9805421878659004"><ele>10.0</ele><time>2026-04-10T11:49:09.999Z</time></trkpt><trkpt lat="43.14550436793217" lon="2.9804669630705183"><ele>10.0</ele><time>2026-04-10T11:49:11.999Z</time></trkpt><trkpt lat="43.145549141877545" lon="2.9803857443800643"><ele>10.0</ele><time>2026-04-10T11:49:14.999Z</time></trkpt><trkpt lat="43.14557693809306" lon="2.98030811882837"><ele>10.0</ele><time>2026-04-10T11:49:17.999Z</time></trkpt><trkpt lat="43.14562499500084" lon="2.9802232757048954"><ele>10.0</ele><time>2026-04-10T11:49:20.999Z</time></trkpt><trkpt lat="43.14566004040729" lon="2.9801251005877942"><ele>10.0</ele><time>2026-04-10T11:49:23.999Z</time></trkpt><trkpt lat="43.145700139711195" lon="2.98002384309328"><ele>10.333333333333334</ele><time>2026-04-10T11:49:26.999Z</time></trkpt><trkpt lat="43.14573076973015" lon="2.9799184332339617"><ele>10.666666666666668</ele><time>2026-04-10T11:49:29.999Z</time></trkpt><trkpt lat="43.14575992008564" lon="2.9798153467096213"><ele>11.0</ele><time>2026-04-10T11:49:32.999Z</time></trkpt><trkpt lat="43.14578737089997" lon="2.9797074724907144"><ele>11.333333333333334</ele><time>2026-04-10T11:49:35.999Z</time></trkpt><trkpt lat="43.1458123009303" lon="2.9796138314724345"><ele>11.666666666666666</ele><time>2026-04-10T11:49:38.999Z</time></trkpt><trkpt lat="43.14584248542873" lon="2.979518308387244"><ele>12.0</ele><time>2026-04-10T11:49:41.999Z</time></trkpt><trkpt lat="43.145875691651426" lon="2.9794266286761624"><ele>11.999999999999998</ele><time>2026-04-10T11:49:44.999Z</time></trkpt><trkpt lat="43.14588969337367" lon="2.9793307905984703"><ele>12.0</ele><time>2026-04-10T11:49:47.999Z</time></trkpt><trkpt lat="43.145903559559265" lon="2.979236436809629"><ele>12.0</ele><time>2026-04-10T11:49:50.999Z</time></trkpt><trkpt lat="43.14592239927029" lon="2.9791381845218003"><ele>12.0</ele><time>2026-04-10T11:49:53.999Z</time></trkpt><trkpt lat="43.14593733913857" lon="2.9790473317004302"><ele>12.0</ele><time>2026-04-10T11:49:56.999Z</time></trkpt><trkpt lat="43.145956357688114" lon="2.9789571556490824"><ele>11.999999999999998</ele><time>2026-04-10T11:49:59.999Z</time></trkpt><trkpt lat="43.14597037200308" lon="2.978867865005039"><ele>12.0</ele><time>2026-04-10T11:50:02.999Z</time></trkpt><trkpt lat="43.145995053162416" lon="2.978776059610127"><ele>12.333333333333334</ele><time>2026-04-10T11:50:05.999Z</time></trkpt><trkpt lat="43.14601363151696" lon="2.9786775736736812"><ele>12.666666666666668</ele><time>2026-04-10T11:50:08.999Z</time></trkpt><trkpt lat="43.146033557919374" lon="2.9785914230264594"><ele>13.0</ele><time>2026-04-10T11:50:11.999Z</time></trkpt><trkpt lat="43.14606677874993" lon="2.9784756550322316"><ele>13.333333333333334</ele><time>2026-04-10T11:50:15.999Z</time></trkpt><trkpt lat="43.14609265364798" lon="2.978372326897913"><ele>13.666666666666668</ele><time>2026-04-10T11:50:18.998Z</time></trkpt><trkpt lat="43.14611663361075" lon="2.9782770809196277"><ele>14.0</ele><time>2026-04-10T11:50:22Z</time></trkpt><trkpt lat="43.14613949843988" lon="2.9781745622694684"><ele>14.666666666666668</ele><time>2026-04-10T11:50:25Z</time></trkpt><trkpt lat="43.14616954310226" lon="2.978067673367969"><ele>15.333333333333334</ele><time>2026-04-10T11:50:28Z</time></trkpt><trkpt lat="43.14618811745844" lon="2.9779678272003363"><ele>16.0</ele><time>2026-04-10T11:50:31Z</time></trkpt><trkpt lat="43.14620267213745" lon="2.977851622175051"><ele>16.666666666666668</ele><time>2026-04-10T11:50:34Z</time></trkpt><trkpt lat="43.146206169980445" lon="2.9777269153195425"><ele>17.333333333333332</ele><time>2026-04-10T11:50:37Z</time></trkpt><trkpt lat="43.14618043539049" lon="2.977647901270179"><ele>18.0</ele><time>2026-04-10T11:50:39Z</time></trkpt><trkpt lat="43.14611840036571" lon="2.977581506940461"><ele>18.0</ele><time>2026-04-10T11:50:42Z</time></trkpt><trkpt lat="43.14611116552718" lon="2.9776757870878168"><ele>18.0</ele><time>2026-04-10T11:50:45Z</time></trkpt><trkpt lat="43.146165690006235" lon="2.9776227410181493"><ele>18.0</ele><time>2026-04-10T11:50:47Z</time></trkpt><trkpt lat="43.1461160812832" lon="2.9775457237372667"><ele>18.0</ele><time>2026-04-10T11:50:49Z</time></trkpt><trkpt lat="43.146050934977325" lon="2.9775245736137776"><ele>18.0</ele><time>2026-04-10T11:50:51Z</time></trkpt><trkpt lat="43.145971956201976" lon="2.9774821709026007"><ele>18.0</ele><time>2026-04-10T11:50:54Z</time></trkpt><trkpt lat="43.14589249653383" lon="2.9774278695351795"><ele>18.166666666666668</ele><time>2026-04-10T11:50:57Z</time></trkpt><trkpt lat="43.14581150683754" lon="2.9773842193664755"><ele>18.333333333333332</ele><time>2026-04-10T11:51:00Z</time></trkpt><trkpt lat="43.14573458247947" lon="2.977338619942897"><ele>18.5</ele><time>2026-04-10T11:51:03Z</time></trkpt><trkpt lat="43.14566088182883" lon="2.977293495301921"><ele>18.666666666666664</ele><time>2026-04-10T11:51:06Z</time></trkpt><trkpt lat="43.145582540458314" lon="2.9772491086169213"><ele>18.833333333333332</ele><time>2026-04-10T11:51:08.999Z</time></trkpt><trkpt lat="43.14550251317296" lon="2.9772102567052796"><ele>19.0</ele><time>2026-04-10T11:51:11.999Z</time></trkpt><trkpt lat="43.14542511384241" lon="2.977155795821978"><ele>19.0</ele><time>2026-04-10T11:51:14.999Z</time></trkpt><trkpt lat="43.14535411267167" lon="2.977115283979136"><ele>19.0</ele><time>2026-04-10T11:51:17.999Z</time></trkpt><trkpt lat="43.14529056658763" lon="2.9770896417344668"><ele>19.0</ele><time>2026-04-10T11:51:21.999Z</time></trkpt><trkpt lat="43.14523042430112" lon="2.9770406429366876"><ele>19.0</ele><time>2026-04-10T11:51:26.999Z</time></trkpt><trkpt lat="43.145160178390476" lon="2.9770112957791937"><ele>19.0</ele><time>2026-04-10T11:51:30.999Z</time></trkpt><trkpt lat="43.145092107084665" lon="2.976977326267483"><ele>19.0</ele><time>2026-04-10T11:51:34.999Z</time></trkpt><trkpt lat="43.14502787040111" lon="2.976960234100337"><ele>19.0</ele><time>2026-04-10T11:51:40.999Z</time></trkpt><trkpt lat="43.144968017011365" lon="2.9768946171778112"><ele>19.0</ele><time>2026-04-10T11:51:44.999Z</time></trkpt><trkpt lat="43.144904663121764" lon="2.9768623447237235"><ele>19.0</ele><time>2026-04-10T11:51:48.999Z</time></trkpt><trkpt lat="43.144836856033294" lon="2.9768063202597546"><ele>19.0</ele><time>2026-04-10T11:51:52.999Z</time></trkpt><trkpt lat="43.14478877090265" lon="2.9767157942948725"><ele>19.0</ele><time>2026-04-10T11:51:56.999Z</time></trkpt><trkpt lat="43.144780784444016" lon="2.976611998522763"><ele>19.0</ele><time>2026-04-10T11:51:59.999Z</time></trkpt><trkpt lat="43.14479994652567" lon="2.976505774825356"><ele>19.0</ele><time>2026-04-10T11:52:02.999Z</time></trkpt><trkpt lat="43.14482747948856" lon="2.9764217122068053"><ele>19.166666666666664</ele><time>2026-04-10T11:52:05.999Z</time></trkpt><trkpt lat="43.14486238231546" lon="2.976328549947543"><ele>19.333333333333332</ele><time>2026-04-10T11:52:08.999Z</time></trkpt><trkpt lat="43.14489867079068" lon="2.9762431912359997"><ele>19.5</ele><time>2026-04-10T11:52:11.999Z</time></trkpt><trkpt lat="43.14494056763429" lon="2.9761477238221876"><ele>19.666666666666668</ele><time>2026-04-10T11:52:14.999Z</time></trkpt><trkpt lat="43.144992223385984" lon="2.9760606643933456"><ele>19.833333333333336</ele><time>2026-04-10T11:52:17.999Z</time></trkpt><trkpt lat="43.14504434647249" lon="2.9759907641140155"><ele>20.0</ele><time>2026-04-10T11:52:20.999Z</time></trkpt><trkpt lat="43.14511592239341" lon="2.975952655945399"><ele>20.0</ele><time>2026-04-10T11:52:23.998Z</time></trkpt><trkpt lat="43.14519311706509" lon="2.9759136854072983"><ele>20.0</ele><time>2026-04-10T11:52:26.998Z</time></trkpt><trkpt lat="43.14525000609494" lon="2.9758691932985575"><ele>20.0</ele><time>2026-04-10T11:52:30Z</time></trkpt><trkpt lat="43.14534018182447" lon="2.975858524862905"><ele>20.0</ele><time>2026-04-10T11:52:33Z</time></trkpt><trkpt lat="43.14541830596644" lon="2.975895398390915"><ele>20.0</ele><time>2026-04-10T11:52:36Z</time></trkpt><trkpt lat="43.14548240259772" lon="2.9759251892327137"><ele>20.0</ele><time>2026-04-10T11:52:38Z</time></trkpt><trkpt lat="43.1455501693595" lon="2.9759701344606473"><ele>20.0</ele><time>2026-04-10T11:52:40Z</time></trkpt><trkpt lat="43.14562945376516" lon="2.9760056894762186"><ele>20.0</ele><time>2026-04-10T11:52:42Z</time></trkpt><trkpt lat="43.14571865868919" lon="2.9760552996552674"><ele>20.0</ele><time>2026-04-10T11:52:44Z</time></trkpt><trkpt lat="43.14581517502808" lon="2.9761097388469806"><ele>20.0</ele><time>2026-04-10T11:52:46Z</time></trkpt><trkpt lat="43.145914589909104" lon="2.9761696490085603"><ele>20.0</ele><time>2026-04-10T11:52:48Z</time></trkpt><trkpt lat="43.14602484499877" lon="2.9762329954599793"><ele>20.0</ele><time>2026-04-10T11:52:50Z</time></trkpt><trkpt lat="43.14608344090283" lon="2.976266626846108"><ele>20.0</ele><time>2026-04-10T11:52:51Z</time></trkpt><trkpt lat="43.14620008679552" lon="2.97633246376485"><ele>20.0</ele><time>2026-04-10T11:52:53Z</time></trkpt><trkpt lat="43.14626023320773" lon="2.976367245601434"><ele>20.0</ele><time>2026-04-10T11:52:54Z</time></trkpt><trkpt lat="43.14631888555811" lon="2.976401964171895"><ele>20.0</ele><time>2026-04-10T11:52:55Z</time></trkpt><trkpt lat="43.1464312875634" lon="2.976467125406923"><ele>20.0</ele><time>2026-04-10T11:52:57Z</time></trkpt><trkpt lat="43.14654981729439" lon="2.9765388839573186"><ele>19.666666666666668</ele><time>2026-04-10T11:52:59Z</time></trkpt><trkpt lat="43.146611081473765" lon="2.976570906711504"><ele>19.333333333333336</ele><time>2026-04-10T11:53:00Z</time></trkpt><trkpt lat="43.1466705607575" lon="2.9766046561770327"><ele>19.0</ele><time>2026-04-10T11:53:01Z</time></trkpt><trkpt lat="43.146728684888025" lon="2.976642062951837"><ele>18.666666666666668</ele><time>2026-04-10T11:53:02Z</time></trkpt><trkpt lat="43.14684415363122" lon="2.97670258125418"><ele>18.333333333333332</ele><time>2026-04-10T11:53:04Z</time></trkpt><trkpt lat="43.146903292189336" lon="2.9767380645423516"><ele>18.0</ele><time>2026-04-10T11:53:05Z</time></trkpt><trkpt lat="43.147019753998265" lon="2.9768036304679386"><ele>17.6</ele><time>2026-04-10T11:53:07Z</time></trkpt><trkpt lat="43.147079379963515" lon="2.9768391930335865"><ele>17.200000000000003</ele><time>2026-04-10T11:53:08Z</time></trkpt><trkpt lat="43.147195764271316" lon="2.9769007366450326"><ele>16.8</ele><time>2026-04-10T11:53:10Z</time></trkpt><trkpt lat="43.147311845449536" lon="2.9769707907814427"><ele>16.400000000000002</ele><time>2026-04-10T11:53:12Z</time></trkpt><trkpt lat="43.14737025665922" lon="2.977007054162057"><ele>16.0</ele><time>2026-04-10T11:53:13Z</time></trkpt><trkpt lat="43.14748191690366" lon="2.977071145850938"><ele>15.25</ele><time>2026-04-10T11:53:15Z</time></trkpt><trkpt lat="43.147589343709946" lon="2.9771327811650448"><ele>14.5</ele><time>2026-04-10T11:53:16.999Z</time></trkpt><trkpt lat="43.147695046661134" lon="2.9771854316084165"><ele>13.75</ele><time>2026-04-10T11:53:18.999Z</time></trkpt><trkpt lat="43.14780031866303" lon="2.977254969124275"><ele>13.0</ele><time>2026-04-10T11:53:20.999Z</time></trkpt><trkpt lat="43.147913960424255" lon="2.977319354727062"><ele>13.0</ele><time>2026-04-10T11:53:22.999Z</time></trkpt><trkpt lat="43.14802567600517" lon="2.977375647001979"><ele>13.0</ele><time>2026-04-10T11:53:24.999Z</time></trkpt><trkpt lat="43.148125709532124" lon="2.977435276912409"><ele>13.0</ele><time>2026-04-10T11:53:26.999Z</time></trkpt><trkpt lat="43.148219246616826" lon="2.977477825775669"><ele>13.0</ele><time>2026-04-10T11:53:28.999Z</time></trkpt><trkpt lat="43.148314651747945" lon="2.9775350585864757"><ele>13.0</ele><time>2026-04-10T11:53:30.999Z</time></trkpt><trkpt lat="43.148414140801506" lon="2.977590962339408"><ele>13.4</ele><time>2026-04-10T11:53:32.999Z</time></trkpt><trkpt lat="43.14851144407835" lon="2.9776445988067355"><ele>13.8</ele><time>2026-04-10T11:53:34.999Z</time></trkpt><trkpt lat="43.14860221018545" lon="2.9776987301217854"><ele>14.2</ele><time>2026-04-10T11:53:36.999Z</time></trkpt><trkpt lat="43.148689907222064" lon="2.9777509481620186"><ele>14.6</ele><time>2026-04-10T11:53:38.999Z</time></trkpt><trkpt lat="43.14877318180459" lon="2.977802039590478"><ele>15.0</ele><time>2026-04-10T11:53:40.999Z</time></trkpt><trkpt lat="43.14885416140281" lon="2.9778552598201067"><ele>15.0</ele><time>2026-04-10T11:53:42.999Z</time></trkpt><trkpt lat="43.148939484698715" lon="2.9778995091442138"><ele>15.0</ele><time>2026-04-10T11:53:44.999Z</time></trkpt><trkpt lat="43.149029526251255" lon="2.977957027991461"><ele>15.0</ele><time>2026-04-10T11:53:46.999Z</time></trkpt><trkpt lat="43.14913041529956" lon="2.9780197580107806"><ele>15.0</ele><time>2026-04-10T11:53:48.999Z</time></trkpt><trkpt lat="43.1492372218265" lon="2.978079465317278"><ele>15.0</ele><time>2026-04-10T11:53:50.999Z</time></trkpt><trkpt lat="43.149343829600106" lon="2.9781382942210723"><ele>15.25</ele><time>2026-04-10T11:53:52.999Z</time></trkpt><trkpt lat="43.14945688985789" lon="2.9782020804167635"><ele>15.5</ele><time>2026-04-10T11:53:54.999Z</time></trkpt><trkpt lat="43.149549695811594" lon="2.978270121624135"><ele>15.75</ele><time>2026-04-10T11:53:56.999Z</time></trkpt><trkpt lat="43.14966190462759" lon="2.9783222888041965"><ele>16.0</ele><time>2026-04-10T11:53:58.999Z</time></trkpt><trkpt lat="43.149776693638856" lon="2.9783818122373393"><ele>16.400000000000002</ele><time>2026-04-10T11:54:00.999Z</time></trkpt><trkpt lat="43.14988656624656" lon="2.9784432787272737"><ele>16.8</ele><time>2026-04-10T11:54:02.999Z</time></trkpt><trkpt lat="43.149995710478954" lon="2.9785032793664206"><ele>17.200000000000003</ele><time>2026-04-10T11:54:04.999Z</time></trkpt><trkpt lat="43.150105643082064" lon="2.9785734452803556"><ele>17.6</ele><time>2026-04-10T11:54:06.999Z</time></trkpt><trkpt lat="43.1501633293325" lon="2.9786080396320007"><ele>18.0</ele><time>2026-04-10T11:54:07.999Z</time></trkpt><trkpt lat="43.15027915991055" lon="2.978669021904276"><ele>18.0</ele><time>2026-04-10T11:54:09.999Z</time></trkpt><trkpt lat="43.150391289573804" lon="2.9787388144555766"><ele>18.0</ele><time>2026-04-10T11:54:11.999Z</time></trkpt><trkpt lat="43.15050787459498" lon="2.9788054421580585"><ele>18.0</ele><time>2026-04-10T11:54:13.999Z</time></trkpt><trkpt lat="43.150567804065645" lon="2.9788336303523915"><ele>18.0</ele><time>2026-04-10T11:54:14.999Z</time></trkpt><trkpt lat="43.1506819033086" lon="2.9789003766899893"><ele>18.0</ele><time>2026-04-10T11:54:16.999Z</time></trkpt><trkpt lat="43.150794292426816" lon="2.9789621496402248"><ele>17.666666666666668</ele><time>2026-04-10T11:54:18.999Z</time></trkpt><trkpt lat="43.15091144941856" lon="2.9790242679049026"><ele>17.333333333333332</ele><time>2026-04-10T11:54:20.999Z</time></trkpt><trkpt lat="43.15097186993996" lon="2.979059400054911"><ele>17.0</ele><time>2026-04-10T11:54:21.999Z</time></trkpt><trkpt lat="43.151034045922806" lon="2.9790910143190694"><ele>16.666666666666664</ele><time>2026-04-10T11:54:22.999Z</time></trkpt><trkpt lat="43.15109696138055" lon="2.979116819955814"><ele>16.333333333333332</ele><time>2026-04-10T11:54:23.999Z</time></trkpt><trkpt lat="43.15121395493545" lon="2.9791705756926525"><ele>16.0</ele><time>2026-04-10T11:54:25.999Z</time></trkpt><trkpt lat="43.15127350448212" lon="2.9792028948972886"><ele>15.8</ele><time>2026-04-10T11:54:26.999Z</time></trkpt><trkpt lat="43.1513807415964" lon="2.9792597914132184"><ele>15.600000000000001</ele><time>2026-04-10T11:54:28.999Z</time></trkpt><trkpt lat="43.15146870804807" lon="2.979305919320659"><ele>15.4</ele><time>2026-04-10T11:54:30.999Z</time></trkpt><trkpt lat="43.15154674172952" lon="2.9793372879587774"><ele>15.2</ele><time>2026-04-10T11:54:31.999Z</time></trkpt><trkpt lat="43.151649589273006" lon="2.9793938960050834"><ele>15.0</ele><time>2026-04-10T11:54:34Z</time></trkpt><trkpt lat="43.151765216888755" lon="2.979443389796885"><ele>15.75</ele><time>2026-04-10T11:54:36Z</time></trkpt><trkpt lat="43.15187760421229" lon="2.9794911556250185"><ele>16.5</ele><time>2026-04-10T11:54:38Z</time></trkpt><trkpt lat="43.15198896700656" lon="2.9795458713991363"><ele>17.25</ele><time>2026-04-10T11:54:40Z</time></trkpt><trkpt lat="43.15209589840375" lon="2.979591598705928"><ele>18.0</ele><time>2026-04-10T11:54:42Z</time></trkpt><trkpt lat="43.15220425420983" lon="2.979639939279952"><ele>18.0</ele><time>2026-04-10T11:54:44Z</time></trkpt><trkpt lat="43.15231096176223" lon="2.979686908651977"><ele>18.0</ele><time>2026-04-10T11:54:46Z</time></trkpt><trkpt lat="43.152420673627354" lon="2.979734501880695"><ele>18.0</ele><time>2026-04-10T11:54:48Z</time></trkpt><trkpt lat="43.152532194408806" lon="2.979771198746033"><ele>18.0</ele><time>2026-04-10T11:54:50Z</time></trkpt><trkpt lat="43.15263571950582" lon="2.9798087640636632"><ele>18.0</ele><time>2026-04-10T11:54:52Z</time></trkpt><trkpt lat="43.15273734779598" lon="2.979858363843814"><ele>17.0</ele><time>2026-04-10T11:54:54Z</time></trkpt><trkpt lat="43.152844607537354" lon="2.9799018099754644"><ele>16.0</ele><time>2026-04-10T11:54:56Z</time></trkpt><trkpt lat="43.15294921399722" lon="2.9799349533381174"><ele>15.0</ele><time>2026-04-10T11:54:58Z</time></trkpt><trkpt lat="43.15305541388065" lon="2.9799852314133473"><ele>14.0</ele><time>2026-04-10T11:55:00Z</time></trkpt><trkpt lat="43.15316635450652" lon="2.9800347730936365"><ele>13.0</ele><time>2026-04-10T11:55:02Z</time></trkpt><trkpt lat="43.15327240141767" lon="2.9800720358800064"><ele>12.200000000000001</ele><time>2026-04-10T11:55:04Z</time></trkpt><trkpt lat="43.15337395559857" lon="2.980125202469189"><ele>11.4</ele><time>2026-04-10T11:55:06Z</time></trkpt><trkpt lat="43.153474406230785" lon="2.9801627890330162"><ele>10.600000000000001</ele><time>2026-04-10T11:55:08Z</time></trkpt><trkpt lat="43.15357077687606" lon="2.980201761062875"><ele>9.8</ele><time>2026-04-10T11:55:10Z</time></trkpt><trkpt lat="43.1536734393476" lon="2.980243018654263"><ele>9.0</ele><time>2026-04-10T11:55:12Z</time></trkpt><trkpt lat="43.15378100836081" lon="2.9802890237171265"><ele>9.0</ele><time>2026-04-10T11:55:14Z</time></trkpt><trkpt lat="43.15389187123354" lon="2.980332359344522"><ele>9.0</ele><time>2026-04-10T11:55:16Z</time></trkpt><trkpt lat="43.15399603371713" lon="2.9803722036155276"><ele>9.0</ele><time>2026-04-10T11:55:18Z</time></trkpt><trkpt lat="43.154099735437335" lon="2.9804114653183733"><ele>9.0</ele><time>2026-04-10T11:55:20Z</time></trkpt><trkpt lat="43.154210838248666" lon="2.980456996266932"><ele>9.0</ele><time>2026-04-10T11:55:22Z</time></trkpt><trkpt lat="43.15432879763454" lon="2.980502481738174"><ele>9.25</ele><time>2026-04-10T11:55:24Z</time></trkpt><trkpt lat="43.15444176479705" lon="2.9805494726245945"><ele>9.5</ele><time>2026-04-10T11:55:25.999Z</time></trkpt><trkpt lat="43.15455536546567" lon="2.980592349777162"><ele>9.75</ele><time>2026-04-10T11:55:27.999Z</time></trkpt><trkpt lat="43.15467005581168" lon="2.9806391356137882"><ele>10.0</ele><time>2026-04-10T11:55:29.999Z</time></trkpt><trkpt lat="43.154784804337424" lon="2.9806823667092797"><ele>10.2</ele><time>2026-04-10T11:55:31.999Z</time></trkpt><trkpt lat="43.15490260295119" lon="2.98072833407151"><ele>10.4</ele><time>2026-04-10T11:55:33.999Z</time></trkpt><trkpt lat="43.1549636794535" lon="2.9807530221165743"><ele>10.600000000000001</ele><time>2026-04-10T11:55:34.999Z</time></trkpt><trkpt lat="43.15508111191158" lon="2.980799226411487"><ele>10.8</ele><time>2026-04-10T11:55:36.999Z</time></trkpt><trkpt lat="43.15519791052296" lon="2.980851343941073"><ele>11.0</ele><time>2026-04-10T11:55:38.999Z</time></trkpt><trkpt lat="43.155316362517404" lon="2.980898016092076"><ele>10.75</ele><time>2026-04-10T11:55:40.999Z</time></trkpt><trkpt lat="43.155433795442335" lon="2.9809460980399036"><ele>10.5</ele><time>2026-04-10T11:55:42.999Z</time></trkpt><trkpt lat="43.155540908882955" lon="2.9810113022415297"><ele>10.25</ele><time>2026-04-10T11:55:44.999Z</time></trkpt><trkpt lat="43.15565444256552" lon="2.981074666276201"><ele>10.0</ele><time>2026-04-10T11:55:46.999Z</time></trkpt><trkpt lat="43.1557586152663" lon="2.981151940227016"><ele>10.0</ele><time>2026-04-10T11:55:48.999Z</time></trkpt><trkpt lat="43.15586464909547" lon="2.981204499583496"><ele>10.0</ele><time>2026-04-10T11:55:50.999Z</time></trkpt><trkpt lat="43.1559750293556" lon="2.9812557840147633"><ele>10.0</ele><time>2026-04-10T11:55:52.999Z</time></trkpt><trkpt lat="43.15608167763385" lon="2.981300969359466"><ele>10.0</ele><time>2026-04-10T11:55:54.999Z</time></trkpt><trkpt lat="43.15618700739793" lon="2.9813508621643297"><ele>10.0</ele><time>2026-04-10T11:55:56.999Z</time></trkpt><trkpt lat="43.156271211250164" lon="2.9813928752143175"><ele>10.0</ele><time>2026-04-10T11:55:58.999Z</time></trkpt><trkpt lat="43.15635456469467" lon="2.9814346054600565"><ele>10.0</ele><time>2026-04-10T11:56:00.999Z</time></trkpt><trkpt lat="43.15641900715948" lon="2.9814003740806467"><ele>10.0</ele><time>2026-04-10T11:56:01.999Z</time></trkpt><trkpt lat="43.15647692765011" lon="2.9814548965687537"><ele>10.0</ele><time>2026-04-10T11:56:03.999Z</time></trkpt><trkpt lat="43.156546308016566" lon="2.9812172697650388"><ele>9.666666666666668</ele><time>2026-04-10T11:56:17.999Z</time></trkpt><trkpt lat="43.156641589392365" lon="2.9811936797990484"><ele>9.333333333333334</ele><time>2026-04-10T11:56:20.999Z</time></trkpt><trkpt lat="43.1566950508877" lon="2.9811460993466397"><ele>9.0</ele><time>2026-04-10T11:56:22.999Z</time></trkpt><trkpt lat="43.15677777345921" lon="2.9810869947373253"><ele>8.666666666666666</ele><time>2026-04-10T11:56:25.999Z</time></trkpt><trkpt lat="43.156840521347924" lon="2.981050525525237"><ele>8.333333333333332</ele><time>2026-04-10T11:56:27.999Z</time></trkpt><trkpt lat="43.1569155217566" lon="2.9809962217993027"><ele>8.0</ele><time>2026-04-10T11:56:30.999Z</time></trkpt><trkpt lat="43.1569933509107" lon="2.980994778595789"><ele>7.999999999999999</ele><time>2026-04-10T11:56:34.999Z</time></trkpt><trkpt lat="43.15705277692763" lon="2.981050886767007"><ele>8.0</ele><time>2026-04-10T11:56:36.999Z</time></trkpt><trkpt lat="43.157109983778014" lon="2.980985235794031"><ele>8.0</ele><time>2026-04-10T11:56:38.999Z</time></trkpt><trkpt lat="43.15714064369782" lon="2.98086822368753"><ele>8.0</ele><time>2026-04-10T11:56:41Z</time></trkpt><trkpt lat="43.157181777787095" lon="2.980766076241844"><ele>7.999999999999999</ele><time>2026-04-10T11:56:43Z</time></trkpt><trkpt lat="43.157229793997246" lon="2.9806668442472533"><ele>8.0</ele><time>2026-04-10T11:56:45Z</time></trkpt><trkpt lat="43.15727014898595" lon="2.980563797055509"><ele>8.166666666666666</ele><time>2026-04-10T11:56:47Z</time></trkpt><trkpt lat="43.15730493598628" lon="2.980455850645647"><ele>8.333333333333332</ele><time>2026-04-10T11:56:49Z</time></trkpt><trkpt lat="43.157333063325204" lon="2.9803417750272794"><ele>8.5</ele><time>2026-04-10T11:56:51Z</time></trkpt><trkpt lat="43.15735606465937" lon="2.9802310519196022"><ele>8.666666666666666</ele><time>2026-04-10T11:56:53Z</time></trkpt><trkpt lat="43.15737771736213" lon="2.980132493076262"><ele>8.833333333333334</ele><time>2026-04-10T11:56:55Z</time></trkpt><trkpt lat="43.1573988333263" lon="2.98003913495641"><ele>9.0</ele><time>2026-04-10T11:56:57Z</time></trkpt><trkpt lat="43.15742927375361" lon="2.9799353195799188"><ele>9.000000000000002</ele><time>2026-04-10T11:56:59Z</time></trkpt><trkpt lat="43.15745120478691" lon="2.9798277766204926"><ele>9.0</ele><time>2026-04-10T11:57:01Z</time></trkpt><trkpt lat="43.15747516890791" lon="2.979732079974504"><ele>9.0</ele><time>2026-04-10T11:57:03Z</time></trkpt><trkpt lat="43.157497067432836" lon="2.979650436993422"><ele>9.0</ele><time>2026-04-10T11:57:05Z</time></trkpt><trkpt lat="43.15750879376126" lon="2.9795572783738438"><ele>9.0</ele><time>2026-04-10T11:57:07Z</time></trkpt><trkpt lat="43.157527691530355" lon="2.979466532850276"><ele>9.000000000000002</ele><time>2026-04-10T11:57:09Z</time></trkpt><trkpt lat="43.1575506253148" lon="2.979368866885128"><ele>9.0</ele><time>2026-04-10T11:57:11Z</time></trkpt><trkpt lat="43.15756767256946" lon="2.979272235318874"><ele>9.142857142857144</ele><time>2026-04-10T11:57:13Z</time></trkpt><trkpt lat="43.15758798178013" lon="2.979169728085575"><ele>9.285714285714286</ele><time>2026-04-10T11:57:15Z</time></trkpt><trkpt lat="43.15761395702913" lon="2.9790769640509196"><ele>9.428571428571429</ele><time>2026-04-10T11:57:17Z</time></trkpt><trkpt lat="43.15763243094741" lon="2.9789849566183624"><ele>9.571428571428573</ele><time>2026-04-10T11:57:19Z</time></trkpt><trkpt lat="43.15765693681176" lon="2.9788955792066085"><ele>9.714285714285715</ele><time>2026-04-10T11:57:21Z</time></trkpt><trkpt lat="43.157673029103606" lon="2.9788077071775785"><ele>9.857142857142858</ele><time>2026-04-10T11:57:23Z</time></trkpt><trkpt lat="43.15769850134726" lon="2.978708896057551"><ele>10.0</ele><time>2026-04-10T11:57:26Z</time></trkpt><trkpt lat="43.15776896722002" lon="2.978674515453669"><ele>10.0</ele><time>2026-04-10T11:57:29Z</time></trkpt><trkpt lat="43.15779000088163" lon="2.9785928107551976"><ele>10.0</ele><time>2026-04-10T11:57:31Z</time></trkpt><trkpt lat="43.1578485011426" lon="2.9785226959644855"><ele>10.0</ele><time>2026-04-10T11:57:33.999Z</time></trkpt><trkpt lat="43.15792561923418" lon="2.978475522280689"><ele>10.0</ele><time>2026-04-10T11:57:36.999Z</time></trkpt><trkpt lat="43.15799935696345" lon="2.978405917837972"><ele>10.0</ele><time>2026-04-10T11:57:39.999Z</time></trkpt><trkpt lat="43.158057763453115" lon="2.9783396703220113"><ele>10.0</ele><time>2026-04-10T11:57:42.999Z</time></trkpt><trkpt lat="43.158152555625755" lon="2.9783350472491863"><ele>10.166666666666668</ele><time>2026-04-10T11:57:45.999Z</time></trkpt><trkpt lat="43.15821498978614" lon="2.978360785133344"><ele>10.333333333333334</ele><time>2026-04-10T11:57:47.999Z</time></trkpt><trkpt lat="43.1582826052245" lon="2.9783593823580787"><ele>10.5</ele><time>2026-04-10T11:57:49.999Z</time></trkpt><trkpt lat="43.158345730678526" lon="2.9783518458126528"><ele>10.666666666666666</ele><time>2026-04-10T11:57:51.999Z</time></trkpt><trkpt lat="43.15842321370134" lon="2.9783693663896393"><ele>10.833333333333332</ele><time>2026-04-10T11:57:53.999Z</time></trkpt><trkpt lat="43.158515954716854" lon="2.978405922450027"><ele>11.0</ele><time>2026-04-10T11:57:55.999Z</time></trkpt><trkpt lat="43.15861698320401" lon="2.9784373603906875"><ele>11.0</ele><time>2026-04-10T11:57:57.999Z</time></trkpt><trkpt lat="43.15871222873737" lon="2.9784826333207457"><ele>11.0</ele><time>2026-04-10T11:57:59.999Z</time></trkpt><trkpt lat="43.15880422630827" lon="2.9785264258365083"><ele>11.0</ele><time>2026-04-10T11:58:01.999Z</time></trkpt><trkpt lat="43.15889446648749" lon="2.9785637488385635"><ele>11.0</ele><time>2026-04-10T11:58:03.999Z</time></trkpt><trkpt lat="43.1589834054735" lon="2.9786056924125583"><ele>11.0</ele><time>2026-04-10T11:58:05.999Z</time></trkpt><trkpt lat="43.15906808046416" lon="2.978634778694501"><ele>10.833333333333332</ele><time>2026-04-10T11:58:07.999Z</time></trkpt><trkpt lat="43.15915440753681" lon="2.978666607005506"><ele>10.666666666666666</ele><time>2026-04-10T11:58:09.999Z</time></trkpt><trkpt lat="43.159234386400044" lon="2.9787062319345146"><ele>10.5</ele><time>2026-04-10T11:58:11.999Z</time></trkpt><trkpt lat="43.15931471267006" lon="2.978734422532317"><ele>10.333333333333334</ele><time>2026-04-10T11:58:13.999Z</time></trkpt><trkpt lat="43.159393577931134" lon="2.9787753569794937"><ele>10.166666666666668</ele><time>2026-04-10T11:58:15.999Z</time></trkpt><trkpt lat="43.15948626238893" lon="2.9788088553947376"><ele>10.0</ele><time>2026-04-10T11:58:17.999Z</time></trkpt><trkpt lat="43.15957354884156" lon="2.978848543146637"><ele>10.0</ele><time>2026-04-10T11:58:19.999Z</time></trkpt><trkpt lat="43.15966260919066" lon="2.978883381581107"><ele>10.0</ele><time>2026-04-10T11:58:21.999Z</time></trkpt><trkpt lat="43.159753089921466" lon="2.9789189589976357"><ele>10.0</ele><time>2026-04-10T11:58:23.999Z</time></trkpt><trkpt lat="43.159839010319224" lon="2.978959716168368"><ele>10.0</ele><time>2026-04-10T11:58:25.999Z</time></trkpt><trkpt lat="43.159922593211384" lon="2.9789938755761813"><ele>10.0</ele><time>2026-04-10T11:58:27.999Z</time></trkpt><trkpt lat="43.159998715650985" lon="2.979028243912341"><ele>10.0</ele><time>2026-04-10T11:58:29.999Z</time></trkpt><trkpt lat="43.160071947035355" lon="2.9790622853341313"><ele>10.166666666666668</ele><time>2026-04-10T11:58:31.999Z</time></trkpt><trkpt lat="43.160150059731215" lon="2.979090091755923"><ele>10.333333333333334</ele><time>2026-04-10T11:58:33.999Z</time></trkpt><trkpt lat="43.16022592316641" lon="2.9791191902822547"><ele>10.5</ele><time>2026-04-10T11:58:35.999Z</time></trkpt><trkpt lat="43.16030060049496" lon="2.9791590976051774"><ele>10.666666666666666</ele><time>2026-04-10T11:58:37.999Z</time></trkpt><trkpt lat="43.160375354308236" lon="2.9791870194843386"><ele>10.833333333333332</ele><time>2026-04-10T11:58:39.999Z</time></trkpt><trkpt lat="43.16044966908897" lon="2.979222225049838"><ele>11.0</ele><time>2026-04-10T11:58:41.999Z</time></trkpt><trkpt lat="43.16051422993192" lon="2.979253059307893"><ele>11.0</ele><time>2026-04-10T11:58:43.999Z</time></trkpt><trkpt lat="43.16061086350532" lon="2.9792892510274975"><ele>11.0</ele><time>2026-04-10T11:58:47Z</time></trkpt><trkpt lat="43.16068253043121" lon="2.979320065538163"><ele>11.0</ele><time>2026-04-10T11:58:49Z</time></trkpt><trkpt lat="43.16075516376682" lon="2.979355392588479"><ele>11.0</ele><time>2026-04-10T11:58:51Z</time></trkpt><trkpt lat="43.160828731649055" lon="2.979386380394956"><ele>11.0</ele><time>2026-04-10T11:58:53Z</time></trkpt><trkpt lat="43.16090723428691" lon="2.9794169661679626"><ele>11.0</ele><time>2026-04-10T11:58:55Z</time></trkpt><trkpt lat="43.16098440813835" lon="2.9794486326988685"><ele>11.166666666666666</ele><time>2026-04-10T11:58:57Z</time></trkpt><trkpt lat="43.16105441382054" lon="2.979474504449973"><ele>11.333333333333332</ele><time>2026-04-10T11:58:59Z</time></trkpt><trkpt lat="43.161152479936845" lon="2.979516015601898"><ele>11.5</ele><time>2026-04-10T11:59:02Z</time></trkpt><trkpt lat="43.16121520909312" lon="2.9795459625447704"><ele>11.666666666666666</ele><time>2026-04-10T11:59:04Z</time></trkpt><trkpt lat="43.16128469950175" lon="2.9795721133628406"><ele>11.833333333333334</ele><time>2026-04-10T11:59:06Z</time></trkpt><trkpt lat="43.161356808983605" lon="2.9795962939841574"><ele>12.0</ele><time>2026-04-10T11:59:08Z</time></trkpt><trkpt lat="43.161428689957724" lon="2.979631199104908"><ele>11.999999999999998</ele><time>2026-04-10T11:59:10Z</time></trkpt><trkpt lat="43.161502553419304" lon="2.979660912512384"><ele>12.0</ele><time>2026-04-10T11:59:12Z</time></trkpt><trkpt lat="43.161578891574706" lon="2.979687341607653"><ele>12.0</ele><time>2026-04-10T11:59:14Z</time></trkpt><trkpt lat="43.16164998816811" lon="2.979718568800954"><ele>12.0</ele><time>2026-04-10T11:59:16Z</time></trkpt><trkpt lat="43.16171397220045" lon="2.9797512896684046"><ele>12.0</ele><time>2026-04-10T11:59:18Z</time></trkpt><trkpt lat="43.161773584542026" lon="2.9797860148024613"><ele>11.999999999999998</ele><time>2026-04-10T11:59:20Z</time></trkpt><trkpt lat="43.161841948892764" lon="2.9798326503643144"><ele>12.0</ele><time>2026-04-10T11:59:22Z</time></trkpt><trkpt lat="43.1619110112075" lon="2.9798196627368294"><ele>12.333333333333334</ele><time>2026-04-10T11:59:24Z</time></trkpt><trkpt lat="43.16198264819857" lon="2.9797441214150577"><ele>12.666666666666668</ele><time>2026-04-10T11:59:27Z</time></trkpt><trkpt lat="43.16204418535302" lon="2.979689267843846"><ele>13.0</ele><time>2026-04-10T11:59:30Z</time></trkpt><trkpt lat="43.16211475950325" lon="2.9796325932322043"><ele>13.333333333333334</ele><time>2026-04-10T11:59:33Z</time></trkpt><trkpt lat="43.16218634797352" lon="2.9795762378867083"><ele>13.666666666666668</ele><time>2026-04-10T11:59:36Z</time></trkpt><trkpt lat="43.16225819332423" lon="2.9795313788349964"><ele>14.0</ele><time>2026-04-10T11:59:39Z</time></trkpt><trkpt lat="43.16231774152252" lon="2.9794588276943657"><ele>14.857142857142858</ele><time>2026-04-10T11:59:41.999Z</time></trkpt><trkpt lat="43.162384319947854" lon="2.9794002831591277"><ele>15.714285714285715</ele><time>2026-04-10T11:59:44.999Z</time></trkpt><trkpt lat="43.16244841744495" lon="2.979341137350388"><ele>16.57142857142857</ele><time>2026-04-10T11:59:47.999Z</time></trkpt><trkpt lat="43.16250967101829" lon="2.9792922608855092"><ele>17.42857142857143</ele><time>2026-04-10T11:59:50.999Z</time></trkpt><trkpt lat="43.16257044518883" lon="2.9792505028010217"><ele>18.285714285714285</ele><time>2026-04-10T11:59:53.999Z</time></trkpt><trkpt lat="43.162634318186925" lon="2.979214548949704"><ele>19.142857142857142</ele><time>2026-04-10T11:59:56.999Z</time></trkpt><trkpt lat="43.16270345469907" lon="2.97915201256763"><ele>20.0</ele><time>2026-04-10T11:59:59.999Z</time></trkpt><trkpt lat="43.16277067050671" lon="2.9790945765832673"><ele>20.5</ele><time>2026-04-10T12:00:02.999Z</time></trkpt><trkpt lat="43.162846654717114" lon="2.979047158501036"><ele>21.0</ele><time>2026-04-10T12:00:05.999Z</time></trkpt><trkpt lat="43.162928509663274" lon="2.9790087510656487"><ele>21.5</ele><time>2026-04-10T12:00:08.999Z</time></trkpt><trkpt lat="43.163008349608596" lon="2.9789892418409005"><ele>22.0</ele><time>2026-04-10T12:00:11.999Z</time></trkpt><trkpt lat="43.163085930500124" lon="2.9790009551262857"><ele>22.5</ele><time>2026-04-10T12:00:14.999Z</time></trkpt><trkpt lat="43.163164393606614" lon="2.9790279271921136"><ele>23.0</ele><time>2026-04-10T12:00:17.999Z</time></trkpt><trkpt lat="43.16324542054166" lon="2.979034118804682"><ele>23.333333333333336</ele><time>2026-04-10T12:00:20.999Z</time></trkpt><trkpt lat="43.16331789703505" lon="2.9791013715634835"><ele>23.666666666666668</ele><time>2026-04-10T12:00:23.999Z</time></trkpt><trkpt lat="43.163385650577275" lon="2.9791844046085645"><ele>24.0</ele><time>2026-04-10T12:00:26.999Z</time></trkpt><trkpt lat="43.16344421312841" lon="2.9792661300538863"><ele>24.333333333333336</ele><time>2026-04-10T12:00:29.999Z</time></trkpt><trkpt lat="43.16350160804231" lon="2.9793557187863327"><ele>24.666666666666668</ele><time>2026-04-10T12:00:32.999Z</time></trkpt><trkpt lat="43.163546284844344" lon="2.979420873991349"><ele>25.0</ele><time>2026-04-10T12:00:34.999Z</time></trkpt><trkpt lat="43.16359659377994" lon="2.979495946296443"><ele>25.000000000000004</ele><time>2026-04-10T12:00:36.999Z</time></trkpt><trkpt lat="43.16364807115853" lon="2.979579021292811"><ele>25.0</ele><time>2026-04-10T12:00:38.999Z</time></trkpt><trkpt lat="43.16370101153643" lon="2.9796612335160764"><ele>25.0</ele><time>2026-04-10T12:00:40.999Z</time></trkpt><trkpt lat="43.16375241335403" lon="2.9797489289187045"><ele>25.0</ele><time>2026-04-10T12:00:42.999Z</time></trkpt><trkpt lat="43.16381830585648" lon="2.979829600919676"><ele>25.000000000000004</ele><time>2026-04-10T12:00:44.999Z</time></trkpt><trkpt lat="43.16389135131219" lon="2.9799249016295404"><ele>25.0</ele><time>2026-04-10T12:00:46.999Z</time></trkpt><trkpt lat="43.163966045793245" lon="2.9800181223886213"><ele>25.0</ele><time>2026-04-10T12:00:48.999Z</time></trkpt><trkpt lat="43.164043630200425" lon="2.980111343354801"><ele>25.0</ele><time>2026-04-10T12:00:50.999Z</time></trkpt><trkpt lat="43.16411862228283" lon="2.9802183576788583"><ele>25.0</ele><time>2026-04-10T12:00:53Z</time></trkpt><trkpt lat="43.16419861940448" lon="2.98030032625834"><ele>25.0</ele><time>2026-04-10T12:00:55Z</time></trkpt><trkpt lat="43.16428423015261" lon="2.980393029200921"><ele>25.0</ele><time>2026-04-10T12:00:57Z</time></trkpt><trkpt lat="43.16436939636915" lon="2.980479416791535"><ele>25.0</ele><time>2026-04-10T12:00:59Z</time></trkpt><trkpt lat="43.16446705897202" lon="2.980581340502602"><ele>25.0</ele><time>2026-04-10T12:01:01Z</time></trkpt><trkpt lat="43.16451934701448" lon="2.9806375224349577"><ele>25.0</ele><time>2026-04-10T12:01:02Z</time></trkpt><trkpt lat="43.16460459685232" lon="2.9807514608176406"><ele>25.0</ele><time>2026-04-10T12:01:04Z</time></trkpt><trkpt lat="43.16464845077657" lon="2.980817615250842"><ele>25.0</ele><time>2026-04-10T12:01:05Z</time></trkpt><trkpt lat="43.16474826295777" lon="2.9809022367639053"><ele>25.25</ele><time>2026-04-10T12:01:07Z</time></trkpt><trkpt lat="43.164852477716536" lon="2.9809748119942756"><ele>25.5</ele><time>2026-04-10T12:01:09Z</time></trkpt><trkpt lat="43.1649486831441" lon="2.9810689046175356"><ele>25.75</ele><time>2026-04-10T12:01:11Z</time></trkpt><trkpt lat="43.165055555914314" lon="2.981134534733854"><ele>26.0</ele><time>2026-04-10T12:01:13Z</time></trkpt><trkpt lat="43.16516011916194" lon="2.981204138837507"><ele>26.0</ele><time>2026-04-10T12:01:15Z</time></trkpt><trkpt lat="43.165264327349576" lon="2.9812663051149486"><ele>26.0</ele><time>2026-04-10T12:01:17Z</time></trkpt><trkpt lat="43.16536788837516" lon="2.9813376449421227"><ele>26.0</ele><time>2026-04-10T12:01:19Z</time></trkpt><trkpt lat="43.16547592943387" lon="2.9814034879483904"><ele>26.0</ele><time>2026-04-10T12:01:21Z</time></trkpt><trkpt lat="43.16558674673158" lon="2.9814675378317412"><ele>26.0</ele><time>2026-04-10T12:01:23Z</time></trkpt><trkpt lat="43.165691825416154" lon="2.981534443243499"><ele>26.0</ele><time>2026-04-10T12:01:25Z</time></trkpt><trkpt lat="43.16579914609105" lon="2.981602713109604"><ele>26.0</ele><time>2026-04-10T12:01:27Z</time></trkpt><trkpt lat="43.16585616443104" lon="2.981640696663358"><ele>26.0</ele><time>2026-04-10T12:01:28Z</time></trkpt><trkpt lat="43.16596750411876" lon="2.9817227476051706"><ele>26.0</ele><time>2026-04-10T12:01:30Z</time></trkpt><trkpt lat="43.16602620350358" lon="2.9817643138909165"><ele>26.0</ele><time>2026-04-10T12:01:31Z</time></trkpt><trkpt lat="43.16608514734687" lon="2.9818089703974033"><ele>26.0</ele><time>2026-04-10T12:01:32Z</time></trkpt><trkpt lat="43.166142933565176" lon="2.981854006006944"><ele>26.0</ele><time>2026-04-10T12:01:33Z</time></trkpt><trkpt lat="43.166201919861464" lon="2.981904317958569"><ele>26.0</ele><time>2026-04-10T12:01:34Z</time></trkpt><trkpt lat="43.166260822373495" lon="2.9819549178712412"><ele>26.0</ele><time>2026-04-10T12:01:35Z</time></trkpt><trkpt lat="43.16632050520032" lon="2.9820065261684316"><ele>26.0</ele><time>2026-04-10T12:01:36Z</time></trkpt><trkpt lat="43.16637418389856" lon="2.982060478858873"><ele>26.0</ele><time>2026-04-10T12:01:37Z</time></trkpt><trkpt lat="43.166430784230265" lon="2.982114714400874"><ele>26.0</ele><time>2026-04-10T12:01:38Z</time></trkpt><trkpt lat="43.16648482950074" lon="2.9821640242794687"><ele>26.0</ele><time>2026-04-10T12:01:39Z</time></trkpt><trkpt lat="43.16653834610861" lon="2.9822179282324246"><ele>26.0</ele><time>2026-04-10T12:01:40Z</time></trkpt><trkpt lat="43.16658820968617" lon="2.982275411172362"><ele>26.0</ele><time>2026-04-10T12:01:41Z</time></trkpt><trkpt lat="43.16664624680459" lon="2.9823290028630054"><ele>26.0</ele><time>2026-04-10T12:01:42Z</time></trkpt><trkpt lat="43.166700987368934" lon="2.9823840361690532"><ele>26.0</ele><time>2026-04-10T12:01:43Z</time></trkpt><trkpt lat="43.166760933257834" lon="2.982434137135668"><ele>26.0</ele><time>2026-04-10T12:01:44Z</time></trkpt><trkpt lat="43.16682668397865" lon="2.9824709194164734"><ele>24.25</ele><time>2026-04-10T12:01:45Z</time></trkpt><trkpt lat="43.16695402690498" lon="2.982499043858711"><ele>22.5</ele><time>2026-04-10T12:01:46.999Z</time></trkpt><trkpt lat="43.1670700659819" lon="2.9824636300721306"><ele>20.75</ele><time>2026-04-10T12:01:48.999Z</time></trkpt><trkpt lat="43.16716212236355" lon="2.982386521638187"><ele>19.0</ele><time>2026-04-10T12:01:50.999Z</time></trkpt><trkpt lat="43.167239314818865" lon="2.982291667568717"><ele>19.0</ele><time>2026-04-10T12:01:52.999Z</time></trkpt><trkpt lat="43.167305741208786" lon="2.9822095224246383"><ele>19.0</ele><time>2026-04-10T12:01:54.999Z</time></trkpt><trkpt lat="43.16737923681436" lon="2.982130255025019"><ele>19.0</ele><time>2026-04-10T12:01:56.999Z</time></trkpt><trkpt lat="43.167456408350105" lon="2.9820664209683474"><ele>19.0</ele><time>2026-04-10T12:01:58.999Z</time></trkpt><trkpt lat="43.167544041958124" lon="2.9820292646416964"><ele>19.0</ele><time>2026-04-10T12:02:00.999Z</time></trkpt><trkpt lat="43.16764108081275" lon="2.9820319741712087"><ele>18.5</ele><time>2026-04-10T12:02:02.999Z</time></trkpt><trkpt lat="43.16772683912951" lon="2.982011217710146"><ele>18.0</ele><time>2026-04-10T12:02:04.999Z</time></trkpt><trkpt lat="43.16781183230103" lon="2.9820691942983646"><ele>17.5</ele><time>2026-04-10T12:02:06.999Z</time></trkpt><trkpt lat="43.16788963172208" lon="2.982109593662384"><ele>17.0</ele><time>2026-04-10T12:02:08.999Z</time></trkpt><trkpt lat="43.167951759492716" lon="2.9821435981820335"><ele>16.5</ele><time>2026-04-10T12:02:10.999Z</time></trkpt><trkpt lat="43.16802099817471" lon="2.982179278445926"><ele>16.0</ele><time>2026-04-10T12:02:12.999Z</time></trkpt><trkpt lat="43.16808359317215" lon="2.982211958380564"><ele>15.999999999999998</ele><time>2026-04-10T12:02:14.999Z</time></trkpt><trkpt lat="43.16814415682788" lon="2.9822418566834537"><ele>16.0</ele><time>2026-04-10T12:02:16.999Z</time></trkpt><trkpt lat="43.16820438650601" lon="2.9822780450307995"><ele>16.0</ele><time>2026-04-10T12:02:18.999Z</time></trkpt><trkpt lat="43.168285235495645" lon="2.9823670673085223"><ele>16.0</ele><time>2026-04-10T12:02:21.999Z</time></trkpt><trkpt lat="43.16834179402546" lon="2.982432626920436"><ele>15.999999999999998</ele><time>2026-04-10T12:02:23.999Z</time></trkpt><trkpt lat="43.168403724225996" lon="2.9824945875470164"><ele>16.0</ele><time>2026-04-10T12:02:25.999Z</time></trkpt><trkpt lat="43.168468403556645" lon="2.9825643693304054"><ele>15.600000000000001</ele><time>2026-04-10T12:02:27.999Z</time></trkpt><trkpt lat="43.16854008134576" lon="2.982640550753516"><ele>15.200000000000001</ele><time>2026-04-10T12:02:29.999Z</time></trkpt><trkpt lat="43.16861936148087" lon="2.982725560043522"><ele>14.799999999999999</ele><time>2026-04-10T12:02:31.999Z</time></trkpt><trkpt lat="43.16869608828077" lon="2.982814837710965"><ele>14.399999999999999</ele><time>2026-04-10T12:02:33.999Z</time></trkpt><trkpt lat="43.168773485059205" lon="2.9828929340180603"><ele>14.0</ele><time>2026-04-10T12:02:35.999Z</time></trkpt><trkpt lat="43.16885279772843" lon="2.982955068378217"><ele>14.0</ele><time>2026-04-10T12:02:37.999Z</time></trkpt><trkpt lat="43.168934074248625" lon="2.9829895032143314"><ele>13.999999999999998</ele><time>2026-04-10T12:02:39.999Z</time></trkpt><trkpt lat="43.16902931979872" lon="2.9830140743664426"><ele>13.999999999999998</ele><time>2026-04-10T12:02:41.999Z</time></trkpt><trkpt lat="43.16913282596258" lon="2.983040614262129"><ele>14.0</ele><time>2026-04-10T12:02:43.999Z</time></trkpt><trkpt lat="43.16921679036994" lon="2.9831008648551887"><ele>14.0</ele><time>2026-04-10T12:02:45.999Z</time></trkpt><trkpt lat="43.169285462347986" lon="2.9831827103094466"><ele>14.166666666666668</ele><time>2026-04-10T12:02:47.999Z</time></trkpt><trkpt lat="43.16932003051749" lon="2.983269216330406"><ele>14.333333333333334</ele><time>2026-04-10T12:02:49.999Z</time></trkpt><trkpt lat="43.16931918183975" lon="2.9833841617237993"><ele>14.5</ele><time>2026-04-10T12:02:51.999Z</time></trkpt><trkpt lat="43.169299403445464" lon="2.9834980742678185"><ele>14.666666666666668</ele><time>2026-04-10T12:02:53.999Z</time></trkpt><trkpt lat="43.16927170149536" lon="2.9836181013096157"><ele>14.833333333333334</ele><time>2026-04-10T12:02:55.999Z</time></trkpt><trkpt lat="43.16923074290252" lon="2.983738040147257"><ele>15.0</ele><time>2026-04-10T12:02:59Z</time></trkpt><trkpt lat="43.16919104715493" lon="2.9838368838340825"><ele>15.0</ele><time>2026-04-10T12:03:01Z</time></trkpt><trkpt lat="43.16914428226285" lon="2.983945728309059"><ele>15.0</ele><time>2026-04-10T12:03:03Z</time></trkpt><trkpt lat="43.169105202416844" lon="2.9840600191971958"><ele>15.0</ele><time>2026-04-10T12:03:05Z</time></trkpt><trkpt lat="43.169047339179016" lon="2.984165378383985"><ele>15.0</ele><time>2026-04-10T12:03:07Z</time></trkpt><trkpt lat="43.16900331727333" lon="2.9842793075028036"><ele>15.0</ele><time>2026-04-10T12:03:09Z</time></trkpt><trkpt lat="43.16895346281717" lon="2.9843880173371327"><ele>15.0</ele><time>2026-04-10T12:03:11Z</time></trkpt><trkpt lat="43.16890962177523" lon="2.9845003377117325"><ele>15.0</ele><time>2026-04-10T12:03:13Z</time></trkpt><trkpt lat="43.16886564485539" lon="2.9846069750945667"><ele>15.0</ele><time>2026-04-10T12:03:15Z</time></trkpt><trkpt lat="43.16882145764415" lon="2.9847183882661956"><ele>15.0</ele><time>2026-04-10T12:03:17Z</time></trkpt><trkpt lat="43.16876801690953" lon="2.9848246210637615"><ele>15.0</ele><time>2026-04-10T12:03:19Z</time></trkpt><trkpt lat="43.16876067322023" lon="2.9849454801012985"><ele>15.0</ele><time>2026-04-10T12:03:21Z</time></trkpt><trkpt lat="43.168841504773816" lon="2.9850389781370024"><ele>15.0</ele><time>2026-04-10T12:03:23Z</time></trkpt><trkpt lat="43.16889903515771" lon="2.985143208965542"><ele>15.0</ele><time>2026-04-10T12:03:25Z</time></trkpt><trkpt lat="43.16896092769932" lon="2.985244224355559"><ele>15.0</ele><time>2026-04-10T12:03:27Z</time></trkpt><trkpt lat="43.1690295737525" lon="2.9853563607109708"><ele>15.0</ele><time>2026-04-10T12:03:29Z</time></trkpt><trkpt lat="43.169094853982465" lon="2.985463531801539"><ele>15.2</ele><time>2026-04-10T12:03:31Z</time></trkpt><trkpt lat="43.169154443643095" lon="2.9855657492106125"><ele>15.4</ele><time>2026-04-10T12:03:33Z</time></trkpt><trkpt lat="43.169214467234866" lon="2.985659244336085"><ele>15.600000000000001</ele><time>2026-04-10T12:03:35Z</time></trkpt><trkpt lat="43.16927598947169" lon="2.9857532415867643"><ele>15.8</ele><time>2026-04-10T12:03:37Z</time></trkpt><trkpt lat="43.16933606874827" lon="2.985840068666824"><ele>16.0</ele><time>2026-04-10T12:03:39Z</time></trkpt><trkpt lat="43.16938909819061" lon="2.9859340589594834"><ele>15.4</ele><time>2026-04-10T12:03:41Z</time></trkpt><trkpt lat="43.16944791995617" lon="2.9860270983060544"><ele>14.8</ele><time>2026-04-10T12:03:43Z</time></trkpt><trkpt lat="43.169492899081355" lon="2.9861345018831065"><ele>14.200000000000001</ele><time>2026-04-10T12:03:45Z</time></trkpt><trkpt lat="43.16953436678371" lon="2.98625215491191"><ele>13.600000000000001</ele><time>2026-04-10T12:03:47Z</time></trkpt><trkpt lat="43.16954006305795" lon="2.986404847503468"><ele>13.0</ele><time>2026-04-10T12:03:49Z</time></trkpt><trkpt lat="43.169517311728214" lon="2.986543042257235"><ele>13.0</ele><time>2026-04-10T12:03:51Z</time></trkpt><trkpt lat="43.16948108823283" lon="2.9866671832054568"><ele>13.0</ele><time>2026-04-10T12:03:52.999Z</time></trkpt><trkpt lat="43.16944970723274" lon="2.9867948149947767"><ele>13.0</ele><time>2026-04-10T12:03:54.999Z</time></trkpt><trkpt lat="43.16941945344458" lon="2.98692171798725"><ele>13.0</ele><time>2026-04-10T12:03:56.999Z</time></trkpt><trkpt lat="43.169411511681844" lon="2.98705863718281"><ele>13.0</ele><time>2026-04-10T12:03:58.999Z</time></trkpt><trkpt lat="43.16948965057701" lon="2.987162447695382"><ele>12.8</ele><time>2026-04-10T12:04:00.999Z</time></trkpt><trkpt lat="43.16960610577475" lon="2.987190293943197"><ele>12.600000000000001</ele><time>2026-04-10T12:04:02.999Z</time></trkpt><trkpt lat="43.16970620771917" lon="2.987240146986201"><ele>12.399999999999999</ele><time>2026-04-10T12:04:04.999Z</time></trkpt><trkpt lat="43.16979311620182" lon="2.987307208857012"><ele>12.2</ele><time>2026-04-10T12:04:06.999Z</time></trkpt><trkpt lat="43.16987669320532" lon="2.987400431862236"><ele>12.0</ele><time>2026-04-10T12:04:08.999Z</time></trkpt><trkpt lat="43.16999420652122" lon="2.9873968891113094"><ele>12.2</ele><time>2026-04-10T12:04:10.999Z</time></trkpt><trkpt lat="43.17008915352614" lon="2.987373695956174"><ele>12.399999999999999</ele><time>2026-04-10T12:04:12.999Z</time></trkpt><trkpt lat="43.170147411089864" lon="2.987479320856606"><ele>12.600000000000001</ele><time>2026-04-10T12:04:14.999Z</time></trkpt><trkpt lat="43.17023712940938" lon="2.9875260632472385"><ele>12.8</ele><time>2026-04-10T12:04:16.999Z</time></trkpt><trkpt lat="43.170340060803056" lon="2.9875630453666813"><ele>13.0</ele><time>2026-04-10T12:04:18.999Z</time></trkpt><trkpt lat="43.170431790953714" lon="2.9876067290052988"><ele>13.0</ele><time>2026-04-10T12:04:20.999Z</time></trkpt><trkpt lat="43.17051817817303" lon="2.9876411269490273"><ele>13.0</ele><time>2026-04-10T12:04:22.999Z</time></trkpt><trkpt lat="43.170603733263974" lon="2.987674437269321"><ele>13.0</ele><time>2026-04-10T12:04:24.999Z</time></trkpt><trkpt lat="43.17068978204708" lon="2.9877170893965506"><ele>13.0</ele><time>2026-04-10T12:04:26.999Z</time></trkpt><trkpt lat="43.170773207445635" lon="2.987752891365868"><ele>13.0</ele><time>2026-04-10T12:04:28.999Z</time></trkpt><trkpt lat="43.17086005926017" lon="2.987796986299721"><ele>13.166666666666666</ele><time>2026-04-10T12:04:30.999Z</time></trkpt><trkpt lat="43.17094097652842" lon="2.9878344952927742"><ele>13.333333333333332</ele><time>2026-04-10T12:04:32.999Z</time></trkpt><trkpt lat="43.17102135472742" lon="2.9878620257953603"><ele>13.5</ele><time>2026-04-10T12:04:34.999Z</time></trkpt><trkpt lat="43.17109992240052" lon="2.9878979790501905"><ele>13.666666666666668</ele><time>2026-04-10T12:04:36.999Z</time></trkpt><trkpt lat="43.17118738309939" lon="2.9879407924894004"><ele>13.833333333333334</ele><time>2026-04-10T12:04:38.999Z</time></trkpt><trkpt lat="43.17126770184132" lon="2.9879829763490977"><ele>14.0</ele><time>2026-04-10T12:04:40.999Z</time></trkpt><trkpt lat="43.17134693543627" lon="2.988018637070183"><ele>14.000000000000002</ele><time>2026-04-10T12:04:42.999Z</time></trkpt><trkpt lat="43.17142615697582" lon="2.9880521175999015"><ele>14.0</ele><time>2026-04-10T12:04:44.999Z</time></trkpt><trkpt lat="43.17150060352552" lon="2.9880870507069917"><ele>14.0</ele><time>2026-04-10T12:04:46.999Z</time></trkpt><trkpt lat="43.17157874833773" lon="2.9881243919957368"><ele>14.0</ele><time>2026-04-10T12:04:48.999Z</time></trkpt><trkpt lat="43.17166126944024" lon="2.9881586107950087"><ele>14.000000000000002</ele><time>2026-04-10T12:04:50.999Z</time></trkpt><trkpt lat="43.17173768898299" lon="2.9881920826206327"><ele>14.0</ele><time>2026-04-10T12:04:52.999Z</time></trkpt><trkpt lat="43.17182494411377" lon="2.988235894448266"><ele>13.799999999999999</ele><time>2026-04-10T12:04:54.999Z</time></trkpt><trkpt lat="43.171910021576316" lon="2.9882700557259456"><ele>13.599999999999998</ele><time>2026-04-10T12:04:56.999Z</time></trkpt><trkpt lat="43.17199385133733" lon="2.9883084429415674"><ele>13.4</ele><time>2026-04-10T12:04:58.999Z</time></trkpt><trkpt lat="43.172085297408536" lon="2.9883420956126625"><ele>13.2</ele><time>2026-04-10T12:05:00.999Z</time></trkpt><trkpt lat="43.17217027007732" lon="2.988375542292581"><ele>13.0</ele><time>2026-04-10T12:05:02.999Z</time></trkpt><trkpt lat="43.17226468225515" lon="2.9883897591661372"><ele>12.999999999999998</ele><time>2026-04-10T12:05:05Z</time></trkpt><trkpt lat="43.172356248730125" lon="2.9884151872945512"><ele>13.0</ele><time>2026-04-10T12:05:07Z</time></trkpt><trkpt lat="43.172443687300124" lon="2.988448555077889"><ele>13.0</ele><time>2026-04-10T12:05:09Z</time></trkpt><trkpt lat="43.17252531332971" lon="2.988475395736345"><ele>13.0</ele><time>2026-04-10T12:05:11Z</time></trkpt><trkpt lat="43.172608585105216" lon="2.9884772180587045"><ele>12.999999999999998</ele><time>2026-04-10T12:05:13Z</time></trkpt><trkpt lat="43.17269628675939" lon="2.9884801069705107"><ele>13.0</ele><time>2026-04-10T12:05:15Z</time></trkpt><trkpt lat="43.172781625663724" lon="2.9884718279802573"><ele>13.166666666666666</ele><time>2026-04-10T12:05:17Z</time></trkpt><trkpt lat="43.172865968006704" lon="2.9884638302517152"><ele>13.333333333333332</ele><time>2026-04-10T12:05:19Z</time></trkpt><trkpt lat="43.172942629944764" lon="2.9884604877210004"><ele>13.5</ele><time>2026-04-10T12:05:21Z</time></trkpt><trkpt lat="43.1730224545355" lon="2.988441584052705"><ele>13.666666666666668</ele><time>2026-04-10T12:05:23Z</time></trkpt><trkpt lat="43.173101662201745" lon="2.9884251619342126"><ele>13.833333333333334</ele><time>2026-04-10T12:05:25Z</time></trkpt><trkpt lat="43.17318366830338" lon="2.9884126445940415"><ele>14.0</ele><time>2026-04-10T12:05:27Z</time></trkpt><trkpt lat="43.173264681694654" lon="2.9883999970219914"><ele>14.000000000000002</ele><time>2026-04-10T12:05:29Z</time></trkpt><trkpt lat="43.17333657420261" lon="2.988381909688609"><ele>14.0</ele><time>2026-04-10T12:05:31Z</time></trkpt><trkpt lat="43.173409195851654" lon="2.9883713679575123"><ele>14.0</ele><time>2026-04-10T12:05:33Z</time></trkpt><trkpt lat="43.17348560305276" lon="2.9883669079987722"><ele>14.0</ele><time>2026-04-10T12:05:35Z</time></trkpt><trkpt lat="43.17356755467942" lon="2.9883544282820336"><ele>14.000000000000002</ele><time>2026-04-10T12:05:37Z</time></trkpt><trkpt lat="43.17364659951718" lon="2.9883408969732135"><ele>14.0</ele><time>2026-04-10T12:05:39Z</time></trkpt><trkpt lat="43.173731553776506" lon="2.988329125769869"><ele>14.000000000000002</ele><time>2026-04-10T12:05:41Z</time></trkpt><trkpt lat="43.173810359919365" lon="2.9883076808343416"><ele>14.0</ele><time>2026-04-10T12:05:43Z</time></trkpt><trkpt lat="43.173888266018" lon="2.9882966557946458"><ele>14.0</ele><time>2026-04-10T12:05:45Z</time></trkpt><trkpt lat="43.173969722487705" lon="2.9882862092105915"><ele>14.0</ele><time>2026-04-10T12:05:47Z</time></trkpt><trkpt lat="43.174050898244715" lon="2.98826667738754"><ele>14.000000000000002</ele><time>2026-04-10T12:05:49Z</time></trkpt><trkpt lat="43.17413759427661" lon="2.988254771221784"><ele>14.0</ele><time>2026-04-10T12:05:51Z</time></trkpt><trkpt lat="43.174220855144064" lon="2.988239866689174"><ele>14.000000000000002</ele><time>2026-04-10T12:05:53Z</time></trkpt><trkpt lat="43.17430269355761" lon="2.988219631476454"><ele>14.0</ele><time>2026-04-10T12:05:55Z</time></trkpt><trkpt lat="43.17438867141291" lon="2.9882100179175413"><ele>14.0</ele><time>2026-04-10T12:05:57Z</time></trkpt><trkpt lat="43.1744729815086" lon="2.988205792031241"><ele>14.0</ele><time>2026-04-10T12:05:58.999Z</time></trkpt><trkpt lat="43.17455336831181" lon="2.988193278668829"><ele>14.000000000000002</ele><time>2026-04-10T12:06:00.999Z</time></trkpt><trkpt lat="43.17463344041812" lon="2.988178156197058"><ele>14.0</ele><time>2026-04-10T12:06:02.999Z</time></trkpt><trkpt lat="43.174698705991005" lon="2.988168773701026"><ele>14.000000000000002</ele><time>2026-04-10T12:06:04.999Z</time></trkpt><trkpt lat="43.17476805385208" lon="2.988148071054907"><ele>14.0</ele><time>2026-04-10T12:06:06.999Z</time></trkpt><trkpt lat="43.1748361437093" lon="2.988150604744058"><ele>14.0</ele><time>2026-04-10T12:06:08.999Z</time></trkpt><trkpt lat="43.17490689807575" lon="2.9881459751089294"><ele>14.0</ele><time>2026-04-10T12:06:10.999Z</time></trkpt><trkpt lat="43.17498618730847" lon="2.988118441895001"><ele>14.000000000000002</ele><time>2026-04-10T12:06:12.999Z</time></trkpt><trkpt lat="43.1750678214893" lon="2.988088831521645"><ele>14.0</ele><time>2026-04-10T12:06:14.999Z</time></trkpt><trkpt lat="43.175151606694214" lon="2.9880924722889413"><ele>13.833333333333334</ele><time>2026-04-10T12:06:16.999Z</time></trkpt><trkpt lat="43.17523139290917" lon="2.9880786531380563"><ele>13.666666666666668</ele><time>2026-04-10T12:06:18.999Z</time></trkpt><trkpt lat="43.17530691284635" lon="2.9880673738430645"><ele>13.5</ele><time>2026-04-10T12:06:20.999Z</time></trkpt><trkpt lat="43.17538070803568" lon="2.9880590547384496"><ele>13.333333333333332</ele><time>2026-04-10T12:06:22.999Z</time></trkpt><trkpt lat="43.17545222145349" lon="2.9880728908110172"><ele>13.166666666666666</ele><time>2026-04-10T12:06:24.999Z</time></trkpt><trkpt lat="43.17552651978137" lon="2.9881262382821387"><ele>13.0</ele><time>2026-04-10T12:06:26.999Z</time></trkpt><trkpt lat="43.175590576453466" lon="2.988186732363525"><ele>13.0</ele><time>2026-04-10T12:06:28.999Z</time></trkpt><trkpt lat="43.17565122956673" lon="2.988241271796639"><ele>13.0</ele><time>2026-04-10T12:06:30.999Z</time></trkpt><trkpt lat="43.17570762273876" lon="2.9882872635145894"><ele>13.0</ele><time>2026-04-10T12:06:32.999Z</time></trkpt><trkpt lat="43.17578746698544" lon="2.9883388387014778"><ele>13.0</ele><time>2026-04-10T12:06:35.999Z</time></trkpt><trkpt lat="43.17585376786807" lon="2.988387585217807"><ele>13.0</ele><time>2026-04-10T12:06:38.999Z</time></trkpt><trkpt lat="43.17590309092892" lon="2.988444708961103"><ele>13.0</ele><time>2026-04-10T12:06:42.999Z</time></trkpt><trkpt lat="43.175964217294606" lon="2.9884842581527935"><ele>13.0</ele><time>2026-04-10T12:07:33Z</time></trkpt><trkpt lat="43.176016338563436" lon="2.9885446296320057"><ele>12.499999999999998</ele><time>2026-04-10T12:07:37Z</time></trkpt><trkpt lat="43.176094347372825" lon="2.9885949920601704"><ele>12.0</ele><time>2026-04-10T12:07:40Z</time></trkpt><trkpt lat="43.176144876017446" lon="2.98865183146867"><ele>11.5</ele><time>2026-04-10T12:07:42Z</time></trkpt><trkpt lat="43.17620662019454" lon="2.9886853692222117"><ele>11.0</ele><time>2026-04-10T12:07:44Z</time></trkpt><trkpt lat="43.1762689019428" lon="2.988733759379746"><ele>10.5</ele><time>2026-04-10T12:07:46Z</time></trkpt><trkpt lat="43.17632957515097" lon="2.9887742478577484"><ele>10.0</ele><time>2026-04-10T12:07:48Z</time></trkpt><trkpt lat="43.17640743263978" lon="2.9888455338381363"><ele>10.0</ele><time>2026-04-10T12:07:51Z</time></trkpt><trkpt lat="43.17645394887125" lon="2.9889042878955405"><ele>10.0</ele><time>2026-04-10T12:07:53Z</time></trkpt><trkpt lat="43.17647763723895" lon="2.989001730427656"><ele>10.0</ele><time>2026-04-10T12:07:55Z</time></trkpt><trkpt lat="43.176500167982745" lon="2.989084844545639"><ele>10.0</ele><time>2026-04-10T12:07:57Z</time></trkpt><trkpt lat="43.1765017566426" lon="2.9891913452306174"><ele>10.0</ele><time>2026-04-10T12:07:59Z</time></trkpt><trkpt lat="43.176485054671794" lon="2.9892865377472777"><ele>10.0</ele><time>2026-04-10T12:08:01Z</time></trkpt><trkpt lat="43.17647690225472" lon="2.9893825714440214"><ele>10.0</ele><time>2026-04-10T12:08:04.999Z</time></trkpt><trkpt lat="43.176546066131486" lon="2.9893367004404485"><ele>10.0</ele><time>2026-04-10T12:08:07.999Z</time></trkpt><trkpt lat="43.17655904438898" lon="2.989232699500136"><ele>10.0</ele><time>2026-04-10T12:08:09.999Z</time></trkpt><trkpt lat="43.17659205566068" lon="2.9891373628877598"><ele>10.0</ele><time>2026-04-10T12:08:12.999Z</time></trkpt><trkpt lat="43.17661840205206" lon="2.9892509596785812"><ele>10.0</ele><time>2026-04-10T12:08:16.999Z</time></trkpt><trkpt lat="43.17660338984652" lon="2.989370308850123"><ele>10.0</ele><time>2026-04-10T12:08:18.999Z</time></trkpt><trkpt lat="43.17660925444217" lon="2.989504221848733"><ele>10.0</ele><time>2026-04-10T12:08:20.999Z</time></trkpt><trkpt lat="43.17664069832027" lon="2.989640021271144"><ele>9.6</ele><time>2026-04-10T12:08:22.999Z</time></trkpt><trkpt lat="43.17658928892688" lon="2.9897320863323573"><ele>9.2</ele><time>2026-04-10T12:08:24.999Z</time></trkpt><trkpt lat="43.17660571015056" lon="2.9898371624001316"><ele>8.8</ele><time>2026-04-10T12:08:26.999Z</time></trkpt><trkpt lat="43.17667625870005" lon="2.989903942226254"><ele>8.4</ele><time>2026-04-10T12:08:27.999Z</time></trkpt><trkpt lat="43.17678972825903" lon="2.989882002882569"><ele>8.0</ele><time>2026-04-10T12:08:29.999Z</time></trkpt><trkpt lat="43.17690305735019" lon="2.989852742954484"><ele>8.0</ele><time>2026-04-10T12:08:31.999Z</time></trkpt><trkpt lat="43.1770085697575" lon="2.9898396438260932"><ele>8.0</ele><time>2026-04-10T12:08:33.999Z</time></trkpt><trkpt lat="43.17710921581842" lon="2.9898283111370585"><ele>8.0</ele><time>2026-04-10T12:08:35.999Z</time></trkpt><trkpt lat="43.17721993466589" lon="2.989807162500945"><ele>8.0</ele><time>2026-04-10T12:08:37.999Z</time></trkpt><trkpt lat="43.17731843872826" lon="2.9897887009578232"><ele>8.0</ele><time>2026-04-10T12:08:39.999Z</time></trkpt><trkpt lat="43.17742119007777" lon="2.989762286578981"><ele>8.8</ele><time>2026-04-10T12:08:41.999Z</time></trkpt><trkpt lat="43.17751516548456" lon="2.989742519694017"><ele>9.600000000000001</ele><time>2026-04-10T12:08:43.999Z</time></trkpt><trkpt lat="43.177615055110245" lon="2.9897282021807015"><ele>10.399999999999999</ele><time>2026-04-10T12:08:45.999Z</time></trkpt><trkpt lat="43.17771720838755" lon="2.989717639609877"><ele>11.2</ele><time>2026-04-10T12:08:47.999Z</time></trkpt><trkpt lat="43.17782431463908" lon="2.989702849719441"><ele>12.0</ele><time>2026-04-10T12:08:49.999Z</time></trkpt><trkpt lat="43.177918857513795" lon="2.9896999895392677"><ele>12.0</ele><time>2026-04-10T12:08:51.999Z</time></trkpt><trkpt lat="43.178006758335975" lon="2.9896897262400484"><ele>12.0</ele><time>2026-04-10T12:08:53.999Z</time></trkpt><trkpt lat="43.17808897406902" lon="2.989685260826888"><ele>12.0</ele><time>2026-04-10T12:08:55.999Z</time></trkpt><trkpt lat="43.17815755251094" lon="2.9896787803237106"><ele>12.0</ele><time>2026-04-10T12:08:57.999Z</time></trkpt><trkpt lat="43.17822577340726" lon="2.989741114875178"><ele>12.0</ele><time>2026-04-10T12:08:59.999Z</time></trkpt><trkpt lat="43.17826948805484" lon="2.9898220258770563"><ele>12.0</ele><time>2026-04-10T12:09:01.999Z</time></trkpt><trkpt lat="43.17829752618685" lon="2.98991308270159"><ele>12.666666666666666</ele><time>2026-04-10T12:09:03.999Z</time></trkpt><trkpt lat="43.17833583450703" lon="2.9899891327452033"><ele>13.333333333333332</ele><time>2026-04-10T12:09:05.999Z</time></trkpt><trkpt lat="43.17832190813393" lon="2.990095891461567"><ele>14.0</ele><time>2026-04-10T12:09:07.999Z</time></trkpt><trkpt lat="43.17827825311073" lon="2.9901985508406974"><ele>14.666666666666666</ele><time>2026-04-10T12:09:09.999Z</time></trkpt><trkpt lat="43.17825275921834" lon="2.9903197997584083"><ele>15.333333333333332</ele><time>2026-04-10T12:09:11.999Z</time></trkpt><trkpt lat="43.17822139481329" lon="2.990442248326876"><ele>16.0</ele><time>2026-04-10T12:09:13.999Z</time></trkpt><trkpt lat="43.17821036847408" lon="2.9905691549981457"><ele>15.666666666666666</ele><time>2026-04-10T12:09:16Z</time></trkpt><trkpt lat="43.17817012405304" lon="2.9906784836040505"><ele>15.333333333333332</ele><time>2026-04-10T12:09:18Z</time></trkpt><trkpt lat="43.17814097754578" lon="2.990790612226565"><ele>15.0</ele><time>2026-04-10T12:09:20Z</time></trkpt><trkpt lat="43.178111329741014" lon="2.990901890617355"><ele>14.666666666666668</ele><time>2026-04-10T12:09:22Z</time></trkpt><trkpt lat="43.17808453357501" lon="2.991008116347464"><ele>14.333333333333334</ele><time>2026-04-10T12:09:24Z</time></trkpt><trkpt lat="43.17805857250255" lon="2.991116559290999"><ele>14.0</ele><time>2026-04-10T12:09:26Z</time></trkpt><trkpt lat="43.17802774223368" lon="2.9912271210087846"><ele>14.000000000000002</ele><time>2026-04-10T12:09:28Z</time></trkpt><trkpt lat="43.17799735396371" lon="2.991336186892199"><ele>14.0</ele><time>2026-04-10T12:09:30Z</time></trkpt><trkpt lat="43.17796585320262" lon="2.991446394741601"><ele>14.0</ele><time>2026-04-10T12:09:32Z</time></trkpt><trkpt lat="43.17793597166021" lon="2.9915585454403395"><ele>14.0</ele><time>2026-04-10T12:09:34Z</time></trkpt><trkpt lat="43.177906621521345" lon="2.9916666520306276"><ele>14.000000000000002</ele><time>2026-04-10T12:09:36Z</time></trkpt><trkpt lat="43.17787926733217" lon="2.9917745911303935"><ele>14.0</ele><time>2026-04-10T12:09:38Z</time></trkpt><trkpt lat="43.177847641881314" lon="2.991881325422669"><ele>14.166666666666668</ele><time>2026-04-10T12:09:40Z</time></trkpt><trkpt lat="43.17781916274685" lon="2.991995292847199"><ele>14.333333333333334</ele><time>2026-04-10T12:09:42Z</time></trkpt><trkpt lat="43.17779098818786" lon="2.9921024068694755"><ele>14.5</ele><time>2026-04-10T12:09:44Z</time></trkpt><trkpt lat="43.17776789063479" lon="2.9922134493636707"><ele>14.666666666666668</ele><time>2026-04-10T12:09:46Z</time></trkpt><trkpt lat="43.1777447846458" lon="2.992336460619484"><ele>14.833333333333334</ele><time>2026-04-10T12:09:48Z</time></trkpt><trkpt lat="43.17770952340133" lon="2.9924460259001786"><ele>15.0</ele><time>2026-04-10T12:09:50Z</time></trkpt><trkpt lat="43.17768745487462" lon="2.9925598162855778"><ele>14.666666666666666</ele><time>2026-04-10T12:09:52Z</time></trkpt><trkpt lat="43.17765735558038" lon="2.992663902747845"><ele>14.333333333333332</ele><time>2026-04-10T12:09:54Z</time></trkpt><trkpt lat="43.1776405416596" lon="2.992775276227817"><ele>14.0</ele><time>2026-04-10T12:09:56Z</time></trkpt><trkpt lat="43.177608414489406" lon="2.9928576374030333"><ele>13.666666666666666</ele><time>2026-04-10T12:09:58Z</time></trkpt><trkpt lat="43.17758703045491" lon="2.992955957792363"><ele>13.333333333333332</ele><time>2026-04-10T12:10:00Z</time></trkpt><trkpt lat="43.17755735398587" lon="2.99304766097119"><ele>13.0</ele><time>2026-04-10T12:10:02Z</time></trkpt><trkpt lat="43.17752691187502" lon="2.9931399076342924"><ele>13.0</ele><time>2026-04-10T12:10:04Z</time></trkpt><trkpt lat="43.17747485608915" lon="2.9932019986265903"><ele>13.0</ele><time>2026-04-10T12:10:06Z</time></trkpt><trkpt lat="43.177431391648284" lon="2.9932670512620034"><ele>13.0</ele><time>2026-04-10T12:10:11Z</time></trkpt><trkpt lat="43.17737309025764" lon="2.993229787715555"><ele>13.0</ele><time>2026-04-10T12:10:23.999Z</time></trkpt><trkpt lat="43.17740522350552" lon="2.9931535939298923"><ele>13.0</ele><time>2026-04-10T12:10:34.999Z</time></trkpt><trkpt lat="43.17735102393711" lon="2.9932018993235263"><ele>13.0</ele><time>2026-04-10T12:11:02.999Z</time></trkpt><trkpt lat="43.17741914035839" lon="2.993237140239426"><ele>13.0</ele><time>2026-04-10T12:11:11.999Z</time></trkpt></trkseg></trk></gpx>